# Wetter Temperatur Luftdruck Luftfeuchtigkeit Sichtweite Windgeschwindigkeit Windrichtung Zeit
1 Clouds 10 1022 96 10000 0.89 152 07:41 02.10.2022
2 Clouds 10 1022 95 447 1.79 211 02:55 02.10.2022
3 Clouds 10 1021 90 2576 0.45 173 00:50 02.10.2022
4 Clouds 11 1021 88 2576 1.92 221 00:31 02.10.2022
5 Rain 11 1020 91 4674 0.45 296 22:53 01.10.2022
6 Rain 9 1019 96 3792 0.45 104 20:54 01.10.2022
7 Rain 10 1019 89 2695 3.13 119 18:51 01.10.2022
8 Rain 10 1017 95 4194 0.89 169 16:42 01.10.2022
9 Rain 10 1016 88 5503 0.45 174 14:42 01.10.2022
10 Clouds 10 1016 88 10000 2.56 217 13:35 01.10.2022
11 Rain 10 1016 84 10000 4.47 182 12:33 01.10.2022
12 Rain 9 1015 83 10000 0.89 176 11:21 01.10.2022
13 Clouds 9 1014 72 10000 1.87 254 10:38 01.10.2022
14 Clouds 8 1015 77 10000 1.8 246 10:20 01.10.2022
15 Clouds 7 1017 93 10000 1.79 180 08:59 01.10.2022
16 Clouds 5 1017 96 10000 0.45 216 07:29 01.10.2022
17 Clouds 7 1016 90 10000 2.24 190 03:36 01.10.2022
18 Clouds 8 1018 93 10000 1.46 205 01:21 01.10.2022
19 Clouds 8 1014 94 10000 1.45 181 22:55 30.09.2022
20 Clouds 8 1014 93 10000 0.45 76 21:41 30.09.2022
21 Clouds 8 1017 95 10000 0.97 160 20:44 30.09.2022
22 Clouds 9 1013 88 10000 0.45 202 20:19 30.09.2022
23 Clouds 10 1013 85 10000 1.79 24 17:40 30.09.2022
24 Clouds 10 1012 80 10000 0.45 359 16:25 30.09.2022
25 Rain 8 1013 93 10000 0.89 331 13:40 30.09.2022
26 Rain 8 1011 91 10000 0.89 313 11:59 30.09.2022
27 Rain 8 1010 92 10000 1.79 321 11:31 30.09.2022
28 Clouds 6 1011 97 10000 0.45 14 08:37 30.09.2022
29 Clouds 6 1010 98 10000 0.45 20 06:27 30.09.2022
30 Clouds 6 1009 96 10000 0.45 57 02:42 30.09.2022
31 Rain 7 1006 95 10000 0.3 77 23:47 29.09.2022
32 Rain 7 1005 94 10000 0.07 337 21:29 29.09.2022
33 Rain 7 1005 94 10000 0.07 337 20:59 29.09.2022
34 Clouds 8 1004 92 10000 0.99 354 18:45 29.09.2022
35 Clouds 8 1004 92 7630 1.05 4 17:32 29.09.2022
36 Rain 8 1004 91 7993 0.45 88 16:28 29.09.2022
37 Rain 8 1003 91 7993 0.45 64 15:36 29.09.2022
38 Rain 8 1003 92 1046 1.3 3 14:35 29.09.2022
39 Clouds 6 1003 96 564 1.37 24 11:48 29.09.2022
40 Rain 6 1002 95 7382 0.87 118 07:26 29.09.2022
41 Rain 5 1004 95 306 0.45 229 02:52 29.09.2022
42 Rain 5 1004 94 121 0.89 152 23:56 28.09.2022
43 Rain 6 1004 94 86 0.45 168 22:58 28.09.2022
44 Rain 6 1003 94 88 0.89 326 21:30 28.09.2022
45 Rain 6 1003 94 88 0.89 326 21:30 28.09.2022
46 Rain 6 1003 94 88 0.89 326 21:30 28.09.2022
47 Rain 6 1002 93 81 1.34 322 20:31 28.09.2022
48 Rain 7 1002 93 550 1.34 326 18:42 28.09.2022
49 Clouds 9 1002 86 6723 0.45 28 15:34 28.09.2022
50 Rain 8 1002 90 5275 0.89 82 13:28 28.09.2022
51 Rain 7 1002 95 10000 0.45 188 11:23 28.09.2022
52 Rain 6 1001 94 7150 3 187 09:18 28.09.2022
53 Rain 6 1001 94 10000 1.34 145 07:40 28.09.2022
54 Rain 5 1002 95 10000 0.89 154 04:34 28.09.2022
55 Rain 6 1006 91 10000 0.89 190 01:38 28.09.2022
56 Rain 6 1007 93 7426 2.45 201 23:27 27.09.2022
57 Rain 6 1006 92 363 1.34 138 21:47 27.09.2022
58 Rain 6 1005 91 437 0.45 146 20:44 27.09.2022
59 Rain 7 1006 88 362 1.79 160 19:48 27.09.2022
60 Rain 8 1005 85 424 1.79 125 18:49 27.09.2022
61 Rain 8 1006 79 1929 0.45 296 17:46 27.09.2022
62 Clouds 8 1005 83 1649 1.34 165 15:58 27.09.2022
63 Rain 7 1005 81 4711 0.45 327 14:58 27.09.2022
64 Clouds 8 1006 73 10000 1.34 10 12:53 27.09.2022
65 Clouds 7 1006 77 10000 1.79 76 12:21 27.09.2022
66 Rain 7 1004 87 162 1.79 126 09:34 27.09.2022
67 Clouds 8 1003 86 2181 0.45 35 06:56 27.09.2022
68 Rain 8 1004 84 10000 0.89 206 02:41 27.09.2022
69 Clouds 8 1004 82 10000 0.45 183 01:35 27.09.2022
70 Clouds 8 1006 81 10000 2.24 186 23:35 26.09.2022
71 Clouds 9 1007 83 10000 1.79 187 22:40 26.09.2022
72 Rain 9 1008 79 10000 0.45 218 20:46 26.09.2022
73 Rain 10 1007 73 10000 0.45 225 19:32 26.09.2022
74 Rain 11 1008 68 10000 1.34 158 18:32 26.09.2022
75 Clouds 13 1007 54 10000 1.34 80 16:41 26.09.2022
76 Clouds 11 1009 68 10000 0.45 38 14:41 26.09.2022
77 Clouds 10 1010 81 10000 0.45 137 11:35 26.09.2022
78 Clouds 9 1011 90 10000 0.89 152 10:41 26.09.2022
79 Clouds 9 1011 90 10000 0.89 152 10:21 26.09.2022
80 Clouds 10 1010 95 10000 0.89 152 09:55 26.09.2022
81 Clouds 9 1010 95 10000 0.45 209 09:24 26.09.2022
82 Clouds 9 1010 95 10000 0.45 209 08:57 26.09.2022
83 Clouds 9 1012 96 10000 0.45 203 02:57 26.09.2022
84 Clouds 9 1013 95 10000 0.45 208 23:57 25.09.2022
85 Clouds 9 1013 95 10000 0.45 141 22:45 25.09.2022
86 Clouds 9 1014 95 10000 0.45 76 21:35 25.09.2022
87 Clouds 9 1014 95 9356 0.45 76 20:49 25.09.2022
88 Clouds 10 1012 94 8739 0.45 224 19:43 25.09.2022
89 Clouds 10 1012 93 5176 0.45 147 18:43 25.09.2022
90 Clouds 11 1012 93 996 0.45 147 18:20 25.09.2022
91 Rain 10 1013 93 1104 1.34 9 16:45 25.09.2022
92 Rain 12 1012 88 9711 0.45 124 15:45 25.09.2022
93 Rain 12 1013 85 10000 0.89 75 14:29 25.09.2022
94 Rain 13 1012 79 10000 1.79 12 12:57 25.09.2022
95 Clouds 11 1013 90 10000 0.45 314 10:36 25.09.2022
96 Clouds 9 1013 92 10000 0.45 167 08:25 25.09.2022
97 Clouds 8 1014 94 10000 0.89 165 06:23 25.09.2022
98 Clouds 8 1015 95 10000 0.89 127 02:57 25.09.2022
99 Clouds 11 1015 93 10000 0.45 206 22:35 24.09.2022
100 Clouds 11 1015 93 10000 1.32 159 20:55 24.09.2022
101 Clouds 12 1014 90 5079 0.45 64 19:23 24.09.2022
102 Clouds 12 1014 91 9869 0.45 19 17:49 24.09.2022
103 Rain 13 1014 85 10000 0.66 293 16:25 24.09.2022
104 Rain 13 1015 81 10000 0.45 7 15:21 24.09.2022
105 Clouds 14 1014 76 10000 0.89 353 13:27 24.09.2022
106 Clouds 14 1014 74 10000 0.89 353 12:50 24.09.2022
107 Clouds 11 1016 87 10000 0.45 347 10:54 24.09.2022
108 Rain 11 1015 84 10000 0.45 166 09:40 24.09.2022
109 Clouds 10 1015 85 10000 1.34 179 08:43 24.09.2022
110 Clouds 10 1015 85 10000 0.89 158 07:24 24.09.2022
111 Clouds 10 1015 81 10000 1.34 187 04:40 24.09.2022
112 Clouds 10 1017 79 10000 1.79 177 02:19 24.09.2022
113 Clouds 11 1018 78 10000 0.45 206 22:29 23.09.2022
114 Clouds 11 1018 76 10000 0.45 209 21:28 23.09.2022
115 Clouds 12 1018 74 10000 1.79 174 20:56 23.09.2022
116 Clouds 12 1018 72 10000 1.79 174 20:20 23.09.2022
117 Clouds 17 1016 51 10000 1.53 318 18:27 23.09.2022
118 Clouds 18 1018 48 10000 2.13 317 13:45 23.09.2022
119 Clouds 13 1018 68 10000 1.42 299 10:45 23.09.2022
120 Clouds 10 1021 62 10000 1.05 212 09:29 23.09.2022
121 Clear 8 1022 59 10000 0.45 167 04:59 23.09.2022
122 Clear 6 1020 89 10000 0.89 214 23:31 22.09.2022
123 Clear 7 1020 88 10000 0.45 215 22:41 22.09.2022
124 Clear 7 1020 88 10000 0.45 215 22:19 22.09.2022
125 Clear 9 1024 80 10000 1.71 172 20:45 22.09.2022
126 Clear 10 1023 75 10000 0.68 44 19:23 22.09.2022
127 Clear 16 1019 53 10000 1.34 303 16:53 22.09.2022
128 Clouds 12 1022 61 10000 0.89 55 11:58 22.09.2022
129 Clouds 9 1024 69 10000 0.68 3 10:20 22.09.2022
130 Clouds 6 1026 72 10000 0.45 151 08:39 22.09.2022
131 Clear 3 1023 88 10000 0.45 159 06:27 22.09.2022
132 Clear 4 1024 89 10000 0.45 156 02:39 22.09.2022
133 Clear 6 1024 86 10000 0.45 194 22:32 21.09.2022
134 Clear 8 1022 81 10000 0.45 149 21:38 21.09.2022
135 Clear 9 1026 71 10000 0.89 152 19:36 21.09.2022
136 Clear 14 1020 55 10000 2.68 292 17:46 21.09.2022
137 Clear 15 1021 53 10000 1.79 285 16:22 21.09.2022
138 Clear 15 1021 53 10000 1.79 285 16:22 21.09.2022
139 Clear 14 1021 52 10000 2.24 352 13:57 21.09.2022
140 Clouds 12 1023 59 10000 0.89 19 12:19 21.09.2022
141 Clouds 9 1023 69 10000 0.89 346 11:28 21.09.2022
142 Clouds 8 1024 65 10000 1.46 89 09:47 21.09.2022
143 Clouds 4 1029 77 10000 0.45 157 08:53 21.09.2022
144 Clouds 3 1026 89 10000 1.63 127 06:20 21.09.2022
145 Clouds 6 1026 88 10000 0.45 85 02:44 21.09.2022
146 Clouds 6 1023 89 10000 0.45 85 02:20 21.09.2022
147 Clouds 7 1024 88 10000 0.45 61 00:26 21.09.2022
148 Clouds 7 1026 85 10000 0.45 164 22:30 20.09.2022
149 Clouds 8 1025 76 10000 0.45 355 20:37 20.09.2022
150 Clouds 10 1022 67 10000 0.89 357 19:24 20.09.2022
151 Clouds 12 1021 65 10000 1.34 302 15:58 20.09.2022
152 Clouds 12 1021 63 10000 1.34 302 14:35 20.09.2022
153 Clear 11 1021 63 10000 0.89 137 12:45 20.09.2022
154 Clouds 5 1027 84 10000 0.45 144 08:51 20.09.2022
155 Clouds 3 1024 90 10000 0.45 144 08:25 20.09.2022
156 Clouds 4 1023 87 10000 0.45 213 04:44 20.09.2022
157 Clouds 6 1024 85 10000 0.89 151 02:37 20.09.2022
158 Clouds 6 1024 85 10000 1.79 182 22:50 19.09.2022
159 Clouds 6 1026 80 10000 1.79 185 21:38 19.09.2022
160 Clear 7 1025 78 10000 1.79 181 20:45 19.09.2022
161 Clouds 9 1022 68 10000 0.45 212 19:42 19.09.2022
162 Clouds 12 1021 53 10000 0.89 353 17:39 19.09.2022
163 Clouds 12 1020 56 10000 0.45 5 13:56 19.09.2022
164 Clouds 11 1021 63 10000 0.89 63 12:48 19.09.2022
165 Clouds 7 1020 87 10000 1.79 165 10:31 19.09.2022
166 Clouds 6 1019 92 306 0.89 161 08:42 19.09.2022
167 Rain 7 1017 85 328 0.89 83 04:39 19.09.2022
168 Rain 9 1017 66 3303 2.24 85 01:53 19.09.2022
169 Rain 10 1017 67 10000 0.45 183 23:22 18.09.2022
170 Rain 10 1017 74 10000 2.84 238 21:32 18.09.2022
171 Clouds 10 1018 70 10000 0.45 319 19:58 18.09.2022
172 Clouds 12 1019 65 10000 0.45 68 17:53 18.09.2022
173 Rain 12 1019 60 10000 2.59 259 16:59 18.09.2022
174 Clouds 12 1020 60 10000 0.45 167 14:52 18.09.2022
175 Clouds 11 1022 62 10000 2.67 252 13:46 18.09.2022
176 Clouds 10 1020 67 10000 1.34 312 12:33 18.09.2022
177 Clouds 7 1019 89 10000 0.45 251 10:44 18.09.2022
178 Rain 5 1020 95 119 0.89 52 03:37 18.09.2022
179 Rain 5 1021 94 98 0.89 230 01:23 18.09.2022
180 Rain 4 1020 95 72 0.89 168 23:59 17.09.2022
181 Rain 4 1018 93 140 0.89 156 21:36 17.09.2022
182 Rain 5 1018 92 73 1.79 147 19:40 17.09.2022
183 Rain 6 1016 90 68 0.89 212 18:46 17.09.2022
184 Clouds 6 1016 90 63 1.54 247 15:51 17.09.2022
185 Clouds 6 1016 89 45 0.89 95 13:38 17.09.2022
186 Clouds 5 1016 92 141 0.89 132 10:56 17.09.2022
187 Rain 4 1017 94 87 1.34 165 08:34 17.09.2022
188 Rain 5 1013 92 116 0.89 165 06:24 17.09.2022
189 Rain 8 1013 91 2988 1.34 140 23:57 16.09.2022
190 Rain 8 1014 91 6013 0.45 174 22:51 16.09.2022
191 Rain 9 1013 94 2298 0.45 338 20:54 16.09.2022
192 Clouds 10 1012 93 284 0.45 115 19:50 16.09.2022
193 Rain 11 1012 88 8561 0.89 109 16:30 16.09.2022
194 Clouds 14 1010 76 10000 2.64 285 14:53 16.09.2022
195 Clouds 15 1011 70 10000 0.89 295 13:42 16.09.2022
196 Clouds 13 1012 90 10000 0.45 5 10:46 16.09.2022
197 Clouds 11 1012 96 7555 0.45 141 08:19 16.09.2022
198 Clouds 11 1012 96 7433 0.89 157 06:48 16.09.2022
199 Clouds 11 1012 96 1130 0.89 157 06:25 16.09.2022
200 Clouds 12 1013 95 3827 0.45 45 02:37 16.09.2022
201 Clouds 14 1012 96 6844 0.89 259 22:20 15.09.2022
202 Clouds 14 1012 96 6844 0.89 259 22:20 15.09.2022
203 Rain 14 1012 93 10000 0.89 173 20:40 15.09.2022
204 Rain 14 1012 95 10000 0.89 22 19:46 15.09.2022
205 Rain 15 1011 87 7243 0.45 221 18:29 15.09.2022
206 Clouds 16 1011 83 7243 0.45 263 17:31 15.09.2022
207 Rain 16 1011 85 10000 0.45 189 15:50 15.09.2022
208 Clouds 17 1011 76 9344 0.45 78 13:19 15.09.2022
209 Clouds 16 1011 87 10000 0.89 159 11:48 15.09.2022
210 Clouds 15 1011 89 10000 0.89 148 09:46 15.09.2022
211 Clouds 14 1010 91 10000 1.79 182 07:45 15.09.2022
212 Rain 15 1011 90 10000 3.13 184 03:49 15.09.2022
213 Clouds 16 1010 88 10000 0.45 245 23:32 14.09.2022
214 Clouds 16 1011 93 10000 0.45 101 20:48 14.09.2022
215 Rain 17 1010 86 10000 1.34 137 19:33 14.09.2022
216 Rain 17 1010 86 4121 0.45 29 18:26 14.09.2022
217 Clouds 19 1009 80 8628 0.45 14 16:37 14.09.2022
218 Clouds 21 1010 71 10000 0.89 233 15:29 14.09.2022
219 Clouds 24 1010 55 10000 1.79 11 12:57 14.09.2022
220 Clouds 20 1011 72 10000 2.09 239 10:40 14.09.2022
221 Clouds 18 1011 78 10000 0.89 173 08:41 14.09.2022
222 Clouds 17 1011 77 10000 0.89 163 06:50 14.09.2022
223 Rain 17 1011 76 10000 2.05 217 06:31 14.09.2022
224 Clouds 16 1011 81 10000 0.45 201 03:21 14.09.2022
225 Clouds 16 1012 83 10000 0.89 98 01:39 14.09.2022
226 Clouds 16 1012 85 10000 0.89 98 01:19 14.09.2022
227 Rain 17 1012 83 10000 2.15 174 23:55 13.09.2022
228 Clouds 17 1012 82 10000 0.45 209 23:37 13.09.2022
229 Clouds 17 1012 80 10000 0.45 209 23:19 13.09.2022
230 Clouds 17 1011 81 10000 2.35 182 22:32 13.09.2022
231 Clouds 19 1012 69 10000 0.89 226 21:39 13.09.2022
232 Clouds 22 1012 64 10000 1.41 178 19:26 13.09.2022
233 Clouds 26 1013 43 10000 1.79 337 16:45 13.09.2022
234 Clouds 27 1013 38 10000 1.79 329 15:38 13.09.2022
235 Clouds 26 1013 40 10000 1.79 5 13:41 13.09.2022
236 Clouds 23 1014 48 10000 1.11 269 11:23 13.09.2022
237 Clouds 13 1015 82 10000 2.72 182 08:18 13.09.2022
238 Clear 13 1015 42 10000 2.95 185 02:58 13.09.2022
239 Clouds 12 1016 82 10000 2.64 187 23:23 12.09.2022
240 Clouds 12 1017 83 10000 0.45 221 22:44 12.09.2022
241 Clouds 13 1017 80 10000 0.45 205 21:35 12.09.2022
242 Clouds 15 1016 71 10000 1.55 181 20:23 12.09.2022
243 Clouds 21 1016 45 10000 0.89 300 18:40 12.09.2022
244 Clouds 22 1016 44 10000 1.34 355 15:53 12.09.2022
245 Clear 19 1017 50 10000 0.45 6 12:35 12.09.2022
246 Clear 15 1018 45 10000 0.45 166 10:31 12.09.2022
247 Clear 8 1018 59 10000 1.77 173 07:40 12.09.2022
248 Clear 7 1018 95 10000 0.45 206 04:36 12.09.2022
249 Clear 8 1019 95 10000 0.45 209 02:24 12.09.2022
250 Clear 11 1020 92 10000 1.73 156 22:46 11.09.2022
251 Clear 12 1020 90 10000 0.45 179 21:27 11.09.2022
252 Clear 13 1019 87 10000 0.45 241 20:44 11.09.2022
253 Clouds 16 1019 76 10000 0.89 293 19:39 11.09.2022
254 Clouds 16 1019 76 10000 0.89 293 19:18 11.09.2022
255 Clouds 17 1020 68 10000 1.79 186 17:28 11.09.2022
256 Clouds 17 1020 67 10000 1.79 139 15:51 11.09.2022
257 Clouds 16 1019 56 10000 1.98 307 13:26 11.09.2022
258 Rain 13 1021 91 10000 0.89 79 11:26 11.09.2022
259 Clouds 11 1021 91 10000 0.89 196 08:25 11.09.2022
260 Clouds 11 1021 90 10000 1.34 148 05:30 11.09.2022
261 Clouds 12 1021 83 8877 0.89 89 23:51 10.09.2022
262 Clouds 12 1019 86 10000 1.34 179 22:23 10.09.2022
263 Clouds 13 1018 85 10000 0.89 129 20:34 10.09.2022
264 Rain 13 1019 78 10000 0.45 231 19:44 10.09.2022
265 Rain 14 1019 76 10000 0.45 231 19:25 10.09.2022
266 Clouds 15 1018 65 10000 1.61 284 17:49 10.09.2022
267 Clouds 13 1019 81 10000 0.45 12 15:35 10.09.2022
268 Rain 13 1019 86 10000 2.24 167 13:41 10.09.2022
269 Clouds 13 1019 85 10000 1.34 163 12:30 10.09.2022
270 Rain 12 1018 94 10000 2.68 68 10:31 10.09.2022
271 Clouds 11 1018 95 10000 1.53 180 08:42 10.09.2022
272 Rain 11 1019 93 10000 1.62 194 08:20 10.09.2022
273 Clouds 11 1019 91 10000 0.45 207 03:48 10.09.2022
274 Rain 12 1019 87 10000 0.89 173 23:36 09.09.2022
275 Clouds 12 1019 88 10000 1.79 351 22:36 09.09.2022
276 Clouds 13 1017 86 10000 0.89 118 20:57 09.09.2022
277 Clouds 14 1017 84 10000 0.45 47 20:19 09.09.2022
278 Clouds 14 1016 82 10000 0.45 212 19:22 09.09.2022
279 Clouds 14 1017 87 10000 1.34 202 17:19 09.09.2022
280 Clouds 14 1017 87 10000 0.45 358 15:19 09.09.2022
281 Rain 14 1017 88 10000 2.24 146 13:31 09.09.2022
282 Clouds 15 1017 77 10000 0.45 158 10:42 09.09.2022
283 Clouds 15 1017 77 10000 0.45 158 10:42 09.09.2022
284 Clouds 13 1016 84 10000 0.45 225 07:45 09.09.2022
285 Clouds 14 1016 82 10000 0.79 163 03:34 09.09.2022
286 Clouds 15 1016 81 10000 0.89 210 22:34 08.09.2022
287 Clouds 15 1016 80 10000 0.89 210 21:51 08.09.2022
288 Clouds 15 1017 79 10000 0.41 214 20:49 08.09.2022
289 Clouds 15 1017 79 10000 0.5 193 20:25 08.09.2022
290 Clouds 16 1015 75 10000 0.53 286 18:43 08.09.2022
291 Clouds 21 1015 55 10000 0.45 175 17:23 08.09.2022
292 Clouds 21 1015 51 10000 0.89 132 15:18 08.09.2022
293 Clouds 17 1015 70 10000 0.45 170 13:28 08.09.2022
294 Clouds 16 1015 79 10000 0.89 201 12:39 08.09.2022
295 Rain 15 1015 87 10000 1.34 126 10:59 08.09.2022
296 Rain 13 1016 92 4241 1.79 132 09:26 08.09.2022
297 Rain 13 1016 92 4241 1.79 132 09:26 08.09.2022
298 Rain 14 1015 90 2202 1.79 131 06:53 08.09.2022
299 Rain 15 1014 91 10000 0.35 220 03:23 08.09.2022
300 Rain 16 1014 87 10000 0.35 220 02:36 08.09.2022
301 Rain 16 1014 87 10000 2.44 182 02:18 08.09.2022
302 Clouds 18 1015 81 10000 0.45 139 22:56 07.09.2022
303 Rain 18 1014 82 10000 0.45 222 21:44 07.09.2022
304 Clouds 18 1014 82 10000 0.45 222 21:21 07.09.2022
305 Clouds 19 1014 75 10000 0.89 205 20:22 07.09.2022
306 Clouds 24 1015 49 10000 1.34 172 18:41 07.09.2022
307 Clouds 25 1016 47 10000 0.45 296 15:41 07.09.2022
308 Clouds 18 1019 82 10000 0.45 146 10:51 07.09.2022
309 Clouds 18 1018 86 10000 0.54 293 10:30 07.09.2022
310 Rain 15 1018 90 10000 0.45 127 07:43 07.09.2022
311 Clouds 16 1018 86 10000 0.45 273 04:46 07.09.2022
312 Clear 16 1018 90 10000 0.45 207 00:26 07.09.2022
313 Clear 17 1019 89 10000 0.45 238 21:47 06.09.2022
314 Clear 17 1019 88 10000 0.45 238 21:27 06.09.2022
315 Clouds 21 1019 76 10000 1.7 83 19:22 06.09.2022
316 Rain 22 1019 72 10000 0.45 199 18:27 06.09.2022
317 Clouds 22 1019 71 10000 0.89 357 17:23 06.09.2022
318 Clouds 23 1019 67 10000 0.89 349 16:40 06.09.2022
319 Clouds 24 1019 63 10000 0.89 306 15:23 06.09.2022
320 Clouds 24 1020 60 10000 0.89 97 13:46 06.09.2022
321 Clouds 24 1020 60 10000 0.89 97 13:26 06.09.2022
322 Clouds 22 1021 59 10000 0.89 41 12:37 06.09.2022
323 Clouds 20 1019 46 10000 0.24 315 10:46 06.09.2022
324 Rain 15 1022 93 10000 2.24 186 08:54 06.09.2022
325 Rain 15 1023 90 10000 0.45 239 07:51 06.09.2022
326 Clouds 14 1022 82 10000 0.45 177 04:48 06.09.2022
327 Clear 15 1021 81 10000 0.45 231 23:42 05.09.2022
328 Clear 16 1021 80 10000 0.45 166 22:40 05.09.2022
329 Clear 18 1021 73 10000 1.34 166 20:58 05.09.2022
330 Clouds 19 1021 70 10000 0.45 179 19:50 05.09.2022
331 Clouds 22 1021 72 10000 1.24 34 18:49 05.09.2022
332 Clouds 25 1021 43 10000 0.89 312 18:22 05.09.2022
333 Clouds 25 1021 45 10000 0.45 324 17:30 05.09.2022
334 Clouds 25 1022 46 10000 1.34 342 15:52 05.09.2022
335 Clouds 24 1023 51 10000 0.45 357 13:27 05.09.2022
336 Clouds 23 1023 56 10000 0.89 45 12:28 05.09.2022
337 Clouds 20 1023 62 10000 0.45 157 10:24 05.09.2022
338 Clouds 12 1023 91 10000 2.35 163 06:46 05.09.2022
339 Clouds 12 1023 92 10000 0.45 203 02:49 05.09.2022
340 Clear 15 1023 84 10000 0.45 151 23:28 04.09.2022
341 Clear 15 1023 84 10000 1.34 153 22:28 04.09.2022
342 Clear 16 1023 82 10000 1.34 164 21:34 04.09.2022
343 Clouds 20 1022 68 10000 0.45 319 19:38 04.09.2022
344 Clouds 23 1021 55 10000 0.89 299 18:20 04.09.2022
345 Clouds 23 1021 54 10000 2.34 349 16:56 04.09.2022
346 Clouds 22 1021 56 10000 0.89 338 14:33 04.09.2022
347 Clouds 22 1021 58 10000 0.89 338 13:49 04.09.2022
348 Clear 21 1021 63 10000 0.45 76 12:18 04.09.2022
349 Clear 20 1020 55 10000 1.32 347 10:47 04.09.2022
350 Clear 11 1020 94 10000 1.51 166 08:20 04.09.2022
351 Clear 11 1019 95 10000 0.45 244 05:35 04.09.2022
352 Clear 13 1019 89 10000 0.45 146 00:53 04.09.2022
353 Rain 14 1018 85 10000 0.89 161 22:24 03.09.2022
354 Clouds 15 1017 84 10000 0.45 118 21:23 03.09.2022
355 Clouds 15 1017 84 10000 0.45 118 21:23 03.09.2022
356 Clouds 17 1017 79 10000 0.45 264 19:42 03.09.2022
357 Clouds 16 1017 82 7275 0.89 172 17:28 03.09.2022
358 Clouds 16 1017 84 7275 2.24 149 16:31 03.09.2022
359 Rain 21 1015 59 10000 1.34 338 14:45 03.09.2022
360 Rain 20 1015 63 10000 1.34 338 14:26 03.09.2022
361 Clouds 21 1016 55 10000 2.24 328 12:32 03.09.2022
362 Clouds 19 1015 55 10000 0.89 102 10:49 03.09.2022
363 Clouds 14 1016 80 10000 0.45 66 08:29 03.09.2022
364 Clouds 14 1016 80 10000 0.45 66 08:29 03.09.2022
365 Clouds 13 1016 80 10000 3.13 163 06:58 03.09.2022
366 Clouds 13 1014 82 10000 2.29 173 04:38 03.09.2022
367 Rain 15 1015 82 10000 1.34 166 00:32 03.09.2022
368 Clouds 16 1015 82 10000 1.34 179 23:20 02.09.2022
369 Rain 17 1015 81 10000 0.89 180 20:59 02.09.2022
370 Rain 17 1015 77 10000 0.89 180 20:39 02.09.2022
371 Clouds 19 1014 72 10000 0.3 77 19:30 02.09.2022
372 Clouds 21 1014 63 10000 0.45 305 18:43 02.09.2022
373 Clouds 21 1014 62 10000 0.45 305 18:24 02.09.2022
374 Clouds 22 1015 61 10000 0.89 277 16:48 02.09.2022
375 Clouds 21 1015 61 10000 3.13 358 15:21 02.09.2022
376 Clear 19 1016 66 10000 0.45 337 12:39 02.09.2022
377 Clear 16 1016 73 10000 0.45 347 10:22 02.09.2022
378 Clear 14 1017 73 10000 0.78 319 09:40 02.09.2022
379 Clear 12 1018 75 10000 0.45 156 07:32 02.09.2022
380 Clear 8 1017 95 10000 0.45 218 06:38 02.09.2022
381 Clear 10 1018 92 10000 0.45 237 02:52 02.09.2022
382 Clouds 13 1019 88 10000 0.45 197 22:30 01.09.2022
383 Clouds 14 1019 83 10000 0.89 184 21:43 01.09.2022
384 Clouds 15 1018 80 10000 1.5 119 21:25 01.09.2022
385 Clouds 15 1019 79 10000 0.89 126 20:43 01.09.2022
386 Clouds 18 1018 67 10000 0.45 341 18:54 01.09.2022
387 Clouds 18 1018 73 10000 1.79 112 17:22 01.09.2022
388 Rain 18 1018 72 10000 0.89 49 15:56 01.09.2022
389 Clouds 18 1018 73 10000 0.45 3 14:22 01.09.2022
390 Clouds 17 1018 74 10000 2.24 28 12:58 01.09.2022
391 Clouds 16 1019 74 10000 0.45 11 11:52 01.09.2022
392 Clouds 16 1019 75 10000 0.45 11 11:31 01.09.2022
393 Clouds 16 1018 76 10000 0.89 93 10:23 01.09.2022
394 Clouds 13 1018 93 10000 0.99 111 07:51 01.09.2022
395 Clouds 12 1018 93 10000 0.45 65 06:22 01.09.2022
396 Clouds 11 1022 95 10000 1.14 133 01:32 01.09.2022
397 Clouds 13 1021 94 10000 0.45 21 23:29 31.08.2022
398 Clouds 14 1020 91 10000 0.45 183 21:30 31.08.2022
399 Clouds 14 1020 88 10000 2.68 9 19:46 31.08.2022
400 Clouds 15 1020 89 10000 1.44 66 17:52 31.08.2022
401 Clouds 15 1021 88 10000 0.45 234 15:44 31.08.2022
402 Clouds 16 1020 90 226 0.89 63 13:57 31.08.2022
403 Rain 14 1020 96 577 0.89 331 12:20 31.08.2022
404 Rain 15 1020 95 705 0.45 357 10:30 31.08.2022
405 Rain 15 1019 94 9801 0.45 135 08:34 31.08.2022
406 Rain 15 1019 89 9353 0.45 224 03:46 31.08.2022
407 Rain 18 1018 76 10000 1.34 209 22:44 30.08.2022
408 Clouds 18 1018 74 10000 1.34 176 21:33 30.08.2022
409 Clouds 19 1018 71 10000 0.45 204 20:38 30.08.2022
410 Clouds 25 1018 51 10000 2.24 347 17:25 30.08.2022
411 Clouds 25 1019 51 10000 4.47 336 14:41 30.08.2022
412 Clouds 25 1019 54 10000 2.68 352 12:54 30.08.2022
413 Clouds 22 1020 62 10000 0.45 121 11:20 30.08.2022
414 Clouds 20 1019 65 10000 0.45 177 10:20 30.08.2022
415 Clear 12 1020 93 10000 0.45 239 06:49 30.08.2022
416 Clouds 14 1020 92 10000 0.45 233 01:44 30.08.2022
417 Clouds 16 1020 87 10000 0.45 159 22:44 29.08.2022
418 Clouds 17 1020 84 10000 1.2 162 21:55 29.08.2022
419 Clouds 18 1020 82 10000 0.45 232 21:23 29.08.2022
420 Clouds 18 1020 82 10000 0.45 232 21:23 29.08.2022
421 Clouds 21 1019 67 10000 0.45 356 19:41 29.08.2022
422 Clear 24 1019 56 10000 2.68 330 17:39 29.08.2022
423 Clear 25 1019 55 10000 2.68 330 17:18 29.08.2022
424 Clear 25 1020 54 10000 1.34 328 15:38 29.08.2022
425 Clear 24 1020 59 10000 0.45 13 13:58 29.08.2022
426 Clear 21 1020 68 10000 2.24 332 12:32 29.08.2022
427 Clear 19 1020 75 10000 1.79 51 10:49 29.08.2022
428 Clear 16 1020 84 10000 0.89 168 09:20 29.08.2022
429 Clouds 11 1020 95 10000 1.43 163 07:20 29.08.2022
430 Clouds 13 1020 94 10000 0.89 158 02:33 29.08.2022
431 Clouds 15 1020 91 10000 0.45 222 23:36 28.08.2022
432 Clouds 16 1019 87 10000 0.92 93 21:48 28.08.2022
433 Clouds 17 1019 86 10000 1.08 70 21:27 28.08.2022
434 Clouds 16 1020 92 10000 0.45 90 20:19 28.08.2022
435 Clouds 18 1018 87 10000 0.89 329 18:22 28.08.2022
436 Clouds 18 1017 83 10000 0.45 354 17:59 28.08.2022
437 Clouds 20 1018 74 10000 0.45 1 16:44 28.08.2022
438 Clouds 20 1018 74 10000 0.45 335 15:33 28.08.2022
439 Clouds 21 1018 69 10000 2.24 353 13:32 28.08.2022
440 Clouds 20 1018 75 8008 1.34 318 11:59 28.08.2022
441 Clouds 17 1018 84 10000 1.42 356 10:20 28.08.2022
442 Clouds 14 1018 96 10000 0.71 43 08:52 28.08.2022
443 Clouds 13 1017 96 10000 0.45 155 07:53 28.08.2022
444 Clouds 13 1017 96 10000 0.73 153 07:23 28.08.2022
445 Clouds 15 1017 95 10000 0.45 186 00:37 28.08.2022
446 Clouds 15 1017 95 10000 0.69 218 23:20 27.08.2022
447 Rain 15 1017 96 10000 0.45 140 22:27 27.08.2022
448 Rain 16 1016 95 10000 1 148 20:35 27.08.2022
449 Rain 17 1016 91 10000 0.89 347 18:57 27.08.2022
450 Rain 20 1015 77 10000 0.45 290 16:26 27.08.2022
451 Clouds 21 1015 70 10000 0.89 338 15:31 27.08.2022
452 Clouds 20 1016 73 10000 1.88 8 13:19 27.08.2022
453 Clouds 19 1016 79 10000 0.89 57 11:59 27.08.2022
454 Clouds 16 1016 91 10000 0.45 356 10:27 27.08.2022
455 Clouds 16 1016 96 10000 0.45 18 09:33 27.08.2022
456 Rain 15 1015 94 10000 0.45 66 06:52 27.08.2022
457 Rain 15 1017 93 10000 0.45 184 00:52 27.08.2022
458 Rain 15 1017 93 10000 0.45 184 00:52 27.08.2022
459 Rain 16 1017 86 10000 0.89 92 23:46 26.08.2022
460 Clouds 17 1015 92 10000 1.3 208 21:46 26.08.2022
461 Clouds 21 1013 53 10000 0.45 27 19:50 26.08.2022
462 Clouds 22 1013 56 10000 1.51 325 17:53 26.08.2022
463 Clouds 26 1014 44 10000 1.79 348 15:45 26.08.2022
464 Clouds 27 1014 44 10000 1.79 348 15:23 26.08.2022
465 Clouds 25 1015 50 10000 1.34 293 12:59 26.08.2022
466 Clouds 23 1015 53 10000 0.45 18 11:47 26.08.2022
467 Clouds 23 1015 54 10000 0.45 18 11:21 26.08.2022
468 Clouds 19 1016 58 10000 0.45 164 08:21 26.08.2022
469 Clouds 15 1016 85 10000 2.05 169 03:51 26.08.2022
470 Clear 17 1017 72 10000 0.89 175 23:47 25.08.2022
471 Clear 18 1017 69 10000 1.34 161 22:20 25.08.2022
472 Clear 19 1017 62 10000 0.45 200 20:54 25.08.2022
473 Clear 22 1015 51 10000 0.45 326 19:35 25.08.2022
474 Clear 26 1015 44 10000 2.09 335 18:29 25.08.2022
475 Clear 26 1015 45 10000 2.09 335 17:31 25.08.2022
476 Clear 27 1016 39 10000 1.79 9 16:40 25.08.2022
477 Clear 26 1016 45 10000 0.45 211 15:29 25.08.2022
478 Clear 26 1017 48 10000 2.68 325 13:51 25.08.2022
479 Clear 21 1017 57 10000 1.34 12 10:49 25.08.2022
480 Clear 19 1018 63 10000 0.89 162 09:52 25.08.2022
481 Clear 16 1019 67 10000 0.45 142 07:35 25.08.2022
482 Clear 12 1019 88 10000 1.91 162 02:41 25.08.2022
483 Clouds 15 1020 79 10000 0.45 214 23:30 24.08.2022
484 Clouds 15 1020 77 10000 0.45 214 22:54 24.08.2022
485 Clear 17 1020 70 10000 0.89 161 21:39 24.08.2022
486 Clear 17 1020 69 10000 0.89 161 21:20 24.08.2022
487 Clear 23 1019 45 10000 0.89 304 19:43 24.08.2022
488 Clouds 25 1018 41 10000 2.24 321 16:51 24.08.2022
489 Clouds 25 1018 40 10000 2.24 321 15:53 24.08.2022
490 Clouds 25 1019 42 10000 2.68 313 14:58 24.08.2022
491 Clouds 22 1019 48 10000 1.79 5 12:28 24.08.2022
492 Clouds 21 1020 54 10000 0.45 342 11:18 24.08.2022
493 Clear 16 1021 59 10000 0.45 145 08:38 24.08.2022
494 Clear 10 1020 85 10000 2.06 148 03:54 24.08.2022
495 Clear 14 1021 73 10000 0.45 153 23:53 23.08.2022
496 Clear 15 1021 66 10000 1.34 168 22:35 23.08.2022
497 Clear 16 1020 63 10000 0.45 263 21:46 23.08.2022
498 Clear 18 1019 53 10000 0.89 213 20:33 23.08.2022
499 Clear 21 1018 43 10000 1.79 329 18:53 23.08.2022
500 Clear 24 1018 36 10000 2.24 336 17:53 23.08.2022
501 Clear 24 1018 38 10000 1.34 298 17:18 23.08.2022
502 Clear 24 1018 38 10000 1.34 298 17:18 23.08.2022
503 Clear 24 1018 39 10000 1.34 334 15:49 23.08.2022
504 Clear 22 1019 42 10000 2.24 13 13:36 23.08.2022
505 Clear 22 1019 42 10000 1.34 58 12:45 23.08.2022
506 Clear 20 1019 55 10000 0.45 55 10:53 23.08.2022
507 Clear 18 1019 66 10000 0.89 350 10:32 23.08.2022
508 Clear 15 1020 70 10000 0.45 168 08:55 23.08.2022
509 Clear 14 1020 70 10000 0.45 168 08:22 23.08.2022
510 Clear 11 1019 83 10000 0.89 153 07:48 23.08.2022
511 Clear 10 1018 92 10000 0.45 226 06:58 23.08.2022
512 Clear 10 1018 92 10000 0.45 189 05:52 23.08.2022
513 Clear 13 1018 84 10000 1.34 304 01:42 23.08.2022
514 Clear 13 1017 83 10000 0.45 195 00:26 23.08.2022
515 Clear 15 1017 76 10000 0.89 173 23:29 22.08.2022
516 Clear 16 1018 71 10000 0.89 166 21:51 22.08.2022
517 Clouds 18 1016 66 10000 1.34 327 19:51 22.08.2022
518 Clouds 21 1015 53 10000 2.34 14 19:27 22.08.2022
519 Clouds 22 1015 51 10000 1.34 344 17:59 22.08.2022
520 Clouds 23 1016 47 10000 1.34 283 15:40 22.08.2022
521 Clouds 22 1016 51 10000 1.79 314 14:46 22.08.2022
522 Clear 19 1017 64 10000 0.45 18 11:20 22.08.2022
523 Clear 14 1017 82 10000 0.45 80 08:54 22.08.2022
524 Clouds 11 1017 90 10000 0.45 168 04:42 22.08.2022
525 Clouds 13 1017 86 10000 1.34 182 00:53 22.08.2022
526 Clouds 13 1017 85 10000 1.34 182 00:34 22.08.2022
527 Clear 14 1017 82 10000 0.89 155 22:56 21.08.2022
528 Clear 16 1017 77 10000 0.89 149 21:45 21.08.2022
529 Clear 16 1017 76 10000 0.45 216 20:58 21.08.2022
530 Clouds 21 1016 53 10000 0.89 288 19:28 21.08.2022
531 Clear 22 1016 52 10000 2.24 350 18:21 21.08.2022
532 Clear 23 1016 49 10000 2.24 343 16:21 21.08.2022
533 Clear 23 1017 48 10000 1.79 358 15:43 21.08.2022
534 Clear 22 1015 51 10000 2.72 354 14:35 21.08.2022
535 Clear 22 1018 53 10000 1.34 293 13:43 21.08.2022
536 Clear 21 1018 57 10000 1.79 352 12:47 21.08.2022
537 Clear 17 1019 80 10000 0.45 12 09:56 21.08.2022
538 Clear 14 1020 93 10000 0.68 21 08:56 21.08.2022
539 Clear 13 1020 93 10000 0.45 232 08:38 21.08.2022
540 Clear 11 1020 94 10000 0.45 176 07:28 21.08.2022
541 Clear 12 1020 95 10000 0.89 153 04:26 21.08.2022
542 Clouds 14 1021 93 10000 0.45 193 00:53 21.08.2022
543 Clouds 14 1021 94 10000 0.89 211 22:59 20.08.2022
544 Rain 15 1021 94 10000 0.89 187 21:43 20.08.2022
545 Rain 15 1021 93 10000 0.45 24 20:44 20.08.2022
546 Rain 16 1021 92 10000 0.89 176 19:41 20.08.2022
547 Rain 17 1019 83 8767 0.89 150 18:35 20.08.2022
548 Rain 19 1019 80 10000 0.45 21 17:58 20.08.2022
549 Clouds 19 1019 76 10000 0.45 334 17:18 20.08.2022
550 Rain 18 1019 77 10000 0.89 191 15:50 20.08.2022
551 Clouds 21 1019 63 10000 2.03 316 13:36 20.08.2022
552 Clouds 18 1019 85 10000 1.79 188 11:53 20.08.2022
553 Rain 15 1019 97 10000 0.45 200 09:43 20.08.2022
554 Clouds 14 1019 98 10000 0.45 200 08:53 20.08.2022
555 Rain 14 1018 97 10000 0.45 202 05:58 20.08.2022
556 Clouds 14 1018 97 10000 0.89 97 03:28 20.08.2022
557 Rain 14 1019 97 10000 0.45 182 00:51 20.08.2022
558 Rain 14 1018 97 4742 1.79 152 23:19 19.08.2022
559 Rain 14 1019 97 4742 0.45 217 22:35 19.08.2022
560 Rain 15 1017 97 4539 0.45 205 20:28 19.08.2022
561 Rain 15 1017 96 4020 0.45 121 18:46 19.08.2022
562 Rain 16 1015 94 902 2.32 297 15:21 19.08.2022
563 Rain 15 1015 97 781 1.34 163 13:26 19.08.2022
564 Rain 15 1014 96 457 0.89 165 11:33 19.08.2022
565 Clouds 15 1014 96 2798 0.89 3 10:26 19.08.2022
566 Clouds 14 1014 96 3061 0.45 53 06:58 19.08.2022
567 Clouds 15 1014 97 10000 0.45 353 00:58 19.08.2022
568 Clouds 15 1014 96 10000 0.45 312 00:30 19.08.2022
569 Clouds 15 1014 96 10000 0.45 159 23:44 18.08.2022
570 Clouds 15 1014 95 10000 0.45 159 22:50 18.08.2022
571 Clouds 16 1014 95 10000 1.34 176 21:57 18.08.2022
572 Clouds 16 1014 94 10000 1.34 176 21:34 18.08.2022
573 Clouds 17 1013 95 10000 0.38 327 19:56 18.08.2022
574 Clouds 17 1013 95 10000 1.03 343 19:28 18.08.2022
575 Rain 16 1013 96 10000 0.45 186 17:50 18.08.2022
576 Rain 18 1012 90 10000 0.89 174 16:59 18.08.2022
577 Clouds 19 1012 80 10000 1.79 26 14:52 18.08.2022
578 Clouds 19 1012 81 10000 0.89 348 14:19 18.08.2022
579 Clouds 18 1013 83 10000 1.79 359 12:55 18.08.2022
580 Clouds 18 1014 84 10000 1.34 24 11:34 18.08.2022
581 Clouds 17 1014 86 10000 0.45 174 09:43 18.08.2022
582 Clouds 15 1015 91 10000 0.45 162 08:40 18.08.2022
583 Rain 15 1014 92 10000 0.82 237 07:19 18.08.2022
584 Clouds 15 1016 90 6989 0.42 90 03:57 18.08.2022
585 Clouds 18 1014 85 10000 0.45 58 23:34 17.08.2022
586 Rain 20 1012 73 10000 0.89 171 21:40 17.08.2022
587 Rain 20 1012 70 10000 1.17 105 20:18 17.08.2022
588 Rain 21 1012 69 10000 1.44 99 19:28 17.08.2022
589 Clouds 26 1013 51 10000 1.79 323 17:35 17.08.2022
590 Clouds 26 1013 52 10000 0.45 337 16:22 17.08.2022
591 Clouds 26 1013 52 10000 0.45 337 16:22 17.08.2022
592 Clouds 26 1014 48 10000 0.45 354 15:22 17.08.2022
593 Clouds 24 1014 51 10000 1.34 297 12:54 17.08.2022
594 Clouds 22 1013 60 10000 0.45 15 11:36 17.08.2022
595 Clouds 20 1013 62 10000 0.75 329 09:31 17.08.2022
596 Clouds 17 1014 73 10000 1.46 191 07:55 17.08.2022
597 Clouds 16 1013 83 10000 0.45 241 02:24 17.08.2022
598 Clouds 18 1014 78 10000 2.09 154 23:49 16.08.2022
599 Clouds 19 1014 70 10000 1.34 209 21:59 16.08.2022
600 Clouds 20 1013 72 10000 0.89 234 20:52 16.08.2022
601 Clouds 21 1011 59 10000 0.89 335 19:53 16.08.2022
602 Clouds 24 1012 51 10000 1.34 285 18:34 16.08.2022
603 Clouds 27 1013 43 10000 1.79 352 17:41 16.08.2022
604 Clouds 26 1013 45 10000 1.34 346 15:47 16.08.2022
605 Clear 26 1013 46 10000 1.34 346 14:55 16.08.2022
606 Clear 25 1013 47 10000 0.89 333 14:37 16.08.2022
607 Clear 22 1013 57 10000 1.34 45 12:43 16.08.2022
608 Clear 19 1012 68 10000 0.89 343 10:35 16.08.2022
609 Clear 17 1012 67 10000 0.85 34 09:43 16.08.2022
610 Clear 16 1013 68 10000 0.76 114 08:45 16.08.2022
611 Clear 11 1013 98 10000 1.65 144 07:33 16.08.2022
612 Clouds 13 1013 94 10000 2.21 157 01:42 16.08.2022
613 Clouds 14 1013 92 10000 1.39 164 22:29 15.08.2022
614 Clouds 14 1014 93 10000 0.89 162 21:53 15.08.2022
615 Clouds 14 1013 93 10000 1.34 138 20:48 15.08.2022
616 Clouds 14 1013 93 10000 1.34 138 20:19 15.08.2022
617 Rain 16 1011 84 6574 3.58 177 18:36 15.08.2022
618 Rain 22 1009 59 10000 1.34 295 16:47 15.08.2022
619 Rain 24 1009 47 10000 1.34 295 16:21 15.08.2022
620 Clouds 22 1010 63 10000 0.45 301 13:55 15.08.2022
621 Clouds 20 1011 71 10000 0.45 53 12:29 15.08.2022
622 Clouds 17 1011 87 10000 0.45 220 09:59 15.08.2022
623 Clouds 15 1011 91 10000 1.34 213 08:22 15.08.2022
624 Rain 16 1012 85 10000 0.89 139 04:55 15.08.2022
625 Clouds 17 1011 80 10000 1.79 173 01:35 15.08.2022
626 Rain 19 1011 63 10000 2.24 159 22:39 14.08.2022
627 Clouds 20 1010 60 10000 1.31 202 21:38 14.08.2022
628 Clouds 22 1009 48 10000 0.89 24 19:58 14.08.2022
629 Clouds 25 1010 40 10000 1.47 314 18:59 14.08.2022
630 Clouds 26 1010 38 10000 2.25 329 18:19 14.08.2022
631 Clouds 26 1009 33 10000 0.89 279 16:53 14.08.2022
632 Clouds 28 1008 30 10000 0.89 262 15:49 14.08.2022
633 Clouds 27 1009 30 10000 2.68 343 14:33 14.08.2022
634 Clouds 28 1010 31 10000 2.68 343 13:50 14.08.2022
635 Clouds 26 1011 35 10000 4.02 345 13:20 14.08.2022
636 Clouds 24 1010 40 10000 1.34 46 12:28 14.08.2022
637 Clouds 22 1011 40 10000 1.79 195 10:50 14.08.2022
638 Clouds 19 1011 42 10000 0.89 161 08:51 14.08.2022
639 Clear 11 1013 61 10000 2.53 159 06:22 14.08.2022
640 Clear 11 1015 82 10000 0.45 224 02:49 14.08.2022
641 Clouds 14 1016 69 10000 0.45 211 23:53 13.08.2022
642 Clouds 15 1016 66 10000 0.45 243 22:52 13.08.2022
643 Clouds 17 1016 60 10000 0.45 217 20:58 13.08.2022
644 Clouds 18 1016 53 10000 1.53 125 20:33 13.08.2022
645 Clouds 20 1016 47 10000 1.34 277 19:44 13.08.2022
646 Clouds 23 1016 42 10000 0.89 353 17:59 13.08.2022
647 Clouds 24 1016 42 10000 1.79 326 15:31 13.08.2022
648 Clouds 24 1016 42 10000 2.24 305 14:28 13.08.2022
649 Clouds 23 1016 44 10000 3.58 354 13:40 13.08.2022
650 Clouds 21 1016 57 10000 2.68 333 11:52 13.08.2022
651 Clouds 17 1016 62 10000 1.34 9 10:31 13.08.2022
652 Clear 15 1017 66 10000 0.45 169 08:45 13.08.2022
653 Clear 10 1018 83 10000 0.89 171 05:34 13.08.2022
654 Clear 14 1019 69 10000 0.45 159 23:58 12.08.2022
655 Clear 16 1018 60 10000 0.45 170 21:46 12.08.2022
656 Clear 17 1018 57 10000 0.89 299 20:53 12.08.2022
657 Clouds 18 1017 55 10000 1.92 39 19:40 12.08.2022
658 Clouds 22 1016 42 10000 1.34 304 18:48 12.08.2022
659 Clouds 23 1017 41 10000 0.89 286 17:25 12.08.2022
660 Clouds 22 1016 45 10000 1.79 347 15:52 12.08.2022
661 Clouds 23 1017 41 10000 1.34 326 14:41 12.08.2022
662 Clouds 23 1017 43 10000 3.13 332 12:55 12.08.2022
663 Clouds 19 1017 65 10000 2.22 20 10:45 12.08.2022
664 Clear 14 1019 79 10000 0.77 65 07:50 12.08.2022
665 Clouds 12 1019 88 10000 0.45 168 06:39 12.08.2022
666 Clouds 14 1019 84 10000 1.14 149 02:39 12.08.2022
667 Clouds 16 1020 77 10000 0.45 233 00:27 12.08.2022
668 Clouds 16 1020 77 10000 0.45 193 23:35 11.08.2022
669 Clouds 18 1019 75 10000 1.36 118 22:27 11.08.2022
670 Clouds 18 1019 70 10000 1.36 118 21:43 11.08.2022
671 Clouds 19 1019 67 10000 1.34 5 20:51 11.08.2022
672 Clouds 19 1019 67 10000 1.34 5 20:19 11.08.2022
673 Clouds 23 1018 57 10000 0.89 98 19:32 11.08.2022
674 Clouds 25 1019 50 10000 2.24 273 17:48 11.08.2022
675 Clouds 25 1020 50 10000 2.24 351 16:37 11.08.2022
676 Clouds 25 1020 53 10000 1.34 338 15:24 11.08.2022
677 Clouds 23 1020 56 10000 1.79 336 13:37 11.08.2022
678 Clouds 20 1019 66 10000 1.27 345 10:27 11.08.2022
679 Clear 16 1021 72 10000 0.45 163 07:47 11.08.2022
680 Clear 12 1022 84 10000 0.45 214 03:54 11.08.2022
681 Clear 14 1022 77 10000 0.45 164 00:50 11.08.2022
682 Clear 16 1023 70 10000 1.65 129 22:32 10.08.2022
683 Clear 17 1022 67 10000 0.89 158 21:25 10.08.2022
684 Clear 18 1022 65 10000 0.45 217 20:55 10.08.2022
685 Clouds 22 1021 51 10000 1.34 274 19:27 10.08.2022
686 Clouds 23 1021 50 10000 1.34 37 18:22 10.08.2022
687 Clouds 25 1022 47 10000 3.34 17 16:36 10.08.2022
688 Clear 23 1022 52 10000 2.68 281 13:36 10.08.2022
689 Clear 22 1022 55 10000 1.34 14 12:41 10.08.2022
690 Clear 18 1022 64 10000 1.29 67 09:25 10.08.2022
691 Clear 15 1024 76 10000 1.29 67 08:33 10.08.2022
692 Clear 13 1025 75 10000 0.45 170 07:18 10.08.2022
693 Clear 12 1025 84 10000 0.45 144 03:25 10.08.2022
694 Clear 15 1025 75 10000 0.45 221 23:34 09.08.2022
695 Clear 15 1025 73 10000 0.89 163 22:56 09.08.2022
696 Clear 15 1025 73 10000 1.89 111 21:35 09.08.2022
697 Clear 19 1024 59 10000 0.45 158 20:26 09.08.2022
698 Clear 25 1023 44 10000 2.68 295 18:42 09.08.2022
699 Clear 25 1023 44 10000 1.34 340 17:28 09.08.2022
700 Clear 25 1023 44 10000 1.34 340 17:28 09.08.2022
701 Clear 24 1023 49 10000 2.68 348 16:40 09.08.2022
702 Clear 24 1023 49 10000 2.68 348 15:58 09.08.2022
703 Clear 23 1023 54 10000 2.68 306 12:51 09.08.2022
704 Clear 17 1024 72 10000 1.75 38 09:36 09.08.2022
705 Clear 16 1024 80 10000 1.19 67 08:39 09.08.2022
706 Clear 14 1025 81 10000 1.02 107 07:52 09.08.2022
707 Clear 12 1024 89 10000 1.87 140 04:22 09.08.2022
708 Clear 16 1024 78 10000 0.45 178 23:27 08.08.2022
709 Clear 16 1024 78 10000 1.87 126 22:54 08.08.2022
710 Clear 17 1023 75 10000 1.34 213 21:58 08.08.2022
711 Clouds 18 1023 70 10000 0.45 354 20:59 08.08.2022
712 Clouds 22 1022 78 10000 1.94 31 19:50 08.08.2022
713 Clear 23 1022 50 10000 1.34 232 18:45 08.08.2022
714 Clear 24 1021 51 10000 3.58 341 16:40 08.08.2022
715 Clear 24 1021 54 10000 1.79 313 15:39 08.08.2022
716 Clear 23 1022 55 10000 1.34 328 13:50 08.08.2022
717 Clear 21 1022 66 10000 1.79 55 11:58 08.08.2022
718 Clouds 16 1022 90 10000 0.45 358 09:43 08.08.2022
719 Clouds 13 1022 96 10000 0.45 91 05:43 08.08.2022
720 Clouds 14 1021 93 10000 0.96 134 02:27 08.08.2022
721 Clouds 16 1022 92 10000 0.45 5 22:25 07.08.2022
722 Clouds 17 1021 87 10000 0.45 30 21:38 07.08.2022
723 Clouds 18 1021 83 10000 1.79 130 20:25 07.08.2022
724 Clouds 18 1021 83 10000 1.79 130 19:54 07.08.2022
725 Clouds 18 1020 81 10000 1.34 79 19:33 07.08.2022
726 Clouds 19 1020 78 10000 2.16 11 18:22 07.08.2022
727 Clouds 20 1018 69 10000 2.25 15 16:54 07.08.2022
728 Clouds 20 1018 67 10000 2.51 18 16:28 07.08.2022
729 Clouds 20 1018 65 10000 2.78 9 15:19 07.08.2022
730 Clouds 19 1018 61 10000 2.89 5 13:22 07.08.2022
731 Clouds 18 1019 69 10000 2.08 21 10:59 07.08.2022
732 Clouds 17 1021 85 10000 0.89 357 10:33 07.08.2022
733 Clouds 14 1022 94 10000 1.79 12 05:48 07.08.2022
734 Clouds 15 1023 94 10000 0.45 67 03:19 07.08.2022
735 Clouds 15 1024 92 10000 2.68 331 23:44 06.08.2022
736 Clouds 15 1024 92 10000 1.12 69 22:20 06.08.2022
737 Clouds 16 1023 89 10000 0.45 149 20:26 06.08.2022
738 Clouds 16 1023 89 10000 0.45 134 19:41 06.08.2022
739 Clouds 16 1023 89 9102 1.34 31 18:25 06.08.2022
740 Clouds 16 1023 90 10000 1.79 356 17:28 06.08.2022
741 Clouds 17 1024 85 5298 1.79 352 14:31 06.08.2022
742 Clouds 16 1024 91 4294 2.68 353 13:40 06.08.2022
743 Clouds 16 1024 93 5138 1.34 345 11:24 06.08.2022
744 Clouds 16 1023 92 9403 0.89 1 09:51 06.08.2022
745 Clouds 16 1023 93 10000 0.45 196 08:28 06.08.2022
746 Clouds 16 1023 91 2510 1.74 35 03:35 06.08.2022
747 Rain 16 1024 89 9224 0.45 178 23:32 05.08.2022
748 Clouds 20 1019 80 2897 1.34 183 21:54 05.08.2022
749 Rain 23 1018 67 10000 1.79 182 19:32 05.08.2022
750 Rain 27 1017 57 10000 0.45 322 18:44 05.08.2022
751 Clouds 28 1017 50 10000 1.79 347 17:27 05.08.2022
752 Clouds 29 1017 49 10000 0.89 327 16:48 05.08.2022
753 Clouds 28 1018 51 10000 0.45 9 15:21 05.08.2022
754 Clouds 27 1016 40 10000 3 322 13:53 05.08.2022
755 Clouds 28 1016 38 10000 2.48 324 13:23 05.08.2022
756 Rain 27 1016 39 10000 2.21 327 12:24 05.08.2022
757 Rain 27 1016 39 10000 2.21 327 12:24 05.08.2022
758 Clouds 26 1016 54 10000 1.83 327 10:44 05.08.2022
759 Clouds 22 1016 58 10000 1.34 185 07:58 05.08.2022
760 Rain 18 1016 79 10000 2.46 170 06:41 05.08.2022
761 Clouds 21 1017 65 10000 0.89 178 00:30 05.08.2022
762 Clouds 23 1016 60 10000 0.89 176 22:26 04.08.2022
763 Clouds 25 1016 55 10000 0.89 153 21:26 04.08.2022
764 Clouds 25 1014 46 10000 1.31 160 20:42 04.08.2022
765 Clouds 27 1014 46 10000 0.45 153 19:37 04.08.2022
766 Clouds 29 1016 39 10000 1.79 342 18:36 04.08.2022
767 Clouds 32 1017 34 10000 0.89 33 17:37 04.08.2022
768 Clear 31 1018 33 10000 1.79 344 13:57 04.08.2022
769 Clear 29 1017 44 10000 0.89 22 12:43 04.08.2022
770 Clear 27 1017 46 10000 0.89 3 10:51 04.08.2022
771 Clear 22 1017 49 10000 0.45 143 07:53 04.08.2022
772 Clear 18 1018 73 10000 2.32 174 04:43 04.08.2022
773 Clear 17 1019 83 10000 0.45 183 02:27 04.08.2022
774 Clear 20 1019 73 10000 2.14 171 23:44 03.08.2022
775 Clear 21 1019 65 10000 0.45 162 22:30 03.08.2022
776 Clear 23 1017 57 10000 0.28 133 20:50 03.08.2022
777 Clouds 28 1017 39 10000 0.89 6 19:35 03.08.2022
778 Clouds 29 1018 39 10000 1.79 351 18:23 03.08.2022
779 Clouds 30 1018 41 10000 1.79 325 16:24 03.08.2022
780 Clear 29 1018 41 10000 1.34 298 14:51 03.08.2022
781 Clouds 26 1019 50 10000 2.24 342 12:32 03.08.2022
782 Clouds 20 1019 55 10000 0.89 173 08:50 03.08.2022
783 Clear 14 1019 91 10000 0.45 179 04:47 03.08.2022
784 Clear 15 1019 85 10000 0.45 185 03:30 03.08.2022
785 Clouds 16 1020 86 10000 0.45 209 01:35 03.08.2022
786 Clouds 18 1020 81 10000 0.45 239 23:23 02.08.2022
787 Clouds 19 1020 77 10000 0.89 168 21:55 02.08.2022
788 Clouds 20 1019 73 10000 0.89 168 21:30 02.08.2022
789 Clouds 25 1019 54 10000 0.89 298 19:19 02.08.2022
790 Clouds 27 1019 49 10000 0.45 276 16:38 02.08.2022
791 Clouds 24 1020 58 10000 1.34 347 12:55 02.08.2022
792 Clouds 19 1020 77 10000 1.58 348 09:42 02.08.2022
793 Clouds 15 1020 78 10000 0.52 187 07:56 02.08.2022
794 Clouds 13 1020 95 10000 0.45 217 07:25 02.08.2022
795 Clouds 13 1021 94 10000 0.45 354 04:55 02.08.2022
796 Rain 18 1021 82 3449 0.45 204 23:52 01.08.2022
797 Clouds 15 1021 96 9478 0.78 36 22:57 01.08.2022
798 Clouds 16 1020 89 9511 1.12 325 20:57 01.08.2022
799 Clouds 24 1016 53 10000 3.13 319 19:41 01.08.2022
800 Clouds 24 1016 51 10000 1.79 327 18:43 01.08.2022
801 Clear 26 1017 41 10000 0.89 181 16:54 01.08.2022
802 Clear 27 1018 37 10000 3 319 16:29 01.08.2022
803 Clear 27 1018 39 10000 2.24 58 15:31 01.08.2022
804 Clear 27 1019 38 10000 1.34 38 14:43 01.08.2022
805 Clear 26 1019 45 10000 0.89 15 12:52 01.08.2022
806 Clear 22 1020 58 10000 0.45 235 10:30 01.08.2022
807 Clouds 18 1020 73 10000 0.45 76 08:41 01.08.2022
808 Clouds 16 1020 78 10000 1.79 178 06:50 01.08.2022
809 Clouds 17 1020 74 10000 1.79 163 04:24 01.08.2022
810 Clouds 19 1020 66 10000 2.24 188 00:55 01.08.2022
811 Clouds 20 1020 66 10000 2.24 184 22:42 31.07.2022
812 Clouds 21 1021 67 10000 2.31 184 21:46 31.07.2022
813 Clouds 21 1019 56 10000 1.63 182 20:18 31.07.2022
814 Clouds 23 1019 47 10000 0.45 191 18:38 31.07.2022
815 Clouds 25 1020 43 10000 2.24 214 16:18 31.07.2022
816 Clouds 25 1021 44 10000 0.89 219 13:59 31.07.2022
817 Clouds 23 1021 52 10000 1.34 168 12:43 31.07.2022
818 Clouds 20 1021 69 10000 1.64 288 10:22 31.07.2022
819 Clouds 16 1021 78 10000 0.45 187 08:19 31.07.2022
820 Clouds 15 1021 79 10000 0.45 223 04:30 31.07.2022
821 Clouds 16 1022 75 10000 0.45 12 00:56 31.07.2022
822 Clouds 17 1023 75 10000 2.61 187 22:20 30.07.2022
823 Clouds 18 1022 62 10000 1.79 183 21:50 30.07.2022
824 Clouds 18 1021 64 10000 1.79 183 21:20 30.07.2022
825 Clouds 18 1021 61 10000 0.45 75 20:24 30.07.2022
826 Clouds 21 1021 68 10000 1.27 221 19:27 30.07.2022
827 Clouds 22 1020 48 10000 0.89 296 17:48 30.07.2022
828 Clouds 21 1020 52 10000 1.34 180 16:21 30.07.2022
829 Clouds 23 1021 44 10000 0.45 350 15:27 30.07.2022
830 Clouds 21 1021 54 10000 2.24 222 13:21 30.07.2022
831 Clouds 20 1021 64 10000 2.24 99 12:20 30.07.2022
832 Clouds 17 1021 81 10000 1.34 136 10:36 30.07.2022
833 Clouds 16 1021 85 10000 1.34 136 09:59 30.07.2022
834 Clouds 14 1021 91 10000 0.89 161 08:44 30.07.2022
835 Clouds 13 1020 95 10000 0.45 211 05:29 30.07.2022
836 Clear 13 1021 90 10000 0.89 169 02:31 30.07.2022
837 Rain 14 1021 92 10000 0.89 152 22:54 29.07.2022
838 Rain 16 1020 94 9905 1.53 236 21:28 29.07.2022
839 Rain 16 1020 95 9905 1.53 236 20:50 29.07.2022
840 Rain 16 1020 92 5227 0.45 139 19:29 29.07.2022
841 Rain 22 1017 59 5505 1.79 317 16:43 29.07.2022
842 Clouds 23 1018 55 10000 1.86 339 13:46 29.07.2022
843 Rain 20 1016 51 10000 1.89 325 11:34 29.07.2022
844 Clouds 20 1016 53 10000 0.45 183 08:51 29.07.2022
845 Clouds 15 1017 91 10000 1.72 165 08:21 29.07.2022
846 Clouds 14 1017 95 10000 2.25 163 03:55 29.07.2022
847 Rain 15 1019 87 10000 1.79 168 23:30 28.07.2022
848 Rain 18 1014 77 6244 2.44 151 21:31 28.07.2022
849 Clouds 19 1014 76 10000 0.45 165 20:50 28.07.2022
850 Clouds 21 1013 70 5440 0.45 334 19:58 28.07.2022
851 Clouds 19 1013 74 3900 0.45 334 19:26 28.07.2022
852 Clouds 21 1013 69 10000 0.89 79 17:45 28.07.2022
853 Clouds 22 1013 69 9375 0.89 79 17:19 28.07.2022
854 Clouds 24 1014 59 9375 2.24 340 16:39 28.07.2022
855 Clear 25 1015 57 10000 0.89 323 13:56 28.07.2022
856 Clear 23 1015 55 10000 1.34 322 12:33 28.07.2022
857 Clouds 13 1015 92 10000 1.08 146 07:33 28.07.2022
858 Clouds 12 1016 89 10000 0.89 150 05:37 28.07.2022
859 Clouds 12 1016 89 10000 0.89 150 05:18 28.07.2022
860 Clouds 16 1017 79 10000 0.89 168 23:19 27.07.2022
861 Clouds 16 1017 76 10000 1.43 113 21:30 27.07.2022
862 Clouds 20 1016 63 10000 0.45 319 19:46 27.07.2022
863 Clouds 20 1016 62 10000 0.45 319 18:49 27.07.2022
864 Clouds 19 1016 67 10000 1.79 339 16:31 27.07.2022
865 Clouds 22 1016 53 10000 2.24 317 15:41 27.07.2022
866 Clouds 19 1016 70 10000 0.89 24 14:41 27.07.2022
867 Clouds 18 1016 72 10000 0.45 302 13:29 27.07.2022
868 Clouds 16 1017 81 10000 0.89 78 09:27 27.07.2022
869 Clouds 14 1017 89 10000 0.54 92 07:40 27.07.2022
870 Clouds 14 1018 89 10000 0.58 169 02:52 27.07.2022
871 Clouds 16 1018 76 10000 0.89 166 22:47 26.07.2022
872 Clouds 17 1018 78 10000 0.45 192 21:36 26.07.2022
873 Clouds 18 1017 73 10000 1.34 176 20:49 26.07.2022
874 Clouds 21 1018 71 10000 1.34 150 18:46 26.07.2022
875 Clouds 21 1018 71 10000 1.34 150 18:28 26.07.2022
876 Clouds 21 1018 66 10000 0.89 140 16:54 26.07.2022
877 Clouds 20 1018 76 10000 0.89 175 15:43 26.07.2022
878 Clouds 19 1019 81 10000 1.34 150 14:38 26.07.2022
879 Clouds 17 1018 88 9583 0.89 16 11:47 26.07.2022
880 Clouds 17 1018 88 9583 0.89 16 11:47 26.07.2022
881 Clouds 16 1018 90 986 0.45 97 09:35 26.07.2022
882 Clouds 15 1018 94 10000 1.79 167 07:56 26.07.2022
883 Rain 17 1018 88 10000 0.45 148 01:44 26.07.2022
884 Rain 18 1018 80 10000 3.13 185 23:37 25.07.2022
885 Rain 18 1018 91 10000 2.36 162 22:33 25.07.2022
886 Rain 16 1019 92 10000 1.52 197 21:43 25.07.2022
887 Rain 17 1018 93 10000 2.93 172 20:42 25.07.2022
888 Rain 18 1018 91 7309 3.5 194 19:51 25.07.2022
889 Clouds 19 1016 68 10000 4.33 216 18:23 25.07.2022
890 Clouds 28 1011 46 10000 1.34 344 17:34 25.07.2022
891 Clouds 32 1015 31 10000 1.34 286 15:37 25.07.2022
892 Clear 30 1014 35 10000 0.89 175 12:33 25.07.2022
893 Clear 27 1015 52 10000 0.45 112 10:42 25.07.2022
894 Clear 20 1017 74 10000 2.54 174 06:52 25.07.2022
895 Clear 20 1018 75 10000 0.45 212 23:57 24.07.2022
896 Clear 21 1019 74 10000 0.45 206 23:21 24.07.2022
897 Clear 21 1018 69 10000 0.45 181 22:41 24.07.2022
898 Clear 22 1018 68 10000 0.45 173 21:30 24.07.2022
899 Clear 22 1018 69 10000 1.02 121 20:56 24.07.2022
900 Clouds 23 1017 63 10000 1.57 17 20:29 24.07.2022
901 Clouds 27 1018 52 10000 1.79 337 18:57 24.07.2022
902 Clouds 29 1019 46 10000 1.34 351 16:51 24.07.2022
903 Clouds 29 1019 47 10000 1.79 335 15:53 24.07.2022
904 Clouds 28 1020 49 10000 1.79 323 14:40 24.07.2022
905 Clouds 27 1021 51 10000 0.89 310 13:25 24.07.2022
906 Clouds 26 1021 56 10000 3.13 356 12:19 24.07.2022
907 Clouds 24 1021 61 10000 0.45 44 11:26 24.07.2022
908 Clouds 21 1022 71 10000 0.45 44 09:23 24.07.2022
909 Clouds 18 1022 80 10000 0.45 148 07:53 24.07.2022
910 Clouds 15 1022 90 10000 1.85 161 06:34 24.07.2022
911 Clouds 17 1022 82 10000 0.45 233 01:50 24.07.2022
912 Clouds 19 1021 72 10000 1.21 194 22:25 23.07.2022
913 Clouds 21 1019 70 10000 0.45 325 20:35 23.07.2022
914 Clouds 21 1020 75 9345 1.33 330 18:52 23.07.2022
915 Clouds 23 1020 63 10000 1.34 345 17:48 23.07.2022
916 Clouds 23 1020 62 10000 1.34 345 17:23 23.07.2022
917 Clouds 25 1019 57 10000 0.89 334 15:51 23.07.2022
918 Clouds 24 1019 58 10000 0.45 343 15:20 23.07.2022
919 Clouds 24 1021 60 10000 0.45 4 14:36 23.07.2022
920 Clouds 23 1021 61 10000 0.89 322 13:53 23.07.2022
921 Rain 19 1022 86 6037 0.45 8 11:46 23.07.2022
922 Rain 19 1021 83 8598 0.89 217 10:28 23.07.2022
923 Clouds 18 1021 83 10000 0.45 198 09:26 23.07.2022
924 Clouds 17 1020 90 10000 1.67 156 04:59 23.07.2022
925 Rain 18 1020 88 10000 2.23 167 02:30 23.07.2022
926 Rain 20 1021 91 10000 3.28 155 23:39 22.07.2022
927 Clouds 23 1017 50 4870 2.24 170 21:18 22.07.2022
928 Clouds 26 1015 50 10000 1.01 306 19:55 22.07.2022
929 Clouds 26 1015 54 10000 0.45 23 18:36 22.07.2022
930 Clouds 30 1018 39 10000 1.34 1 17:37 22.07.2022
931 Clear 30 1018 48 10000 3.13 344 15:26 22.07.2022
932 Clear 26 1018 61 10000 1.6 356 12:23 22.07.2022
933 Clear 21 1019 70 10000 0.45 92 09:43 22.07.2022
934 Clear 21 1019 71 10000 0.45 92 09:18 22.07.2022
935 Clear 15 1021 91 10000 1.47 150 07:21 22.07.2022
936 Clear 16 1021 87 10000 0.45 154 04:18 22.07.2022
937 Clouds 19 1022 79 10000 1.45 159 22:56 21.07.2022
938 Clouds 21 1022 74 10000 1.79 155 21:35 21.07.2022
939 Clouds 23 1022 63 10000 0.45 148 19:31 21.07.2022
940 Clouds 23 1023 62 10000 0.45 180 18:28 21.07.2022
941 Clouds 23 1023 63 10000 1.65 349 17:20 21.07.2022
942 Clouds 22 1023 65 10000 0.45 312 15:39 21.07.2022
943 Clouds 21 1023 68 10000 1.34 162 14:39 21.07.2022
944 Clouds 21 1024 73 10000 1.82 332 12:54 21.07.2022
945 Clouds 20 1024 76 10000 0.89 170 11:23 21.07.2022
946 Clouds 18 1023 87 10000 1.33 324 09:42 21.07.2022
947 Clouds 18 1023 90 10000 0.9 315 08:52 21.07.2022
948 Clouds 17 1024 93 10000 1.34 177 07:50 21.07.2022
949 Clouds 17 1022 92 10000 0.45 173 06:25 21.07.2022
950 Clouds 19 1021 76 10000 2.24 173 01:54 21.07.2022
951 Clouds 21 1020 76 10000 1.98 289 22:22 20.07.2022
952 Clouds 18 1023 95 10000 1.98 289 21:42 20.07.2022
953 Rain 22 1021 93 10000 1.86 214 20:39 20.07.2022
954 Clouds 22 1021 91 10000 1.57 197 19:43 20.07.2022
955 Rain 19 1020 94 10000 2.74 143 18:52 20.07.2022
956 Rain 20 1022 94 9919 3.22 82 18:29 20.07.2022
957 Rain 25 1018 54 9563 3.58 180 16:46 20.07.2022
958 Rain 27 1017 48 7544 0.45 113 15:32 20.07.2022
959 Clouds 32 1020 35 10000 1.34 347 14:26 20.07.2022
960 Clouds 31 1019 37 10000 1.34 305 12:34 20.07.2022
961 Clear 27 1019 48 10000 0.45 333 10:24 20.07.2022
962 Clouds 19 1020 59 10000 2.79 175 04:50 20.07.2022
963 Clouds 19 1020 67 10000 0.45 213 00:54 20.07.2022
964 Clear 19 1020 66 10000 0.89 212 00:25 20.07.2022
965 Clear 22 1020 56 10000 0.45 226 22:34 19.07.2022
966 Clear 22 1020 56 10000 0.45 226 21:53 19.07.2022
967 Clear 21 1020 69 10000 1.2 140 20:48 19.07.2022
968 Clear 30 1018 50 10000 1.91 10 19:21 19.07.2022
969 Clear 31 1019 29 10000 2.24 302 18:34 19.07.2022
970 Clear 32 1020 30 10000 0.89 349 17:49 19.07.2022
971 Clear 31 1020 32 10000 2.24 345 14:58 19.07.2022
972 Clear 27 1021 44 10000 2.68 4 11:58 19.07.2022
973 Clear 26 1021 47 10000 0.89 16 11:18 19.07.2022
974 Clear 23 1019 52 10000 0.95 130 09:26 19.07.2022
975 Clear 22 1020 43 10000 0.45 173 08:39 19.07.2022
976 Clear 15 1022 78 10000 2.07 149 07:19 19.07.2022
977 Clear 19 1022 50 10000 0.89 165 05:48 19.07.2022
978 Clear 14 1023 77 10000 2.2 151 04:56 19.07.2022
979 Clouds 16 1023 73 10000 0.89 170 01:50 19.07.2022
980 Clouds 18 1024 60 10000 0.45 166 23:49 18.07.2022
981 Clouds 19 1024 57 10000 0.45 205 23:18 18.07.2022
982 Clouds 21 1024 51 10000 0.45 172 22:18 18.07.2022
983 Clouds 23 1022 42 10000 1.21 106 20:51 18.07.2022
984 Clouds 26 1023 35 10000 0.45 352 19:33 18.07.2022
985 Clouds 29 1023 30 10000 3.13 8 17:38 18.07.2022
986 Clouds 29 1024 30 10000 1.34 300 15:55 18.07.2022
987 Clouds 28 1024 32 10000 2.68 331 14:51 18.07.2022
988 Clouds 27 1025 36 10000 2.68 357 13:23 18.07.2022
989 Clouds 24 1025 44 10000 0.89 301 11:31 18.07.2022
990 Clear 21 1024 57 10000 0.89 328 09:28 18.07.2022
991 Clouds 18 1027 61 10000 0.45 160 07:43 18.07.2022
992 Clear 15 1026 74 10000 0.45 160 01:43 18.07.2022
993 Clear 18 1027 54 10000 0.45 181 22:46 17.07.2022
994 Clear 18 1027 54 10000 0.45 181 22:22 17.07.2022
995 Clear 19 1025 49 10000 0.69 88 21:23 17.07.2022
996 Clear 21 1025 47 10000 0.89 326 20:44 17.07.2022
997 Clear 24 1024 45 10000 1.79 338 19:34 17.07.2022
998 Clear 26 1024 38 10000 1.79 338 18:56 17.07.2022
999 Clear 26 1024 39 10000 1.34 336 17:39 17.07.2022
1000 Clear 27 1024 40 10000 1.34 336 16:51 17.07.2022
1001 Clear 26 1024 41 10000 0.45 320 16:27 17.07.2022
1002 Clear 26 1024 41 10000 1.34 326 14:58 17.07.2022
1003 Clear 25 1025 43 10000 1.34 357 13:32 17.07.2022
1004 Clear 22 1025 52 10000 2.6 2 11:50 17.07.2022
1005 Clear 19 1024 61 10000 0.45 334 09:30 17.07.2022
1006 Clear 11 1025 83 10000 1.62 153 05:54 17.07.2022
1007 Clear 13 1026 72 10000 1.92 150 02:33 17.07.2022
1008 Clear 16 1026 63 10000 1.43 130 23:21 16.07.2022
1009 Clear 16 1026 83 10000 0.98 111 21:47 16.07.2022
1010 Clear 19 1022 54 10000 0.45 6 19:53 16.07.2022
1011 Clear 24 1022 41 10000 1.34 283 18:35 16.07.2022
1012 Clear 25 1022 41 10000 2.68 309 17:19 16.07.2022
1013 Clear 23 1022 47 10000 2.68 312 14:31 16.07.2022
1014 Clear 21 1022 52 10000 0.89 3 11:38 16.07.2022
1015 Clear 18 1022 70 10000 2.15 334 09:35 16.07.2022
1016 Clear 16 1023 68 10000 0.89 165 08:47 16.07.2022
1017 Clear 15 1023 73 10000 0.89 165 08:29 16.07.2022
1018 Clear 13 1022 78 10000 0.45 166 04:28 16.07.2022
1019 Clear 14 1022 76 10000 0.45 204 03:29 16.07.2022
1020 Clouds 18 1021 64 10000 1.34 9 23:38 15.07.2022
1021 Clouds 19 1020 60 10000 1.34 173 22:41 15.07.2022
1022 Clouds 19 1020 58 10000 1.34 176 21:29 15.07.2022
1023 Clouds 19 1020 55 10000 0.77 340 20:31 15.07.2022
1024 Clouds 25 1020 45 10000 0.45 125 18:44 15.07.2022
1025 Clouds 24 1020 47 10000 2.65 324 17:48 15.07.2022
1026 Clear 24 1020 52 10000 0.45 302 14:57 15.07.2022
1027 Clouds 22 1021 55 10000 1.79 316 13:20 15.07.2022
1028 Clouds 21 1020 61 10000 1.34 25 11:45 15.07.2022
1029 Clouds 20 1020 66 10000 0.89 51 10:27 15.07.2022
1030 Clouds 16 1021 73 10000 0.45 293 06:30 15.07.2022
1031 Clouds 18 1021 70 10000 0.45 77 01:32 15.07.2022
1032 Clouds 21 1019 63 10000 0.45 221 00:37 15.07.2022
1033 Clouds 18 1020 78 10000 2.63 186 22:53 14.07.2022
1034 Clouds 23 1017 49 10000 1.79 174 21:54 14.07.2022
1035 Clouds 23 1017 49 10000 1.79 174 21:30 14.07.2022
1036 Clouds 25 1016 45 10000 2.16 225 20:45 14.07.2022
1037 Clouds 25 1016 45 10000 1.62 246 20:24 14.07.2022
1038 Clouds 27 1015 36 10000 0.89 175 19:19 14.07.2022
1039 Clouds 30 1017 33 10000 2.24 306 16:23 14.07.2022
1040 Clouds 30 1018 33 10000 0.89 33 15:34 14.07.2022
1041 Clouds 30 1020 31 10000 0.89 236 14:31 14.07.2022
1042 Clouds 29 1019 27 10000 2.68 186 12:58 14.07.2022
1043 Clouds 28 1019 32 10000 1.79 120 11:54 14.07.2022
1044 Clouds 28 1020 31 10000 1.34 183 11:23 14.07.2022
1045 Clouds 25 1019 40 10000 0.89 340 10:37 14.07.2022
1046 Rain 19 1022 55 10000 0.45 110 07:50 14.07.2022
1047 Clouds 18 1024 62 10000 1.77 195 01:27 14.07.2022
1048 Clouds 19 1024 61 10000 1.77 195 00:54 14.07.2022
1049 Clouds 20 1024 59 10000 1.81 185 22:57 13.07.2022
1050 Clouds 21 1024 75 10000 1.36 193 22:22 13.07.2022
1051 Clouds 20 1023 75 10000 0.52 257 21:19 13.07.2022
1052 Clouds 24 1021 41 10000 0.89 170 19:58 13.07.2022
1053 Clouds 29 1022 28 10000 1.34 335 17:52 13.07.2022
1054 Clouds 28 1022 28 10000 2.24 352 16:46 13.07.2022
1055 Clouds 28 1023 30 10000 2.68 336 15:26 13.07.2022
1056 Clouds 26 1024 38 10000 0.89 333 13:24 13.07.2022
1057 Clouds 22 1024 45 10000 0.45 13 10:46 13.07.2022
1058 Clouds 22 1024 45 10000 0.45 13 10:25 13.07.2022
1059 Clouds 19 1024 55 10000 0.93 135 09:26 13.07.2022
1060 Clear 16 1024 53 10000 1.59 143 07:52 13.07.2022
1061 Clear 12 1025 85 10000 0.45 157 03:19 13.07.2022
1062 Clouds 14 1026 76 10000 1.87 145 00:18 13.07.2022
1063 Clouds 16 1025 64 10000 1.43 120 22:18 12.07.2022
1064 Clouds 17 1027 89 10000 1.43 120 21:35 12.07.2022
1065 Clouds 15 1026 86 10000 1.17 73 20:42 12.07.2022
1066 Clouds 23 1024 39 10000 1.34 344 19:37 12.07.2022
1067 Clouds 24 1024 39 10000 0.89 321 17:55 12.07.2022
1068 Clouds 24 1024 40 10000 2.24 340 16:20 12.07.2022
1069 Clouds 23 1024 47 10000 2.24 325 14:31 12.07.2022
1070 Clouds 22 1024 53 10000 2.24 280 13:21 12.07.2022
1071 Clouds 20 1024 63 10000 2.24 346 11:42 12.07.2022
1072 Clouds 18 1024 69 10000 0.45 7 10:18 12.07.2022
1073 Clouds 14 1026 84 10000 0.19 46 08:26 12.07.2022
1074 Clouds 13 1026 86 10000 0.45 173 07:38 12.07.2022
1075 Clouds 10 1025 90 10000 0.45 210 05:42 12.07.2022
1076 Clear 12 1024 87 10000 0.89 217 03:29 12.07.2022
1077 Clouds 13 1027 82 10000 1.16 166 23:43 11.07.2022
1078 Clouds 14 1026 80 10000 1.05 156 22:36 11.07.2022
1079 Clear 16 1024 72 10000 1.34 13 20:54 11.07.2022
1080 Clouds 19 1022 58 10000 2.24 306 20:25 11.07.2022
1081 Clouds 21 1022 54 10000 1.79 328 18:38 11.07.2022
1082 Clouds 21 1022 54 10000 1.79 328 17:55 11.07.2022
1083 Clouds 22 1022 54 10000 2.24 334 16:22 11.07.2022
1084 Clouds 21 1022 55 10000 1.79 333 14:49 11.07.2022
1085 Clear 19 1022 56 10000 1.34 343 12:18 11.07.2022
1086 Clear 16 1023 62 10000 0.45 40 10:42 11.07.2022
1087 Clear 16 1023 66 10000 0.45 40 09:54 11.07.2022
1088 Clear 13 1025 77 10000 0.45 322 08:35 11.07.2022
1089 Clear 11 1024 83 10000 0.15 66 07:24 11.07.2022
1090 Clouds 12 1027 78 10000 0.45 105 00:24 11.07.2022
1091 Clouds 12 1027 77 10000 1.19 175 23:32 10.07.2022
1092 Clouds 13 1026 74 10000 0.56 61 22:26 10.07.2022
1093 Clouds 14 1025 77 10000 1.53 10 20:55 10.07.2022
1094 Clouds 18 1022 59 10000 0.89 340 19:55 10.07.2022
1095 Clouds 19 1022 60 10000 2.68 358 19:20 10.07.2022
1096 Clouds 20 1022 58 10000 2.24 336 17:50 10.07.2022
1097 Clouds 19 1022 61 10000 1.79 343 16:59 10.07.2022
1098 Clouds 19 1022 58 10000 1.79 343 16:20 10.07.2022
1099 Clouds 19 1022 60 10000 1.34 75 14:35 10.07.2022
1100 Clouds 16 1023 77 10000 0.45 12 12:38 10.07.2022
1101 Clouds 15 1023 83 10000 0.45 268 11:34 10.07.2022
1102 Clouds 14 1023 89 10000 1.34 331 09:28 10.07.2022
1103 Clouds 14 1022 86 10000 0.45 342 08:38 10.07.2022
1104 Clouds 14 1024 81 10000 0.95 282 06:32 10.07.2022
1105 Clouds 15 1027 68 10000 1.48 187 23:35 09.07.2022
1106 Clouds 15 1027 69 10000 0.45 144 22:26 09.07.2022
1107 Clouds 16 1026 65 10000 0.89 157 21:40 09.07.2022
1108 Clouds 21 1024 47 10000 0.89 356 19:19 09.07.2022
1109 Clouds 22 1024 46 10000 0.89 316 18:25 09.07.2022
1110 Clouds 22 1024 44 10000 2.24 338 17:18 09.07.2022
1111 Clouds 22 1025 44 10000 0.45 353 15:56 09.07.2022
1112 Clouds 22 1025 44 10000 2.24 32 15:36 09.07.2022
1113 Clouds 21 1026 44 10000 2.68 340 13:54 09.07.2022
1114 Clouds 20 1026 47 10000 2.24 341 13:28 09.07.2022
1115 Clouds 19 1027 57 10000 0.45 7 11:34 09.07.2022
1116 Clouds 17 1027 65 10000 0.45 71 10:24 09.07.2022
1117 Clouds 14 1030 70 10000 0.45 345 08:27 09.07.2022
1118 Clear 9 1027 90 10000 0.41 138 06:59 09.07.2022
1119 Clear 9 1029 86 10000 0.45 148 04:35 09.07.2022
1120 Clear 12 1033 75 10000 0.45 156 23:27 08.07.2022
1121 Clear 14 1031 64 10000 0.45 68 21:59 08.07.2022
1122 Clear 14 1031 64 10000 0.45 68 21:18 08.07.2022
1123 Clear 17 1029 56 10000 1.34 356 20:30 08.07.2022
1124 Clear 20 1028 45 10000 2.54 359 18:33 08.07.2022
1125 Clear 20 1028 46 10000 2.24 1 17:33 08.07.2022
1126 Clear 20 1028 50 10000 1.34 355 15:30 08.07.2022
1127 Clear 20 1028 51 10000 1.34 355 14:49 08.07.2022
1128 Clouds 16 1029 65 10000 1.79 353 12:28 08.07.2022
1129 Clouds 14 1029 77 10000 0.89 330 10:45 08.07.2022
1130 Clouds 12 1029 85 10000 1.34 345 08:55 08.07.2022
1131 Clouds 13 1028 85 10000 1.26 323 06:55 08.07.2022
1132 Clouds 14 1026 84 4454 1.33 295 03:22 08.07.2022
1133 Clouds 14 1026 80 7110 0.89 330 23:56 07.07.2022
1134 Clouds 14 1026 80 6016 1.34 165 22:45 07.07.2022
1135 Clouds 13 1026 81 10000 0.45 119 20:59 07.07.2022
1136 Clouds 15 1026 81 10000 0.45 346 18:42 07.07.2022
1137 Clouds 16 1025 68 10000 0.45 4 17:41 07.07.2022
1138 Clouds 15 1025 75 10000 0.89 75 15:34 07.07.2022
1139 Clouds 17 1023 65 10000 0.45 80 13:30 07.07.2022
1140 Clouds 17 1023 66 10000 0.45 267 12:40 07.07.2022
1141 Clouds 17 1023 68 10000 0.45 267 12:20 07.07.2022
1142 Clouds 16 1022 73 10000 0.89 11 11:31 07.07.2022
1143 Clouds 16 1023 76 10000 0.89 324 10:44 07.07.2022
1144 Clouds 16 1023 76 10000 0.89 324 10:25 07.07.2022
1145 Clouds 13 1024 90 10000 0.89 185 07:40 07.07.2022
1146 Clouds 13 1024 87 10000 0.89 196 04:42 07.07.2022
1147 Clouds 14 1024 79 10000 0.45 223 23:37 06.07.2022
1148 Clouds 14 1024 79 10000 0.45 223 23:19 06.07.2022
1149 Clouds 15 1024 70 10000 1.34 171 22:57 06.07.2022
1150 Clouds 16 1024 68 10000 1.34 171 22:38 06.07.2022
1151 Clouds 16 1024 62 10000 2.68 169 21:30 06.07.2022
1152 Clouds 19 1022 56 10000 1.75 6 19:39 06.07.2022
1153 Clouds 23 1022 47 10000 1.34 60 18:29 06.07.2022
1154 Clouds 22 1022 49 10000 0.45 333 16:19 06.07.2022
1155 Clouds 22 1023 51 10000 3.13 326 14:55 06.07.2022
1156 Clear 21 1023 59 10000 2.24 359 12:40 06.07.2022
1157 Clear 21 1023 62 10000 2.24 359 11:49 06.07.2022
1158 Clear 19 1023 69 10000 0.45 106 10:18 06.07.2022
1159 Clear 15 1025 72 10000 0.88 313 07:46 06.07.2022
1160 Clear 13 1025 84 10000 0.76 223 07:23 06.07.2022
1161 Clear 13 1025 86 10000 0.45 235 03:24 06.07.2022
1162 Clouds 17 1022 68 10000 1.79 182 22:45 05.07.2022
1163 Clouds 17 1022 68 10000 1.79 182 22:45 05.07.2022
1164 Clouds 18 1022 63 10000 1.34 204 21:39 05.07.2022
1165 Clouds 18 1022 51 10000 0.38 102 20:38 05.07.2022
1166 Clouds 20 1021 59 10000 0.75 319 19:41 05.07.2022
1167 Clouds 20 1021 59 10000 1.13 325 19:22 05.07.2022
1168 Clouds 19 1022 73 10000 1.34 94 17:47 05.07.2022
1169 Clouds 19 1023 72 10000 0.89 331 16:44 05.07.2022
1170 Clouds 20 1022 72 10000 0.89 350 15:25 05.07.2022
1171 Clouds 21 1022 68 9614 0.45 69 13:53 05.07.2022
1172 Clouds 19 1022 77 8370 0.89 37 12:42 05.07.2022
1173 Clouds 18 1021 87 7678 2.2 329 11:32 05.07.2022
1174 Clouds 16 1021 95 8306 2 326 10:34 05.07.2022
1175 Rain 14 1022 96 10000 0.45 275 08:26 05.07.2022
1176 Rain 14 1022 96 10000 0.89 165 07:31 05.07.2022
1177 Clouds 14 1021 92 10000 0.45 141 04:47 05.07.2022
1178 Clouds 14 1021 92 10000 0.45 141 04:20 05.07.2022
1179 Clouds 15 1021 90 10000 0.45 147 23:42 04.07.2022
1180 Clouds 15 1022 90 10000 0.45 147 22:59 04.07.2022
1181 Clouds 15 1022 90 10000 0.89 210 22:20 04.07.2022
1182 Clouds 16 1021 88 10000 1.34 178 21:18 04.07.2022
1183 Rain 16 1020 92 10000 0.45 170 20:50 04.07.2022
1184 Rain 16 1020 92 10000 0.45 170 20:50 04.07.2022
1185 Rain 16 1021 91 10000 2.68 157 20:32 04.07.2022
1186 Rain 17 1019 88 7732 0.81 211 19:44 04.07.2022
1187 Rain 17 1019 85 7443 1.25 300 19:25 04.07.2022
1188 Clouds 23 1018 65 10000 2.24 330 17:40 04.07.2022
1189 Clouds 25 1019 54 10000 1.34 333 15:42 04.07.2022
1190 Clouds 23 1020 63 10000 0.89 152 14:39 04.07.2022
1191 Clouds 21 1021 75 10000 0.89 102 13:20 04.07.2022
1192 Clouds 19 1020 78 10000 1.79 188 11:43 04.07.2022
1193 Rain 18 1021 85 10000 1.5 324 10:33 04.07.2022
1194 Rain 16 1021 75 10000 1.19 320 09:36 04.07.2022
1195 Clouds 16 1022 87 10000 0.45 351 06:50 04.07.2022
1196 Clouds 16 1021 84 10000 0.89 117 03:23 04.07.2022
1197 Rain 19 1020 76 10000 1.97 194 23:53 03.07.2022
1198 Clear 20 1020 68 10000 0.45 220 22:55 03.07.2022
1199 Clear 24 1019 54 10000 1.34 294 20:46 03.07.2022
1200 Clear 24 1019 54 10000 1.34 294 20:20 03.07.2022
1201 Clear 26 1017 48 10000 0.89 4 19:25 03.07.2022
1202 Clear 28 1019 44 10000 2.12 346 18:31 03.07.2022
1203 Clear 29 1020 38 10000 0.45 330 17:42 03.07.2022
1204 Clear 28 1020 36 10000 0.45 336 15:28 03.07.2022
1205 Clear 28 1020 38 10000 0.45 336 14:54 03.07.2022
1206 Clear 27 1021 37 10000 0.45 55 13:50 03.07.2022
1207 Clear 26 1021 37 10000 1.34 0 12:49 03.07.2022
1208 Clear 26 1021 41 10000 1.79 327 12:19 03.07.2022
1209 Clear 24 1021 47 10000 0.89 71 10:55 03.07.2022
1210 Clear 23 1021 49 10000 0.89 354 10:36 03.07.2022
1211 Clouds 19 1022 61 10000 0.89 167 08:21 03.07.2022
1212 Clouds 18 1022 56 10000 0.89 164 07:34 03.07.2022
1213 Clouds 17 1021 90 10000 2.06 185 00:41 03.07.2022
1214 Clouds 18 1021 83 10000 0.45 179 23:38 02.07.2022
1215 Clouds 19 1020 84 10000 1.34 168 22:31 02.07.2022
1216 Clear 22 1020 70 10000 1.79 326 20:31 02.07.2022
1217 Clear 24 1020 63 10000 1.79 326 19:49 02.07.2022
1218 Clear 25 1020 61 10000 1.79 319 18:36 02.07.2022
1219 Clear 25 1020 62 10000 0.45 359 17:39 02.07.2022
1220 Clear 24 1021 61 10000 0.45 295 16:30 02.07.2022
1221 Clear 22 1019 64 10000 2.57 9 13:40 02.07.2022
1222 Clear 20 1020 44 10000 1.88 21 11:49 02.07.2022
1223 Clear 19 1021 47 10000 1.37 27 10:51 02.07.2022
1224 Clear 19 1022 53 10000 1.15 53 10:25 02.07.2022
1225 Clear 13 1025 76 10000 0.45 332 08:38 02.07.2022
1226 Clear 13 1025 76 10000 0.45 332 08:19 02.07.2022
1227 Clear 9 1024 90 10000 0.45 188 04:19 02.07.2022
1228 Clouds 11 1025 89 10000 0.45 160 00:28 02.07.2022
1229 Clouds 12 1025 87 10000 0.45 218 23:26 01.07.2022
1230 Clouds 13 1024 82 10000 0.89 174 22:33 01.07.2022
1231 Clouds 13 1024 86 10000 1.34 175 21:38 01.07.2022
1232 Clouds 15 1023 84 10000 1.34 175 20:58 01.07.2022
1233 Clouds 16 1023 77 10000 0.45 77 20:32 01.07.2022
1234 Clouds 15 1023 78 10000 0.45 185 19:36 01.07.2022
1235 Clouds 13 1023 89 10000 1.79 153 16:42 01.07.2022
1236 Rain 13 1021 84 10000 0.45 63 14:34 01.07.2022
1237 Rain 13 1022 84 364 0.45 63 13:51 01.07.2022
1238 Clouds 13 1020 88 164 0.89 123 11:22 01.07.2022
1239 Clouds 12 1020 93 316 2.24 124 10:19 01.07.2022
1240 Rain 14 1018 97 496 0.45 305 07:32 01.07.2022
1241 Rain 15 1019 89 683 0.89 147 02:43 01.07.2022
1242 Clouds 17 1015 93 10000 1.79 136 23:52 30.06.2022
1243 Clouds 17 1014 84 10000 2.31 195 22:51 30.06.2022
1244 Clouds 18 1014 83 10000 0.45 118 22:32 30.06.2022
1245 Clouds 18 1014 83 10000 0.45 118 22:32 30.06.2022
1246 Clouds 18 1014 85 10000 0.89 165 21:54 30.06.2022
1247 Clouds 19 1014 81 10000 0.89 166 20:49 30.06.2022
1248 Clouds 20 1014 79 10000 0.89 162 20:21 30.06.2022
1249 Clouds 20 1014 77 10000 0.45 151 19:48 30.06.2022
1250 Clouds 20 1014 79 6818 2.24 182 18:54 30.06.2022
1251 Clouds 17 1013 90 4580 1.87 350 17:56 30.06.2022
1252 Rain 26 1011 69 9390 2.24 305 17:18 30.06.2022
1253 Rain 25 1011 54 10000 1.75 23 16:18 30.06.2022
1254 Clouds 27 1012 55 10000 2.24 310 13:59 30.06.2022
1255 Clouds 26 1013 58 10000 0.89 310 13:21 30.06.2022
1256 Clouds 25 1012 59 10000 1.34 318 12:34 30.06.2022
1257 Clouds 23 1013 64 10000 1.34 1 10:57 30.06.2022
1258 Clouds 21 1013 67 10000 0.45 360 09:51 30.06.2022
1259 Clouds 20 1014 73 10000 0.45 360 09:23 30.06.2022
1260 Clear 16 1015 79 10000 0.45 151 07:41 30.06.2022
1261 Clear 13 1015 93 10000 0.45 214 05:46 30.06.2022
1262 Clouds 16 1016 86 10000 0.45 149 23:56 29.06.2022
1263 Clouds 17 1016 84 10000 0.45 222 22:42 29.06.2022
1264 Clouds 17 1016 83 10000 0.45 222 22:20 29.06.2022
1265 Clouds 19 1015 73 10000 0.89 165 20:54 29.06.2022
1266 Clouds 21 1015 66 10000 0.45 216 20:32 29.06.2022
1267 Clouds 22 1015 64 10000 1.79 101 19:31 29.06.2022
1268 Clouds 23 1016 61 10000 0.89 311 17:39 29.06.2022
1269 Clouds 23 1016 62 10000 0.45 13 16:31 29.06.2022
1270 Clouds 22 1015 65 10000 1.33 342 13:58 29.06.2022
1271 Clouds 21 1016 70 10000 0.45 203 12:38 29.06.2022
1272 Clouds 17 1017 89 10000 0.45 106 10:19 29.06.2022
1273 Clouds 16 1017 94 10000 0.45 337 09:31 29.06.2022
1274 Clouds 15 1016 94 10000 0.45 206 06:57 29.06.2022
1275 Rain 15 1016 92 10000 0.89 174 04:46 29.06.2022
1276 Clouds 15 1017 94 10000 0.45 160 00:54 29.06.2022
1277 Clouds 15 1017 95 10000 1.33 184 00:35 29.06.2022
1278 Clouds 16 1017 93 10000 0.45 182 22:52 28.06.2022
1279 Clouds 16 1017 91 10000 0.61 147 22:18 28.06.2022
1280 Clouds 17 1017 88 10000 0.45 160 21:49 28.06.2022
1281 Clouds 17 1016 87 10000 0.45 160 21:29 28.06.2022
1282 Rain 19 1016 76 2694 0.89 174 20:18 28.06.2022
1283 Clouds 19 1017 79 10000 0.45 307 19:32 28.06.2022
1284 Rain 19 1016 89 10000 0.67 300 18:40 28.06.2022
1285 Rain 18 1016 75 10000 0.19 344 17:36 28.06.2022
1286 Rain 18 1019 82 10000 2.68 178 15:55 28.06.2022
1287 Rain 18 1018 83 10000 1.39 87 14:54 28.06.2022
1288 Rain 18 1018 80 10000 1.53 58 14:19 28.06.2022
1289 Rain 17 1018 85 10000 1.53 58 13:45 28.06.2022
1290 Rain 17 1018 72 10000 2.11 40 12:35 28.06.2022
1291 Clouds 17 1022 81 10000 0.45 281 10:44 28.06.2022
1292 Clouds 16 1021 86 7196 0.45 316 08:56 28.06.2022
1293 Clouds 16 1021 91 7196 1.64 69 08:38 28.06.2022
1294 Clouds 14 1022 95 129 0.45 351 07:20 28.06.2022
1295 Clouds 14 1022 94 753 0.45 67 04:54 28.06.2022
1296 Rain 14 1021 94 501 1.34 286 23:53 27.06.2022
1297 Rain 14 1021 91 271 1.79 353 23:27 27.06.2022
1298 Rain 15 1023 90 271 2.68 147 22:42 27.06.2022
1299 Rain 16 1022 92 672 0.89 7 21:30 27.06.2022
1300 Clouds 17 1020 95 395 0.45 213 20:34 27.06.2022
1301 Clouds 19 1019 86 2049 0.45 139 18:52 27.06.2022
1302 Clouds 21 1019 75 1853 1.34 181 17:44 27.06.2022
1303 Clouds 21 1019 74 10000 1.34 201 15:51 27.06.2022
1304 Clouds 22 1018 70 10000 0.45 181 14:26 27.06.2022
1305 Clouds 25 1016 66 10000 0.89 356 12:59 27.06.2022
1306 Clouds 25 1016 65 10000 0.89 3 12:36 27.06.2022
1307 Clouds 22 1015 67 10000 0.45 72 09:53 27.06.2022
1308 Clouds 20 1015 77 10000 0.47 33 08:43 27.06.2022
1309 Clouds 18 1016 80 10000 0.45 131 07:53 27.06.2022
1310 Clouds 16 1016 83 10000 0.89 162 06:37 27.06.2022
1311 Clear 17 1014 85 10000 0.89 190 01:26 27.06.2022
1312 Clear 19 1015 80 10000 2.99 157 23:27 26.06.2022
1313 Clear 23 1014 69 10000 0.45 269 21:40 26.06.2022
1314 Clear 24 1013 80 10000 2.14 118 20:34 26.06.2022
1315 Clouds 27 1014 50 10000 1.34 284 19:19 26.06.2022
1316 Clouds 26 1014 51 10000 1.79 320 18:23 26.06.2022
1317 Clouds 26 1014 53 10000 3.58 330 15:38 26.06.2022
1318 Clouds 27 1015 52 10000 0.89 329 14:33 26.06.2022
1319 Clear 26 1015 52 10000 1.34 9 13:27 26.06.2022
1320 Clear 25 1015 57 10000 1.79 15 12:37 26.06.2022
1321 Clear 22 1016 63 10000 0.89 351 10:53 26.06.2022
1322 Clear 21 1016 63 10000 0.89 351 10:22 26.06.2022
1323 Clear 18 1017 79 10000 0.45 202 08:45 26.06.2022
1324 Clouds 15 1018 87 10000 1.34 185 06:50 26.06.2022
1325 Clouds 17 1015 80 10000 0.89 154 00:38 26.06.2022
1326 Clouds 17 1015 79 10000 0.89 154 00:19 26.06.2022
1327 Clouds 17 1016 78 10000 1.54 169 23:31 25.06.2022
1328 Clouds 17 1015 79 10000 0.89 178 22:48 25.06.2022
1329 Clouds 17 1015 79 10000 0.89 178 22:25 25.06.2022
1330 Clouds 18 1014 73 10000 0.89 120 21:21 25.06.2022
1331 Clouds 21 1014 62 10000 0.89 282 20:48 25.06.2022
1332 Clouds 21 1014 62 10000 0.89 282 20:25 25.06.2022
1333 Clouds 24 1014 51 10000 2.64 11 18:26 25.06.2022
1334 Clouds 23 1014 57 10000 0.45 335 17:27 25.06.2022
1335 Clouds 24 1014 53 10000 2.24 339 16:28 25.06.2022
1336 Clouds 23 1015 52 10000 0.89 10 14:41 25.06.2022
1337 Clear 22 1015 48 10000 0.45 292 12:51 25.06.2022
1338 Clear 21 1016 53 10000 1.34 12 12:31 25.06.2022
1339 Clear 17 1017 77 10000 0.45 344 09:35 25.06.2022
1340 Clear 16 1017 82 10000 0.45 344 08:54 25.06.2022
1341 Clear 16 1016 88 10000 0.34 144 08:20 25.06.2022
1342 Clear 12 1017 97 10000 1.28 146 06:36 25.06.2022
1343 Clouds 13 1017 96 10000 0.45 194 00:50 25.06.2022
1344 Clouds 12 1016 96 10000 1.79 139 23:57 24.06.2022
1345 Rain 13 1016 96 10000 0.45 216 22:28 24.06.2022
1346 Rain 13 1015 96 10000 0.45 183 21:26 24.06.2022
1347 Rain 13 1015 88 10000 0.89 179 20:23 24.06.2022
1348 Rain 14 1014 88 4375 1.34 125 19:24 24.06.2022
1349 Rain 14 1014 88 4370 1.34 125 18:51 24.06.2022
1350 Rain 13 1014 97 4370 2.83 269 18:31 24.06.2022
1351 Rain 15 1012 88 736 3.54 295 17:49 24.06.2022
1352 Clouds 18 1012 82 9829 1.79 347 16:45 24.06.2022
1353 Clouds 18 1012 82 9829 1.79 347 16:45 24.06.2022
1354 Clouds 18 1010 68 10000 2.23 0 14:30 24.06.2022
1355 Rain 18 1010 65 10000 2.28 14 13:58 24.06.2022
1356 Rain 18 1011 61 10000 1.9 356 12:49 24.06.2022
1357 Clouds 20 1012 70 10000 0.45 43 11:40 24.06.2022
1358 Clouds 17 1013 88 10000 0.45 306 10:36 24.06.2022
1359 Clouds 16 1013 87 10000 0.45 12 09:41 24.06.2022
1360 Clouds 16 1014 88 10000 0.36 103 08:53 24.06.2022
1361 Clouds 16 1014 88 10000 0.36 103 08:53 24.06.2022
1362 Clouds 16 1014 88 10000 0.45 234 07:56 24.06.2022
1363 Clouds 16 1014 83 10000 0.45 220 06:42 24.06.2022
1364 Rain 16 1014 83 10000 0.45 220 06:20 24.06.2022
1365 Clouds 16 1015 80 10000 1.34 188 03:47 24.06.2022
1366 Clouds 17 1014 89 10000 1.79 174 23:19 23.06.2022
1367 Clouds 17 1013 91 10000 0.89 179 22:40 23.06.2022
1368 Clouds 18 1013 93 4752 1.51 275 20:59 23.06.2022
1369 Clouds 17 1011 88 4752 1.51 275 20:35 23.06.2022
1370 Rain 25 1011 53 10000 1.34 215 19:40 23.06.2022
1371 Clouds 26 1011 51 10000 2.68 352 17:53 23.06.2022
1372 Clouds 27 1012 49 10000 1.79 322 17:33 23.06.2022
1373 Clouds 27 1012 49 10000 1.34 304 15:57 23.06.2022
1374 Clouds 27 1013 49 10000 3.13 333 15:24 23.06.2022
1375 Clear 26 1014 50 10000 1.34 325 13:45 23.06.2022
1376 Clear 23 1015 53 10000 0.89 348 11:27 23.06.2022
1377 Clear 21 1016 63 10000 0.89 355 10:37 23.06.2022
1378 Clear 19 1016 66 10000 0.61 7 09:18 23.06.2022
1379 Clouds 14 1016 86 10000 0.89 159 03:39 23.06.2022
1380 Clouds 15 1016 88 10000 0.89 220 00:26 23.06.2022
1381 Clouds 16 1015 91 10000 2.68 161 23:41 22.06.2022
1382 Rain 16 1016 92 10000 0.89 359 22:41 22.06.2022
1383 Rain 17 1014 91 10000 0.45 186 21:22 22.06.2022
1384 Clouds 18 1013 88 10000 0.45 282 20:43 22.06.2022
1385 Clouds 19 1013 88 10000 0.45 282 19:56 22.06.2022
1386 Clouds 18 1014 91 10000 0.45 25 18:47 22.06.2022
1387 Rain 16 1014 91 10000 1.34 145 17:28 22.06.2022
1388 Rain 16 1014 91 7991 0.89 337 16:29 22.06.2022
1389 Clouds 17 1014 91 5762 0.45 291 15:26 22.06.2022
1390 Clouds 18 1015 89 7464 0.45 230 14:20 22.06.2022
1391 Rain 18 1015 86 10000 0.45 330 13:39 22.06.2022
1392 Rain 18 1015 86 8359 0.45 330 13:21 22.06.2022
1393 Rain 20 1014 72 9252 0.89 136 11:49 22.06.2022
1394 Rain 20 1014 69 10000 0.89 112 10:57 22.06.2022
1395 Clouds 21 1014 69 10000 1.34 321 10:19 22.06.2022
1396 Rain 18 1013 68 10000 0.52 122 08:28 22.06.2022
1397 Clouds 15 1014 89 10000 2.38 164 04:50 22.06.2022
1398 Clouds 17 1015 77 10000 2.24 184 01:24 22.06.2022
1399 Clouds 18 1015 75 10000 2.24 174 00:29 22.06.2022
1400 Rain 20 1014 69 10000 3.58 182 22:19 21.06.2022
1401 Clouds 24 1010 56 10000 0.45 166 19:56 21.06.2022
1402 Clouds 23 1010 60 10000 0.89 341 18:35 21.06.2022
1403 Clouds 27 1012 48 10000 0.89 343 17:39 21.06.2022
1404 Clouds 26 1013 60 10000 0.89 330 13:54 21.06.2022
1405 Clouds 23 1015 68 10000 0.89 350 11:49 21.06.2022
1406 Clouds 22 1012 69 10000 0.45 329 10:18 21.06.2022
1407 Clouds 19 1012 76 10000 0.75 310 08:48 21.06.2022
1408 Clouds 15 1015 87 10000 0.45 157 06:36 21.06.2022
1409 Clouds 17 1016 84 10000 1.34 164 01:43 21.06.2022
1410 Clouds 16 1018 88 10000 0.8 230 23:25 20.06.2022
1411 Clouds 18 1016 82 10000 0.42 233 21:55 20.06.2022
1412 Clouds 19 1015 78 10000 0.45 150 20:53 20.06.2022
1413 Clouds 23 1014 62 10000 4.02 335 19:40 20.06.2022
1414 Clouds 25 1013 54 10000 1.79 328 18:46 20.06.2022
1415 Clouds 27 1013 46 10000 1.79 328 18:00 20.06.2022
1416 Clouds 27 1011 47 10000 0.45 154 17:35 20.06.2022
1417 Clouds 28 1014 47 10000 2.8 270 15:57 20.06.2022
1418 Clouds 25 1014 53 10000 3.58 6 12:56 20.06.2022
1419 Clouds 25 1014 50 10000 0.45 95 11:18 20.06.2022
1420 Clear 24 1015 51 10000 1.94 317 09:41 20.06.2022
1421 Clear 21 1015 58 10000 0.89 300 08:44 20.06.2022
1422 Clouds 17 1013 70 10000 0.45 159 06:19 20.06.2022
1423 Clouds 18 1013 70 10000 2.82 181 02:56 20.06.2022
1424 Clouds 20 1014 64 10000 0.45 164 00:32 20.06.2022
1425 Clouds 21 1014 63 10000 0.45 218 23:18 19.06.2022
1426 Clouds 24 1013 46 10000 0.45 183 21:59 19.06.2022
1427 Clouds 25 1012 48 10000 0.45 136 21:40 19.06.2022
1428 Clouds 27 1010 38 10000 0.45 341 20:44 19.06.2022
1429 Clouds 27 1009 38 10000 0.45 27 19:48 19.06.2022
1430 Clouds 27 1009 38 10000 0.45 27 19:20 19.06.2022
1431 Clouds 28 1009 34 10000 1.34 342 18:30 19.06.2022
1432 Clouds 29 1009 32 10000 0.89 358 17:22 19.06.2022
1433 Clouds 31 1011 30 10000 3.13 20 16:36 19.06.2022
1434 Clouds 31 1011 31 10000 2.24 7 15:43 19.06.2022
1435 Clouds 31 1011 30 10000 2.24 7 15:24 19.06.2022
1436 Clear 31 1011 28 10000 2.24 326 14:20 19.06.2022
1437 Clear 31 1012 33 10000 1.34 340 13:37 19.06.2022
1438 Clear 29 1013 36 10000 1.79 19 11:40 19.06.2022
1439 Clear 28 1013 39 10000 0.45 359 10:47 19.06.2022
1440 Clear 25 1014 47 10000 0.89 164 08:54 19.06.2022
1441 Clouds 23 1013 48 10000 0.45 182 08:22 19.06.2022
1442 Clouds 16 1015 73 10000 3.15 170 05:59 19.06.2022
1443 Clouds 17 1016 74 10000 3.41 165 02:59 19.06.2022
1444 Clear 19 1018 69 10000 2.93 158 00:26 19.06.2022
1445 Clear 21 1018 61 10000 0.89 169 23:36 18.06.2022
1446 Clear 21 1018 60 10000 1.34 173 22:55 18.06.2022
1447 Clear 22 1018 55 10000 0.45 185 21:52 18.06.2022
1448 Clear 24 1017 50 10000 1.86 128 20:49 18.06.2022
1449 Clear 26 1016 41 10000 0.45 343 19:48 18.06.2022
1450 Clear 26 1016 40 10000 2.04 51 18:54 18.06.2022
1451 Clear 29 1018 34 10000 1.34 318 17:43 18.06.2022
1452 Clear 31 1019 31 10000 1.34 318 17:22 18.06.2022
1453 Clear 30 1020 32 10000 1.34 311 15:37 18.06.2022
1454 Clear 30 1022 30 10000 2.57 33 14:48 18.06.2022
1455 Clouds 29 1022 27 10000 1.34 8 13:42 18.06.2022
1456 Clouds 28 1023 29 10000 0.89 16 11:58 18.06.2022
1457 Clouds 25 1023 34 10000 0.89 73 10:56 18.06.2022
1458 Clouds 21 1023 39 10000 0.46 121 09:28 18.06.2022
1459 Clouds 20 1023 39 10000 0.46 121 08:32 18.06.2022
1460 Clouds 15 1024 53 10000 1.97 166 07:23 18.06.2022
1461 Clouds 13 1025 75 10000 2.3 173 04:20 18.06.2022
1462 Clouds 14 1025 74 10000 0.89 224 01:27 18.06.2022
1463 Clouds 15 1025 74 10000 0.89 224 00:50 18.06.2022
1464 Clouds 16 1025 69 10000 2.01 178 00:21 18.06.2022
1465 Clouds 17 1026 66 10000 0.89 212 23:29 17.06.2022
1466 Clouds 19 1026 50 10000 1.16 158 21:44 17.06.2022
1467 Clouds 21 1025 47 10000 0.89 342 20:28 17.06.2022
1468 Clouds 25 1024 37 10000 0.89 344 18:59 17.06.2022
1469 Clouds 26 1024 36 10000 0.45 337 17:46 17.06.2022
1470 Clouds 25 1024 37 10000 2.24 341 16:43 17.06.2022
1471 Clouds 25 1024 38 10000 2.24 341 16:19 17.06.2022
1472 Clouds 26 1024 38 10000 1.34 314 15:37 17.06.2022
1473 Clouds 24 1025 42 10000 1.79 45 14:22 17.06.2022
1474 Clouds 25 1025 40 10000 1.79 45 13:51 17.06.2022
1475 Clouds 24 1025 42 10000 0.89 347 13:31 17.06.2022
1476 Clouds 23 1025 46 10000 2.24 6 11:59 17.06.2022
1477 Clouds 23 1025 45 10000 1.34 325 11:39 17.06.2022
1478 Clouds 22 1025 46 10000 1.34 325 11:21 17.06.2022
1479 Clouds 18 1024 75 10000 0.45 91 08:38 17.06.2022
1480 Clouds 16 1024 86 10000 0.45 91 07:53 17.06.2022
1481 Clouds 14 1024 82 10000 1.34 179 06:35 17.06.2022
1482 Clouds 15 1024 85 10000 0.79 180 03:24 17.06.2022
1483 Clouds 16 1024 82 10000 1.34 174 01:27 17.06.2022
1484 Clouds 17 1023 78 10000 1.34 158 23:30 16.06.2022
1485 Clouds 18 1023 77 10000 0.45 190 22:38 16.06.2022
1486 Clouds 18 1023 77 10000 0.45 190 22:38 16.06.2022
1487 Clouds 19 1022 71 10000 0.45 117 21:19 16.06.2022
1488 Clouds 20 1022 67 10000 0.45 117 20:50 16.06.2022
1489 Clouds 21 1021 62 10000 0.45 326 19:59 16.06.2022
1490 Clouds 21 1020 73 10000 0.45 344 18:48 16.06.2022
1491 Clouds 22 1021 70 10000 0.45 323 17:49 16.06.2022
1492 Clouds 22 1022 69 10000 0.45 231 17:27 16.06.2022
1493 Clouds 19 1022 81 10000 2.24 176 16:19 16.06.2022
1494 Rain 21 1021 58 10000 3.88 282 15:21 16.06.2022
1495 Rain 22 1021 77 10000 0.45 220 14:22 16.06.2022
1496 Clouds 22 1021 78 10000 0.45 178 12:53 16.06.2022
1497 Clouds 23 1021 58 10000 3.81 288 12:34 16.06.2022
1498 Clouds 21 1020 52 10000 3.43 276 11:48 16.06.2022
1499 Clouds 21 1020 57 10000 2.43 254 10:41 16.06.2022
1500 Rain 20 1020 58 10000 2.16 273 09:43 16.06.2022
1501 Rain 20 1020 68 10000 2.22 273 08:56 16.06.2022
1502 Clouds 16 1019 79 10000 0.45 130 07:41 16.06.2022
1503 Clouds 15 1019 80 10000 2.53 181 05:51 16.06.2022
1504 Clear 16 1020 73 10000 2.94 189 03:56 16.06.2022
1505 Clouds 17 1021 69 10000 2.99 196 01:52 16.06.2022
1506 Rain 17 1020 68 10000 1.34 147 01:22 16.06.2022
1507 Clouds 17 1019 71 10000 1.34 150 00:22 16.06.2022
1508 Clouds 16 1021 84 10000 2.8 175 22:53 15.06.2022
1509 Clouds 20 1021 83 10000 2.81 172 21:37 15.06.2022
1510 Clouds 21 1019 74 10000 2.2 164 20:59 15.06.2022
1511 Clouds 23 1019 74 10000 2.2 164 20:36 15.06.2022
1512 Clouds 21 1018 69 10000 0.72 212 19:57 15.06.2022
1513 Clouds 28 1018 35 10000 1.41 292 18:37 15.06.2022
1514 Clouds 28 1017 34 10000 2.88 304 17:46 15.06.2022
1515 Clouds 28 1018 36 10000 0.89 132 16:23 15.06.2022
1516 Clouds 27 1019 37 10000 0.45 205 14:57 15.06.2022
1517 Clouds 25 1019 35 10000 0.45 279 13:22 15.06.2022
1518 Clouds 25 1019 43 10000 0.45 74 12:40 15.06.2022
1519 Clear 24 1017 47 10000 0.45 298 11:25 15.06.2022
1520 Clear 22 1017 45 10000 0.45 330 10:22 15.06.2022
1521 Clear 21 1018 47 10000 1.16 257 08:59 15.06.2022
1522 Clouds 15 1018 52 10000 1.57 202 07:36 15.06.2022
1523 Clear 11 1019 55 10000 2.65 182 05:36 15.06.2022
1524 Clear 12 1019 87 10000 0.89 172 02:47 15.06.2022
1525 Clouds 13 1019 86 10000 0.45 205 01:36 15.06.2022
1526 Clouds 15 1020 78 10000 0.45 155 00:19 15.06.2022
1527 Clouds 15 1020 77 10000 1.34 168 23:38 14.06.2022
1528 Clouds 16 1020 73 10000 0.45 173 22:46 14.06.2022
1529 Clouds 17 1020 69 10000 1.66 149 21:43 14.06.2022
1530 Clear 18 1020 67 10000 0.45 78 20:58 14.06.2022
1531 Clear 18 1020 67 10000 0.45 78 20:38 14.06.2022
1532 Clear 21 1019 55 10000 1.79 326 19:47 14.06.2022
1533 Clear 24 1019 48 10000 1.79 316 18:33 14.06.2022
1534 Clear 24 1019 47 10000 0.45 7 16:53 14.06.2022
1535 Clear 24 1020 46 10000 1.79 334 16:34 14.06.2022
1536 Clear 24 1020 48 10000 1.79 344 15:36 14.06.2022
1537 Clear 23 1020 48 10000 1.79 344 14:53 14.06.2022
1538 Clear 22 1020 51 10000 2.24 305 13:59 14.06.2022
1539 Clear 21 1021 51 10000 2.68 334 12:59 14.06.2022
1540 Clear 21 1021 52 10000 1.79 341 11:56 14.06.2022
1541 Clear 19 1021 56 10000 0.89 350 10:52 14.06.2022
1542 Clear 19 1021 60 10000 0.45 108 10:28 14.06.2022
1543 Clear 16 1022 69 10000 0.97 357 09:18 14.06.2022
1544 Clear 16 1021 58 10000 0.97 357 08:37 14.06.2022
1545 Clear 9 1022 92 10000 1.64 173 06:20 14.06.2022
1546 Clear 10 1022 88 10000 0.45 222 03:45 14.06.2022
1547 Clear 12 1022 84 10000 1.28 158 01:37 14.06.2022
1548 Clear 13 1022 80 10000 0.45 227 00:21 14.06.2022
1549 Clear 13 1025 72 10000 0.45 130 22:45 13.06.2022
1550 Clear 13 1025 72 10000 0.45 130 22:22 13.06.2022
1551 Clear 15 1024 61 10000 2.24 181 21:26 13.06.2022
1552 Clouds 17 1022 64 10000 1.59 342 19:59 13.06.2022
1553 Clouds 21 1021 44 10000 0.45 288 18:54 13.06.2022
1554 Clouds 22 1021 43 10000 0.45 192 17:56 13.06.2022
1555 Clouds 21 1021 47 10000 0.45 196 17:24 13.06.2022
1556 Clouds 20 1022 48 10000 1.34 98 16:30 13.06.2022
1557 Clouds 18 1022 65 10000 3.13 116 14:49 13.06.2022
1558 Clouds 18 1022 71 10000 0.45 182 14:31 13.06.2022
1559 Clouds 16 1023 81 10000 0.89 154 13:31 13.06.2022
1560 Clouds 14 1023 85 7953 1.34 130 12:22 13.06.2022
1561 Rain 15 1021 92 2814 1.79 129 10:37 13.06.2022
1562 Rain 15 1021 93 6940 1.79 129 09:54 13.06.2022
1563 Rain 14 1021 93 10000 1.34 176 08:40 13.06.2022
1564 Clouds 15 1020 88 9892 1.82 245 06:36 13.06.2022
1565 Clouds 15 1020 90 7682 1.34 144 04:43 13.06.2022
1566 Rain 16 1023 81 10000 0.89 184 01:45 13.06.2022
1567 Rain 17 1022 73 10000 0.89 184 01:18 13.06.2022
1568 Clear 17 1020 64 10000 0.45 256 23:48 12.06.2022
1569 Clear 18 1020 61 10000 0.45 237 22:39 12.06.2022
1570 Clear 20 1020 48 10000 0.45 157 21:46 12.06.2022
1571 Clear 22 1019 44 10000 1.34 180 20:53 12.06.2022
1572 Clear 24 1018 40 10000 1.31 349 19:58 12.06.2022
1573 Clear 24 1018 40 10000 1.63 336 19:25 12.06.2022
1574 Clear 27 1020 30 10000 0.89 335 17:36 12.06.2022
1575 Clear 27 1021 25 10000 1.79 1 15:52 12.06.2022
1576 Clear 27 1021 30 10000 2.24 354 14:50 12.06.2022
1577 Clear 27 1022 31 10000 1.34 351 14:18 12.06.2022
1578 Clear 26 1022 33 10000 1.34 351 13:45 12.06.2022
1579 Clear 24 1023 35 10000 0.89 282 12:28 12.06.2022
1580 Clear 21 1024 42 10000 1.79 345 10:46 12.06.2022
1581 Clear 20 1023 35 10000 0.45 2 09:42 12.06.2022
1582 Clear 19 1024 39 10000 0.58 95 08:50 12.06.2022
1583 Clear 17 1025 32 10000 0.45 156 07:52 12.06.2022
1584 Clear 12 1024 82 10000 2.04 164 06:27 12.06.2022
1585 Clear 11 1024 85 10000 2.14 163 03:54 12.06.2022
1586 Clear 13 1025 75 10000 0.45 207 02:27 12.06.2022
1587 Clear 12 1025 81 10000 0.45 183 01:35 12.06.2022
1588 Clear 14 1025 72 10000 0.45 74 00:48 12.06.2022
1589 Clear 14 1025 71 10000 0.45 74 00:19 12.06.2022
1590 Clear 15 1025 71 10000 1.57 159 23:21 11.06.2022
1591 Clear 16 1026 65 10000 0.89 180 22:37 11.06.2022
1592 Clear 17 1026 59 10000 0.68 46 21:18 11.06.2022
1593 Clear 20 1024 53 10000 0.45 337 20:26 11.06.2022
1594 Clear 23 1023 41 10000 1.34 337 19:36 11.06.2022
1595 Clear 22 1023 47 10000 1.34 292 18:45 11.06.2022
1596 Clear 24 1023 42 10000 1.34 292 18:26 11.06.2022
1597 Clear 24 1023 41 10000 1.34 308 17:48 11.06.2022
1598 Clear 24 1023 42 10000 1.34 308 17:26 11.06.2022
1599 Clear 24 1023 42 10000 1.79 338 16:43 11.06.2022
1600 Clear 24 1023 42 10000 1.79 338 16:18 11.06.2022
1601 Clear 23 1024 43 10000 2.68 344 14:44 11.06.2022
1602 Clear 22 1024 46 10000 2.68 344 13:52 11.06.2022
1603 Clear 21 1024 45 10000 1.79 315 12:19 11.06.2022
1604 Clear 18 1024 58 10000 0.45 309 10:31 11.06.2022
1605 Clear 16 1024 65 10000 1.34 353 09:41 11.06.2022
1606 Clear 15 1026 68 10000 1.2 355 08:38 11.06.2022
1607 Clear 9 1025 86 10000 0.45 225 06:33 11.06.2022
1608 Clear 8 1024 93 10000 0.45 206 05:33 11.06.2022
1609 Clear 10 1025 88 10000 0.45 212 02:55 11.06.2022
1610 Clear 10 1024 89 10000 0.45 210 01:41 11.06.2022
1611 Clear 11 1025 86 10000 0.89 159 00:55 11.06.2022
1612 Clear 12 1027 82 10000 1.55 143 23:25 10.06.2022
1613 Clear 12 1027 78 10000 0.45 155 22:20 10.06.2022
1614 Clouds 14 1026 70 10000 1.13 66 21:22 10.06.2022
1615 Clouds 15 1025 72 10000 0.45 343 20:37 10.06.2022
1616 Clouds 16 1025 66 10000 0.45 343 20:19 10.06.2022
1617 Clouds 19 1023 55 10000 1.34 327 19:19 10.06.2022
1618 Clouds 19 1023 54 10000 0.45 4 18:29 10.06.2022
1619 Clouds 19 1023 53 10000 2.24 352 17:42 10.06.2022
1620 Clouds 19 1023 55 10000 2.24 352 16:59 10.06.2022
1621 Clouds 19 1023 56 10000 0.89 324 16:23 10.06.2022
1622 Clouds 18 1023 57 10000 0.45 252 15:37 10.06.2022
1623 Clouds 17 1024 61 10000 1.79 270 13:57 10.06.2022
1624 Clouds 17 1024 63 10000 0.89 315 12:50 10.06.2022
1625 Clouds 15 1024 68 10000 0.45 92 11:43 10.06.2022
1626 Clouds 13 1025 74 10000 0.45 327 10:45 10.06.2022
1627 Clouds 12 1025 81 10000 0.89 335 09:48 10.06.2022
1628 Clouds 10 1026 89 10000 0.45 157 08:33 10.06.2022
1629 Clouds 9 1026 93 10000 0.44 108 07:26 10.06.2022
1630 Clouds 9 1026 94 10000 0.45 168 06:44 10.06.2022
1631 Clouds 8 1026 94 10000 0.45 168 06:25 10.06.2022
1632 Clouds 9 1025 92 10000 1.34 161 03:55 10.06.2022
1633 Clouds 10 1023 94 10000 0.45 191 01:41 10.06.2022
1634 Clouds 10 1023 92 10000 0.45 306 00:32 10.06.2022
1635 Clouds 10 1024 87 10000 0.45 225 23:38 09.06.2022
1636 Clouds 11 1024 80 10000 0.54 282 22:18 09.06.2022
1637 Clouds 11 1023 82 10000 1.79 144 21:33 09.06.2022
1638 Clouds 12 1022 79 10000 1.79 144 20:54 09.06.2022
1639 Clouds 13 1020 76 10000 1.34 115 19:59 09.06.2022
1640 Clouds 13 1019 74 7574 0.45 178 19:19 09.06.2022
1641 Clouds 13 1019 69 10000 0.89 201 18:21 09.06.2022
1642 Clouds 14 1018 64 10000 1.79 146 16:50 09.06.2022
1643 Clouds 14 1017 66 10000 2.62 308 15:48 09.06.2022
1644 Clouds 13 1016 59 10000 2.93 302 14:35 09.06.2022
1645 Clouds 13 1016 61 10000 1.88 312 13:51 09.06.2022
1646 Clouds 11 1017 84 10000 0.89 142 13:27 09.06.2022
1647 Rain 10 1017 94 10000 0.89 125 11:54 09.06.2022
1648 Rain 9 1017 94 10000 0.45 208 11:18 09.06.2022
1649 Rain 9 1016 91 7364 1.61 284 09:43 09.06.2022
1650 Rain 10 1015 88 10000 1.83 284 09:23 09.06.2022
1651 Rain 9 1016 91 10000 1.34 130 07:45 09.06.2022
1652 Rain 9 1015 90 10000 4.47 185 06:28 09.06.2022
1653 Clouds 11 1014 92 10000 1.34 157 02:38 09.06.2022
1654 Clouds 11 1015 92 10000 1.34 152 23:36 08.06.2022
1655 Clouds 12 1014 94 10000 1.34 152 22:58 08.06.2022
1656 Clouds 11 1014 93 6738 0.89 148 22:26 08.06.2022
1657 Rain 11 1013 94 6738 0.89 148 21:52 08.06.2022
1658 Rain 11 1014 92 6917 1.34 217 20:59 08.06.2022
1659 Rain 12 1014 88 3706 0.89 193 19:56 08.06.2022
1660 Rain 13 1012 80 2145 0.45 224 19:27 08.06.2022
1661 Rain 13 1012 83 2145 0.45 42 18:42 08.06.2022
1662 Clouds 18 1009 70 10000 1.34 347 16:54 08.06.2022
1663 Clouds 21 1010 54 10000 1.34 281 15:44 08.06.2022
1664 Clouds 19 1011 59 10000 0.45 334 13:44 08.06.2022
1665 Clouds 18 1012 60 10000 1.34 284 11:51 08.06.2022
1666 Clouds 17 1012 65 10000 0.89 310 11:26 08.06.2022
1667 Clouds 15 1013 74 10000 0.89 90 09:55 08.06.2022
1668 Clear 14 1014 80 10000 0.89 83 09:20 08.06.2022
1669 Clouds 13 1015 90 10000 0.78 127 08:22 08.06.2022
1670 Clear 11 1016 92 10000 0.89 182 05:47 08.06.2022
1671 Clear 11 1017 94 10000 0.89 215 03:52 08.06.2022
1672 Clouds 12 1018 83 10000 0.45 203 00:29 08.06.2022
1673 Clouds 12 1018 82 10000 1.79 178 23:27 07.06.2022
1674 Clouds 12 1018 84 10000 1.79 181 22:44 07.06.2022
1675 Clouds 12 1018 83 10000 1.79 181 22:22 07.06.2022
1676 Clouds 13 1018 82 10000 0.45 146 21:28 07.06.2022
1677 Clouds 13 1018 79 10000 0.89 170 20:53 07.06.2022
1678 Clouds 15 1017 76 10000 1.79 187 20:31 07.06.2022
1679 Clouds 16 1017 71 9390 0.45 215 19:27 07.06.2022
1680 Rain 16 1017 75 10000 1.79 147 18:19 07.06.2022
1681 Rain 17 1016 71 10000 0.45 42 17:21 07.06.2022
1682 Clouds 17 1016 71 10000 0.45 137 16:41 07.06.2022
1683 Clouds 16 1017 80 10000 0.45 239 15:43 07.06.2022
1684 Clouds 16 1017 81 10000 0.45 239 15:23 07.06.2022
1685 Rain 15 1017 83 10000 0.89 336 14:46 07.06.2022
1686 Rain 15 1017 83 10000 0.89 336 14:27 07.06.2022
1687 Clouds 14 1017 90 8424 0.45 315 13:30 07.06.2022
1688 Rain 14 1018 89 7357 2.68 21 12:45 07.06.2022
1689 Rain 13 1019 93 10000 0.45 67 11:31 07.06.2022
1690 Rain 13 1018 94 10000 0.89 128 10:26 07.06.2022
1691 Rain 13 1018 95 10000 1.34 135 08:49 07.06.2022
1692 Rain 13 1018 95 10000 1.34 135 08:49 07.06.2022
1693 Rain 13 1018 95 10000 1.34 135 08:49 07.06.2022
1694 Clouds 13 1017 93 1933 0.45 194 07:23 07.06.2022
1695 Rain 13 1017 92 4720 0.89 155 05:56 07.06.2022
1696 Rain 14 1018 90 8073 3.13 181 03:18 07.06.2022
1697 Rain 15 1018 95 10000 1.34 136 00:42 07.06.2022
1698 Rain 15 1019 94 10000 1.34 138 23:35 06.06.2022
1699 Rain 15 1019 92 10000 1.34 173 22:45 06.06.2022
1700 Clouds 15 1019 92 10000 0.45 176 21:43 06.06.2022
1701 Rain 18 1018 79 9313 0.35 47 20:19 06.06.2022
1702 Clouds 20 1018 65 10000 0.45 308 19:23 06.06.2022
1703 Clouds 18 1018 68 10000 2.24 12 18:46 06.06.2022
1704 Clouds 20 1018 62 10000 2.24 12 17:52 06.06.2022
1705 Clouds 21 1018 58 10000 2.68 277 16:39 06.06.2022
1706 Clouds 22 1018 58 10000 1.79 337 15:40 06.06.2022
1707 Clouds 22 1018 57 10000 1.79 337 14:56 06.06.2022
1708 Clouds 20 1019 66 10000 2.68 302 13:37 06.06.2022
1709 Clouds 20 1019 65 10000 1.79 316 12:44 06.06.2022
1710 Clouds 20 1019 65 10000 1.79 316 12:26 06.06.2022
1711 Clouds 19 1019 68 10000 2.24 282 11:45 06.06.2022
1712 Clouds 16 1020 73 10000 1.83 354 09:43 06.06.2022
1713 Clouds 15 1020 67 10000 1.34 331 08:35 06.06.2022
1714 Clouds 14 1021 67 10000 0.45 179 07:41 06.06.2022
1715 Clouds 10 1020 94 10000 0.45 167 05:48 06.06.2022
1716 Clear 11 1020 94 10000 0.89 158 04:28 06.06.2022
1717 Clouds 13 1021 86 10000 0.89 150 01:30 06.06.2022
1718 Clouds 14 1022 86 10000 1.79 187 00:47 06.06.2022
1719 Clouds 14 1022 86 10000 1.79 187 00:28 06.06.2022
1720 Clouds 14 1022 88 10000 0.45 213 22:58 05.06.2022
1721 Rain 15 1021 84 10000 0.89 208 21:56 05.06.2022
1722 Clouds 16 1018 77 10000 1.34 170 20:23 05.06.2022
1723 Clouds 15 1019 84 8929 0.45 204 18:51 05.06.2022
1724 Rain 15 1019 89 4072 1.34 153 17:58 05.06.2022
1725 Rain 14 1017 89 4072 2.65 276 17:38 05.06.2022
1726 Rain 14 1017 89 4072 2.65 276 17:38 05.06.2022
1727 Rain 13 1014 89 3676 4.06 286 17:19 05.06.2022
1728 Rain 15 1014 85 3676 4.06 286 16:46 05.06.2022
1729 Clouds 22 1016 59 10000 1.34 341 14:59 05.06.2022
1730 Clouds 23 1016 57 10000 2.68 20 13:55 05.06.2022
1731 Clouds 23 1013 49 10000 2.41 321 11:58 05.06.2022
1732 Clouds 21 1017 67 10000 0.45 66 10:45 05.06.2022
1733 Clouds 21 1017 69 10000 0.45 66 10:24 05.06.2022
1734 Clouds 20 1017 73 10000 1.34 102 09:21 05.06.2022
1735 Clouds 19 1016 73 10000 0.89 82 08:22 05.06.2022
1736 Clouds 14 1016 94 10000 0.45 181 05:24 05.06.2022
1737 Clouds 14 1017 94 10000 0.45 180 04:36 05.06.2022
1738 Clouds 16 1018 92 10000 0.45 206 02:19 05.06.2022
1739 Clouds 16 1019 90 10000 0.89 207 01:23 05.06.2022
1740 Clouds 18 1020 87 10000 0.45 182 22:48 04.06.2022
1741 Clouds 20 1020 89 10000 2.7 145 21:24 04.06.2022
1742 Clouds 21 1018 65 10000 1.8 134 18:58 04.06.2022
1743 Clouds 26 1018 48 10000 5.36 337 16:48 04.06.2022
1744 Clear 27 1018 47 10000 5.36 337 16:20 04.06.2022
1745 Clear 26 1018 52 10000 1.34 311 15:35 04.06.2022
1746 Clouds 25 1018 56 10000 4.02 339 13:57 04.06.2022
1747 Clouds 22 1019 63 10000 0.89 352 11:28 04.06.2022
1748 Clouds 21 1019 65 10000 0.89 352 10:52 04.06.2022
1749 Clouds 17 1018 57 10000 1.67 350 09:46 04.06.2022
1750 Clouds 19 1018 63 10000 0.45 177 08:50 04.06.2022
1751 Clouds 17 1019 82 10000 1.16 351 08:31 04.06.2022
1752 Clouds 11 1019 93 10000 2.5 161 06:20 04.06.2022
1753 Clouds 11 1019 94 10000 2.4 164 03:37 04.06.2022
1754 Clouds 13 1019 94 10000 2.75 172 00:21 04.06.2022
1755 Clouds 15 1019 85 10000 0.45 198 22:54 03.06.2022
1756 Clouds 16 1019 90 10000 0.89 207 21:46 03.06.2022
1757 Rain 16 1019 90 10000 0.89 132 20:40 03.06.2022
1758 Rain 17 1019 84 10000 0.45 245 19:19 03.06.2022
1759 Rain 18 1017 80 10000 3.13 178 16:54 03.06.2022
1760 Rain 21 1016 65 10000 3.13 131 15:51 03.06.2022
1761 Clouds 26 1016 49 10000 0.89 322 13:51 03.06.2022
1762 Clouds 24 1016 52 10000 1.79 344 11:51 03.06.2022
1763 Clouds 21 1017 62 10000 0.45 290 09:54 03.06.2022
1764 Clouds 19 1018 69 10000 0.45 340 09:29 03.06.2022
1765 Clouds 19 1018 69 10000 0.45 340 09:29 03.06.2022
1766 Clouds 15 1018 74 10000 1.81 157 07:42 03.06.2022
1767 Clouds 12 1019 94 10000 0.45 219 06:46 03.06.2022
1768 Clouds 12 1019 94 10000 0.45 219 06:27 03.06.2022
1769 Clouds 13 1019 92 10000 0.45 239 02:50 03.06.2022
1770 Clouds 15 1020 87 10000 1.95 155 23:36 02.06.2022
1771 Clouds 16 1019 83 10000 1.34 155 21:58 02.06.2022
1772 Clouds 18 1019 74 10000 0.45 92 20:34 02.06.2022
1773 Clouds 20 1019 72 10000 0.45 92 19:54 02.06.2022
1774 Clouds 20 1019 65 10000 2.24 314 19:36 02.06.2022
1775 Rain 21 1018 60 10000 1.34 343 18:34 02.06.2022
1776 Clouds 19 1018 67 10000 0.89 167 16:28 02.06.2022
1777 Clouds 20 1019 64 10000 0.89 167 15:46 02.06.2022
1778 Clouds 19 1018 58 9854 2.59 330 13:30 02.06.2022
1779 Clouds 19 1018 58 9854 2.59 330 13:30 02.06.2022
1780 Clouds 18 1019 73 10000 1.34 51 12:46 02.06.2022
1781 Rain 16 1019 81 10000 0.45 244 10:34 02.06.2022
1782 Clouds 14 1018 91 10000 0.89 12 09:29 02.06.2022
1783 Clouds 13 1019 95 10000 0.89 12 08:38 02.06.2022
1784 Clouds 13 1019 96 10000 0.28 72 08:19 02.06.2022
1785 Clouds 11 1019 97 10000 0.45 197 06:20 02.06.2022
1786 Clouds 11 1018 97 10000 0.45 357 03:49 02.06.2022
1787 Rain 12 1019 95 10000 0.45 105 00:39 02.06.2022
1788 Rain 12 1019 95 10000 1.34 202 22:57 01.06.2022
1789 Clouds 13 1018 94 10000 0.45 138 21:52 01.06.2022
1790 Clouds 13 1018 93 10000 0.1 164 21:22 01.06.2022
1791 Clouds 13 1018 93 10000 0.45 161 20:38 01.06.2022
1792 Clouds 13 1018 92 10000 0.45 161 19:50 01.06.2022
1793 Rain 13 1018 91 2636 1.34 146 18:24 01.06.2022
1794 Rain 15 1017 81 10000 0.45 217 16:48 01.06.2022
1795 Rain 17 1016 67 10000 2.3 317 15:42 01.06.2022
1796 Rain 17 1016 67 10000 2.3 317 15:42 01.06.2022
1797 Clouds 19 1016 58 10000 1.79 348 14:35 01.06.2022
1798 Clouds 21 1016 51 10000 1.79 13 13:18 01.06.2022
1799 Clouds 17 1016 64 10000 0.45 3 10:42 01.06.2022
1800 Clouds 15 1017 75 10000 0.45 51 09:27 01.06.2022
1801 Clouds 12 1017 93 10000 1.28 188 07:59 01.06.2022
1802 Clouds 10 1017 94 10000 1.78 177 07:20 01.06.2022
1803 Clouds 10 1017 95 10000 0.45 185 03:22 01.06.2022
1804 Clouds 11 1017 94 10000 0.89 177 23:47 31.05.2022
1805 Clouds 11 1016 94 10000 0.89 166 22:38 31.05.2022
1806 Clouds 11 1016 94 10000 0.89 166 22:18 31.05.2022
1807 Rain 11 1016 93 10000 1.34 156 21:22 31.05.2022
1808 Rain 12 1016 91 10000 1.72 201 20:41 31.05.2022
1809 Rain 12 1015 89 5990 1.79 135 18:57 31.05.2022
1810 Rain 13 1015 84 7394 1.4 317 18:19 31.05.2022
1811 Rain 12 1015 98 7394 1.4 317 17:35 31.05.2022
1812 Rain 16 1014 58 10000 0.89 42 15:42 31.05.2022
1813 Rain 18 1013 46 10000 1.34 218 14:36 31.05.2022
1814 Clouds 20 1013 41 10000 2.68 351 12:39 31.05.2022
1815 Clouds 20 1013 41 10000 2.68 351 12:18 31.05.2022
1816 Clouds 17 1013 48 10000 0.45 129 09:53 31.05.2022
1817 Clouds 10 1013 59 10000 1.37 155 07:42 31.05.2022
1818 Clouds 6 1013 89 10000 2.73 162 05:25 31.05.2022
1819 Clouds 6 1013 87 10000 0.45 224 02:51 31.05.2022
1820 Clouds 9 1014 82 10000 0.45 190 23:29 30.05.2022
1821 Clouds 9 1014 80 10000 0.45 190 23:00 30.05.2022
1822 Clouds 9 1013 78 10000 0.45 228 22:31 30.05.2022
1823 Clouds 10 1015 84 10000 2 145 21:35 30.05.2022
1824 Clouds 8 1013 83 10000 1.24 119 20:41 30.05.2022
1825 Clouds 9 1013 83 10000 1.08 130 19:38 30.05.2022
1826 Clouds 12 1014 61 10000 1.23 161 17:44 30.05.2022
1827 Clouds 11 1014 63 10000 0.89 6 16:54 30.05.2022
1828 Clouds 12 1013 63 9146 1.34 153 15:43 30.05.2022
1829 Clouds 13 1011 56 10000 1.34 331 12:58 30.05.2022
1830 Clouds 12 1010 62 10000 0.45 355 11:26 30.05.2022
1831 Clouds 9 1010 80 10000 0.45 28 09:39 30.05.2022
1832 Clouds 5 1011 91 10000 0.45 49 07:24 30.05.2022
1833 Clouds 4 1011 92 10000 0.45 197 05:51 30.05.2022
1834 Clouds 4 1013 92 10000 1.34 137 02:36 30.05.2022
1835 Clouds 5 1014 92 10000 0.45 222 23:28 29.05.2022
1836 Clouds 6 1012 89 10000 0.45 330 22:39 29.05.2022
1837 Clouds 7 1011 85 10000 1.34 154 21:40 29.05.2022
1838 Clouds 8 1012 82 10000 1.34 159 19:57 29.05.2022
1839 Clouds 9 1012 85 10000 1.34 163 19:27 29.05.2022
1840 Rain 8 1012 77 10000 1.34 316 17:48 29.05.2022
1841 Clouds 9 1011 79 6039 3.13 13 15:50 29.05.2022
1842 Rain 10 1011 75 6039 1.79 353 15:32 29.05.2022
1843 Clouds 10 1009 69 6090 2.66 331 14:31 29.05.2022
1844 Clouds 12 1011 66 8072 0.45 321 11:55 29.05.2022
1845 Clouds 9 1011 75 10000 2.29 332 10:44 29.05.2022
1846 Rain 9 1011 80 10000 1.84 333 09:52 29.05.2022
1847 Rain 6 1012 87 10000 0.38 13 07:28 29.05.2022
1848 Clouds 5 1014 87 10000 0.45 77 04:50 29.05.2022
1849 Clouds 5 1014 87 10000 0.89 125 04:31 29.05.2022
1850 Clouds 7 1019 78 10000 1.1 115 00:35 29.05.2022
1851 Clouds 8 1020 75 10000 0.45 204 23:42 28.05.2022
1852 Clouds 9 1018 71 10000 0.45 102 22:46 28.05.2022
1853 Clouds 8 1020 75 10000 0.88 72 21:42 28.05.2022
1854 Clouds 11 1018 63 10000 1.34 307 20:30 28.05.2022
1855 Clouds 11 1018 61 10000 0.89 332 19:18 28.05.2022
1856 Clouds 13 1017 63 10000 1.79 12 17:48 28.05.2022
1857 Clouds 14 1016 56 10000 0.45 227 16:53 28.05.2022
1858 Clouds 14 1017 62 10000 2.68 302 15:44 28.05.2022
1859 Clouds 14 1018 65 10000 0.89 352 14:37 28.05.2022
1860 Clouds 14 1019 72 10000 1.34 335 13:26 28.05.2022
1861 Clouds 13 1019 81 10000 0.89 352 12:41 28.05.2022
1862 Clouds 10 1021 94 5286 0.89 181 11:27 28.05.2022
1863 Clouds 10 1021 94 973 1.34 355 10:25 28.05.2022
1864 Clouds 11 1019 89 973 0.45 322 09:30 28.05.2022
1865 Clouds 10 1019 90 7653 0.45 167 07:47 28.05.2022
1866 Clouds 10 1020 91 7726 1.26 318 06:32 28.05.2022
1867 Clouds 10 1020 87 9440 3.13 144 04:21 28.05.2022
1868 Clouds 11 1024 89 2334 1.44 301 00:50 28.05.2022
1869 Clouds 14 1022 78 8085 2.24 356 23:42 27.05.2022
1870 Clouds 13 1023 75 10000 0.45 346 22:24 27.05.2022
1871 Clouds 15 1022 74 10000 0.45 176 20:57 27.05.2022
1872 Clouds 17 1021 65 10000 1.79 308 20:31 27.05.2022
1873 Clouds 18 1020 63 10000 1.79 308 19:55 27.05.2022
1874 Clouds 17 1020 70 10000 0.89 346 19:33 27.05.2022
1875 Clouds 19 1019 69 10000 0.45 36 18:29 27.05.2022
1876 Clouds 21 1020 55 10000 0.45 153 16:42 27.05.2022
1877 Clouds 22 1020 52 10000 0.89 239 15:34 27.05.2022
1878 Clouds 22 1020 50 10000 2.68 294 14:44 27.05.2022
1879 Clouds 22 1021 47 10000 0.89 126 13:30 27.05.2022
1880 Clouds 18 1022 60 10000 0.45 329 11:41 27.05.2022
1881 Clouds 18 1022 61 10000 0.45 329 11:23 27.05.2022
1882 Clouds 17 1023 64 10000 2.24 129 10:32 27.05.2022
1883 Clouds 16 1021 66 10000 2.1 298 09:37 27.05.2022
1884 Clouds 12 1023 86 10000 1.23 252 08:19 27.05.2022
1885 Clouds 9 1025 91 10000 0.45 168 06:45 27.05.2022
1886 Clouds 10 1025 88 10000 0.45 181 02:53 27.05.2022
1887 Clouds 12 1026 82 10000 0.89 159 00:37 27.05.2022
1888 Clouds 13 1027 76 10000 0.45 156 22:47 26.05.2022
1889 Clouds 14 1026 74 10000 1.15 192 21:42 26.05.2022
1890 Clouds 14 1025 73 10000 0.59 249 20:59 26.05.2022
1891 Clouds 19 1023 54 10000 1.34 213 19:27 26.05.2022
1892 Clouds 19 1023 55 10000 1.77 324 18:19 26.05.2022
1893 Clouds 19 1023 56 10000 0.45 323 16:56 26.05.2022
1894 Clouds 20 1023 54 10000 0.89 329 15:46 26.05.2022
1895 Clouds 20 1023 53 10000 0.89 279 14:46 26.05.2022
1896 Clouds 17 1024 63 10000 0.89 5 13:23 26.05.2022
1897 Clouds 16 1025 63 10000 1.34 65 11:36 26.05.2022
1898 Clouds 15 1024 71 10000 1.49 301 10:24 26.05.2022
1899 Clouds 13 1023 83 10000 1.49 301 09:35 26.05.2022
1900 Clouds 11 1027 80 10000 1.32 301 08:37 26.05.2022
1901 Clouds 8 1024 88 10000 0.45 227 05:22 26.05.2022
1902 Clouds 10 1024 84 10000 1.34 178 01:24 26.05.2022
1903 Clouds 11 1023 86 10000 0.89 156 23:40 25.05.2022
1904 Clouds 12 1022 84 10000 1.34 169 22:29 25.05.2022
1905 Clouds 13 1023 82 10000 0.89 171 21:33 25.05.2022
1906 Clouds 14 1020 76 10000 0.89 181 20:38 25.05.2022
1907 Clouds 16 1019 65 10000 0.45 224 19:31 25.05.2022
1908 Clouds 16 1019 61 10000 0.89 328 17:46 25.05.2022
1909 Clouds 16 1019 63 10000 0.45 224 16:40 25.05.2022
1910 Clouds 16 1019 63 10000 0.45 224 15:57 25.05.2022
1911 Clouds 16 1018 62 10000 0.89 226 14:55 25.05.2022
1912 Clouds 15 1018 64 10000 0.45 41 14:33 25.05.2022
1913 Clouds 15 1018 66 10000 0.45 41 13:56 25.05.2022
1914 Clouds 15 1017 61 10000 0.64 322 12:45 25.05.2022
1915 Clouds 10 1019 93 10000 0.45 338 10:54 25.05.2022
1916 Clouds 10 1019 93 10000 1.34 331 10:19 25.05.2022
1917 Rain 10 1016 96 10000 0.89 157 08:41 25.05.2022
1918 Rain 10 1016 95 10000 0.96 210 07:23 25.05.2022
1919 Clouds 10 1015 94 4262 0.45 321 04:23 25.05.2022
1920 Rain 11 1015 90 7637 1.69 209 00:23 25.05.2022
1921 Clouds 11 1015 89 7637 0.89 174 23:47 24.05.2022
1922 Clouds 11 1015 89 7637 0.89 174 23:47 24.05.2022
1923 Clouds 11 1014 86 5834 1.34 189 22:33 24.05.2022
1924 Rain 12 1014 82 6297 0.45 186 21:41 24.05.2022
1925 Clouds 12 1014 82 10000 0.45 186 21:21 24.05.2022
1926 Clouds 11 1015 85 10000 0.45 206 20:23 24.05.2022
1927 Clouds 12 1015 79 10000 0.87 314 18:56 24.05.2022
1928 Clouds 13 1012 74 10000 0.89 117 16:58 24.05.2022
1929 Clouds 13 1012 74 10000 0.92 296 16:23 24.05.2022
1930 Clouds 13 1012 75 10000 1.79 152 14:59 24.05.2022
1931 Clouds 13 1012 80 10000 0.45 205 14:21 24.05.2022
1932 Clouds 11 1012 91 5373 1.79 154 12:50 24.05.2022
1933 Clouds 12 1012 95 1857 0.89 210 11:40 24.05.2022
1934 Rain 12 1011 92 2611 0.45 150 09:46 24.05.2022
1935 Clouds 12 1010 90 845 0.45 150 08:50 24.05.2022
1936 Clouds 12 1009 96 1053 1.34 177 06:58 24.05.2022
1937 Rain 12 1009 93 6237 1.79 183 04:30 24.05.2022
1938 Rain 13 1010 92 10000 4.92 180 02:37 24.05.2022
1939 Rain 13 1010 94 10000 0.46 159 01:42 24.05.2022
1940 Rain 14 1009 92 5580 0.45 208 23:43 23.05.2022
1941 Rain 14 1008 88 7974 2.24 171 21:59 23.05.2022
1942 Rain 14 1008 91 7974 2.24 171 21:41 23.05.2022
1943 Rain 14 1008 90 10000 2.24 193 20:42 23.05.2022
1944 Rain 14 1009 91 10000 0.45 349 19:33 23.05.2022
1945 Rain 15 1007 87 6957 1.34 184 18:59 23.05.2022
1946 Rain 19 1006 75 6957 1.34 184 18:35 23.05.2022
1947 Rain 22 1006 63 10000 3.68 266 17:38 23.05.2022
1948 Rain 23 1005 59 10000 2.68 321 15:37 23.05.2022
1949 Clouds 25 1005 48 10000 0.89 312 13:32 23.05.2022
1950 Clouds 24 1007 51 10000 0.89 11 11:34 23.05.2022
1951 Clouds 21 1008 60 10000 0.45 337 10:42 23.05.2022
1952 Clouds 19 1009 59 10000 0.45 149 09:39 23.05.2022
1953 Clouds 18 1009 63 10000 0.66 108 08:38 23.05.2022
1954 Clouds 13 1009 88 10000 0.98 215 06:47 23.05.2022
1955 Clouds 13 1009 89 10000 2.17 181 06:23 23.05.2022
1956 Clouds 14 1011 86 10000 3.1 171 02:35 23.05.2022
1957 Clouds 14 1011 84 10000 2.76 170 01:46 23.05.2022
1958 Clouds 15 1012 79 10000 3.14 169 00:44 23.05.2022
1959 Clouds 17 1013 71 10000 1.34 219 22:43 22.05.2022
1960 Clouds 17 1013 68 10000 1.34 219 21:56 22.05.2022
1961 Clouds 17 1013 65 10000 0.45 166 21:36 22.05.2022
1962 Clouds 19 1013 60 10000 1.34 16 20:37 22.05.2022
1963 Clouds 19 1013 60 6201 1.34 16 20:18 22.05.2022
1964 Clouds 21 1013 61 10000 2.24 327 18:58 22.05.2022
1965 Clouds 22 1013 62 10000 1.34 348 18:31 22.05.2022
1966 Clouds 23 1013 59 10000 1.34 348 17:51 22.05.2022
1967 Rain 22 1013 59 10000 1.34 343 16:51 22.05.2022
1968 Clouds 23 1014 60 10000 1.79 296 14:56 22.05.2022
1969 Clouds 23 1015 60 10000 0.45 319 13:57 22.05.2022
1970 Rain 21 1014 63 10000 2.13 283 12:53 22.05.2022
1971 Rain 20 1014 65 10000 2.5 296 11:52 22.05.2022
1972 Rain 18 1016 70 10000 0.89 340 10:29 22.05.2022
1973 Clouds 17 1017 72 10000 0.45 351 09:19 22.05.2022
1974 Clouds 14 1019 74 10000 0.89 181 07:34 22.05.2022
1975 Clear 12 1018 85 10000 2.24 178 06:40 22.05.2022
1976 Clear 12 1019 91 10000 1.88 198 03:20 22.05.2022
1977 Clouds 14 1020 83 10000 1.34 162 00:48 22.05.2022
1978 Clouds 15 1020 80 10000 2.24 178 23:56 21.05.2022
1979 Clouds 16 1020 78 10000 2.24 178 23:22 21.05.2022
1980 Clouds 16 1020 78 10000 0.79 183 21:59 21.05.2022
1981 Clouds 17 1020 74 10000 0.45 335 21:30 21.05.2022
1982 Clouds 18 1021 69 10000 0.45 339 20:29 21.05.2022
1983 Clouds 20 1021 63 10000 0.89 202 19:43 21.05.2022
1984 Clouds 21 1021 58 10000 1.34 299 18:31 21.05.2022
1985 Clouds 22 1022 56 10000 2.66 290 16:57 21.05.2022
1986 Clouds 21 1022 62 10000 0.45 167 14:38 21.05.2022
1987 Clouds 21 1022 63 10000 0.45 167 13:54 21.05.2022
1988 Clouds 19 1023 68 10000 0.89 296 13:18 21.05.2022
1989 Clouds 17 1023 80 10000 0.89 314 12:38 21.05.2022
1990 Clouds 15 1024 90 10000 1.34 2 10:53 21.05.2022
1991 Rain 15 1023 89 10000 1.92 294 09:53 21.05.2022
1992 Clouds 15 1023 95 10000 0.45 88 08:58 21.05.2022
1993 Rain 14 1024 96 10000 0.45 137 08:36 21.05.2022
1994 Rain 15 1024 90 10000 1.79 164 05:30 21.05.2022
1995 Clouds 14 1024 87 10000 2.27 231 01:33 21.05.2022
1996 Clouds 13 1024 87 10000 3.14 192 23:30 20.05.2022
1997 Clouds 14 1023 78 10000 3.95 180 22:26 20.05.2022
1998 Clouds 14 1023 78 10000 3.95 180 21:55 20.05.2022
1999 Rain 21 1022 74 10000 3.52 182 21:18 20.05.2022
2000 Rain 22 1018 56 10000 0.89 157 20:44 20.05.2022
2001 Clouds 26 1015 29 10000 2.45 186 19:45 20.05.2022
2002 Clouds 27 1016 27 10000 1.99 307 18:48 20.05.2022
2003 Clouds 30 1018 25 10000 1.79 238 17:48 20.05.2022
2004 Clouds 30 1018 30 10000 1.79 106 16:22 20.05.2022
2005 Clouds 29 1019 30 10000 1.79 106 15:53 20.05.2022
2006 Clouds 29 1020 31 10000 1.34 344 14:32 20.05.2022
2007 Clouds 29 1020 31 10000 2.68 180 13:56 20.05.2022
2008 Clouds 27 1022 33 10000 1.34 210 11:51 20.05.2022
2009 Clouds 25 1023 48 10000 2.24 181 10:30 20.05.2022
2010 Clouds 21 1024 55 10000 0.45 311 08:59 20.05.2022
2011 Clouds 17 1025 61 10000 1.78 167 07:42 20.05.2022
2012 Clouds 13 1024 87 10000 0.45 176 06:39 20.05.2022
2013 Clouds 13 1025 85 10000 2.75 163 05:39 20.05.2022
2014 Clouds 15 1025 87 10000 0.45 212 01:18 20.05.2022
2015 Clouds 16 1025 83 10000 0.45 197 23:28 19.05.2022
2016 Clouds 17 1025 80 10000 0.45 221 22:33 19.05.2022
2017 Clouds 16 1025 82 10000 0.45 221 21:49 19.05.2022
2018 Clouds 17 1024 73 10000 0.45 232 21:23 19.05.2022
2019 Clouds 18 1024 74 10000 0.45 166 20:40 19.05.2022
2020 Rain 17 1025 78 10000 1.34 75 19:54 19.05.2022
2021 Rain 18 1025 89 10000 2.07 147 18:45 19.05.2022
2022 Clouds 21 1025 88 7861 1.12 143 17:35 19.05.2022
2023 Clouds 27 1022 36 10000 0.89 158 15:33 19.05.2022
2024 Clouds 27 1022 37 10000 0.45 215 14:30 19.05.2022
2025 Clouds 26 1023 41 10000 0.45 215 13:53 19.05.2022
2026 Clouds 24 1024 48 10000 0.89 156 11:46 19.05.2022
2027 Clouds 24 1023 50 10000 1.37 246 09:47 19.05.2022
2028 Clouds 17 1023 71 10000 1.83 193 08:31 19.05.2022
2029 Clouds 11 1024 84 10000 3.15 170 06:39 19.05.2022
2030 Clear 12 1023 83 10000 3.03 165 02:57 19.05.2022
2031 Clear 15 1023 73 10000 0.89 165 00:47 19.05.2022
2032 Clear 16 1023 66 10000 0.45 172 23:00 18.05.2022
2033 Clear 16 1023 68 10000 1.34 207 22:40 18.05.2022
2034 Clouds 17 1023 59 10000 0.45 106 21:32 18.05.2022
2035 Clear 19 1022 53 10000 0.89 107 20:55 18.05.2022
2036 Clear 19 1022 53 10000 0.89 107 20:55 18.05.2022
2037 Clouds 19 1022 53 10000 0.89 107 20:19 18.05.2022
2038 Clouds 23 1021 42 10000 1.34 283 18:46 18.05.2022
2039 Clouds 24 1021 40 10000 1.34 342 17:41 18.05.2022
2040 Clouds 24 1021 40 10000 1.34 342 17:23 18.05.2022
2041 Clouds 24 1022 41 10000 3.58 319 16:35 18.05.2022
2042 Clouds 24 1022 40 10000 2.24 359 15:42 18.05.2022
2043 Clouds 24 1022 42 10000 2.24 359 14:54 18.05.2022
2044 Clouds 24 1023 43 10000 1.34 14 13:47 18.05.2022
2045 Clouds 23 1023 47 10000 0.89 355 12:53 18.05.2022
2046 Clouds 21 1023 54 10000 1.34 10 11:41 18.05.2022
2047 Clouds 21 1023 56 10000 1.34 10 11:23 18.05.2022
2048 Clouds 20 1023 57 10000 0.89 98 09:57 18.05.2022
2049 Clouds 14 1024 74 10000 0.72 137 07:55 18.05.2022
2050 Clouds 11 1024 91 10000 1.52 167 06:49 18.05.2022
2051 Clouds 14 1022 82 10000 0.45 210 02:23 18.05.2022
2052 Clouds 14 1022 80 10000 0.89 226 00:26 18.05.2022
2053 Clouds 15 1023 91 10000 1.55 152 22:47 17.05.2022
2054 Clouds 15 1022 90 10000 0.82 100 21:20 17.05.2022
2055 Clouds 18 1021 85 10000 1.27 29 20:29 17.05.2022
2056 Clouds 20 1020 72 10000 2.02 12 19:28 17.05.2022
2057 Clouds 22 1020 49 10000 1.34 299 17:52 17.05.2022
2058 Clouds 22 1021 48 10000 1.79 337 17:22 17.05.2022
2059 Clouds 22 1021 49 10000 2.24 357 16:34 17.05.2022
2060 Clouds 22 1021 50 10000 0.89 336 15:32 17.05.2022
2061 Clouds 21 1021 51 10000 1.34 340 14:31 17.05.2022
2062 Clouds 21 1022 53 10000 1.34 254 13:38 17.05.2022
2063 Clouds 20 1022 58 10000 1.79 282 12:23 17.05.2022
2064 Clouds 17 1023 71 10000 1.34 72 09:53 17.05.2022
2065 Clouds 15 1024 66 10000 0.45 305 08:43 17.05.2022
2066 Clouds 11 1024 90 10000 0.45 224 06:52 17.05.2022
2067 Clouds 12 1023 88 10000 0.45 138 04:28 17.05.2022
2068 Clouds 13 1024 91 10000 1.34 177 00:47 17.05.2022
2069 Rain 13 1024 95 10000 2.24 173 22:44 16.05.2022
2070 Rain 13 1024 95 10000 2.24 173 22:18 16.05.2022
2071 Rain 14 1023 90 10000 1.34 216 20:49 16.05.2022
2072 Rain 14 1021 86 10000 0.89 5 19:57 16.05.2022
2073 Rain 16 1021 82 4150 2.24 119 18:21 16.05.2022
2074 Rain 21 1020 53 10000 0.89 220 16:28 16.05.2022
2075 Clouds 21 1020 51 10000 2.24 151 14:42 16.05.2022
2076 Clouds 19 1021 66 8219 1.34 213 13:25 16.05.2022
2077 Clouds 20 1020 66 10000 1.74 315 11:33 16.05.2022
2078 Rain 21 1019 68 8840 1 320 09:58 16.05.2022
2079 Rain 14 1019 79 10000 1.79 172 07:33 16.05.2022
2080 Clouds 14 1019 82 10000 0.89 153 05:23 16.05.2022
2081 Clouds 16 1019 74 10000 0.89 202 23:56 15.05.2022
2082 Clouds 17 1018 69 10000 0.45 163 22:36 15.05.2022
2083 Clouds 17 1018 66 10000 0.89 151 21:48 15.05.2022
2084 Clouds 17 1018 66 10000 0.89 151 21:19 15.05.2022
2085 Clouds 20 1016 56 10000 0.89 352 19:56 15.05.2022
2086 Clouds 24 1017 47 10000 1.34 323 17:55 15.05.2022
2087 Clouds 24 1017 45 10000 2.24 333 16:36 15.05.2022
2088 Clouds 23 1017 49 10000 1.79 343 14:18 15.05.2022
2089 Clouds 23 1018 51 10000 1.79 301 13:27 15.05.2022
2090 Clouds 22 1019 55 10000 3.13 16 11:55 15.05.2022
2091 Clouds 19 1019 61 10000 0.45 329 10:35 15.05.2022
2092 Clouds 16 1020 64 10000 0.89 163 08:52 15.05.2022
2093 Clouds 13 1021 71 10000 0.89 163 06:59 15.05.2022
2094 Clouds 9 1020 92 10000 0.45 162 06:38 15.05.2022
2095 Clouds 12 1021 85 10000 0.45 160 01:43 15.05.2022
2096 Clouds 13 1021 79 10000 0.45 211 23:56 14.05.2022
2097 Clouds 14 1022 78 10000 0.89 210 23:34 14.05.2022
2098 Clouds 14 1022 72 10000 0.45 153 21:45 14.05.2022
2099 Clear 14 1022 72 10000 0.45 153 21:19 14.05.2022
2100 Clouds 17 1020 66 10000 0.89 329 19:40 14.05.2022
2101 Clouds 17 1020 66 10000 0.89 329 19:40 14.05.2022
2102 Clouds 17 1020 66 10000 0.89 329 19:40 14.05.2022
2103 Clouds 19 1020 60 10000 0.89 329 19:20 14.05.2022
2104 Clouds 20 1019 55 10000 1.79 22 18:47 14.05.2022
2105 Clouds 21 1019 53 10000 1.79 322 17:36 14.05.2022
2106 Clouds 21 1020 52 10000 1.34 285 15:47 14.05.2022
2107 Clouds 22 1021 53 10000 2.68 324 14:36 14.05.2022
2108 Clouds 20 1021 60 10000 1.79 293 12:51 14.05.2022
2109 Clouds 18 1021 67 10000 1.34 32 11:37 14.05.2022
2110 Clouds 16 1022 79 10000 0.45 312 10:23 14.05.2022
2111 Clouds 16 1022 80 10000 0.45 312 09:54 14.05.2022
2112 Clouds 14 1023 86 10000 0.45 357 08:56 14.05.2022
2113 Clouds 12 1022 90 10000 0.45 311 06:52 14.05.2022
2114 Clouds 12 1022 91 10000 0.45 166 03:41 14.05.2022
2115 Clouds 14 1023 83 10000 0.89 171 23:48 13.05.2022
2116 Clouds 14 1023 83 10000 0.89 171 23:22 13.05.2022
2117 Clouds 14 1023 82 10000 0.89 168 22:51 13.05.2022
2118 Clouds 14 1023 79 10000 0.89 168 22:19 13.05.2022
2119 Clouds 14 1023 81 10000 0.94 310 20:49 13.05.2022
2120 Clouds 16 1022 78 10000 1.34 154 20:27 13.05.2022
2121 Clouds 16 1022 75 10000 0.45 214 19:34 13.05.2022
2122 Clouds 18 1022 72 10000 0.45 144 18:41 13.05.2022
2123 Clouds 18 1021 72 10000 1.79 178 17:29 13.05.2022
2124 Rain 17 1022 78 10000 0.45 349 16:23 13.05.2022
2125 Clouds 17 1022 78 10000 1.89 295 15:39 13.05.2022
2126 Clouds 16 1022 80 10000 2.24 339 13:54 13.05.2022
2127 Clouds 17 1022 71 10000 0.89 136 12:32 13.05.2022
2128 Clouds 17 1021 78 10000 0.89 91 11:23 13.05.2022
2129 Clouds 17 1021 78 10000 0.89 91 11:23 13.05.2022
2130 Clouds 15 1022 86 10000 0.89 171 09:35 13.05.2022
2131 Clouds 14 1023 88 10000 3.13 183 08:49 13.05.2022
2132 Rain 14 1022 89 10000 0.45 185 07:48 13.05.2022
2133 Rain 13 1022 90 10000 1.79 140 06:33 13.05.2022
2134 Rain 13 1022 90 10000 1.79 140 06:33 13.05.2022
2135 Rain 15 1023 86 10000 0.45 154 03:34 13.05.2022
2136 Clouds 15 1023 80 10000 1.79 187 00:39 13.05.2022
2137 Rain 16 1022 68 10000 0.45 141 22:45 12.05.2022
2138 Clouds 14 1022 94 10000 2.17 162 21:56 12.05.2022
2139 Clouds 14 1020 85 4969 2.15 262 20:29 12.05.2022
2140 Clouds 21 1018 44 7286 0.45 86 19:18 12.05.2022
2141 Clouds 23 1017 38 10000 0.89 160 17:24 12.05.2022
2142 Clouds 24 1018 32 10000 1.34 339 16:18 12.05.2022
2143 Clouds 25 1020 34 10000 2.24 318 14:42 12.05.2022
2144 Clouds 24 1020 38 10000 2.24 14 13:46 12.05.2022
2145 Clouds 22 1021 43 10000 1.79 90 10:52 12.05.2022
2146 Clouds 19 1021 55 10000 0.89 74 09:30 12.05.2022
2147 Clouds 17 1021 68 10000 0.89 74 08:51 12.05.2022
2148 Clouds 14 1021 70 10000 0.45 1 07:40 12.05.2022
2149 Clouds 13 1020 80 10000 0.45 300 06:34 12.05.2022
2150 Clouds 13 1019 80 10000 0.45 246 02:58 12.05.2022
2151 Clouds 16 1019 70 10000 0.45 195 00:39 12.05.2022
2152 Clear 18 1021 60 10000 3.05 176 22:39 11.05.2022
2153 Clear 13 1021 65 10000 3.02 175 21:52 11.05.2022
2154 Clouds 18 1020 70 10000 2.74 178 21:24 11.05.2022
2155 Clouds 22 1015 48 10000 1.03 233 18:58 11.05.2022
2156 Clouds 24 1015 43 10000 0.45 348 16:59 11.05.2022
2157 Clouds 25 1016 38 10000 1.79 282 15:50 11.05.2022
2158 Clouds 24 1017 40 10000 0.89 9 14:39 11.05.2022
2159 Clouds 24 1017 39 10000 0.89 9 14:19 11.05.2022
2160 Clouds 22 1019 40 10000 2.68 117 11:54 11.05.2022
2161 Clouds 22 1019 42 10000 1.34 184 11:23 11.05.2022
2162 Clouds 16 1021 58 10000 0.89 165 08:46 11.05.2022
2163 Clouds 10 1020 83 10000 0.89 211 05:31 11.05.2022
2164 Clouds 13 1021 74 10000 0.45 288 01:23 11.05.2022
2165 Clouds 15 1021 65 10000 1.34 175 22:32 10.05.2022
2166 Clouds 16 1020 68 10000 2.11 179 21:57 10.05.2022
2167 Clouds 16 1022 64 10000 1.79 169 20:58 10.05.2022
2168 Clouds 16 1022 64 10000 1.79 169 20:18 10.05.2022
2169 Clouds 20 1020 49 10000 1.65 311 18:27 10.05.2022
2170 Clouds 21 1020 47 10000 1.34 19 17:34 10.05.2022
2171 Clouds 21 1021 44 10000 1.34 20 15:41 10.05.2022
2172 Clear 20 1022 50 10000 1.79 9 12:47 10.05.2022
2173 Clear 19 1022 53 10000 1.79 9 11:51 10.05.2022
2174 Clear 18 1022 55 10000 1.34 8 11:21 10.05.2022
2175 Clear 18 1022 54 10000 1.34 8 10:54 10.05.2022
2176 Clear 14 1023 70 10000 0.36 222 09:26 10.05.2022
2177 Clear 7 1024 94 10000 2.21 168 07:26 10.05.2022
2178 Clear 7 1023 94 10000 0.45 200 04:32 10.05.2022
2179 Clouds 9 1025 88 10000 0.89 176 01:34 10.05.2022
2180 Clouds 11 1025 87 10000 0.45 66 23:26 09.05.2022
2181 Clouds 12 1025 88 10000 0.45 129 21:58 09.05.2022
2182 Clouds 12 1027 87 10000 0.45 149 21:18 09.05.2022
2183 Rain 15 1024 79 10000 1.34 178 19:29 09.05.2022
2184 Rain 15 1023 75 7047 0.89 184 17:52 09.05.2022
2185 Clouds 14 1024 82 5025 1.02 0 16:38 09.05.2022
2186 Rain 15 1025 77 5061 0.45 74 15:52 09.05.2022
2187 Rain 16 1025 75 4845 0.45 74 15:27 09.05.2022
2188 Rain 17 1024 72 10000 0.45 311 14:31 09.05.2022
2189 Rain 17 1023 70 10000 0.45 346 13:50 09.05.2022
2190 Clouds 16 1024 71 10000 0.89 174 12:26 09.05.2022
2191 Clouds 15 1025 77 10000 0.89 324 11:37 09.05.2022
2192 Clouds 15 1023 74 10000 1.16 7 10:43 09.05.2022
2193 Clouds 13 1023 80 10000 0.66 41 08:51 09.05.2022
2194 Clouds 9 1027 96 10000 1.79 184 07:54 09.05.2022
2195 Clouds 9 1026 96 10000 0.89 161 03:36 09.05.2022
2196 Clouds 10 1026 93 10000 1.69 147 23:37 08.05.2022
2197 Clouds 11 1026 92 10000 0.45 180 22:56 08.05.2022
2198 Clouds 11 1025 90 10000 1.42 130 21:55 08.05.2022
2199 Clouds 12 1025 88 10000 0.89 7 20:35 08.05.2022
2200 Clouds 12 1024 85 10000 0.45 308 19:45 08.05.2022
2201 Clouds 15 1020 72 10000 1.52 54 18:54 08.05.2022
2202 Clouds 15 1020 74 10000 1.83 38 18:18 08.05.2022
2203 Clouds 15 1021 71 10000 0.45 349 16:44 08.05.2022
2204 Clouds 14 1021 75 10000 0.89 343 15:39 08.05.2022
2205 Clouds 14 1021 73 10000 0.45 9 14:45 08.05.2022
2206 Clouds 14 1021 83 10000 0.89 53 12:27 08.05.2022
2207 Clouds 12 1021 86 10000 0.89 84 10:32 08.05.2022
2208 Clouds 12 1021 88 10000 0.89 84 09:57 08.05.2022
2209 Clouds 11 1021 92 10000 0.45 359 08:56 08.05.2022
2210 Clouds 9 1022 96 10000 0.45 338 06:58 08.05.2022
2211 Clouds 9 1022 97 10000 0.45 40 03:40 08.05.2022
2212 Clouds 9 1023 96 10000 1.08 107 02:45 08.05.2022
2213 Clouds 9 1023 96 10000 1.18 120 00:24 08.05.2022
2214 Rain 9 1023 96 10000 1.18 120 23:49 07.05.2022
2215 Clouds 9 1023 95 10000 1.3 124 22:46 07.05.2022
2216 Clouds 9 1022 96 10000 1.34 10 21:58 07.05.2022
2217 Clouds 10 1022 95 10000 1.34 10 21:33 07.05.2022
2218 Clouds 10 1022 94 10000 0.45 350 20:28 07.05.2022
2219 Clouds 11 1020 92 10000 0.45 2 19:23 07.05.2022
2220 Clouds 11 1019 91 10000 2.02 45 17:34 07.05.2022
2221 Clouds 12 1019 91 10000 2.24 38 15:41 07.05.2022
2222 Clouds 10 1025 95 10000 1.79 28 12:50 07.05.2022
2223 Clouds 10 1021 94 10000 1.56 44 10:33 07.05.2022
2224 Clouds 10 1021 95 10000 1.13 35 08:52 07.05.2022
2225 Clouds 9 1025 97 10000 0.95 51 07:50 07.05.2022
2226 Clouds 8 1025 97 10000 0.45 176 06:43 07.05.2022
2227 Clouds 9 1025 97 10000 0.45 356 04:35 07.05.2022
2228 Rain 9 1026 96 10000 0.47 51 00:56 07.05.2022
2229 Clouds 9 1026 96 7753 0.45 12 23:28 06.05.2022
2230 Clouds 9 1024 96 10000 1.34 7 22:21 06.05.2022
2231 Clouds 9 1023 96 10000 1.34 12 21:36 06.05.2022
2232 Rain 10 1023 96 907 0.45 356 20:20 06.05.2022
2233 Clouds 10 1023 95 818 0.89 354 19:29 06.05.2022
2234 Clouds 10 1023 95 818 1.34 8 18:54 06.05.2022
2235 Clouds 11 1020 90 1503 3.13 310 17:38 06.05.2022
2236 Rain 11 1022 89 615 1.79 349 15:56 06.05.2022
2237 Clouds 12 1020 85 615 2.24 352 15:33 06.05.2022
2238 Clouds 12 1020 85 2671 1.58 357 14:22 06.05.2022
2239 Clouds 11 1020 92 654 0.45 12 12:52 06.05.2022
2240 Clouds 10 1022 94 1792 0.89 72 12:20 06.05.2022
2241 Clouds 10 1021 90 1792 0.45 48 11:31 06.05.2022
2242 Clouds 9 1020 95 10000 0.51 355 09:48 06.05.2022
2243 Clouds 9 1020 95 10000 0.51 355 09:48 06.05.2022
2244 Clouds 9 1020 96 10000 0.36 12 09:19 06.05.2022
2245 Clouds 9 1020 96 2001 0.45 338 07:56 06.05.2022
2246 Clouds 8 1022 96 246 0.9 359 06:28 06.05.2022
2247 Clouds 8 1022 97 256 0.95 330 04:29 06.05.2022
2248 Clouds 9 1021 95 1268 1.17 294 02:38 06.05.2022
2249 Clouds 9 1022 96 1304 0.89 359 23:25 05.05.2022
2250 Clouds 10 1020 94 4571 0.45 308 21:51 05.05.2022
2251 Rain 10 1019 91 4214 0.75 81 20:37 05.05.2022
2252 Clouds 10 1019 90 6316 2.24 306 19:20 05.05.2022
2253 Rain 13 1018 77 6172 0.89 143 16:49 05.05.2022
2254 Rain 14 1018 71 7961 2.68 330 15:46 05.05.2022
2255 Clouds 15 1018 63 9682 0.89 9 13:41 05.05.2022
2256 Clouds 16 1018 63 10000 0.89 9 13:18 05.05.2022
2257 Clouds 15 1019 61 10000 1.25 19 11:42 05.05.2022
2258 Clouds 12 1019 75 10000 0.89 80 09:46 05.05.2022
2259 Clouds 11 1019 80 10000 0.89 80 08:54 05.05.2022
2260 Clouds 7 1018 92 10000 2.59 167 06:28 05.05.2022
2261 Clouds 8 1020 86 10000 0.45 226 02:27 05.05.2022
2262 Clouds 8 1021 87 10000 2.9 165 01:44 05.05.2022
2263 Clouds 9 1021 89 10000 2.93 165 00:49 05.05.2022
2264 Clouds 9 1021 92 10000 2.95 164 23:22 04.05.2022
2265 Clouds 9 1020 76 10000 0.89 179 21:59 04.05.2022
2266 Clouds 10 1020 76 10000 0.89 179 21:34 04.05.2022
2267 Clouds 10 1020 72 10000 2.6 166 20:55 04.05.2022
2268 Clouds 10 1020 72 10000 2.66 173 20:18 04.05.2022
2269 Clouds 12 1017 68 10000 2.24 220 19:35 04.05.2022
2270 Clouds 12 1018 70 9909 2.24 164 18:43 04.05.2022
2271 Clouds 12 1018 70 4826 2.24 164 18:19 04.05.2022
2272 Rain 12 1018 76 5139 2.68 150 17:22 04.05.2022
2273 Rain 13 1017 73 5179 1.79 178 15:34 04.05.2022
2274 Rain 15 1018 56 5103 1.24 286 14:41 04.05.2022
2275 Rain 16 1016 49 5201 1.11 283 14:19 04.05.2022
2276 Clouds 14 1019 57 9684 0.89 320 12:39 04.05.2022
2277 Clouds 14 1017 63 10000 0.67 245 11:40 04.05.2022
2278 Clouds 11 1020 73 8362 0.89 179 10:27 04.05.2022
2279 Clouds 11 1018 78 8063 1.02 212 09:21 04.05.2022
2280 Clouds 9 1018 83 10000 0.45 164 07:51 04.05.2022
2281 Clouds 7 1018 89 10000 0.89 181 04:45 04.05.2022
2282 Clouds 8 1018 86 10000 0.89 215 02:33 04.05.2022
2283 Rain 9 1017 81 10000 1.34 175 22:59 03.05.2022
2284 Clouds 10 1018 84 10000 1.34 160 21:53 03.05.2022
2285 Clouds 10 1017 82 10000 1.79 138 21:31 03.05.2022
2286 Rain 11 1016 70 10000 2.24 173 20:46 03.05.2022
2287 Clouds 13 1015 66 10000 0.45 166 19:32 03.05.2022
2288 Clouds 13 1015 63 10000 1.79 240 18:43 03.05.2022
2289 Rain 15 1014 54 10000 1.34 222 17:21 03.05.2022
2290 Rain 16 1014 44 10000 0.45 285 15:57 03.05.2022
2291 Clouds 16 1014 53 10000 2.24 357 14:23 03.05.2022
2292 Rain 15 1015 54 10000 1.34 356 12:35 03.05.2022
2293 Clouds 14 1015 59 10000 1.79 325 11:35 03.05.2022
2294 Clouds 13 1015 65 10000 1.34 54 10:44 03.05.2022
2295 Clouds 9 1016 85 10000 1.52 166 08:19 03.05.2022
2296 Clouds 3 1014 95 10000 0.45 195 06:45 03.05.2022
2297 Clouds 7 1015 91 10000 0.89 211 02:39 03.05.2022
2298 Rain 8 1016 85 10000 2.68 167 23:19 02.05.2022
2299 Rain 8 1016 85 10000 1.79 168 22:28 02.05.2022
2300 Rain 10 1016 84 10000 1.34 234 21:37 02.05.2022
2301 Clouds 13 1016 65 9522 1.19 17 19:26 02.05.2022
2302 Clouds 13 1016 64 7919 0.45 345 18:26 02.05.2022
2303 Clouds 14 1015 56 7919 1.34 10 17:39 02.05.2022
2304 Clouds 16 1013 52 7729 1.37 359 16:43 02.05.2022
2305 Clouds 14 1016 56 10000 0.45 171 15:41 02.05.2022
2306 Clouds 16 1014 51 10000 1.51 9 14:45 02.05.2022
2307 Clouds 14 1015 51 10000 2.24 302 13:42 02.05.2022
2308 Clouds 13 1016 61 10000 2.68 322 11:41 02.05.2022
2309 Clouds 9 1017 72 10000 0.45 36 09:45 02.05.2022
2310 Clouds 7 1019 73 10000 0.89 172 08:29 02.05.2022
2311 Clouds 2 1016 93 10000 0.45 143 06:53 02.05.2022
2312 Clouds 5 1020 86 10000 1.47 154 00:46 02.05.2022
2313 Clouds 5 1020 86 10000 1.28 151 00:22 02.05.2022
2314 Clouds 7 1020 84 10000 0.89 149 22:55 01.05.2022
2315 Clouds 8 1020 79 10000 0.89 147 21:43 01.05.2022
2316 Clouds 10 1020 73 10000 0.89 302 20:36 01.05.2022
2317 Clouds 11 1017 66 10000 1.34 315 19:22 01.05.2022
2318 Clouds 12 1017 65 10000 1.34 315 18:52 01.05.2022
2319 Clouds 11 1021 70 10000 1.34 341 17:50 01.05.2022
2320 Clouds 13 1018 87 10000 0.81 31 16:38 01.05.2022
2321 Clouds 12 1018 67 10000 1.1 27 15:57 01.05.2022
2322 Clouds 12 1018 65 10000 2.68 338 14:45 01.05.2022
2323 Clouds 10 1022 72 8884 1.34 98 12:40 01.05.2022
2324 Clouds 9 1019 82 10000 0.45 3 10:22 01.05.2022
2325 Clouds 7 1019 92 10000 0.45 288 08:50 01.05.2022
2326 Clouds 6 1021 94 10000 0.45 106 06:50 01.05.2022
2327 Clouds 6 1022 92 10000 0.45 37 02:31 01.05.2022
2328 Clouds 6 1023 90 10000 0.45 70 22:51 30.04.2022
2329 Clouds 7 1023 88 10000 0.25 142 21:33 30.04.2022
2330 Clouds 7 1022 85 10000 0.89 164 20:19 30.04.2022
2331 Clouds 8 1020 84 7914 0.45 354 19:25 30.04.2022
2332 Clouds 10 1021 71 10000 0.45 346 17:32 30.04.2022
2333 Clouds 11 1020 71 10000 0.45 298 15:53 30.04.2022
2334 Clouds 11 1020 75 10000 2.24 157 15:18 30.04.2022
2335 Clouds 9 1021 87 7446 0.45 166 13:59 30.04.2022
2336 Rain 7 1024 90 575 0.89 151 11:58 30.04.2022
2337 Rain 8 1021 92 575 0.45 211 11:31 30.04.2022
2338 Rain 7 1023 93 415 0.89 91 10:23 30.04.2022
2339 Rain 7 1023 90 10000 0.89 128 07:47 30.04.2022
2340 Clouds 8 1021 77 10000 0.89 167 04:25 30.04.2022
2341 Clouds 9 1023 71 10000 1.5 190 23:57 29.04.2022
2342 Clouds 9 1023 70 10000 1.34 173 22:56 29.04.2022
2343 Clouds 11 1025 64 10000 2.24 186 21:56 29.04.2022
2344 Clouds 10 1025 61 10000 2.24 186 21:25 29.04.2022
2345 Clouds 11 1025 59 10000 0.95 315 20:24 29.04.2022
2346 Clouds 14 1024 52 10000 0.45 167 19:28 29.04.2022
2347 Clouds 17 1022 46 10000 2.68 4 17:35 29.04.2022
2348 Clouds 16 1022 48 10000 1.34 334 16:38 29.04.2022
2349 Clouds 17 1023 45 10000 3.58 292 14:37 29.04.2022
2350 Clouds 16 1024 43 10000 1.34 299 13:42 29.04.2022
2351 Clouds 15 1024 48 10000 1.34 338 12:37 29.04.2022
2352 Clear 11 1025 53 10000 0.45 101 10:32 29.04.2022
2353 Clear 6 1026 64 10000 1.1 162 07:57 29.04.2022
2354 Clear 3 1027 90 10000 2.22 164 07:26 29.04.2022
2355 Clear 2 1024 90 10000 0.89 207 06:32 29.04.2022
2356 Clear 5 1026 85 10000 0.45 161 02:23 29.04.2022
2357 Clear 6 1026 76 10000 0.45 213 23:58 28.04.2022
2358 Clear 7 1030 70 10000 2.19 142 23:25 28.04.2022
2359 Clear 9 1029 85 10000 1.93 133 22:24 28.04.2022
2360 Clear 9 1029 85 10000 1.93 133 21:41 28.04.2022
2361 Clear 12 1028 84 10000 1.56 122 20:45 28.04.2022
2362 Clear 7 1025 79 10000 1.27 65 19:52 28.04.2022
2363 Clear 15 1024 45 10000 1.59 34 19:24 28.04.2022
2364 Clear 15 1024 44 10000 1.59 34 18:51 28.04.2022
2365 Clear 16 1023 43 10000 1.79 285 17:42 28.04.2022
2366 Clear 17 1023 43 10000 1.79 285 16:52 28.04.2022
2367 Clear 17 1024 44 10000 2.68 299 16:20 28.04.2022
2368 Clear 17 1024 44 10000 2.68 299 16:20 28.04.2022
2369 Clear 16 1024 46 10000 3.13 308 15:43 28.04.2022
2370 Clouds 16 1024 47 10000 3.13 308 14:58 28.04.2022
2371 Clear 14 1025 58 10000 0.89 347 13:33 28.04.2022
2372 Clear 13 1025 63 10000 1.64 26 12:29 28.04.2022
2373 Clear 10 1025 70 10000 2.24 325 10:59 28.04.2022
2374 Clear 9 1025 74 10000 1.34 13 10:26 28.04.2022
2375 Clear 9 1027 74 10000 0.45 109 09:47 28.04.2022
2376 Clear 4 1025 82 10000 0.91 133 07:40 28.04.2022
2377 Clear 2 1023 92 10000 2.03 156 06:42 28.04.2022
2378 Clear 2 1023 91 10000 2.35 159 05:52 28.04.2022
2379 Clear 2 1022 90 10000 0.45 206 04:42 28.04.2022
2380 Clear 4 1025 86 10000 2.53 153 01:53 28.04.2022
2381 Clear 6 1028 84 10000 2.35 140 23:25 27.04.2022
2382 Clear 6 1027 86 10000 0.89 103 22:18 27.04.2022
2383 Clear 6 1027 84 10000 0.45 152 21:34 27.04.2022
2384 Clear 8 1025 76 10000 0.45 352 20:45 27.04.2022
2385 Clouds 9 1025 74 10000 0.89 325 19:55 27.04.2022
2386 Clouds 11 1022 64 10000 1.79 309 19:34 27.04.2022
2387 Clouds 13 1020 57 10000 1.79 314 18:39 27.04.2022
2388 Clouds 13 1020 56 10000 1.79 314 17:55 27.04.2022
2389 Clear 14 1020 52 10000 2.68 338 15:57 27.04.2022
2390 Clouds 12 1020 53 10000 1.34 328 12:59 27.04.2022
2391 Clouds 10 1020 62 10000 0.89 354 11:24 27.04.2022
2392 Clouds 9 1020 73 10000 0.7 58 10:28 27.04.2022
2393 Clouds 4 1022 92 10000 0.89 302 07:53 27.04.2022
2394 Clouds 3 1025 91 10000 1.93 163 06:41 27.04.2022
2395 Rain 4 1024 89 10000 0.45 177 02:26 27.04.2022
2396 Rain 5 1019 92 10000 0.89 134 01:21 27.04.2022
2397 Rain 4 1023 90 10000 0.89 184 00:27 27.04.2022
2398 Clouds 5 1022 84 10000 3.13 181 23:24 26.04.2022
2399 Clouds 4 1023 90 10000 0.45 172 22:45 26.04.2022
2400 Clouds 5 1023 88 10000 2.36 184 21:59 26.04.2022
2401 Clouds 5 1023 88 10000 2.1 190 21:18 26.04.2022
2402 Clouds 6 1019 84 10000 0.89 313 20:36 26.04.2022
2403 Clouds 7 1018 78 10000 0.89 117 19:44 26.04.2022
2404 Clouds 7 1018 79 10000 0.89 117 19:24 26.04.2022
2405 Clouds 7 1020 75 10000 0.45 164 18:20 26.04.2022
2406 Clouds 8 1020 68 10000 1.84 267 17:38 26.04.2022
2407 Clouds 5 1016 89 78 1.3 255 14:59 26.04.2022
2408 Rain 4 1016 89 42 1.34 159 13:38 26.04.2022
2409 Rain 5 1015 88 68 1.34 195 12:35 26.04.2022
2410 Clouds 8 1013 84 498 3.58 354 10:57 26.04.2022
2411 Clouds 8 1013 87 5825 1.79 324 10:29 26.04.2022
2412 Clouds 7 1012 91 10000 0.45 66 08:29 26.04.2022
2413 Clouds 6 1015 92 10000 2.36 172 04:38 26.04.2022
2414 Clouds 7 1015 91 10000 2.13 173 03:25 26.04.2022
2415 Clouds 8 1012 90 10000 0.89 208 00:39 26.04.2022
2416 Clouds 8 1013 88 10000 0.45 212 23:44 25.04.2022
2417 Clouds 9 1014 85 10000 1.31 191 21:44 25.04.2022
2418 Clouds 8 1014 97 10000 0.98 193 20:49 25.04.2022
2419 Clouds 10 1011 78 8142 0.45 183 19:39 25.04.2022
2420 Clouds 10 1011 82 7161 1.62 299 18:25 25.04.2022
2421 Clouds 10 1011 82 7161 1.34 9 17:39 25.04.2022
2422 Clouds 11 1010 72 10000 2.68 341 15:51 25.04.2022
2423 Rain 11 1010 70 10000 0.92 261 15:18 25.04.2022
2424 Clouds 8 1012 88 4747 1.07 225 13:59 25.04.2022
2425 Clouds 7 1013 96 4514 0.45 91 12:22 25.04.2022
2426 Clouds 7 1011 90 7147 0.45 2 10:29 25.04.2022
2427 Clouds 6 1009 93 143 0.45 217 09:23 25.04.2022
2428 Clouds 5 1011 95 216 0.45 232 07:19 25.04.2022
2429 Rain 5 1009 94 188 1.79 156 05:32 25.04.2022
2430 Clouds 5 1009 92 248 0.89 184 01:24 25.04.2022
2431 Rain 6 1007 89 146 0.89 134 23:53 24.04.2022
2432 Rain 6 1006 90 164 0.89 206 22:52 24.04.2022
2433 Rain 6 1006 91 165 0.89 206 22:31 24.04.2022
2434 Clouds 6 1006 89 135 0.45 293 21:42 24.04.2022
2435 Rain 6 1006 89 174 0.45 293 21:18 24.04.2022
2436 Rain 6 1007 88 177 0.89 92 20:37 24.04.2022
2437 Rain 6 1006 87 215 0.89 92 19:50 24.04.2022
2438 Rain 7 1005 81 1302 0.89 33 18:28 24.04.2022
2439 Rain 8 1003 77 1302 0.45 265 17:37 24.04.2022
2440 Rain 8 1003 77 8684 0.45 265 17:19 24.04.2022
2441 Rain 8 1004 76 8684 0.45 150 16:35 24.04.2022
2442 Rain 10 1002 66 8894 0.45 306 15:56 24.04.2022
2443 Clouds 10 1002 64 8894 2.68 328 15:31 24.04.2022
2444 Clouds 10 1002 64 8894 2.68 328 15:31 24.04.2022
2445 Clouds 11 1002 62 10000 1.79 61 13:58 24.04.2022
2446 Clouds 11 1001 60 10000 2.24 338 13:25 24.04.2022
2447 Clouds 11 1001 58 10000 1.29 271 12:32 24.04.2022
2448 Clouds 10 1001 60 10000 1.34 318 11:33 24.04.2022
2449 Clouds 8 1003 76 10000 0.45 343 10:27 24.04.2022
2450 Clouds 8 1000 70 2748 1.34 207 09:26 24.04.2022
2451 Clouds 6 1001 98 1321 2.34 259 06:45 24.04.2022
2452 Clouds 7 997 88 10000 1.34 134 03:55 24.04.2022
2453 Clouds 6 997 92 10000 3.08 159 01:38 24.04.2022
2454 Clouds 7 998 90 10000 3.53 153 00:24 24.04.2022
2455 Clouds 8 999 89 10000 0.45 185 23:44 23.04.2022
2456 Clouds 8 999 89 10000 0.45 185 23:21 23.04.2022
2457 Clouds 9 1000 86 10000 0.45 245 21:51 23.04.2022
2458 Clouds 10 1000 83 10000 2.94 139 21:33 23.04.2022
2459 Clouds 11 1001 80 10000 2.39 144 20:45 23.04.2022
2460 Clouds 11 1001 80 10000 2.39 144 20:45 23.04.2022
2461 Clouds 12 1001 77 10000 1.96 114 19:46 23.04.2022
2462 Clouds 12 1001 77 10000 1.07 82 19:19 23.04.2022
2463 Clouds 12 1001 76 10000 1.07 82 18:49 23.04.2022
2464 Clouds 12 1001 75 10000 0.85 72 17:51 23.04.2022
2465 Rain 13 1001 73 10000 1.79 344 17:20 23.04.2022
2466 Clouds 13 1001 71 10000 1.79 329 16:40 23.04.2022
2467 Clouds 13 1001 66 10000 1.34 345 14:57 23.04.2022
2468 Clouds 12 999 62 10000 0.02 85 12:35 23.04.2022
2469 Clouds 10 1003 66 10000 0.45 163 10:41 23.04.2022
2470 Clouds 9 1003 59 10000 0.45 166 08:55 23.04.2022
2471 Clouds 8 1004 60 10000 2.43 152 06:29 23.04.2022
2472 Clouds 5 1004 85 10000 0.89 212 03:54 23.04.2022
2473 Clouds 6 1004 86 10000 0.45 184 00:53 23.04.2022
2474 Clouds 7 1004 82 10000 0.89 180 23:29 22.04.2022
2475 Clouds 8 1004 79 10000 0.89 219 22:19 22.04.2022
2476 Clouds 8 1005 84 10000 0.45 177 21:41 22.04.2022
2477 Clouds 9 1004 80 10000 0.45 151 20:45 22.04.2022
2478 Clouds 10 1004 72 10000 0.45 151 20:25 22.04.2022
2479 Clouds 13 1001 59 10000 1.82 15 19:18 22.04.2022
2480 Clouds 14 1001 57 10000 0.45 10 18:35 22.04.2022
2481 Clouds 14 1001 57 10000 3.13 345 17:37 22.04.2022
2482 Clouds 14 1001 60 10000 0.89 329 16:30 22.04.2022
2483 Clouds 13 1001 60 10000 0.89 286 15:32 22.04.2022
2484 Clouds 12 1001 63 10000 0.45 323 14:41 22.04.2022
2485 Clouds 11 1001 59 10000 2.68 327 13:42 22.04.2022
2486 Clouds 11 1001 59 10000 2.68 327 12:55 22.04.2022
2487 Clouds 10 999 62 10000 2.09 356 11:41 22.04.2022
2488 Clouds 9 998 62 10000 1.9 348 11:18 22.04.2022
2489 Clouds 8 1002 64 10000 1.9 348 10:47 22.04.2022
2490 Clouds 8 1002 64 10000 1.25 340 10:25 22.04.2022
2491 Clouds 7 999 65 10000 1.25 340 09:42 22.04.2022
2492 Clouds 5 999 68 10000 0.4 9 08:49 22.04.2022
2493 Clouds 2 1002 79 10000 2.01 160 06:54 22.04.2022
2494 Clouds 4 1004 81 10000 0.89 133 01:49 22.04.2022
2495 Clouds 6 1005 71 10000 0.45 227 23:49 21.04.2022
2496 Clouds 6 1005 70 10000 0.45 86 22:52 21.04.2022
2497 Clouds 7 1005 67 10000 0.45 200 21:49 21.04.2022
2498 Clouds 11 1006 89 10000 2.04 115 20:34 21.04.2022
2499 Clouds 14 1005 43 10000 2.24 284 19:36 21.04.2022
2500 Clouds 15 1005 43 10000 1.79 299 18:32 21.04.2022
2501 Clouds 15 1005 43 10000 3.13 311 17:46 21.04.2022
2502 Clouds 15 1005 42 10000 3.13 302 16:21 21.04.2022
2503 Clouds 15 1005 42 10000 2.68 349 15:19 21.04.2022
2504 Clouds 14 1006 44 10000 0.89 294 14:29 21.04.2022
2505 Clouds 14 1006 49 10000 2.68 309 13:22 21.04.2022
2506 Clouds 12 1007 51 9790 1.79 324 12:29 21.04.2022
2507 Clouds 8 1010 70 9537 0.89 351 10:19 21.04.2022
2508 Clouds 5 1011 72 10000 0.45 181 08:50 21.04.2022
2509 Clouds 2 1012 80 10000 0.45 170 06:46 21.04.2022
2510 Clouds 2 1011 82 10000 0.45 225 04:21 21.04.2022
2511 Clouds 2 1012 81 10000 0.45 147 03:23 21.04.2022
2512 Clouds 2 1012 80 10000 0.89 146 02:45 21.04.2022
2513 Clouds 2 1012 80 10000 0.89 146 02:45 21.04.2022
2514 Clouds 3 1013 73 10000 1.81 154 00:35 21.04.2022
2515 Clouds 5 1013 70 10000 0.45 217 23:46 20.04.2022
2516 Clouds 5 1011 68 10000 0.45 217 23:21 20.04.2022
2517 Clouds 5 1013 68 10000 0.89 171 22:41 20.04.2022
2518 Clouds 6 1013 68 10000 1.34 155 21:57 20.04.2022
2519 Clouds 7 1014 64 10000 1.42 121 20:50 20.04.2022
2520 Clouds 7 1014 64 10000 1.08 71 20:22 20.04.2022
2521 Clouds 10 1011 53 10000 0.45 284 19:47 20.04.2022
2522 Clouds 13 1010 46 10000 0.45 284 18:52 20.04.2022
2523 Clouds 13 1009 46 10000 2.16 22 17:52 20.04.2022
2524 Clouds 14 1009 45 10000 3.58 310 16:39 20.04.2022
2525 Clouds 14 1009 46 10000 3.13 285 15:39 20.04.2022
2526 Clouds 11 1010 53 10000 2.24 346 12:47 20.04.2022
2527 Clouds 9 1011 59 10000 3.13 346 11:42 20.04.2022
2528 Clouds 8 1012 63 9533 3.13 346 10:51 20.04.2022
2529 Clouds 8 1010 81 9620 0.87 24 09:45 20.04.2022
2530 Clouds 5 1011 86 10000 0.62 83 08:54 20.04.2022
2531 Clouds 4 1012 86 10000 1.14 142 08:20 20.04.2022
2532 Clear 1 1011 83 10000 2.12 168 06:26 20.04.2022
2533 Clear 4 1013 71 10000 0.89 167 03:33 20.04.2022
2534 Clouds 6 1016 65 10000 0.89 160 00:22 20.04.2022
2535 Clouds 7 1015 63 10000 0.45 287 23:31 19.04.2022
2536 Clouds 7 1015 60 10000 0.45 341 22:24 19.04.2022
2537 Clouds 8 1014 57 10000 0.92 121 21:55 19.04.2022
2538 Clouds 8 1014 57 10000 0.67 62 21:18 19.04.2022
2539 Clouds 9 1013 55 10000 0.67 62 20:37 19.04.2022
2540 Clouds 9 1013 55 10000 0.67 62 20:37 19.04.2022
2541 Clouds 10 1012 46 10000 0.45 323 19:43 19.04.2022
2542 Clouds 10 1012 42 10000 0.89 91 18:46 19.04.2022
2543 Clouds 10 1012 42 10000 0.89 91 18:46 19.04.2022
2544 Clouds 12 1012 43 10000 0.45 337 17:27 19.04.2022
2545 Clouds 12 1011 43 10000 0.45 185 16:43 19.04.2022
2546 Clouds 12 1011 43 10000 0.45 185 16:21 19.04.2022
2547 Clouds 12 1011 43 10000 0.45 331 14:47 19.04.2022
2548 Clouds 12 1011 44 10000 2.68 5 13:34 19.04.2022
2549 Clouds 12 1012 46 10000 2.68 5 12:50 19.04.2022
2550 Clouds 11 1012 47 10000 1.79 173 11:39 19.04.2022
2551 Clouds 9 1013 54 10000 0.89 360 09:57 19.04.2022
2552 Clouds 9 1015 49 10000 0.45 174 08:43 19.04.2022
2553 Clouds 1 1013 82 10000 0.45 211 04:41 19.04.2022
2554 Clouds 2 1014 81 10000 0.45 218 03:19 19.04.2022
2555 Clear 4 1017 69 10000 0.45 151 00:24 19.04.2022
2556 Clouds 5 1017 64 10000 2 179 22:58 18.04.2022
2557 Clouds 6 1019 59 10000 1.21 165 21:29 18.04.2022
2558 Clouds 7 1018 52 10000 0.45 343 20:53 18.04.2022
2559 Clouds 7 1018 52 10000 0.45 343 20:27 18.04.2022
2560 Clouds 8 1017 51 10000 0.45 320 19:42 18.04.2022
2561 Clouds 9 1017 50 10000 0.45 296 18:53 18.04.2022
2562 Clouds 12 1016 41 10000 0.89 11 17:53 18.04.2022
2563 Clouds 13 1015 38 10000 4.92 356 17:28 18.04.2022
2564 Clouds 13 1015 37 10000 1.34 336 16:40 18.04.2022
2565 Clouds 13 1015 37 10000 1.34 336 15:54 18.04.2022
2566 Clouds 13 1016 39 10000 2.24 325 14:42 18.04.2022
2567 Clouds 13 1016 39 10000 2.24 325 14:42 18.04.2022
2568 Clouds 12 1016 43 10000 1.79 2 13:31 18.04.2022
2569 Clear 10 1017 49 10000 0.89 325 12:28 18.04.2022
2570 Clear 9 1017 57 10000 2.24 344 11:20 18.04.2022
2571 Clear 8 1018 59 10000 0.45 179 10:28 18.04.2022
2572 Clear 6 1019 59 10000 0.89 168 09:30 18.04.2022
2573 Clear -2 1017 84 10000 0.45 205 07:34 18.04.2022
2574 Clear 0 1017 83 10000 0.45 216 04:40 18.04.2022
2575 Clear 3 1022 69 10000 0.45 269 23:41 17.04.2022
2576 Clear 3 1022 64 10000 0.45 243 22:40 17.04.2022
2577 Clear 4 1025 60 10000 0.45 149 21:42 17.04.2022
2578 Clear 4 1025 60 10000 0.45 149 21:21 17.04.2022
2579 Clear 6 1024 56 10000 1.34 96 20:32 17.04.2022
2580 Clouds 10 1020 42 10000 1.97 57 19:21 17.04.2022
2581 Clouds 11 1021 43 10000 4.47 310 17:38 17.04.2022
2582 Clouds 10 1022 46 10000 5.36 319 15:38 17.04.2022
2583 Clouds 12 1020 42 10000 5.36 319 14:53 17.04.2022
2584 Clouds 11 1021 49 10000 1.79 9 13:44 17.04.2022
2585 Clear 10 1021 51 10000 1.79 9 12:56 17.04.2022
2586 Clear 7 1023 63 10000 1.34 357 11:24 17.04.2022
2587 Clear 7 1022 57 10000 2.53 54 10:38 17.04.2022
2588 Clear 6 1023 73 10000 2.06 65 10:19 17.04.2022
2589 Clear 3 1029 78 10000 1.88 85 09:23 17.04.2022
2590 Clear 1 1030 87 10000 0.45 189 08:41 17.04.2022
2591 Clouds -1 1027 90 10000 0.45 110 06:52 17.04.2022
2592 Clouds 0 1029 87 10000 0.45 80 02:56 17.04.2022
2593 Clouds 2 1029 82 10000 0.45 152 00:53 17.04.2022
2594 Clouds 4 1029 78 10000 0.89 213 23:48 16.04.2022
2595 Clouds 4 1029 77 10000 0.45 230 21:55 16.04.2022
2596 Clouds 5 1029 73 10000 0.89 327 21:23 16.04.2022
2597 Clouds 8 1027 66 10000 3.58 310 19:33 16.04.2022
2598 Clouds 8 1027 66 10000 5.81 302 18:45 16.04.2022
2599 Clouds 8 1029 70 10000 0.89 2 17:21 16.04.2022
2600 Clouds 9 1029 69 10000 0.89 348 16:31 16.04.2022
2601 Clouds 10 1025 59 10000 0.89 1 15:23 16.04.2022
2602 Clouds 9 1025 65 10000 0.89 225 14:43 16.04.2022
2603 Clouds 9 1025 70 10000 0.89 225 13:55 16.04.2022
2604 Clouds 8 1025 73 8401 1.34 293 13:24 16.04.2022
2605 Clouds 7 1025 78 10000 2.68 6 11:58 16.04.2022
2606 Clouds 6 1024 87 2942 3.13 353 10:35 16.04.2022
2607 Clouds 5 1026 91 501 0.45 302 09:38 16.04.2022
2608 Clouds 5 1026 91 1011 0.45 302 08:52 16.04.2022
2609 Clouds 5 1026 92 9274 0.89 1 07:31 16.04.2022
2610 Clouds 5 1026 94 10000 0.45 324 06:18 16.04.2022
2611 Clouds 7 1026 89 10000 0.89 168 01:53 16.04.2022
2612 Clouds 8 1025 88 10000 0.45 167 23:53 15.04.2022
2613 Clouds 9 1025 88 10000 0.89 216 22:51 15.04.2022
2614 Clouds 9 1025 87 10000 0.89 158 22:31 15.04.2022
2615 Clouds 10 1025 85 10000 0.45 147 21:35 15.04.2022
2616 Clouds 11 1024 84 10000 1.34 218 20:44 15.04.2022
2617 Clouds 11 1024 85 10000 1.34 218 19:49 15.04.2022
2618 Clouds 11 1024 84 10000 0.89 165 19:30 15.04.2022
2619 Clouds 14 1022 78 10000 1.35 6 18:45 15.04.2022
2620 Clouds 15 1022 65 10000 1.44 355 18:23 15.04.2022
2621 Clouds 15 1022 63 10000 0.45 266 17:28 15.04.2022
2622 Clouds 16 1022 62 10000 0.89 311 16:25 15.04.2022
2623 Clouds 16 1022 62 10000 0.89 311 16:25 15.04.2022
2624 Clouds 15 1022 65 10000 0.89 311 15:52 15.04.2022
2625 Clouds 15 1023 72 9727 0.45 323 14:20 15.04.2022
2626 Clouds 14 1023 77 10000 0.45 277 12:53 15.04.2022
2627 Clouds 12 1024 82 10000 1.34 17 12:26 15.04.2022
2628 Clouds 13 1023 84 10000 1.34 17 11:52 15.04.2022
2629 Clouds 11 1024 84 10000 0.45 178 10:48 15.04.2022
2630 Clouds 11 1024 84 10000 0.45 178 10:21 15.04.2022
2631 Clouds 10 1024 85 10000 0.45 6 09:23 15.04.2022
2632 Clouds 10 1024 84 10000 1.34 181 08:57 15.04.2022
2633 Clouds 9 1023 85 9047 0.89 84 06:52 15.04.2022
2634 Clouds 9 1023 86 10000 0.45 183 05:56 15.04.2022
2635 Clouds 10 1023 79 10000 0.45 199 01:27 15.04.2022
2636 Clouds 13 1022 69 10000 0.89 182 23:29 14.04.2022
2637 Clouds 12 1023 68 10000 0.45 170 22:46 14.04.2022
2638 Clouds 12 1023 68 10000 0.45 170 22:27 14.04.2022
2639 Clouds 13 1022 64 10000 1.34 149 21:53 14.04.2022
2640 Clouds 14 1020 61 6611 0.45 344 19:53 14.04.2022
2641 Clouds 14 1020 61 10000 0.45 344 19:22 14.04.2022
2642 Clouds 15 1020 63 10000 1.41 332 17:56 14.04.2022
2643 Clouds 15 1020 63 10000 1.47 327 17:27 14.04.2022
2644 Clouds 17 1018 56 10000 1.34 2 16:32 14.04.2022
2645 Clouds 18 1019 50 10000 0.45 280 14:20 14.04.2022
2646 Clouds 18 1018 49 10000 2.24 360 13:26 14.04.2022
2647 Clouds 18 1018 55 10000 0.89 32 12:38 14.04.2022
2648 Clouds 17 1018 55 10000 0.89 32 12:19 14.04.2022
2649 Clouds 16 1019 56 10000 1.34 33 11:21 14.04.2022
2650 Clouds 14 1019 62 10000 0.89 72 10:36 14.04.2022
2651 Clouds 14 1019 64 10000 1.34 174 09:52 14.04.2022
2652 Clouds 10 1018 81 10000 0.81 264 08:39 14.04.2022
2653 Clouds 7 1018 85 10000 0.45 135 06:24 14.04.2022
2654 Clouds 9 1017 80 10000 0.89 223 01:49 14.04.2022
2655 Clouds 9 1017 80 10000 0.89 223 01:49 14.04.2022
2656 Clouds 13 1017 68 10000 1.34 162 22:45 13.04.2022
2657 Clouds 14 1017 64 10000 1.34 185 21:44 13.04.2022
2658 Clouds 14 1017 60 10000 1.79 149 20:48 13.04.2022
2659 Clouds 14 1017 60 10000 1.79 149 20:18 13.04.2022
2660 Clouds 17 1015 52 10000 0.89 347 18:50 13.04.2022
2661 Clouds 17 1015 52 10000 1.58 5 17:54 13.04.2022
2662 Clouds 20 1014 44 10000 1.34 331 17:23 13.04.2022
2663 Clouds 19 1014 44 10000 0.89 355 16:24 13.04.2022
2664 Clouds 20 1014 40 10000 3.58 0 15:31 13.04.2022
2665 Clouds 20 1015 42 10000 0.89 19 14:46 13.04.2022
2666 Clouds 20 1015 42 10000 0.89 19 13:57 13.04.2022
2667 Clouds 19 1015 45 10000 1.34 32 12:59 13.04.2022
2668 Clouds 18 1015 45 10000 1.34 308 12:19 13.04.2022
2669 Clouds 15 1016 48 10000 1.34 169 10:44 13.04.2022
2670 Clouds 11 1015 67 10000 1 149 08:50 13.04.2022
2671 Clouds 8 1015 76 10000 2.08 159 08:28 13.04.2022
2672 Clouds 7 1015 79 10000 0.45 173 06:50 13.04.2022
2673 Clouds 7 1015 81 10000 2.22 157 06:25 13.04.2022
2674 Clouds 8 1015 76 10000 0.89 216 02:37 13.04.2022
2675 Clouds 10 1015 74 10000 0.45 233 00:20 13.04.2022
2676 Clouds 12 1014 65 10000 0.45 96 22:46 12.04.2022
2677 Clouds 13 1014 63 10000 0.45 96 21:57 12.04.2022
2678 Clouds 8 1015 71 10000 2.9 164 20:49 12.04.2022
2679 Clouds 16 1014 76 10000 2.63 167 20:27 12.04.2022
2680 Clouds 8 1014 78 10000 2.6 167 19:41 12.04.2022
2681 Clouds 16 1014 76 10000 1.58 161 19:19 12.04.2022
2682 Clouds 20 1013 36 10000 0.68 144 17:50 12.04.2022
2683 Clouds 21 1012 35 10000 0.54 125 16:50 12.04.2022
2684 Clouds 21 1013 31 10000 1.79 334 15:39 12.04.2022
2685 Clouds 21 1013 30 10000 1.79 334 15:21 12.04.2022
2686 Clouds 20 1013 32 10000 1.34 336 13:53 12.04.2022
2687 Clouds 19 1013 33 10000 0.89 352 13:27 12.04.2022
2688 Clouds 17 1013 35 10000 0.45 17 12:31 12.04.2022
2689 Clouds 15 1014 37 10000 0.45 25 11:40 12.04.2022
2690 Clouds 12 1014 49 10000 0.45 140 10:29 12.04.2022
2691 Clouds 7 1014 59 10000 1.87 160 08:54 12.04.2022
2692 Clouds 3 1016 58 10000 2.6 156 07:47 12.04.2022
2693 Clouds 2 1015 82 10000 0.45 212 05:47 12.04.2022
2694 Clouds 3 1015 82 10000 0.89 173 02:53 12.04.2022
2695 Clouds 5 1015 77 10000 0.45 213 23:36 11.04.2022
2696 Clouds 6 1015 71 10000 3.25 166 22:44 11.04.2022
2697 Clouds 7 1018 70 10000 3.26 166 21:36 11.04.2022
2698 Clouds 8 1018 51 10000 0.89 143 20:49 11.04.2022
2699 Clouds 8 1018 51 10000 0.89 143 20:28 11.04.2022
2700 Clouds 12 1016 44 10000 0.89 82 19:29 11.04.2022
2701 Clouds 11 1016 43 10000 2.16 168 18:59 11.04.2022
2702 Clouds 12 1016 43 10000 2.16 168 18:33 11.04.2022
2703 Clouds 14 1015 35 10000 2.24 304 17:43 11.04.2022
2704 Clouds 14 1015 34 10000 0.45 333 16:38 11.04.2022
2705 Clouds 15 1015 33 10000 0.89 336 15:24 11.04.2022
2706 Clouds 13 1016 37 10000 0.89 25 13:44 11.04.2022
2707 Clouds 11 1016 36 10000 0.89 19 12:41 11.04.2022
2708 Clouds 11 1016 36 10000 0.89 19 12:22 11.04.2022
2709 Clouds 7 1019 35 10000 0.45 178 10:56 11.04.2022
2710 Clouds 6 1016 54 10000 0.59 153 09:58 11.04.2022
2711 Clouds -1 1020 55 10000 2.17 162 08:23 11.04.2022
2712 Clouds -2 1021 82 10000 0.89 212 04:57 11.04.2022
2713 Clouds -2 1026 88 10000 3.21 161 00:30 11.04.2022
2714 Clouds -1 1027 72 10000 0.89 140 22:27 10.04.2022
2715 Clouds -1 1027 72 10000 0.89 140 22:27 10.04.2022
2716 Clouds 0 1027 72 10000 0.45 172 21:53 10.04.2022
2717 Clouds 0 1026 73 10000 2.61 165 20:55 10.04.2022
2718 Clouds 1 1026 73 10000 1.91 169 20:18 10.04.2022
2719 Clouds 2 1025 66 10000 1.83 169 19:36 10.04.2022
2720 Clouds 6 1022 51 10000 0.29 259 18:50 10.04.2022
2721 Clouds 7 1019 51 10000 1.34 214 18:25 10.04.2022
2722 Clouds 6 1019 48 10000 2.68 160 17:43 10.04.2022
2723 Clouds 6 1019 49 10000 2.68 160 16:52 10.04.2022
2724 Clouds 4 1022 57 9578 2.68 155 15:38 10.04.2022
2725 Clouds 5 1020 60 6677 0.45 330 14:41 10.04.2022
2726 Clouds 4 1023 62 4725 1.34 80 13:22 10.04.2022
2727 Clouds 2 1023 84 5715 0.89 97 12:27 10.04.2022
2728 Snow 1 1020 95 5715 1.75 289 11:36 10.04.2022
2729 Snow 0 1023 95 4233 1.9 288 10:58 10.04.2022
2730 Snow 0 1023 95 4014 1.34 283 10:27 10.04.2022
2731 Snow -1 1023 94 4014 0.89 91 09:41 10.04.2022
2732 Snow 0 1019 94 320 1.62 252 08:26 10.04.2022
2733 Snow 0 1019 94 320 1.62 252 07:53 10.04.2022
2734 Clouds 0 1018 93 103 0.45 203 06:48 10.04.2022
2735 Snow -1 1017 93 135 0.89 136 03:36 10.04.2022
2736 Snow -1 1017 93 135 0.89 136 03:36 10.04.2022
2737 Clouds 0 1016 92 1748 0.45 156 01:29 10.04.2022
2738 Clouds 0 1016 91 1951 0.45 189 23:52 09.04.2022
2739 Clouds -1 1019 89 5670 1.34 201 22:52 09.04.2022
2740 Clouds -1 1022 90 10000 0.86 224 21:48 09.04.2022
2741 Clouds 0 1021 85 839 0.89 176 20:57 09.04.2022
2742 Snow -1 1021 84 2452 0.89 176 20:26 09.04.2022
2743 Clouds 0 1017 84 2543 1.34 174 19:42 09.04.2022
2744 Clouds 2 1014 81 10000 1.34 174 19:18 09.04.2022
2745 Clouds 2 1016 74 10000 0.89 260 18:22 09.04.2022
2746 Clouds 3 1012 66 10000 2.24 87 17:40 09.04.2022
2747 Clouds 4 1012 67 10000 2.24 87 16:55 09.04.2022
2748 Clouds 2 1012 75 10000 1.79 220 16:24 09.04.2022
2749 Clouds 3 1012 75 10000 0.89 79 15:43 09.04.2022
2750 Clouds 2 1015 84 3523 0.45 11 14:44 09.04.2022
2751 Clouds 2 1015 84 3523 0.45 11 14:44 09.04.2022
2752 Clouds 2 1015 84 2324 0.45 11 14:23 09.04.2022
2753 Clouds 1 1012 97 3686 0.45 296 13:21 09.04.2022
2754 Clouds 2 1012 97 3686 0.45 296 12:51 09.04.2022
2755 Snow 1 1014 96 550 1.34 223 11:40 09.04.2022
2756 Snow -1 1014 96 214 0.45 211 10:21 09.04.2022
2757 Clouds 0 1011 96 214 0.45 277 09:47 09.04.2022
2758 Clouds 0 1011 96 868 0.45 277 08:56 09.04.2022
2759 Snow 0 1008 97 117 3.13 351 07:29 09.04.2022
2760 Clouds 8 1001 89 6789 4.39 261 02:53 09.04.2022
2761 Clouds 7 999 81 10000 0.89 214 23:53 08.04.2022
2762 Clouds 7 1000 86 10000 2.24 180 22:57 08.04.2022
2763 Clouds 8 1000 85 8564 0.89 357 21:32 08.04.2022
2764 Clouds 8 1000 84 7400 2.68 176 20:40 08.04.2022
2765 Clouds 9 1000 83 4154 1.34 314 19:32 08.04.2022
2766 Rain 9 1000 82 8758 4.92 100 18:31 08.04.2022
2767 Rain 10 1000 80 833 4.92 100 17:52 08.04.2022
2768 Rain 10 1000 76 3130 3.58 182 17:26 08.04.2022
2769 Rain 11 999 75 3130 1.34 146 16:49 08.04.2022
2770 Rain 12 1000 68 4428 3.13 170 15:57 08.04.2022
2771 Rain 12 1000 70 5052 1.34 344 15:26 08.04.2022
2772 Rain 11 1001 75 5052 2.68 172 14:33 08.04.2022
2773 Clouds 10 1002 77 8675 0.45 141 13:47 08.04.2022
2774 Clouds 10 1002 78 8679 0.45 141 13:29 08.04.2022
2775 Clouds 9 1003 75 8683 3.13 181 12:18 08.04.2022
2776 Clouds 7 1005 88 386 1.34 144 10:37 08.04.2022
2777 Clouds 6 1006 88 1201 0.89 224 09:38 08.04.2022
2778 Clouds 6 1005 87 1607 0.89 224 08:51 08.04.2022
2779 Clouds 5 1007 90 179 1.79 197 07:31 08.04.2022
2780 Clouds 7 1005 86 203 0.89 248 05:23 08.04.2022
2781 Clouds 7 1003 86 5056 0.45 79 01:29 08.04.2022
2782 Clouds 8 1003 80 8741 1.79 166 00:25 08.04.2022
2783 Clouds 9 1002 72 10000 1.34 296 22:59 07.04.2022
2784 Clouds 9 1003 78 10000 0.89 186 22:40 07.04.2022
2785 Clouds 9 1003 78 10000 0.89 186 22:21 07.04.2022
2786 Clouds 8 1003 80 10000 4.02 170 21:53 07.04.2022
2787 Clouds 8 1002 83 10000 4.02 170 21:19 07.04.2022
2788 Clouds 7 1002 85 10000 3.58 188 20:37 07.04.2022
2789 Rain 10 1000 74 10000 0.45 128 18:48 07.04.2022
2790 Clouds 9 1000 77 10000 0.45 333 17:27 07.04.2022
2791 Rain 8 1002 84 10000 3.13 177 16:44 07.04.2022
2792 Rain 8 1002 84 4720 3.13 177 16:23 07.04.2022
2793 Clouds 11 1000 56 10000 2.24 234 14:50 07.04.2022
2794 Clouds 11 1002 51 10000 3.51 230 13:43 07.04.2022
2795 Clouds 11 1003 49 10000 0.89 65 12:58 07.04.2022
2796 Clouds 11 1003 50 10000 3.13 150 11:40 07.04.2022
2797 Clouds 7 1005 77 10000 3.58 183 09:42 07.04.2022
2798 Clouds 7 1005 85 10000 0.45 211 08:38 07.04.2022
2799 Clouds 6 1007 84 241 2.68 177 06:43 07.04.2022
2800 Clouds 6 1007 88 253 2.24 178 02:58 07.04.2022
2801 Clouds 7 1007 88 350 2.24 178 02:27 07.04.2022
2802 Clouds 7 1007 88 520 1.79 172 00:28 07.04.2022
2803 Clouds 8 1006 88 1862 1.34 141 22:52 06.04.2022
2804 Clouds 8 1006 84 597 1.34 300 22:27 06.04.2022
2805 Clouds 8 1008 83 597 0.45 17 21:45 06.04.2022
2806 Clouds 7 1008 80 1331 1.34 177 20:40 06.04.2022
2807 Clouds 7 1008 79 1765 0.89 63 19:54 06.04.2022
2808 Clouds 8 1007 76 2177 1.79 148 18:52 06.04.2022
2809 Clouds 8 1007 76 2177 1.79 148 18:32 06.04.2022
2810 Clouds 10 1006 70 2992 1 270 17:35 06.04.2022
2811 Clouds 11 1006 66 3427 0.45 183 16:38 06.04.2022
2812 Clouds 11 1006 64 9356 1.27 256 15:48 06.04.2022
2813 Clouds 11 1006 64 9320 1.38 235 15:21 06.04.2022
2814 Clouds 11 1009 66 2528 1.34 319 13:25 06.04.2022
2815 Clouds 8 1011 67 2151 0.45 157 12:27 06.04.2022
2816 Clouds 9 1012 75 2047 0.54 269 10:52 06.04.2022
2817 Clouds 8 1010 81 2047 0.89 217 10:30 06.04.2022
2818 Clouds 6 1010 91 3616 0.45 200 09:41 06.04.2022
2819 Clouds 5 1009 94 10000 0.45 203 08:34 06.04.2022
2820 Clouds 5 1009 95 10000 0.45 203 07:53 06.04.2022
2821 Clouds 5 1011 94 10000 1.34 171 04:30 06.04.2022
2822 Clouds 5 1014 92 10000 1.34 158 23:54 05.04.2022
2823 Clouds 6 1014 93 10000 0.89 161 22:58 05.04.2022
2824 Clouds 6 1014 90 10000 1.79 179 21:23 05.04.2022
2825 Clouds 6 1014 91 1937 0.45 138 20:26 05.04.2022
2826 Clouds 6 1014 90 2063 0.45 138 19:52 05.04.2022
2827 Clouds 7 1014 88 414 0.45 166 18:18 05.04.2022
2828 Clouds 7 1014 85 162 0.45 142 16:55 05.04.2022
2829 Clouds 7 1014 87 162 0.89 158 16:35 05.04.2022
2830 Clouds 7 1014 84 113 0.89 162 15:35 05.04.2022
2831 Clouds 6 1014 84 107 1.34 140 14:37 05.04.2022
2832 Clouds 6 1015 83 111 1.34 185 13:37 05.04.2022
2833 Clouds 5 1015 76 263 1.34 134 11:51 05.04.2022
2834 Clouds 5 1015 76 263 1.34 134 11:51 05.04.2022
2835 Clouds 5 1015 75 263 0.45 175 11:33 05.04.2022
2836 Clouds 5 1014 74 839 1.34 136 10:41 05.04.2022
2837 Clouds 4 1013 71 2560 0.89 143 08:55 05.04.2022
2838 Clouds 3 1013 74 10000 0.89 243 07:24 05.04.2022
2839 Clouds 3 1014 73 10000 0.45 177 02:39 05.04.2022
2840 Clouds 2 1018 89 10000 2.89 216 22:48 04.04.2022
2841 Clouds 3 1019 91 10000 2.68 213 22:29 04.04.2022
2842 Clouds 2 1019 92 10000 2.27 225 21:22 04.04.2022
2843 Clouds 2 1019 92 10000 2.27 225 20:50 04.04.2022
2844 Clouds 2 1019 92 10000 2.27 225 20:50 04.04.2022
2845 Clouds 2 1018 90 10000 2.03 235 20:22 04.04.2022
2846 Clouds 6 1013 56 10000 1.79 205 19:26 04.04.2022
2847 Clouds 6 1013 60 10000 0.89 218 18:39 04.04.2022
2848 Clouds 6 1013 59 10000 2.41 267 16:41 04.04.2022
2849 Clouds 6 1013 59 10000 2.72 261 16:23 04.04.2022
2850 Clouds 6 1014 59 10000 1.34 230 15:33 04.04.2022
2851 Clouds 5 1014 57 10000 1.79 216 14:46 04.04.2022
2852 Clouds 4 1015 58 10000 0.45 160 13:40 04.04.2022
2853 Clear 3 1016 60 10000 1.34 139 12:26 04.04.2022
2854 Clear 2 1017 62 10000 1.79 140 11:29 04.04.2022
2855 Clear -1 1017 74 10000 0.89 218 09:51 04.04.2022
2856 Clouds -7 1025 90 10000 2.58 172 05:27 04.04.2022
2857 Clouds -5 1025 92 10000 2.27 170 02:41 04.04.2022
2858 Clouds -3 1026 87 10000 0.45 351 22:49 03.04.2022
2859 Clouds -3 1026 87 4092 1.34 354 21:58 03.04.2022
2860 Clouds -2 1021 84 1826 1.34 354 21:25 03.04.2022
2861 Clouds -2 1020 83 827 0.45 353 19:52 03.04.2022
2862 Clouds -1 1016 83 375 1.79 342 18:34 03.04.2022
2863 Clouds -1 1016 83 431 1.79 342 17:49 03.04.2022
2864 Clouds -1 1016 83 712 2.24 1 17:27 03.04.2022
2865 Clouds -1 1016 83 712 2.24 318 16:48 03.04.2022
2866 Clouds 0 1016 82 910 2.24 330 15:32 03.04.2022
2867 Clouds -1 1019 81 1335 2.24 313 13:58 03.04.2022
2868 Clouds -1 1019 78 4179 1.79 11 12:56 03.04.2022
2869 Clouds -1 1019 79 7428 0.45 48 11:33 03.04.2022
2870 Clouds -2 1015 87 10000 1.16 45 09:41 03.04.2022
2871 Clouds -3 1015 90 10000 0.77 101 08:52 03.04.2022
2872 Clouds -5 1021 98 2292 1.59 160 05:44 03.04.2022
2873 Clouds -6 1020 98 989 1.13 147 02:55 03.04.2022
2874 Clouds -3 1012 89 335 0.89 349 23:22 02.04.2022
2875 Clouds -3 1012 89 335 0.89 349 23:22 02.04.2022
2876 Clouds -3 1012 91 335 1.79 355 22:41 02.04.2022
2877 Clouds -3 1012 91 166 1.79 355 21:55 02.04.2022
2878 Clouds -3 1011 93 122 0.45 312 21:19 02.04.2022
2879 Snow -3 1009 93 122 1.98 2 20:35 02.04.2022
2880 Snow -2 1008 91 149 3.13 324 18:47 02.04.2022
2881 Snow -2 1008 91 162 3.13 324 18:19 02.04.2022
2882 Snow -1 1006 89 181 1.79 295 16:45 02.04.2022
2883 Snow -1 1006 88 224 1.34 329 15:27 02.04.2022
2884 Snow -1 1006 89 224 1.34 329 14:52 02.04.2022
2885 Clouds -1 1005 90 227 1.79 19 14:20 02.04.2022
2886 Clouds -1 1005 91 239 1.34 348 13:29 02.04.2022
2887 Snow -1 1004 90 300 1.34 319 11:56 02.04.2022
2888 Snow -2 1005 91 250 0.45 48 09:57 02.04.2022
2889 Snow -3 1004 93 155 0.45 347 07:48 02.04.2022
2890 Snow -2 1003 94 180 1.34 316 04:25 02.04.2022
2891 Snow -1 1003 92 156 0.89 278 00:27 02.04.2022
2892 Snow -1 1003 92 156 0.89 278 23:53 01.04.2022
2893 Snow -1 1003 93 264 1.79 331 22:46 01.04.2022
2894 Snow 0 1002 93 162 0.45 303 20:55 01.04.2022
2895 Snow 0 1001 93 162 1.79 8 20:35 01.04.2022
2896 Rain 0 1001 93 77 2.24 344 19:41 01.04.2022
2897 Rain 1 999 92 105 2.24 344 19:23 01.04.2022
2898 Rain 1 1000 91 105 1.34 313 18:36 01.04.2022
2899 Clouds 1 1002 91 105 2.03 325 17:36 01.04.2022
2900 Clouds 1 1002 93 148 2.17 328 15:46 01.04.2022
2901 Clouds 1 1001 94 130 2.16 333 14:51 01.04.2022
2902 Clouds 1 1001 95 107 0.45 305 13:39 01.04.2022
2903 Snow 0 1001 95 99 2.32 313 12:33 01.04.2022
2904 Snow 0 1001 95 145 2.18 313 11:47 01.04.2022
2905 Snow 0 1001 95 134 2.15 310 10:49 01.04.2022
2906 Snow 0 997 94 89 1.91 314 09:39 01.04.2022
2907 Snow 0 1000 94 50 1.55 330 07:31 01.04.2022
2908 Clouds 1 999 93 32 1.25 296 04:59 01.04.2022
2909 Clouds 1 999 94 32 1.25 296 04:39 01.04.2022
2910 Clouds 2 999 95 58 0.45 148 02:37 01.04.2022
2911 Clouds 2 999 95 52 0.45 49 01:33 01.04.2022
2912 Clouds 2 999 94 69 0.75 255 22:27 31.03.2022
2913 Clouds 3 997 94 69 1.34 159 21:38 31.03.2022
2914 Clouds 4 996 94 61 1.34 159 20:51 31.03.2022
2915 Clouds 4 995 92 59 0.45 284 20:28 31.03.2022
2916 Clouds 6 994 89 103 1.34 27 19:21 31.03.2022
2917 Clouds 6 995 86 103 0.45 25 18:31 31.03.2022
2918 Clouds 9 994 72 738 1.64 330 16:47 31.03.2022
2919 Clouds 8 995 83 705 0.89 16 15:54 31.03.2022
2920 Clouds 8 994 80 2195 1.77 333 15:24 31.03.2022
2921 Clouds 8 995 83 2195 0.89 227 14:44 31.03.2022
2922 Clouds 7 995 90 1507 1.64 343 13:28 31.03.2022
2923 Clouds 6 996 92 2611 1.41 348 11:30 31.03.2022
2924 Clouds 6 996 91 5812 0.45 359 10:22 31.03.2022
2925 Clouds 6 996 91 10000 0.76 340 09:19 31.03.2022
2926 Clouds 5 996 92 10000 0.42 349 07:31 31.03.2022
2927 Clouds 5 1000 90 10000 0.89 153 01:27 31.03.2022
2928 Clouds 6 1001 86 10000 0.45 295 23:23 30.03.2022
2929 Clouds 7 1001 80 10000 1.79 335 21:54 30.03.2022
2930 Clouds 7 1001 78 10000 0.89 151 21:27 30.03.2022
2931 Clouds 8 1001 77 10000 0.45 314 20:32 30.03.2022
2932 Clouds 8 1000 75 10000 0.89 182 19:43 30.03.2022
2933 Clouds 9 1001 75 10000 1.79 168 18:41 30.03.2022
2934 Clouds 9 1001 74 10000 0.45 324 17:50 30.03.2022
2935 Clouds 9 1001 76 10000 0.45 340 16:58 30.03.2022
2936 Clouds 9 1001 73 10000 0.45 261 16:39 30.03.2022
2937 Clouds 9 1002 77 10000 1.79 336 15:38 30.03.2022
2938 Clouds 9 1003 73 5435 2.68 356 14:18 30.03.2022
2939 Clouds 10 1002 67 7643 2.24 149 13:19 30.03.2022
2940 Clouds 9 1004 65 10000 0.45 20 11:41 30.03.2022
2941 Clouds 9 1003 64 10000 0.99 257 10:38 30.03.2022
2942 Clouds 7 1005 71 10000 0.45 237 09:28 30.03.2022
2943 Clouds 7 1005 69 10000 0.89 174 07:59 30.03.2022
2944 Clouds 7 1006 65 10000 0.89 235 05:41 30.03.2022
2945 Clouds 7 1006 61 10000 1.34 176 04:54 30.03.2022
2946 Clouds 8 1008 59 10000 0.45 245 00:43 30.03.2022
2947 Clouds 10 1009 54 10000 1.34 208 22:35 29.03.2022
2948 Clouds 10 1011 52 10000 1.34 167 21:46 29.03.2022
2949 Clouds 9 1010 53 10000 0.45 81 20:55 29.03.2022
2950 Clouds 9 1010 53 10000 0.45 81 20:24 29.03.2022
2951 Clouds 11 1009 44 10000 1.79 173 18:57 29.03.2022
2952 Clouds 11 1009 44 10000 1.79 173 18:36 29.03.2022
2953 Clouds 14 1010 36 10000 0.45 348 17:37 29.03.2022
2954 Clouds 14 1010 35 10000 0.45 326 16:58 29.03.2022
2955 Clouds 16 1009 29 10000 1.1 298 15:58 29.03.2022
2956 Clouds 16 1010 30 10000 1.34 58 14:53 29.03.2022
2957 Clouds 15 1011 30 10000 2.68 4 14:22 29.03.2022
2958 Clouds 15 1012 34 10000 2.68 313 12:55 29.03.2022
2959 Clouds 13 1014 40 10000 0.89 116 11:44 29.03.2022
2960 Clouds 11 1016 44 10000 1.34 176 10:55 29.03.2022
2961 Clouds 9 1013 53 10000 0.45 154 09:49 29.03.2022
2962 Clouds 4 1015 71 10000 2.55 177 07:57 29.03.2022
2963 Clouds 4 1015 71 10000 0.89 213 05:35 29.03.2022
2964 Clouds 5 1017 65 10000 0.89 200 00:50 29.03.2022
2965 Clear 6 1018 63 10000 0.89 158 23:24 28.03.2022
2966 Clear 7 1018 61 10000 0.89 158 22:54 28.03.2022
2967 Clear 8 1019 59 10000 1.34 225 22:26 28.03.2022
2968 Clear 9 1023 69 10000 2.96 170 20:58 28.03.2022
2969 Clear 10 1022 72 10000 2.7 174 20:23 28.03.2022
2970 Clear 11 1022 44 10000 0.89 330 19:45 28.03.2022
2971 Clear 11 1022 44 10000 0.89 330 19:27 28.03.2022
2972 Clear 14 1021 34 10000 0.45 40 18:40 28.03.2022
2973 Clear 16 1021 32 10000 1.1 214 17:39 28.03.2022
2974 Clear 16 1021 28 10000 0.45 165 16:21 28.03.2022
2975 Clear 16 1023 26 10000 0.89 146 14:47 28.03.2022
2976 Clear 16 1023 28 10000 0.89 146 14:21 28.03.2022
2977 Clear 15 1024 35 10000 1.34 5 12:20 28.03.2022
2978 Clear 13 1025 37 10000 0.87 256 11:24 28.03.2022
2979 Clear 9 1028 38 10000 0.89 154 09:43 28.03.2022
2980 Clear 9 1028 38 10000 0.89 154 09:19 28.03.2022
2981 Clear 3 1028 76 10000 2.64 172 08:22 28.03.2022
2982 Clear 2 1029 54 10000 2.8 170 07:28 28.03.2022
2983 Clear 3 1029 77 10000 2.92 170 03:44 28.03.2022
2984 Clear 6 1026 67 10000 0.45 195 23:30 27.03.2022
2985 Clear 8 1026 61 10000 0.89 235 22:24 27.03.2022
2986 Clear 8 1026 61 10000 0.89 235 22:24 27.03.2022
2987 Clear 8 1031 59 10000 3 164 21:41 27.03.2022
2988 Clear 9 1030 66 10000 2.91 166 20:54 27.03.2022
2989 Clear 9 1030 66 10000 2.91 166 20:54 27.03.2022
2990 Clear 12 1028 43 10000 0.45 19 19:48 27.03.2022
2991 Clear 12 1028 43 10000 0.45 19 19:20 27.03.2022
2992 Clear 15 1027 36 10000 0.45 18 18:27 27.03.2022
2993 Clear 15 1027 35 10000 0.45 330 17:38 27.03.2022
2994 Clear 17 1026 32 10000 3.58 316 16:21 27.03.2022
2995 Clear 16 1026 30 10000 3.58 299 15:18 27.03.2022
2996 Clear 16 1026 32 10000 2.24 322 13:55 27.03.2022
2997 Clear 14 1027 36 10000 1.79 11 12:24 27.03.2022
2998 Clear 11 1027 34 10000 0.89 80 10:53 27.03.2022
2999 Clear 8 1030 32 10000 0.45 134 08:43 27.03.2022
3000 Clear 3 1029 66 10000 2.9 160 05:54 27.03.2022
3001 Clear 5 1028 70 10000 0.45 217 00:47 27.03.2022
3002 Clear 5 1029 68 10000 0.89 148 23:40 26.03.2022
3003 Clear 7 1028 63 10000 0.45 183 22:36 26.03.2022
3004 Clear 8 1028 59 10000 1.34 216 21:33 26.03.2022
3005 Clear 8 1027 57 10000 0.89 250 20:20 26.03.2022
3006 Clear 9 1029 50 10000 1.84 132 19:19 26.03.2022
3007 Clear 12 1027 48 10000 0.89 330 17:51 26.03.2022
3008 Clear 13 1027 43 10000 0.89 330 17:30 26.03.2022
3009 Clear 16 1025 40 10000 2.24 312 16:25 26.03.2022
3010 Clear 16 1025 38 10000 0.45 322 14:51 26.03.2022
3011 Clear 15 1026 41 10000 4.47 340 13:52 26.03.2022
3012 Clear 15 1025 42 10000 2.24 330 12:44 26.03.2022
3013 Clear 12 1026 45 10000 2.24 334 11:29 26.03.2022
3014 Clear 9 1029 46 10000 0.89 161 09:23 26.03.2022
3015 Clear 7 1029 49 10000 0.45 160 08:28 26.03.2022
3016 Clear 2 1028 79 10000 2.32 152 05:54 26.03.2022
3017 Clear 2 1028 80 10000 2.25 150 03:59 26.03.2022
3018 Clouds 6 1027 61 10000 0.89 167 23:39 25.03.2022
3019 Clouds 7 1026 53 10000 0.89 187 21:28 25.03.2022
3020 Clouds 8 1026 53 10000 0.89 209 20:45 25.03.2022
3021 Clouds 8 1028 47 10000 0.89 6 19:28 25.03.2022
3022 Clouds 10 1027 42 10000 0.89 336 18:46 25.03.2022
3023 Clouds 12 1026 40 10000 1.79 18 17:35 25.03.2022
3024 Clouds 13 1026 35 10000 0.45 15 16:41 25.03.2022
3025 Clouds 13 1026 35 10000 0.45 15 16:41 25.03.2022
3026 Clouds 14 1026 32 10000 1.34 90 15:56 25.03.2022
3027 Clouds 14 1027 34 10000 0.89 17 13:58 25.03.2022
3028 Clear 14 1025 35 10000 1.34 24 12:32 25.03.2022
3029 Clear 11 1025 49 10000 1.46 21 09:52 25.03.2022
3030 Clear 8 1025 62 10000 0.64 70 09:23 25.03.2022
3031 Clear 7 1029 50 10000 1.06 145 07:48 25.03.2022
3032 Clear 6 1029 50 10000 1.73 160 07:23 25.03.2022
3033 Clear 2 1028 78 10000 1.96 163 04:47 25.03.2022
3034 Clear 4 1027 65 10000 0.89 219 00:29 25.03.2022
3035 Clear 6 1027 59 10000 1.34 207 22:29 24.03.2022
3036 Clear 7 1027 55 10000 0.45 184 21:33 24.03.2022
3037 Clear 9 1027 48 10000 1.79 170 19:50 24.03.2022
3038 Clouds 10 1026 46 10000 0.89 214 18:49 24.03.2022
3039 Clouds 13 1027 37 10000 1.34 2 17:38 24.03.2022
3040 Clouds 14 1027 36 10000 0.45 320 16:44 24.03.2022
3041 Clouds 16 1025 31 10000 2.68 307 14:59 24.03.2022
3042 Clouds 16 1026 31 10000 0.89 314 14:40 24.03.2022
3043 Clouds 15 1026 33 10000 3.58 9 13:41 24.03.2022
3044 Clear 14 1027 35 10000 1.34 323 12:39 24.03.2022
3045 Clear 13 1027 35 10000 0.89 57 11:31 24.03.2022
3046 Clear 8 1026 49 10000 0.53 32 09:34 24.03.2022
3047 Clear 7 1027 65 10000 0.55 133 08:39 24.03.2022
3048 Clear 1 1031 66 10000 2.51 164 06:18 24.03.2022
3049 Clear 3 1027 72 10000 0.45 209 01:28 24.03.2022
3050 Clear 5 1027 63 10000 0.45 239 22:29 23.03.2022
3051 Clear 7 1027 57 10000 0.45 202 21:25 23.03.2022
3052 Clear 8 1032 54 10000 2.57 160 20:47 23.03.2022
3053 Clear 9 1027 49 10000 1.34 239 19:40 23.03.2022
3054 Clear 8 1028 73 10000 0.31 114 18:22 23.03.2022
3055 Clear 16 1028 30 10000 0.31 114 17:31 23.03.2022
3056 Clear 17 1027 29 10000 0.45 131 16:18 23.03.2022
3057 Clouds 17 1027 29 10000 0.54 121 14:49 23.03.2022
3058 Clouds 16 1027 25 10000 0.45 299 13:34 23.03.2022
3059 Clear 13 1030 30 10000 2.24 8 11:38 23.03.2022
3060 Clear 6 1034 30 10000 1.34 164 08:51 23.03.2022
3061 Clear 1 1034 56 10000 2.76 165 06:26 23.03.2022
3062 Clear 1 1033 58 10000 2.94 165 03:52 23.03.2022
3063 Clear 2 1028 72 10000 0.45 205 00:28 23.03.2022
3064 Clear 5 1031 63 10000 0.45 204 21:56 22.03.2022
3065 Clear 6 1031 59 10000 0.45 176 21:26 22.03.2022
3066 Clear 7 1031 56 10000 0.89 205 20:30 22.03.2022
3067 Clear 7 1033 51 10000 1.41 146 19:27 22.03.2022
3068 Clear 9 1032 45 10000 1.34 104 18:50 22.03.2022
3069 Clear 11 1031 39 10000 0.45 273 17:44 22.03.2022
3070 Clouds 13 1031 37 10000 0.45 266 16:58 22.03.2022
3071 Clouds 14 1029 33 10000 1.79 313 15:48 22.03.2022
3072 Clouds 14 1029 33 10000 1.79 313 15:21 22.03.2022
3073 Clouds 13 1030 33 10000 2.68 1 14:45 22.03.2022
3074 Clouds 13 1030 32 10000 2.68 1 13:52 22.03.2022
3075 Clear 12 1030 33 10000 1.79 117 12:34 22.03.2022
3076 Clear 11 1031 32 10000 1.79 344 11:24 22.03.2022
3077 Clear 8 1031 37 10000 0.89 151 09:52 22.03.2022
3078 Clear 2 1033 55 10000 2.05 166 07:44 22.03.2022
3079 Clear 0 1029 76 10000 2.96 164 04:29 22.03.2022
3080 Clear 0 1029 77 10000 0.45 182 02:52 22.03.2022
3081 Clear 3 1032 66 10000 0.45 217 23:19 21.03.2022
3082 Clear 5 1032 55 10000 0.89 186 21:39 21.03.2022
3083 Clear 5 1031 55 10000 0.89 232 20:44 21.03.2022
3084 Clear 5 1031 54 10000 0.89 232 20:23 21.03.2022
3085 Clear 6 1034 47 10000 1.79 32 19:47 21.03.2022
3086 Clouds 7 1033 47 10000 1.79 324 18:59 21.03.2022
3087 Clouds 10 1032 43 10000 0.89 350 17:36 21.03.2022
3088 Clouds 11 1032 40 10000 0.89 343 16:59 21.03.2022
3089 Clouds 12 1030 38 10000 2.24 296 16:35 21.03.2022
3090 Clouds 13 1030 36 10000 2.68 332 15:44 21.03.2022
3091 Clouds 12 1030 36 10000 1.34 314 14:45 21.03.2022
3092 Clear 13 1029 34 10000 2.24 318 13:20 21.03.2022
3093 Clear 10 1031 40 10000 2.24 313 11:59 21.03.2022
3094 Clear 10 1032 42 10000 1.34 20 11:28 21.03.2022
3095 Clear 7 1032 50 10000 0.66 78 09:51 21.03.2022
3096 Clear -1 1029 83 10000 1.93 157 07:39 21.03.2022
3097 Clear -1 1029 84 10000 0.89 208 06:29 21.03.2022
3098 Clear 1 1029 80 10000 0.89 169 02:23 21.03.2022
3099 Clear 3 1028 71 10000 3.11 168 22:57 20.03.2022
3100 Clouds 4 1028 66 10000 3.03 168 22:29 20.03.2022
3101 Clouds 5 1035 63 10000 3.03 168 21:38 20.03.2022
3102 Clouds 5 1034 81 10000 2.89 167 20:56 20.03.2022
3103 Clouds 5 1034 81 10000 2.89 167 20:36 20.03.2022
3104 Clouds 5 1033 82 10000 2.62 168 19:54 20.03.2022
3105 Clouds 6 1032 81 10000 2.19 173 19:24 20.03.2022
3106 Clouds 9 1030 42 10000 0.45 327 17:48 20.03.2022
3107 Clouds 10 1030 42 10000 0.45 327 17:26 20.03.2022
3108 Clouds 10 1030 41 10000 1.36 194 16:38 20.03.2022
3109 Clouds 12 1030 33 10000 0.45 67 14:50 20.03.2022
3110 Clear 12 1031 34 10000 0.89 349 13:39 20.03.2022
3111 Clear 11 1031 34 10000 0.89 257 12:19 20.03.2022
3112 Clear 8 1029 41 10000 0.89 343 09:59 20.03.2022
3113 Clear 1 1033 79 10000 3.2 164 08:26 20.03.2022
3114 Clear -2 1026 85 10000 0.45 285 06:39 20.03.2022
3115 Clear -1 1025 84 10000 3.06 166 03:25 20.03.2022
3116 Clouds 1 1028 77 10000 0.89 160 00:54 20.03.2022
3117 Clouds 1 1028 77 10000 0.89 160 00:54 20.03.2022
3118 Clouds 1 1028 77 10000 0.89 160 00:34 20.03.2022
3119 Clouds 1 1029 74 10000 0.45 154 22:39 19.03.2022
3120 Clouds 3 1026 68 10000 0.45 219 21:26 19.03.2022
3121 Clouds 5 1029 92 10000 1.34 131 19:39 19.03.2022
3122 Clouds 6 1026 51 10000 0.89 327 18:44 19.03.2022
3123 Clouds 7 1026 51 10000 0.89 327 17:52 19.03.2022
3124 Clouds 6 1029 57 10000 2.68 308 17:33 19.03.2022
3125 Clouds 9 1026 51 10000 2.68 310 15:40 19.03.2022
3126 Clouds 9 1027 52 10000 2.68 331 14:19 19.03.2022
3127 Clear 9 1028 54 10000 2.24 3 12:56 19.03.2022
3128 Clear 9 1029 58 10000 1.34 26 12:37 19.03.2022
3129 Clear 7 1030 66 10000 1.79 81 11:46 19.03.2022
3130 Clear 4 1032 75 10000 1.5 41 09:31 19.03.2022
3131 Clouds 0 1035 91 10000 0.45 179 05:44 19.03.2022
3132 Clouds 1 1036 90 10000 1.34 187 02:34 19.03.2022
3133 Clouds 2 1037 88 10000 0.45 222 00:32 19.03.2022
3134 Clouds 3 1036 82 10000 0.45 309 22:59 18.03.2022
3135 Clouds 3 1036 82 10000 0.89 237 22:22 18.03.2022
3136 Clouds 5 1036 76 10000 0.89 185 20:31 18.03.2022
3137 Clouds 5 1039 75 10000 0.45 14 19:45 18.03.2022
3138 Clouds 6 1039 73 10000 0.45 14 19:18 18.03.2022
3139 Clouds 9 1031 62 10000 1.34 100 16:59 18.03.2022
3140 Clouds 10 1031 61 10000 0.45 64 16:34 18.03.2022
3141 Clouds 10 1032 67 10000 2.82 59 14:29 18.03.2022
3142 Clouds 8 1031 75 10000 0.45 210 13:40 18.03.2022
3143 Clouds 6 1031 85 10000 0.45 190 11:43 18.03.2022
3144 Clouds 5 1031 88 2133 0.45 50 10:27 18.03.2022
3145 Clouds 4 1031 92 1755 0.89 21 08:50 18.03.2022
3146 Clouds 4 1030 93 187 0.45 350 07:26 18.03.2022
3147 Clouds 5 1029 93 389 1.57 51 05:20 18.03.2022
3148 Clouds 4 1029 95 255 1.79 351 01:51 18.03.2022
3149 Clouds 5 1031 93 189 1.34 358 23:59 17.03.2022
3150 Clouds 5 1031 91 164 0.45 356 22:50 17.03.2022
3151 Clouds 5 1031 90 152 1.79 318 22:19 17.03.2022
3152 Clouds 6 1030 89 152 0.45 338 21:31 17.03.2022
3153 Clouds 6 1029 89 168 0.89 88 20:54 17.03.2022
3154 Clouds 6 1029 88 213 1.34 357 20:20 17.03.2022
3155 Clouds 7 1028 88 213 0.45 17 19:38 17.03.2022
3156 Clouds 8 1028 86 1202 0.45 17 18:53 17.03.2022
3157 Clouds 9 1027 83 2194 0.89 307 17:40 17.03.2022
3158 Clouds 9 1026 82 10000 1.34 354 16:20 17.03.2022
3159 Clouds 10 1026 75 10000 1.79 328 15:43 17.03.2022
3160 Clouds 11 1026 71 10000 1.79 328 14:59 17.03.2022
3161 Clouds 11 1025 67 10000 1.79 324 13:45 17.03.2022
3162 Clouds 11 1025 64 10000 0.45 296 12:46 17.03.2022
3163 Clouds 9 1025 68 2990 0.45 230 11:33 17.03.2022
3164 Clouds 9 1027 57 2482 1.34 163 10:43 17.03.2022
3165 Clouds 9 1026 56 9794 1.34 177 09:36 17.03.2022
3166 Clouds 4 1024 78 10000 1.23 192 08:19 17.03.2022
3167 Clouds 3 1023 90 10000 0.7 187 05:49 17.03.2022
3168 Clouds 3 1022 90 10000 0.61 204 04:30 17.03.2022
3169 Clear 4 1022 90 10000 1.96 164 00:25 17.03.2022
3170 Clear 5 1021 87 10000 0.45 206 22:52 16.03.2022
3171 Clear 5 1021 87 10000 0.89 217 22:34 16.03.2022
3172 Clear 6 1021 87 10000 0.89 217 21:56 16.03.2022
3173 Clear 7 1023 81 10000 0.45 192 20:40 16.03.2022
3174 Clouds 9 1023 81 10000 0.89 154 19:23 16.03.2022
3175 Clouds 10 1022 79 10000 1.34 333 18:42 16.03.2022
3176 Clouds 11 1021 76 10000 0.89 24 17:46 16.03.2022
3177 Clouds 12 1021 71 10000 0.89 24 17:28 16.03.2022
3178 Clouds 13 1021 69 10000 0.89 348 15:56 16.03.2022
3179 Clouds 13 1021 65 10000 0.45 28 14:50 16.03.2022
3180 Clouds 14 1022 59 10000 0.89 339 13:36 16.03.2022
3181 Clouds 14 1022 59 10000 2.24 350 12:43 16.03.2022
3182 Clouds 12 1023 63 10000 0.45 335 11:23 16.03.2022
3183 Clouds 10 1024 67 10000 0.45 17 10:30 16.03.2022
3184 Clouds 10 1025 70 10000 0.45 17 09:56 16.03.2022
3185 Clouds 4 1023 88 10000 1.81 187 07:23 16.03.2022
3186 Clouds 8 1024 71 10000 2.24 186 02:44 16.03.2022
3187 Clouds 8 1025 72 10000 1.79 149 22:54 15.03.2022
3188 Clouds 8 1025 71 10000 1.79 178 22:35 15.03.2022
3189 Clouds 9 1024 64 10000 2.24 136 20:51 15.03.2022
3190 Clouds 9 1020 65 10000 2.63 199 19:37 15.03.2022
3191 Clouds 11 1022 56 10000 1.34 183 17:42 15.03.2022
3192 Clouds 12 1022 54 10000 1.79 174 16:35 15.03.2022
3193 Clouds 12 1023 53 10000 4.92 194 15:28 15.03.2022
3194 Clouds 11 1024 55 10000 2.24 149 14:52 15.03.2022
3195 Clouds 9 1028 60 10000 2.68 182 13:55 15.03.2022
3196 Clouds 9 1028 60 10000 2.68 182 13:55 15.03.2022
3197 Clouds 9 1028 60 10000 2.68 182 13:20 15.03.2022
3198 Clouds 8 1027 63 10000 0.89 163 11:32 15.03.2022
3199 Clouds 7 1025 67 10000 0.45 119 10:22 15.03.2022
3200 Clouds 5 1026 70 10000 0.89 234 08:53 15.03.2022
3201 Clouds 5 1026 74 10000 2.26 166 07:53 15.03.2022
3202 Clouds 4 1025 78 10000 0.45 84 07:35 15.03.2022
3203 Clouds 3 1025 75 10000 2.27 172 05:45 15.03.2022
3204 Clouds 2 1026 80 10000 0.45 197 00:25 15.03.2022
3205 Clouds 3 1027 80 10000 0.45 219 23:26 14.03.2022
3206 Clouds 3 1027 77 10000 0.45 152 22:37 14.03.2022
3207 Clouds 4 1027 75 10000 0.45 152 21:49 14.03.2022
3208 Clouds 4 1027 72 10000 2.38 143 20:54 14.03.2022
3209 Clouds 7 1027 66 10000 0.45 174 20:23 14.03.2022
3210 Clouds 6 1027 62 10000 0.45 227 19:21 14.03.2022
3211 Clouds 7 1029 88 10000 1.33 121 17:55 14.03.2022
3212 Clouds 12 1027 51 10000 0.87 48 17:24 14.03.2022
3213 Clouds 13 1027 49 10000 0.73 37 16:26 14.03.2022
3214 Clouds 13 1025 49 10000 2.24 343 14:41 14.03.2022
3215 Clouds 11 1028 51 10000 0.89 320 12:54 14.03.2022
3216 Clouds 9 1028 59 10000 0.35 93 10:54 14.03.2022
3217 Clouds 9 1026 56 10000 0.89 112 09:56 14.03.2022
3218 Clouds 7 1025 64 10000 0.89 196 09:22 14.03.2022
3219 Clouds 6 1025 68 10000 0.89 196 08:57 14.03.2022
3220 Clouds 3 1028 75 10000 1.34 215 07:43 14.03.2022
3221 Clouds 3 1025 67 10000 1.79 170 05:46 14.03.2022
3222 Clouds 3 1018 70 10000 0.45 220 01:58 14.03.2022
3223 Clouds 3 1017 70 10000 0.45 264 01:29 14.03.2022
3224 Clouds 2 1016 67 10000 0.89 9 22:52 13.03.2022
3225 Clear 3 1015 62 10000 0.45 81 21:31 13.03.2022
3226 Clear 4 1015 60 10000 0.45 81 20:56 13.03.2022
3227 Clear 5 1019 59 10000 3.49 163 20:31 13.03.2022
3228 Clear 6 1018 55 10000 3.41 165 19:59 13.03.2022
3229 Clear 6 1018 79 10000 3.41 165 19:37 13.03.2022
3230 Clear 6 1018 82 10000 3.13 166 19:18 13.03.2022
3231 Clear 6 1018 82 10000 3.13 166 19:18 13.03.2022
3232 Clear 6 1017 84 10000 2.91 170 18:38 13.03.2022
3233 Clear 11 1016 29 10000 0.45 90 17:47 13.03.2022
3234 Clear 11 1016 29 10000 0.45 90 17:20 13.03.2022
3235 Clear 11 1016 27 10000 1.34 165 16:30 13.03.2022
3236 Clear 14 1014 26 10000 1.34 328 15:47 13.03.2022
3237 Clear 13 1014 26 10000 0.45 305 14:58 13.03.2022
3238 Clear 13 1015 26 10000 0.89 292 13:49 13.03.2022
3239 Clear 12 1016 28 10000 2.24 310 12:57 13.03.2022
3240 Clear 11 1017 29 10000 1.79 352 11:53 13.03.2022
3241 Clear 10 1017 32 10000 0.45 38 11:32 13.03.2022
3242 Clear 8 1016 42 10000 0.45 346 10:47 13.03.2022
3243 Clear 7 1016 43 10000 0.45 346 10:24 13.03.2022
3244 Clear 7 1019 37 10000 1.63 156 09:41 13.03.2022
3245 Clear 3 1017 59 10000 2.4 157 08:46 13.03.2022
3246 Clear 0 1019 71 10000 2.98 158 07:42 13.03.2022
3247 Clear -2 1016 79 10000 0.89 210 05:41 13.03.2022
3248 Clear -1 1016 79 10000 0.45 136 02:43 13.03.2022
3249 Clouds 0 1016 76 10000 0.89 208 23:56 12.03.2022
3250 Clouds 2 1016 72 10000 0.45 217 22:31 12.03.2022
3251 Clouds 4 1016 65 10000 3.04 162 20:47 12.03.2022
3252 Clouds 4 1020 88 10000 2.79 165 19:48 12.03.2022
3253 Clouds 5 1020 88 10000 2.48 165 19:27 12.03.2022
3254 Clouds 7 1019 48 10000 0.89 147 18:23 12.03.2022
3255 Clouds 9 1019 43 10000 0.45 122 17:31 12.03.2022
3256 Clouds 11 1019 38 10000 0.45 123 16:23 12.03.2022
3257 Clouds 13 1016 32 10000 0.45 339 15:22 12.03.2022
3258 Clouds 11 1018 36 10000 0.89 347 14:28 12.03.2022
3259 Clouds 12 1017 36 10000 0.89 314 12:56 12.03.2022
3260 Clouds 10 1018 38 10000 1.34 306 11:56 12.03.2022
3261 Clouds 9 1020 40 10000 0.45 60 11:35 12.03.2022
3262 Clouds 8 1021 44 10000 1.34 160 10:52 12.03.2022
3263 Clouds 4 1021 56 10000 0.45 313 09:45 12.03.2022
3264 Clouds 3 1021 55 10000 0.45 171 08:55 12.03.2022
3265 Clouds -1 1018 76 10000 0.89 215 07:19 12.03.2022
3266 Clouds -1 1017 76 10000 1.34 148 02:34 12.03.2022
3267 Clouds 0 1017 73 10000 0.45 7 23:52 11.03.2022
3268 Clouds 1 1016 74 10000 0.45 192 22:56 11.03.2022
3269 Clouds 3 1016 68 10000 0.89 142 21:35 11.03.2022
3270 Clouds 3 1016 68 10000 0.89 142 20:54 11.03.2022
3271 Clouds 4 1016 61 10000 0.45 213 20:28 11.03.2022
3272 Clouds 0 1021 74 10000 2.88 169 19:42 11.03.2022
3273 Clouds -1 1020 74 10000 2.62 170 19:20 11.03.2022
3274 Clouds 8 1018 41 10000 0.45 78 17:29 11.03.2022
3275 Clouds 10 1018 24 10000 0.45 118 16:27 11.03.2022
3276 Clouds 9 1018 36 10000 0.45 335 15:53 11.03.2022
3277 Clouds 11 1017 29 10000 2.68 317 14:19 11.03.2022
3278 Clouds 10 1017 31 10000 2.68 0 12:43 11.03.2022
3279 Clouds 9 1019 32 10000 2.68 0 12:20 11.03.2022
3280 Clouds 8 1019 36 10000 0.45 307 11:43 11.03.2022
3281 Clouds 7 1021 25 10000 0.45 103 09:39 11.03.2022
3282 Clouds 5 1020 65 10000 1.97 169 08:40 11.03.2022
3283 Clouds -1 1022 74 10000 2.79 164 07:49 11.03.2022
3284 Clouds -2 1023 74 10000 3.11 162 06:59 11.03.2022
3285 Clouds -2 1023 74 10000 3.13 163 05:20 11.03.2022
3286 Clouds -2 1018 73 10000 3.24 164 02:45 11.03.2022
3287 Clear 0 1019 71 10000 3.12 164 22:56 10.03.2022
3288 Clear 0 1019 71 10000 0.45 151 22:28 10.03.2022
3289 Clear 1 1019 69 10000 0.45 216 21:26 10.03.2022
3290 Clear 2 1019 63 10000 0.45 226 20:45 10.03.2022
3291 Clear 4 1024 85 10000 2.57 155 19:22 10.03.2022
3292 Clear 6 1024 45 10000 0.89 139 18:30 10.03.2022
3293 Clear 7 1023 39 10000 0.58 79 16:53 10.03.2022
3294 Clear 10 1024 34 10000 0.7 48 15:41 10.03.2022
3295 Clear 10 1022 32 10000 1.34 310 14:23 10.03.2022
3296 Clear 9 1024 35 10000 2.68 352 12:46 10.03.2022
3297 Clear 8 1024 39 10000 0.89 128 11:37 10.03.2022
3298 Clear 5 1024 42 10000 0.45 99 10:19 10.03.2022
3299 Clear 2 1029 38 10000 0.45 148 08:40 10.03.2022
3300 Clear -3 1029 76 10000 2.56 160 05:50 10.03.2022
3301 Clear -3 1028 77 10000 2.59 162 03:33 10.03.2022
3302 Clear -2 1029 75 10000 2.59 164 00:23 10.03.2022
3303 Clear -1 1029 73 10000 2.65 167 22:43 09.03.2022
3304 Clear 0 1029 72 10000 2.63 165 21:48 09.03.2022
3305 Clear 1 1028 67 10000 2.59 161 20:53 09.03.2022
3306 Clear 1 1027 86 10000 2.34 161 19:23 09.03.2022
3307 Clear 7 1023 77 10000 0.42 90 17:29 09.03.2022
3308 Clear 8 1023 77 10000 0.42 90 16:48 09.03.2022
3309 Clear 10 1023 37 10000 0.99 27 15:41 09.03.2022
3310 Clear 9 1023 38 10000 1.27 22 14:24 09.03.2022
3311 Clear 9 1023 38 10000 1.27 22 13:38 09.03.2022
3312 Clear 8 1024 38 10000 0.93 352 12:20 09.03.2022
3313 Clear 8 1024 38 10000 0.93 352 11:46 09.03.2022
3314 Clear 6 1024 38 10000 0.92 352 10:54 09.03.2022
3315 Clear 0 1025 54 10000 0.76 148 09:28 09.03.2022
3316 Clear -4 1025 54 10000 0.76 148 08:44 09.03.2022
3317 Clouds -5 1027 72 10000 2.36 176 05:56 09.03.2022
3318 Clouds -4 1020 74 10000 0.89 214 00:58 09.03.2022
3319 Clouds -3 1020 71 10000 0.89 215 23:46 08.03.2022
3320 Clear -2 1019 70 10000 0.89 213 22:45 08.03.2022
3321 Clear -2 1019 69 10000 2.47 166 21:46 08.03.2022
3322 Clear -2 1019 69 10000 2.55 173 21:19 08.03.2022
3323 Clear -1 1022 64 10000 1.34 185 20:18 08.03.2022
3324 Clear 0 1025 59 10000 0.89 157 18:55 08.03.2022
3325 Clear 1 1021 57 10000 1.79 240 17:58 08.03.2022
3326 Clear 5 1020 45 10000 1.44 6 16:37 08.03.2022
3327 Clear 4 1019 51 10000 1.17 11 14:36 08.03.2022
3328 Clouds 3 1019 58 10000 1.44 360 13:23 08.03.2022
3329 Clouds 2 1019 63 10000 1.39 4 12:20 08.03.2022
3330 Clouds 1 1023 31 10000 1.39 4 11:41 08.03.2022
3331 Clouds -1 1024 47 10000 0.45 21 10:27 08.03.2022
3332 Clouds -4 1021 50 10000 0.82 115 08:54 08.03.2022
3333 Clear -7 1024 86 10000 2.29 158 05:49 08.03.2022
3334 Clear -5 1024 80 10000 2.52 154 01:49 08.03.2022
3335 Clear -3 1026 71 10000 2.29 142 22:41 07.03.2022
3336 Clear -3 1026 70 10000 2.22 141 21:36 07.03.2022
3337 Clear -3 1026 67 10000 2.17 138 20:55 07.03.2022
3338 Clear -2 1025 67 10000 1.96 126 20:26 07.03.2022
3339 Clear -2 1025 67 10000 1.96 126 19:48 07.03.2022
3340 Clouds -2 1024 85 10000 1.81 128 18:48 07.03.2022
3341 Clear 0 1022 61 10000 1.63 76 18:25 07.03.2022
3342 Clear 2 1017 55 10000 2.24 311 16:56 07.03.2022
3343 Clear 3 1017 54 10000 1.79 324 16:34 07.03.2022
3344 Clear 2 1017 55 10000 2.24 319 14:40 07.03.2022
3345 Clear 1 1018 61 10000 2.24 314 12:33 07.03.2022
3346 Clear -1 1018 69 10000 0.45 62 10:45 07.03.2022
3347 Clear -2 1018 71 10000 0.45 62 10:24 07.03.2022
3348 Clouds -7 1027 86 10000 0.45 170 07:24 07.03.2022
3349 Clouds -4 1026 82 10000 0.45 22 00:24 07.03.2022
3350 Clouds -4 1026 82 10000 0.89 95 23:58 06.03.2022
3351 Clouds -4 1026 78 10000 0.45 95 22:58 06.03.2022
3352 Clouds -4 1026 78 10000 0.45 95 22:24 06.03.2022
3353 Clouds -3 1025 76 10000 1.61 142 20:56 06.03.2022
3354 Clouds -3 1025 76 10000 1.38 138 20:28 06.03.2022
3355 Clouds -3 1024 77 10000 0.89 20 19:29 06.03.2022
3356 Clouds -1 1024 70 10000 0.93 47 18:25 06.03.2022
3357 Clouds 2 1016 60 10000 0.89 334 17:22 06.03.2022
3358 Clouds 2 1016 60 10000 2.68 308 16:44 06.03.2022
3359 Clouds 2 1016 60 10000 2.68 308 16:44 06.03.2022
3360 Clouds 2 1016 61 10000 2.68 308 16:20 06.03.2022
3361 Clouds 2 1016 65 10000 0.89 301 14:57 06.03.2022
3362 Clouds 2 1016 65 10000 2.41 14 14:38 06.03.2022
3363 Clouds 1 1016 65 10000 1.34 295 13:36 06.03.2022
3364 Clouds 0 1016 68 10000 0.89 302 12:35 06.03.2022
3365 Clouds -1 1016 71 10000 2.68 345 11:27 06.03.2022
3366 Clouds -2 1019 67 10000 0.45 77 10:29 06.03.2022
3367 Clouds -5 1020 72 10000 0.88 121 08:40 06.03.2022
3368 Clouds -5 1020 76 10000 1.92 156 08:20 06.03.2022
3369 Clear -6 1020 80 10000 0.89 209 06:22 06.03.2022
3370 Clouds -4 1019 75 10000 0.89 168 00:55 06.03.2022
3371 Clouds -4 1020 75 10000 0.89 168 00:33 06.03.2022
3372 Clouds -4 1020 75 10000 0.89 168 00:33 06.03.2022
3373 Clouds -4 1020 72 10000 0.45 230 23:26 05.03.2022
3374 Clouds -3 1020 73 10000 0.45 230 22:57 05.03.2022
3375 Clouds -3 1024 73 10000 2.13 159 22:23 05.03.2022
3376 Clouds -3 1024 70 10000 1.99 155 21:23 05.03.2022
3377 Clouds -2 1023 66 10000 1.84 155 19:49 05.03.2022
3378 Clouds -1 1022 60 10000 1.39 148 18:56 05.03.2022
3379 Clouds 0 1022 60 10000 0.69 72 18:27 05.03.2022
3380 Clouds 3 1017 49 10000 0.89 305 16:49 05.03.2022
3381 Clouds 5 1014 45 10000 1.34 327 15:31 05.03.2022
3382 Clouds 4 1014 46 10000 3.13 304 14:47 05.03.2022
3383 Clear 4 1014 46 10000 3.13 304 14:29 05.03.2022
3384 Clear 4 1015 48 10000 1.79 11 13:22 05.03.2022
3385 Clear 1 1019 55 10000 0.45 85 11:48 05.03.2022
3386 Clear 0 1019 57 10000 0.45 85 11:19 05.03.2022
3387 Clear -1 1016 63 10000 1.06 35 10:18 05.03.2022
3388 Clear -3 1023 65 10000 0.89 175 08:59 05.03.2022
3389 Clear -6 1015 80 10000 1.83 161 07:38 05.03.2022
3390 Clear -6 1019 76 10000 2.25 164 05:43 05.03.2022
3391 Clear -5 1019 74 10000 0.45 152 03:18 05.03.2022
3392 Clear -3 1020 67 10000 0.45 244 23:37 04.03.2022
3393 Clear -2 1024 64 10000 0.45 146 22:42 04.03.2022
3394 Clear -2 1024 62 10000 0.45 148 21:49 04.03.2022
3395 Clear -2 1024 57 10000 2.14 152 20:54 04.03.2022
3396 Clear -2 1024 57 10000 1.91 154 20:24 04.03.2022
3397 Clear -1 1022 84 10000 1.89 154 19:36 04.03.2022
3398 Clouds -1 1022 51 10000 0.45 354 18:44 04.03.2022
3399 Clouds 4 1014 39 10000 2.68 319 17:32 04.03.2022
3400 Clouds 5 1014 36 10000 0.89 317 16:46 04.03.2022
3401 Clouds 6 1014 38 10000 2.24 306 15:29 04.03.2022
3402 Clouds 5 1014 41 10000 1.34 304 14:19 04.03.2022
3403 Clouds 5 1015 44 10000 2.24 324 13:26 04.03.2022
3404 Clouds 3 1018 62 10000 0.89 83 11:41 04.03.2022
3405 Clouds 1 1015 69 10000 0.45 76 10:42 04.03.2022
3406 Clouds 0 1018 82 10000 1.47 11 09:42 04.03.2022
3407 Clouds -3 1018 81 10000 0.58 65 08:36 04.03.2022
3408 Clouds -4 1018 82 10000 0.89 175 07:23 04.03.2022
3409 Clouds -3 1017 82 10000 0.45 151 03:50 04.03.2022
3410 Clouds -1 1017 74 10000 0.45 119 00:24 04.03.2022
3411 Clouds 1 1017 69 10000 0.89 341 22:21 03.03.2022
3412 Clouds 1 1020 63 10000 1.43 177 21:40 03.03.2022
3413 Clouds 1 1020 63 10000 1.15 180 21:21 03.03.2022
3414 Clouds 1 1019 97 10000 1.17 175 19:50 03.03.2022
3415 Clouds 2 1018 96 10000 1.09 182 18:53 03.03.2022
3416 Clouds 4 1017 94 10000 0.12 215 18:22 03.03.2022
3417 Clouds 6 1017 48 10000 0.45 343 17:28 03.03.2022
3418 Clouds 7 1017 50 5368 0.45 329 16:22 03.03.2022
3419 Clouds 8 1017 43 3468 0.71 320 15:20 03.03.2022
3420 Clouds 9 1017 40 3468 0.45 104 14:42 03.03.2022
3421 Clouds 9 1016 34 3099 1.79 305 13:19 03.03.2022
3422 Clouds 7 1016 33 3869 2.68 354 11:51 03.03.2022
3423 Clouds 5 1017 40 6963 0.45 188 10:41 03.03.2022
3424 Clouds 1 1022 31 10000 0.89 161 08:52 03.03.2022
3425 Clouds -3 1016 74 10000 0.45 260 07:25 03.03.2022
3426 Clouds -3 1017 76 10000 0.45 217 06:34 03.03.2022
3427 Clouds 0 1021 62 10000 0.89 214 01:52 03.03.2022
3428 Clouds 1 1023 65 10000 2.49 171 23:29 02.03.2022
3429 Clouds 2 1024 49 10000 1.34 157 22:52 02.03.2022
3430 Clouds 2 1021 53 10000 1.34 184 21:30 02.03.2022
3431 Clouds 2 1021 54 10000 0.89 213 20:45 02.03.2022
3432 Clouds 2 1021 53 10000 0.89 213 20:24 02.03.2022
3433 Clouds 3 1024 50 10000 0.89 93 19:35 02.03.2022
3434 Clouds 3 1024 38 7209 1.28 190 18:44 02.03.2022
3435 Clouds 4 1023 36 10000 0.45 109 17:59 02.03.2022
3436 Clouds 5 1023 39 7346 0.45 109 17:28 02.03.2022
3437 Clouds 6 1020 32 7346 3.13 357 16:45 02.03.2022
3438 Clouds 7 1020 27 7646 1.34 314 14:45 02.03.2022
3439 Clouds 7 1021 26 6992 0.89 321 13:24 02.03.2022
3440 Clouds 7 1021 23 6965 0.45 67 12:43 02.03.2022
3441 Clouds 5 1022 30 3919 0.45 205 11:47 02.03.2022
3442 Clouds 5 1022 30 10000 0.45 205 11:24 02.03.2022
3443 Clouds 2 1026 12 10000 0.89 158 09:42 02.03.2022
3444 Clouds -1 1023 53 10000 1.57 174 08:55 02.03.2022
3445 Clouds -4 1026 51 10000 2.56 167 07:38 02.03.2022
3446 Clouds -5 1028 72 10000 2.79 171 06:51 02.03.2022
3447 Clouds -5 1023 72 10000 0.89 226 02:35 02.03.2022
3448 Clouds -4 1024 78 10000 0.45 228 23:55 01.03.2022
3449 Clouds -3 1024 72 10000 1.34 132 22:46 01.03.2022
3450 Clouds -2 1024 72 10000 1.34 132 22:19 01.03.2022
3451 Clouds -2 1024 67 10000 0.45 234 21:25 01.03.2022
3452 Clouds -1 1031 65 10000 3.18 167 20:30 01.03.2022
3453 Clouds -1 1031 65 10000 3 168 20:30 01.03.2022
3454 Clouds 0 1031 88 10000 2.64 170 19:28 01.03.2022
3455 Clouds 0 1031 52 10000 1.34 163 18:49 01.03.2022
3456 Clouds 1 1031 52 10000 1.34 163 18:19 01.03.2022
3457 Clear 3 1030 42 10000 0.89 94 17:19 01.03.2022
3458 Clear 5 1030 34 10000 0.45 337 16:31 01.03.2022
3459 Clear 6 1026 30 10000 0.89 322 15:38 01.03.2022
3460 Clear 6 1026 29 10000 0.89 103 14:34 01.03.2022
3461 Clear 5 1026 33 10000 0.45 291 13:52 01.03.2022
3462 Clear 5 1026 33 10000 0.45 17 13:24 01.03.2022
3463 Clear 4 1027 37 10000 0.89 172 12:30 01.03.2022
3464 Clear 1 1032 38 10000 0.89 172 10:34 01.03.2022
3465 Clear -3 1030 57 10000 1.86 168 08:41 01.03.2022
3466 Clear -7 1025 82 10000 2.93 168 07:44 01.03.2022
3467 Clear -6 1025 84 10000 0.89 182 05:49 01.03.2022
3468 Clear -4 1026 82 10000 0.89 156 01:48 01.03.2022
3469 Clear -3 1030 76 10000 0.45 171 00:25 01.03.2022
3470 Clear -3 1030 75 10000 0.89 146 23:19 28.02.2022
3471 Clear -2 1026 74 10000 0.45 190 21:59 28.02.2022
3472 Clear -2 1034 73 10000 2.42 163 21:24 28.02.2022
3473 Clear -1 1034 88 10000 2.29 159 19:53 28.02.2022
3474 Clear 0 1033 89 10000 2.02 155 19:27 28.02.2022
3475 Clear 0 1034 61 10000 0.45 241 18:38 28.02.2022
3476 Clear 4 1033 50 10000 0.45 80 17:24 28.02.2022
3477 Clear 4 1029 43 10000 1.34 354 16:33 28.02.2022
3478 Clear 5 1029 43 10000 0.89 352 15:23 28.02.2022
3479 Clear 5 1029 42 10000 0.89 100 14:31 28.02.2022
3480 Clear 5 1029 40 10000 1.34 328 13:47 28.02.2022
3481 Clear 4 1030 44 10000 0.89 7 12:41 28.02.2022
3482 Clear 3 1030 45 10000 0.89 7 11:55 28.02.2022
3483 Clear 1 1030 53 10000 0.45 161 10:48 28.02.2022
3484 Clear 0 1030 53 10000 0.45 161 10:20 28.02.2022
3485 Clear -2 1030 73 10000 0.76 36 09:32 28.02.2022
3486 Clear -6 1027 84 10000 2.37 166 08:29 28.02.2022
3487 Clear -7 1027 84 10000 2.6 167 07:28 28.02.2022
3488 Clear -6 1026 82 10000 2.6 170 04:44 28.02.2022
3489 Clear -6 1026 82 10000 2.85 169 04:23 28.02.2022
3490 Clear -4 1026 81 10000 0.45 229 23:42 27.02.2022
3491 Clear -2 1035 77 10000 3.16 157 22:34 27.02.2022
3492 Clear -3 1035 80 10000 3.07 154 21:51 27.02.2022
3493 Clear -2 1034 82 10000 2.97 152 20:59 27.02.2022
3494 Clear -1 1034 84 10000 2.79 150 20:27 27.02.2022
3495 Clear -1 1034 84 10000 2.79 150 19:57 27.02.2022
3496 Clear 0 1033 84 10000 2.63 145 19:26 27.02.2022
3497 Clear 0 1033 84 10000 2.63 145 18:47 27.02.2022
3498 Clear 1 1031 84 10000 2.07 135 17:56 27.02.2022
3499 Clear 4 1024 56 10000 0.45 183 16:54 27.02.2022
3500 Clear 4 1024 51 10000 0.89 333 16:21 27.02.2022
3501 Clear 4 1025 52 10000 0.89 272 13:25 27.02.2022
3502 Clear 2 1025 53 10000 0.89 126 12:32 27.02.2022
3503 Clear 0 1026 64 10000 1.34 2 10:56 27.02.2022
3504 Clear -2 1026 69 10000 2.07 109 10:19 27.02.2022
3505 Clear -3 1031 75 10000 0.45 163 09:49 27.02.2022
3506 Clear -5 1036 79 10000 0.45 163 09:20 27.02.2022
3507 Clear -7 1026 86 10000 0.89 155 07:54 27.02.2022
3508 Clear -5 1035 78 10000 3.29 146 05:38 27.02.2022
3509 Clear -3 1036 92 10000 3.24 147 02:21 27.02.2022
3510 Clouds -3 1036 94 10000 3.06 144 23:23 26.02.2022
3511 Clouds -2 1036 95 10000 2.89 143 21:58 26.02.2022
3512 Clouds -2 1037 96 10000 2.67 139 21:18 26.02.2022
3513 Clouds -4 1038 87 10000 0.89 162 20:20 26.02.2022
3514 Clouds -1 1036 97 10000 2.48 140 19:50 26.02.2022
3515 Clouds -2 1036 97 10000 2.22 132 19:29 26.02.2022
3516 Clouds -1 1036 69 10000 1.34 350 17:52 26.02.2022
3517 Clouds 1 1036 68 10000 1.34 350 17:28 26.02.2022
3518 Clouds 2 1031 62 10000 1.34 5 15:57 26.02.2022
3519 Clouds 2 1031 64 10000 1.79 311 15:25 26.02.2022
3520 Clouds 3 1027 58 10000 1.79 311 14:56 26.02.2022
3521 Clouds 3 1028 60 10000 2.34 31 14:38 26.02.2022
3522 Clouds 2 1029 65 10000 1.34 97 13:27 26.02.2022
3523 Clouds 2 1029 65 10000 1.34 97 12:51 26.02.2022
3524 Clouds 1 1029 79 10000 2.24 335 11:29 26.02.2022
3525 Clouds 1 1029 81 10000 2.24 335 10:55 26.02.2022
3526 Clouds -1 1033 91 10000 0.45 20 09:18 26.02.2022
3527 Snow -2 1033 91 1771 0.89 291 07:57 26.02.2022
3528 Snow -1 1031 90 152 0.98 283 02:53 26.02.2022
3529 Clouds -1 1030 88 1020 1 282 23:31 25.02.2022
3530 Clouds -1 1029 77 97 0.45 249 21:48 25.02.2022
3531 Clouds -1 1029 76 99 0.45 249 21:29 25.02.2022
3532 Clouds 0 1029 76 99 0.89 292 20:33 25.02.2022
3533 Clouds 0 1029 74 112 0.45 239 19:41 25.02.2022
3534 Clouds 1 1024 78 9408 2.24 126 17:35 25.02.2022
3535 Clouds 1 1028 73 10000 0.89 55 16:45 25.02.2022
3536 Clouds 3 1023 55 4736 4.02 313 15:48 25.02.2022
3537 Clouds 2 1027 60 5710 4.02 313 15:23 25.02.2022
3538 Clouds 2 1031 58 5710 2.24 183 14:45 25.02.2022
3539 Clouds 2 1031 57 8290 2.24 183 14:18 25.02.2022
3540 Clouds 2 1027 56 10000 4.02 157 13:20 25.02.2022
3541 Clouds 1 1028 67 10000 1.79 229 11:30 25.02.2022
3542 Clouds 1 1027 68 10000 1.79 229 10:54 25.02.2022
3543 Clouds 0 1027 73 10000 0.89 285 10:23 25.02.2022
3544 Clouds 0 1023 92 10000 0.45 160 09:35 25.02.2022
3545 Clouds -1 1022 93 10000 0.89 337 07:44 25.02.2022
3546 Clouds -1 1021 90 273 0.45 320 06:19 25.02.2022
3547 Clouds 0 1021 87 273 1.79 81 05:36 25.02.2022
3548 Clouds 3 1021 96 2197 1.76 218 00:30 25.02.2022
3549 Clouds 7 1022 93 10000 2.85 194 22:20 24.02.2022
3550 Clouds 7 1022 93 10000 2.85 194 21:42 24.02.2022
3551 Clouds 6 1022 93 10000 2.67 197 21:20 24.02.2022
3552 Clouds 5 1017 73 10000 1.34 211 20:30 24.02.2022
3553 Clouds 5 1018 74 10000 2.24 140 18:52 24.02.2022
3554 Clouds 6 1021 75 10000 0.89 200 18:19 24.02.2022
3555 Clouds 6 1020 76 10000 0.45 188 17:42 24.02.2022
3556 Clouds 6 1020 72 10000 0.45 28 16:56 24.02.2022
3557 Clouds 8 1018 59 2705 1.84 216 16:25 24.02.2022
3558 Clouds 8 1018 59 2705 1.84 216 16:25 24.02.2022
3559 Clouds 8 1019 60 2705 1.84 216 15:30 24.02.2022
3560 Clouds 9 1018 49 2400 0.89 9 14:37 24.02.2022
3561 Clouds 9 1016 41 2407 0.89 19 13:42 24.02.2022
3562 Clouds 10 1016 44 3092 0.89 19 13:24 24.02.2022
3563 Clouds 5 1022 45 7676 0.45 126 10:43 24.02.2022
3564 Clouds 5 1021 32 10000 2.12 167 09:40 24.02.2022
3565 Clouds 2 1021 78 10000 2.73 165 08:42 24.02.2022
3566 Clouds -2 1019 93 10000 0.89 222 06:25 24.02.2022
3567 Clouds -1 1019 92 10000 0.45 205 05:36 24.02.2022
3568 Clouds 0 1022 93 10000 0.89 228 23:45 23.02.2022
3569 Clouds 1 1021 95 10000 0.89 210 21:55 23.02.2022
3570 Clouds 3 1028 80 10000 3.42 169 20:32 23.02.2022
3571 Clouds 3 1029 95 10000 0.45 163 19:55 23.02.2022
3572 Clouds 4 1029 94 10000 0.45 149 18:57 23.02.2022
3573 Clouds 5 1026 85 10000 1.34 282 17:46 23.02.2022
3574 Clouds 9 1024 66 3874 0.89 290 15:28 23.02.2022
3575 Clouds 7 1028 81 3463 0.45 359 13:34 23.02.2022
3576 Clouds 6 1029 84 7798 0.89 360 12:26 23.02.2022
3577 Clouds 4 1030 94 5890 0.45 115 10:45 23.02.2022
3578 Clouds 3 1027 95 288 0.89 318 09:24 23.02.2022
3579 Clouds 2 1026 94 72 0.45 179 08:27 23.02.2022
3580 Clouds 2 1026 94 67 1.34 145 07:18 23.02.2022
3581 Clouds 3 1026 89 10000 1.34 236 01:21 23.02.2022
3582 Clouds 2 1027 89 10000 2.24 154 23:39 22.02.2022
3583 Clouds 3 1027 86 246 2.24 154 22:59 22.02.2022
3584 Clouds 3 1026 79 827 1.79 159 21:56 22.02.2022
3585 Clouds 3 1026 81 827 0.45 282 21:37 22.02.2022
3586 Clouds 3 1026 82 1477 0.45 282 21:18 22.02.2022
3587 Clouds 3 1022 88 1477 1.34 235 20:31 22.02.2022
3588 Clouds 3 1025 77 10000 2.24 169 19:51 22.02.2022
3589 Clouds 3 1028 65 10000 2.24 169 19:31 22.02.2022
3590 Clouds 3 1029 80 10000 0.45 203 18:23 22.02.2022
3591 Clouds 4 1025 76 10000 0.89 139 17:26 22.02.2022
3592 Clouds 5 1026 74 10000 2.17 214 16:41 22.02.2022
3593 Clouds 5 1026 74 10000 2.09 261 15:59 22.02.2022
3594 Clouds 4 1022 78 10000 2.68 173 14:48 22.02.2022
3595 Clouds 4 1024 81 756 1.34 108 12:48 22.02.2022
3596 Clouds 1 1026 92 673 1.34 98 10:53 22.02.2022
3597 Snow 1 1024 81 611 0.45 294 08:53 22.02.2022
3598 Snow 1 1022 87 113 1.79 245 07:27 22.02.2022
3599 Clouds 1 1021 86 148 2.24 25 06:30 22.02.2022
3600 Clouds 1 1019 83 89 0.89 275 02:45 22.02.2022
3601 Rain 2 1017 87 574 1.34 128 22:53 21.02.2022
3602 Rain 1 1015 90 57 2.24 92 21:46 21.02.2022
3603 Rain 1 1014 86 103 3.09 253 20:37 21.02.2022
3604 Rain 2 1013 80 159 4.47 172 18:47 21.02.2022
3605 Snow 1 1013 82 317 3.58 120 17:39 21.02.2022
3606 Clouds 3 1013 72 3524 1.79 57 15:25 21.02.2022
3607 Clouds 3 1012 71 10000 2.24 196 14:22 21.02.2022
3608 Clouds 3 1013 80 10000 1.34 194 13:30 21.02.2022
3609 Clouds 2 1014 81 8467 4.02 77 12:24 21.02.2022
3610 Clouds 1 1015 87 7425 0.89 46 11:20 21.02.2022
3611 Snow 1 1012 97 3273 4.47 81 09:54 21.02.2022
3612 Clouds 5 1008 74 10000 1.79 173 05:35 21.02.2022
3613 Clouds 5 1017 82 10000 3.01 211 00:18 21.02.2022
3614 Clouds 4 1014 86 10000 0.45 235 22:27 20.02.2022
3615 Clouds 4 1014 83 10000 0.45 219 21:42 20.02.2022
3616 Clouds 5 1014 83 10000 0.45 219 20:59 20.02.2022
3617 Clouds 6 1018 84 10000 3.28 195 20:41 20.02.2022
3618 Clouds 6 1019 87 10000 3.41 194 19:36 20.02.2022
3619 Clouds 6 1020 89 10000 3.11 199 18:51 20.02.2022
3620 Clouds 5 1020 89 10000 3.15 197 18:32 20.02.2022
3621 Clouds 6 1016 65 10000 0.45 48 17:49 20.02.2022
3622 Clouds 8 1019 54 8761 2.32 240 15:41 20.02.2022
3623 Clouds 8 1019 90 7042 2.73 233 14:48 20.02.2022
3624 Clouds 7 1019 62 6845 0.89 174 13:23 20.02.2022
3625 Clouds 6 1020 70 10000 0.89 202 12:28 20.02.2022
3626 Clouds 4 1021 79 10000 0.89 205 10:47 20.02.2022
3627 Clouds 3 1021 78 10000 0.89 205 10:19 20.02.2022
3628 Clouds 2 1023 85 5199 1.34 138 08:50 20.02.2022
3629 Clouds 0 1018 88 10000 2.24 214 00:54 20.02.2022
3630 Clouds 0 1018 88 10000 2.24 214 00:54 20.02.2022
3631 Clouds 0 1019 89 10000 1.34 203 00:30 20.02.2022
3632 Clouds 0 1026 90 10000 2.79 199 22:47 19.02.2022
3633 Clouds 0 1026 90 10000 2.79 192 22:22 19.02.2022
3634 Clouds 0 1026 85 10000 0.45 175 20:51 19.02.2022
3635 Clouds 1 1025 87 10000 0.89 189 19:53 19.02.2022
3636 Clouds 1 1025 87 10000 0.89 189 19:28 19.02.2022
3637 Clouds 1 1024 83 10000 0.45 158 18:33 19.02.2022
3638 Clouds 3 1021 77 10000 1.34 143 17:35 19.02.2022
3639 Clouds 4 1019 69 10000 0.45 209 16:22 19.02.2022
3640 Clouds 4 1019 70 5484 0.45 286 14:56 19.02.2022
3641 Clouds 4 1019 70 5484 1.34 211 14:37 19.02.2022
3642 Clouds 3 1019 80 1568 1.34 130 12:50 19.02.2022
3643 Clouds 3 1020 86 1929 0.45 192 11:36 19.02.2022
3644 Rain 1 1022 93 1009 2.12 275 09:45 19.02.2022
3645 Rain 1 1020 88 332 0.89 161 06:54 19.02.2022
3646 Clouds 2 1018 84 162 1.34 144 02:52 19.02.2022
3647 Clouds 5 1013 87 1104 3.13 152 23:28 18.02.2022
3648 Clouds 8 1012 93 6031 3.48 256 21:49 18.02.2022
3649 Clouds 9 1009 59 10000 0.45 267 20:39 18.02.2022
3650 Clouds 9 1009 57 10000 0.89 27 19:52 18.02.2022
3651 Clouds 8 1009 55 10000 1.34 178 18:50 18.02.2022
3652 Clouds 9 1008 54 10000 1.34 178 18:20 18.02.2022
3653 Clouds 11 1009 93 3287 2.78 195 17:25 18.02.2022
3654 Clouds 11 1008 53 1619 0.45 254 14:48 18.02.2022
3655 Clouds 11 1010 53 1819 4.47 192 13:54 18.02.2022
3656 Clouds 10 1009 60 1828 0.45 107 12:53 18.02.2022
3657 Clouds 9 1011 60 10000 2.24 192 11:58 18.02.2022
3658 Clouds 9 1011 60 10000 2.24 192 11:58 18.02.2022
3659 Clouds 8 1011 64 10000 2.24 192 11:21 18.02.2022
3660 Clouds 5 1014 82 10000 0.89 167 09:33 18.02.2022
3661 Clouds 4 1015 88 10000 1.79 167 06:52 18.02.2022
3662 Clouds 4 1018 81 10000 1.34 171 05:38 18.02.2022
3663 Clouds 6 1019 74 10000 0.89 346 22:47 17.02.2022
3664 Clouds 6 1019 81 10000 2.68 169 21:44 17.02.2022
3665 Clouds 6 1019 83 3346 0.89 139 20:59 17.02.2022
3666 Clouds 6 1018 83 3346 0.89 165 20:34 17.02.2022
3667 Clouds 6 1017 80 462 1.34 344 19:48 17.02.2022
3668 Clouds 7 1017 78 1016 0.89 168 18:38 17.02.2022
3669 Clouds 7 1017 82 142 0.45 191 17:48 17.02.2022
3670 Clouds 8 1015 79 10000 0.45 184 16:20 17.02.2022
3671 Clouds 9 1013 78 10000 2.24 59 15:26 17.02.2022
3672 Clouds 8 1014 86 7732 0.89 313 14:20 17.02.2022
3673 Clouds 8 1014 79 802 0.45 127 12:24 17.02.2022
3674 Clouds 9 1013 77 864 2.24 112 11:21 17.02.2022
3675 Clouds 9 1010 82 1578 0.89 192 08:38 17.02.2022
3676 Clouds 6 1011 91 1247 3.13 193 00:29 17.02.2022
3677 Clouds 6 1012 88 2648 3.58 184 22:41 16.02.2022
3678 Clouds 6 1013 90 8809 4.02 197 20:46 16.02.2022
3679 Clouds 5 1013 93 2264 1.34 190 19:43 16.02.2022
3680 Clouds 5 1012 92 10000 3.13 190 18:36 16.02.2022
3681 -273 0 0 0 0 0 17:36 16.02.2022
3682 Clouds 5 1012 92 10000 1.79 190 17:35 16.02.2022
3683 Clouds 4 1013 91 7482 0.89 190 15:26 16.02.2022
3684 Clouds 4 1013 90 7482 2.24 156 14:57 16.02.2022
3685 Clouds 4 1013 79 3559 1.79 162 12:34 16.02.2022
3686 Clouds 4 1013 72 1958 1.34 125 11:52 16.02.2022
3687 Clouds 4 1013 73 10000 0.45 53 10:52 16.02.2022
3688 Clouds 3 1013 77 10000 0.45 223 10:29 16.02.2022
3689 Clouds -1 1013 89 10000 0.45 207 06:56 16.02.2022
3690 Clouds -1 1021 91 10000 3.58 172 03:46 16.02.2022
3691 Clouds 0 1023 94 10000 3.12 181 22:35 15.02.2022
3692 Clouds 1 1024 78 10000 2.81 194 21:59 15.02.2022
3693 Clouds 1 1024 78 10000 2.81 194 21:59 15.02.2022
3694 Clouds 1 1020 87 10000 1.34 252 21:39 15.02.2022
3695 Clouds 1 1020 88 10000 1.34 252 21:21 15.02.2022
3696 Clouds 1 1020 88 10000 0.45 119 20:48 15.02.2022
3697 Clouds 1 1020 89 2627 0.45 134 19:48 15.02.2022
3698 Clouds 2 1019 89 1842 0.89 3 18:41 15.02.2022
3699 Clouds 2 1019 90 149 0.89 3 18:18 15.02.2022
3700 Clouds 2 1019 92 149 0.89 153 17:46 15.02.2022
3701 Clouds 2 1018 91 292 0.89 176 16:20 15.02.2022
3702 Clouds 2 1018 89 187 1.34 282 14:39 15.02.2022
3703 Clouds 2 1018 92 94 0.45 96 13:26 15.02.2022
3704 Clouds 2 1017 95 70 0.45 141 11:52 15.02.2022
3705 Rain 1 1016 95 68 0.89 54 10:39 15.02.2022
3706 Clouds 1 1013 95 68 0.45 235 09:23 15.02.2022
3707 Rain 1 1014 94 133 0.74 211 06:47 15.02.2022
3708 Clouds 1 1013 81 6812 0.45 205 00:26 15.02.2022
3709 Clouds 3 1015 75 3703 0.89 181 21:59 14.02.2022
3710 Clouds 3 1015 74 10000 0.89 181 21:19 14.02.2022
3711 Clouds 3 1014 72 10000 0.45 190 20:19 14.02.2022
3712 Clouds 3 1014 66 10000 2.68 188 19:30 14.02.2022
3713 Clear 3 1012 88 10000 2.58 173 18:27 14.02.2022
3714 Clear 4 1011 50 10000 2.58 173 17:43 14.02.2022
3715 Clear 5 1011 50 10000 1.91 170 17:23 14.02.2022
3716 Clear 7 1010 40 9361 0.45 91 15:58 14.02.2022
3717 Clear 9 1009 38 10000 0.45 179 13:37 14.02.2022
3718 Clear 9 1009 39 10000 0.45 179 13:18 14.02.2022
3719 Clear 8 1008 41 10000 1.68 181 12:32 14.02.2022
3720 Clear 6 1009 49 10000 0.45 172 11:43 14.02.2022
3721 Clear 3 1013 55 10000 3.31 165 10:22 14.02.2022
3722 Clear -2 1010 69 10000 0.45 178 08:32 14.02.2022
3723 Clear -5 1010 71 10000 4.29 158 07:26 14.02.2022
3724 Clear -3 1014 80 10000 0.45 204 23:19 13.02.2022
3725 Clear -3 1014 77 10000 0.89 218 22:41 13.02.2022
3726 Clear -3 1014 78 10000 0.89 218 22:22 13.02.2022
3727 Clear -2 1014 77 10000 3.65 164 21:24 13.02.2022
3728 Clear -1 1014 77 10000 0.45 226 20:30 13.02.2022
3729 Clear 0 1015 71 10000 0.45 147 19:23 13.02.2022
3730 Clear 1 1021 72 10000 3.36 165 18:42 13.02.2022
3731 Clear 2 1020 49 10000 0.45 348 17:52 13.02.2022
3732 Clear 6 1021 45 10000 0.45 276 15:53 13.02.2022
3733 Clear 7 1019 41 10000 1.79 349 14:52 13.02.2022
3734 Clear 7 1020 42 7025 0.45 104 13:42 13.02.2022
3735 Clouds 6 1021 40 7238 0.89 178 12:49 13.02.2022
3736 Clouds 3 1023 52 10000 0.89 157 10:50 13.02.2022
3737 Clouds 1 1024 62 10000 0.89 157 10:27 13.02.2022
3738 Clouds -1 1026 58 10000 2.77 158 08:59 13.02.2022
3739 Clouds -4 1022 81 10000 0.45 149 05:27 13.02.2022
3740 Clouds -4 1023 81 10000 0.89 234 00:34 13.02.2022
3741 Clouds -4 1024 82 10000 0.45 185 22:58 12.02.2022
3742 Clouds -4 1024 84 10000 0.45 289 22:33 12.02.2022
3743 Clouds -3 1024 84 10000 0.45 162 21:18 12.02.2022
3744 Clouds -3 1024 83 10000 0.45 229 20:25 12.02.2022
3745 Clouds -2 1024 80 10000 0.45 179 18:54 12.02.2022
3746 Clouds -1 1024 75 10000 0.89 223 18:36 12.02.2022
3747 Clouds 0 1027 63 10000 0.89 223 17:55 12.02.2022
3748 Clear 1 1024 62 10000 1.34 185 16:54 12.02.2022
3749 Clear 2 1024 55 10000 0.45 17 16:18 12.02.2022
3750 Clear 2 1027 55 10000 2.24 332 15:23 12.02.2022
3751 Clear 2 1027 52 10000 0.89 52 14:30 12.02.2022
3752 Clear 1 1031 33 10000 0.45 159 12:26 12.02.2022
3753 Clear -2 1034 43 10000 0.45 191 10:34 12.02.2022
3754 Clear -3 1035 46 10000 0.45 201 09:38 12.02.2022
3755 Clear -7 1026 89 10000 0.45 128 08:48 12.02.2022
3756 Clear -7 1026 90 10000 0.45 128 07:50 12.02.2022
3757 Clear -7 1028 90 10000 0.45 145 05:31 12.02.2022
3758 Clouds -5 1040 92 10000 3.14 151 02:20 12.02.2022
3759 Clouds -4 1040 92 10000 2.99 150 00:31 12.02.2022
3760 Clouds -2 1040 91 10000 2.49 153 22:24 11.02.2022
3761 Clouds -2 1040 91 10000 2.49 153 21:43 11.02.2022
3762 Clouds -1 1040 93 10000 2.33 159 20:37 11.02.2022
3763 Clouds -1 1040 95 10000 2.17 166 19:31 11.02.2022
3764 Clouds 0 1039 95 10000 1.95 174 18:58 11.02.2022
3765 Clouds 0 1037 83 10000 0.94 274 17:28 11.02.2022
3766 Clouds 0 1037 88 10000 0.94 274 16:58 11.02.2022
3767 Clouds 2 1031 77 10000 1.32 298 15:33 11.02.2022
3768 Clouds 3 1027 83 10000 1.34 105 14:38 11.02.2022
3769 Clouds 3 1027 85 10000 1.34 105 14:20 11.02.2022
3770 Clouds 1 1031 94 10000 1.34 313 13:47 11.02.2022
3771 Clouds 1 1031 94 6151 1.34 313 13:28 11.02.2022
3772 Snow 0 1031 95 134 1.79 328 11:26 11.02.2022
3773 Snow 0 1028 94 91 0.45 302 09:39 11.02.2022
3774 Snow 1 1025 94 69 0.89 161 08:39 11.02.2022
3775 Snow 1 1025 94 63 0.89 161 08:21 11.02.2022
3776 Rain 2 1022 91 373 0.45 192 06:31 11.02.2022
3777 Clouds 3 1020 81 10000 0.89 143 02:24 11.02.2022
3778 Clouds 4 1021 72 10000 0.89 200 00:44 11.02.2022
3779 Clouds 3 1023 73 10000 0.89 164 22:45 10.02.2022
3780 Clouds 3 1023 75 10000 0.89 214 21:44 10.02.2022
3781 Clouds 4 1028 81 10000 2.79 189 20:52 10.02.2022
3782 Clear 4 1028 81 10000 2.89 188 20:24 10.02.2022
3783 Clouds 4 1021 68 10000 0.89 221 19:24 10.02.2022
3784 Clouds 5 1027 78 10000 2.95 187 18:33 10.02.2022
3785 Clouds 6 1026 86 10000 2.27 199 17:25 10.02.2022
3786 Clouds 7 1026 50 10000 0.45 188 16:47 10.02.2022
3787 Clouds 8 1026 46 9655 1.83 214 15:42 10.02.2022
3788 Clouds 9 1026 46 5413 1.86 230 15:24 10.02.2022
3789 Clouds 9 1026 42 5413 1.34 197 14:35 10.02.2022
3790 Clouds 9 1025 36 4948 0.45 203 13:59 10.02.2022
3791 Clouds 10 1025 40 1668 0.45 203 13:19 10.02.2022
3792 Clouds 9 1025 39 4919 0.45 272 11:57 10.02.2022
3793 Clouds 8 1025 43 4919 0.45 195 11:32 10.02.2022
3794 Clouds 5 1029 50 10000 0.89 145 10:25 10.02.2022
3795 Clouds 4 1026 62 10000 1.71 204 09:46 10.02.2022
3796 Clouds 4 1026 62 10000 1.71 204 09:46 10.02.2022
3797 Clouds 1 1024 72 10000 0.89 263 08:42 10.02.2022
3798 Clouds -2 1023 77 10000 0.45 192 06:34 10.02.2022
3799 Clouds -1 1029 73 10000 3.19 178 03:33 10.02.2022
3800 Clouds -1 1030 78 10000 3.12 176 00:57 10.02.2022
3801 Clouds -1 1025 78 10000 0.45 224 00:38 10.02.2022
3802 Clouds -1 1025 79 10000 0.45 224 00:20 10.02.2022
3803 Clouds -1 1030 80 10000 3.21 174 22:56 09.02.2022
3804 Clouds -1 1030 82 10000 3.21 174 22:33 09.02.2022
3805 Clouds -1 1026 79 10000 0.45 235 21:47 09.02.2022
3806 Clear -1 1026 79 10000 0.45 235 21:27 09.02.2022
3807 Clear 0 1026 81 10000 0.45 172 20:44 09.02.2022
3808 Clear 0 1026 81 10000 0.45 172 20:44 09.02.2022
3809 Clear 0 1026 81 10000 0.45 172 20:22 09.02.2022
3810 Clear 1 1026 80 10000 0.45 222 19:42 09.02.2022
3811 Clouds 3 1026 75 10000 0.89 181 18:38 09.02.2022
3812 Clouds 7 1027 46 10000 0.45 234 16:57 09.02.2022
3813 Clouds 8 1028 45 10000 0.89 226 16:20 09.02.2022
3814 Clouds 9 1028 41 9541 0.45 213 15:23 09.02.2022
3815 Clouds 8 1029 45 1830 1.34 163 12:53 09.02.2022
3816 Clouds 5 1029 82 10000 1.71 193 11:29 09.02.2022
3817 Clouds 7 1031 18 10000 0.89 174 10:34 09.02.2022
3818 Clouds 3 1029 71 10000 1.98 190 09:50 09.02.2022
3819 Clouds -1 1031 59 10000 2.61 179 09:22 09.02.2022
3820 Clouds -1 1031 59 10000 2.61 179 08:45 09.02.2022
3821 Clear -3 1033 92 10000 3.02 173 05:57 09.02.2022
3822 Clear -2 1033 93 10000 3.1 170 03:51 09.02.2022
3823 Clear -3 1034 93 10000 2.94 171 03:25 09.02.2022
3824 Clear -1 1030 94 10000 0.45 170 23:45 08.02.2022
3825 Clear -1 1030 95 10000 0.45 170 23:19 08.02.2022
3826 Clear -1 1030 95 10000 0.45 170 23:19 08.02.2022
3827 Clear -1 1030 93 10000 0.89 215 22:38 08.02.2022
3828 Clear -1 1030 93 10000 0.89 215 22:19 08.02.2022
3829 Clear -1 1030 91 10000 0.89 160 21:22 08.02.2022
3830 Clear -1 1030 91 10000 0.89 160 21:22 08.02.2022
3831 Clear -1 1030 91 10000 0.89 160 20:57 08.02.2022
3832 Clear 0 1029 90 10000 0.45 119 20:34 08.02.2022
3833 Clouds 1 1029 88 10000 0.89 235 19:18 08.02.2022
3834 Clouds 2 1029 84 10000 1.79 144 18:19 08.02.2022
3835 Clouds 5 1032 66 10000 2.24 187 16:56 08.02.2022
3836 Clouds 6 1031 63 9303 1.34 204 15:46 08.02.2022
3837 Clouds 6 1032 64 5209 1.34 204 14:58 08.02.2022
3838 Clouds 5 1032 60 5182 0.89 157 13:39 08.02.2022
3839 Clouds 4 1033 61 9627 0.89 167 12:24 08.02.2022
3840 Clouds 2 1038 33 10000 1.56 210 10:48 08.02.2022
3841 Clouds 1 1034 53 10000 1.34 236 09:47 08.02.2022
3842 Clouds -1 1034 66 10000 2.24 172 08:34 08.02.2022
3843 Clouds -2 1035 71 10000 1.34 168 06:24 08.02.2022
3844 Clouds -3 1030 83 10000 0.45 156 04:40 08.02.2022
3845 Clouds -3 1030 83 10000 0.45 156 04:22 08.02.2022
3846 Clouds -3 1038 84 10000 3.19 182 03:36 08.02.2022
3847 Clear -4 1030 86 10000 0.89 158 03:18 08.02.2022
3848 Clear -4 1030 85 10000 0.89 158 02:59 08.02.2022
3849 Clear -4 1030 85 10000 0.45 243 02:36 08.02.2022
3850 Clear -4 1030 86 10000 0.45 243 02:18 08.02.2022
3851 Clear -4 1030 87 10000 0.89 189 01:44 08.02.2022
3852 Clouds -4 1030 87 10000 0.89 189 01:24 08.02.2022
3853 Clouds -4 1030 87 10000 0.89 189 00:55 08.02.2022
3854 Clouds -3 1039 85 10000 3.28 181 00:19 08.02.2022
3855 Clouds -3 1039 84 10000 3.28 181 23:42 07.02.2022
3856 Clouds -2 1039 80 10000 3.32 186 23:18 07.02.2022
3857 Clouds -2 1039 80 10000 3.32 186 22:56 07.02.2022
3858 Clouds -3 1039 87 10000 3.36 186 22:18 07.02.2022
3859 Clouds -2 1039 87 10000 3.36 186 21:47 07.02.2022
3860 Clouds -2 1038 92 10000 3.07 187 21:26 07.02.2022
3861 Clouds -2 1038 92 10000 3.07 187 20:41 07.02.2022
3862 Clouds -2 1037 94 10000 2.8 192 20:18 07.02.2022
3863 Clouds -2 1036 81 10000 2.8 192 19:45 07.02.2022
3864 Clouds 0 1031 79 7103 2.24 133 18:22 07.02.2022
3865 Snow 0 1030 80 2478 0.45 141 16:53 07.02.2022
3866 Rain 1 1025 74 1682 0.45 87 16:20 07.02.2022
3867 Clouds 1 1025 76 1682 0.45 112 15:48 07.02.2022
3868 Clouds 1 1023 77 1039 1.79 205 13:37 07.02.2022
3869 Clouds 1 1023 77 6456 1.79 205 13:19 07.02.2022
3870 Clouds 0 1022 78 10000 0.45 7 11:58 07.02.2022
3871 Clouds 0 1022 78 9991 0.45 7 11:58 07.02.2022
3872 Clouds 0 1021 82 10000 0.89 227 11:37 07.02.2022
3873 Clouds 0 1021 83 1224 0.89 227 10:52 07.02.2022
3874 Clouds -1 1024 86 1224 0.89 241 10:32 07.02.2022
3875 Clouds -1 1023 90 737 0.89 241 09:53 07.02.2022
3876 Clouds -1 1023 93 549 3.13 3 09:18 07.02.2022
3877 Snow -1 1020 94 549 2.24 350 08:43 07.02.2022
3878 Snow -1 1019 92 180 1.79 215 07:26 07.02.2022
3879 Snow -1 1018 93 136 0.45 180 06:34 07.02.2022
3880 Snow 2 1009 90 50 0.89 72 03:48 07.02.2022
3881 Rain 4 1009 88 4486 2.24 73 00:46 07.02.2022
3882 Rain 4 1010 87 10000 2.24 73 23:49 06.02.2022
3883 Rain 4 1011 80 684 0.89 155 22:49 06.02.2022
3884 Rain 4 1011 84 1430 0.89 289 21:56 06.02.2022
3885 Rain 4 1012 83 1430 0.45 304 21:35 06.02.2022
3886 Rain 3 1013 84 449 0.45 304 20:55 06.02.2022
3887 Rain 3 1014 84 449 1.34 249 20:32 06.02.2022
3888 Rain 3 1016 82 2053 0.45 173 19:40 06.02.2022
3889 Rain 4 1015 64 3278 1.79 115 18:41 06.02.2022
3890 Rain 3 1015 55 8250 1.79 115 17:56 06.02.2022
3891 Rain 4 1015 57 10000 0.45 327 17:21 06.02.2022
3892 Rain 3 1017 61 10000 1.34 164 16:47 06.02.2022
3893 Rain 3 1017 58 10000 1.34 164 15:49 06.02.2022
3894 Rain 3 1017 57 10000 0.45 239 15:27 06.02.2022
3895 Clouds 4 1017 56 10000 1.34 202 14:47 06.02.2022
3896 Clouds 4 1018 54 10000 1.79 220 13:28 06.02.2022
3897 Clouds 4 1019 51 10000 1.79 220 12:58 06.02.2022
3898 Clouds 3 1021 52 10000 2.24 186 11:38 06.02.2022
3899 Clouds 3 1020 48 10000 1.34 216 10:31 06.02.2022
3900 Clouds 0 1020 71 10000 0.45 194 09:25 06.02.2022
3901 Clouds -1 1024 70 10000 1.34 227 08:30 06.02.2022
3902 Clouds -3 1025 76 10000 0.45 187 05:33 06.02.2022
3903 Clouds -4 1026 81 10000 1.79 202 02:50 06.02.2022
3904 Clouds -4 1026 82 10000 0.45 222 02:24 06.02.2022
3905 Clouds -2 1027 81 10000 0.45 198 00:29 06.02.2022
3906 Clouds -2 1023 84 10000 0.45 239 22:31 05.02.2022
3907 Clouds -2 1023 83 10000 1.34 221 21:32 05.02.2022
3908 Clouds -2 1023 83 10000 0.89 156 20:24 05.02.2022
3909 Clouds -1 1023 82 10000 0.45 198 19:46 05.02.2022
3910 Clear -1 1023 79 10000 0.45 198 18:59 05.02.2022
3911 Clear 1 1029 38 10000 0.45 179 17:45 05.02.2022
3912 Clear 2 1029 54 10000 0.45 179 17:25 05.02.2022
3913 Clear 4 1025 55 10000 1.28 266 15:40 05.02.2022
3914 Clear 4 1025 55 10000 1.49 271 15:21 05.02.2022
3915 Clouds 3 1022 68 10000 0.89 131 12:47 05.02.2022
3916 Clouds 3 1022 70 10000 0.89 131 12:27 05.02.2022
3917 Clouds 1 1025 81 10000 1.37 274 10:48 05.02.2022
3918 Clouds 1 1025 82 10000 1.24 271 10:20 05.02.2022
3919 Clouds 0 1025 84 10000 0.45 23 09:43 05.02.2022
3920 Clouds 0 1024 88 10000 0.45 226 07:51 05.02.2022
3921 Clouds 0 1021 95 353 1.34 151 06:57 05.02.2022
3922 Snow 1 1021 94 67 3.13 333 04:29 05.02.2022
3923 Clouds 4 1020 88 1529 0.45 163 01:19 05.02.2022
3924 Clouds 3 1019 91 665 0.45 163 00:52 05.02.2022
3925 Clouds 3 1019 88 217 0.45 212 23:39 04.02.2022
3926 Clouds 3 1019 88 506 0.45 212 23:21 04.02.2022
3927 Clouds 3 1019 85 1266 2.68 160 21:54 04.02.2022
3928 Clouds 3 1020 84 1266 0.45 176 21:36 04.02.2022
3929 Clouds 4 1020 84 10000 0.45 176 21:18 04.02.2022
3930 Clouds 3 1018 86 10000 0.45 143 19:39 04.02.2022
3931 Clouds 4 1020 76 10000 2.15 245 17:40 04.02.2022
3932 Clouds 6 1016 54 4546 0.45 183 15:39 04.02.2022
3933 Clouds 6 1017 65 2708 1.34 188 14:52 04.02.2022
3934 Clouds 7 1016 64 2398 1.34 181 13:24 04.02.2022
3935 Clear 5 1018 72 2879 1.43 260 12:43 04.02.2022
3936 Clear 4 1021 79 9563 0.45 148 11:41 04.02.2022
3937 Clear 3 1022 83 10000 0.45 126 10:34 04.02.2022
3938 Clear 0 1016 90 10000 2.34 207 08:34 04.02.2022
3939 Clear 0 1015 88 10000 0.45 155 05:23 04.02.2022
3940 Clear 1 1015 84 10000 1.34 143 02:42 04.02.2022
3941 Clouds 1 1015 84 10000 0.89 166 01:22 04.02.2022
3942 Clouds 2 1015 90 10000 0.89 80 23:28 03.02.2022
3943 Clouds 2 1015 91 10000 0.45 230 22:31 03.02.2022
3944 Clouds 2 1015 90 10000 0.45 201 21:48 03.02.2022
3945 Clouds 3 1016 91 10000 1.34 144 20:36 03.02.2022
3946 Clouds 3 1016 92 10000 1.34 144 20:18 03.02.2022
3947 Clouds 3 1016 93 10000 0.89 223 19:26 03.02.2022
3948 Clouds 4 1016 92 10000 0.45 203 18:28 03.02.2022
3949 Clouds 5 1015 90 10000 0.45 202 17:32 03.02.2022
3950 Clouds 7 1016 75 10000 0.45 161 15:53 03.02.2022
3951 Clouds 7 1018 78 4312 1.34 154 14:26 03.02.2022
3952 Clouds 6 1020 83 5842 2.24 162 12:37 03.02.2022
3953 Clouds 4 1022 93 10000 1.79 154 10:35 03.02.2022
3954 Clouds 2 1023 91 10000 0.89 163 08:23 03.02.2022
3955 Clouds 2 1026 97 416 0.45 153 03:28 03.02.2022
3956 Clouds 2 1026 97 149 1.34 196 00:30 03.02.2022
3957 Clouds 2 1026 96 47 0.45 217 22:47 02.02.2022
3958 Rain 2 1026 96 43 0.45 217 21:53 02.02.2022
3959 Clouds 2 1025 96 54 0.45 172 21:29 02.02.2022
3960 Clouds 2 1025 95 49 1.34 228 20:28 02.02.2022
3961 Clouds 2 1025 95 49 1.34 228 19:49 02.02.2022
3962 Clouds 2 1025 95 33 0.45 198 19:20 02.02.2022
3963 Clouds 2 1024 94 34 0.45 90 18:25 02.02.2022
3964 Clouds 2 1023 94 31 0.89 82 17:23 02.02.2022
3965 Clouds 2 1023 93 31 0.89 82 16:59 02.02.2022
3966 Clouds 2 1023 91 37 0.45 64 15:49 02.02.2022
3967 Clouds 3 1022 88 37 0.89 289 12:47 02.02.2022
3968 Clouds 3 1021 90 35 0.89 289 11:51 02.02.2022
3969 Clouds 2 1021 89 35 0.45 241 11:30 02.02.2022
3970 Clouds 3 1020 89 48 0.45 135 09:18 02.02.2022
3971 Clouds 2 1018 88 52 1.79 113 04:57 02.02.2022
3972 Rain 0 1020 94 145 2.24 90 22:34 01.02.2022
3973 Snow 0 1019 92 164 1.34 115 20:55 01.02.2022
3974 Snow -1 1019 90 278 1.79 153 19:29 01.02.2022
3975 Snow -1 1021 89 258 0.89 216 17:34 01.02.2022
3976 Snow -1 1022 86 8459 0.89 201 16:21 01.02.2022
3977 Clouds -1 1025 91 366 0.89 98 12:57 01.02.2022
3978 Clouds -1 1025 91 212 0.89 98 12:21 01.02.2022
3979 Snow -2 1023 95 81 1.79 170 08:52 01.02.2022
3980 Snow -1 1018 95 73 1.34 157 02:20 01.02.2022
3981 Snow -1 1017 94 84 1.34 133 23:37 31.01.2022
3982 Snow -1 1017 94 86 0.45 135 22:33 31.01.2022
3983 Snow -1 1016 93 94 0.89 138 21:35 31.01.2022
3984 Snow -1 1016 93 94 0.89 138 21:35 31.01.2022
3985 Clouds -1 1016 93 91 0.45 186 20:34 31.01.2022
3986 Snow -1 1016 93 82 0.45 186 19:57 31.01.2022
3987 Snow 0 1015 92 83 2.24 72 18:32 31.01.2022
3988 Snow 0 1015 92 86 2.24 72 17:57 31.01.2022
3989 Snow 0 1015 89 140 0.89 180 17:18 31.01.2022
3990 Rain 0 1014 85 113 0.89 186 16:21 31.01.2022
3991 Snow 1 1014 82 121 0.89 156 14:51 31.01.2022
3992 Clouds 1 1013 89 75 0.89 144 13:29 31.01.2022
3993 Snow 1 1014 89 75 2.68 77 12:37 31.01.2022
3994 Snow 1 1014 85 1140 0.89 5 11:20 31.01.2022
3995 Snow 1 1015 81 1140 3.1 247 10:47 31.01.2022
3996 Clouds 1 1016 76 3434 0.89 82 09:36 31.01.2022
3997 Clouds 1 1016 80 10000 0.89 82 08:56 31.01.2022
3998 Clouds 0 1020 93 10000 0.45 60 08:20 31.01.2022
3999 Clouds 0 1017 77 10000 0.45 88 07:37 31.01.2022
4000 Clouds -2 1018 85 10000 0.45 183 05:24 31.01.2022
4001 Clouds -2 1025 88 10000 0.45 165 00:23 31.01.2022
4002 Clouds -1 1023 92 10000 3.14 178 22:33 30.01.2022
4003 Clouds -1 1024 91 10000 0.45 224 21:45 30.01.2022
4004 Clouds -1 1024 90 10000 0.45 224 21:24 30.01.2022
4005 Clouds 0 1024 90 10000 0.45 224 20:51 30.01.2022
4006 Clouds 0 1025 92 10000 0.45 207 20:31 30.01.2022
4007 Clouds 1 1025 89 10000 0.45 207 19:55 30.01.2022
4008 Clouds 2 1032 83 10000 2.36 185 18:51 30.01.2022
4009 Clouds 2 1025 84 10000 0.45 220 18:22 30.01.2022
4010 Clouds 3 1032 74 10000 2.68 184 17:30 30.01.2022
4011 Clouds 5 1030 67 10000 1.45 245 16:42 30.01.2022
4012 Clouds 5 1030 67 10000 1.57 270 16:23 30.01.2022
4013 Clouds 5 1030 66 10000 1.57 270 15:54 30.01.2022
4014 Clouds 5 1030 69 10000 1.57 270 15:32 30.01.2022
4015 Clouds 5 1030 70 10000 1.74 279 14:47 30.01.2022
4016 Clouds 4 1027 83 9130 1.84 283 13:44 30.01.2022
4017 Clouds 4 1034 90 6148 0.45 37 12:44 30.01.2022
4018 Clouds 3 1030 88 2872 1.79 130 10:39 30.01.2022
4019 Clouds 3 1027 89 991 1.79 130 09:58 30.01.2022
4020 Clouds 3 1027 90 296 1.79 48 09:21 30.01.2022
4021 Clouds 3 1030 92 396 0.45 248 07:57 30.01.2022
4022 Clouds 2 1030 80 3084 0.89 214 02:44 30.01.2022
4023 Clouds 3 1030 72 10000 0.89 214 01:52 30.01.2022
4024 Clouds 2 1031 75 10000 2.86 227 23:46 29.01.2022
4025 Clouds 2 1033 75 10000 2.68 221 22:48 29.01.2022
4026 Clouds 2 1027 60 10000 0.45 217 21:28 29.01.2022
4027 Clouds 2 1027 55 10000 1.79 245 20:53 29.01.2022
4028 Clouds 3 1027 55 10000 1.79 245 19:51 29.01.2022
4029 Clouds 3 1027 52 10000 0.89 210 19:30 29.01.2022
4030 Clouds 3 1027 53 10000 2.24 221 18:43 29.01.2022
4031 Clouds 3 1034 33 10000 2.24 192 17:46 29.01.2022
4032 Clouds 4 1033 29 10000 1.34 173 16:43 29.01.2022
4033 Clouds 5 1032 26 10000 2.25 239 15:20 29.01.2022
4034 Clouds 5 1031 38 10000 1.34 225 13:47 29.01.2022
4035 Clouds 5 1031 38 10000 1.34 225 13:26 29.01.2022
4036 Clouds 4 1032 38 10000 0.89 184 12:42 29.01.2022
4037 Clouds 3 1032 43 10000 0.45 291 11:39 29.01.2022
4038 Snow 2 1032 51 10000 0.89 201 10:31 29.01.2022
4039 Clouds -1 1029 74 10000 0.45 75 07:57 29.01.2022
4040 Clouds -1 1036 80 10000 1.79 149 01:37 29.01.2022
4041 Clouds -1 1036 82 10000 0.89 165 00:31 29.01.2022
4042 Clouds -1 1036 80 10000 1.34 188 23:22 28.01.2022
4043 Clouds -1 1036 81 10000 0.45 148 22:42 28.01.2022
4044 Clouds 0 1036 80 10000 0.45 148 22:18 28.01.2022
4045 Clouds -1 1042 76 10000 0.45 331 20:40 28.01.2022
4046 Clouds -1 1041 78 10000 2.48 189 19:51 28.01.2022
4047 Clouds -1 1041 88 10000 2.13 195 18:49 28.01.2022
4048 Clouds -1 1040 85 10000 0.45 46 17:52 28.01.2022
4049 Clouds 2 1031 66 10000 0.89 238 15:46 28.01.2022
4050 Clouds 2 1032 70 10000 1.79 135 14:20 28.01.2022
4051 Clouds 1 1035 78 10000 0.45 19 12:35 28.01.2022
4052 Clouds 0 1036 80 10000 0.89 281 11:38 28.01.2022
4053 Snow 0 1035 85 1925 0.89 356 10:22 28.01.2022
4054 Snow 0 1035 85 1925 0.89 356 10:22 28.01.2022
4055 Snow 0 1035 83 1925 0.89 93 09:45 28.01.2022
4056 Clouds 0 1033 92 301 0.45 76 07:40 28.01.2022
4057 Clouds 0 1032 93 236 0.89 190 05:24 28.01.2022
4058 Snow 0 1031 93 88 0.89 142 03:47 28.01.2022
4059 Snow 0 1030 86 107 1.34 141 02:23 28.01.2022
4060 Rain 0 1030 79 107 2.24 278 01:35 28.01.2022
4061 Snow -1 1031 89 613 2.53 226 23:47 27.01.2022
4062 Clouds 0 1026 65 1232 0.89 157 21:54 27.01.2022
4063 Clouds 0 1025 64 1232 2.12 240 21:32 27.01.2022
4064 Snow 0 1025 65 10000 3.59 195 20:53 27.01.2022
4065 Clear -1 1025 62 10000 0.45 289 19:35 27.01.2022
4066 Clouds 0 1025 63 10000 1.79 175 17:56 27.01.2022
4067 Clouds 5 1029 33 10000 0.89 172 15:31 27.01.2022
4068 Clouds 5 1027 40 10000 0.89 162 13:39 27.01.2022
4069 Clouds 5 1030 38 10000 3.13 198 12:46 27.01.2022
4070 Clouds 3 1031 25 10000 1.34 181 10:57 27.01.2022
4071 Clouds -3 1030 55 10000 3.25 185 09:20 27.01.2022
4072 Clouds -4 1030 55 10000 3.25 185 08:37 27.01.2022
4073 Clouds -5 1032 57 10000 3.16 187 07:22 27.01.2022
4074 Clouds -5 1032 58 10000 2.76 185 02:57 27.01.2022
4075 Clouds -3 1033 62 10000 2.77 186 23:33 26.01.2022
4076 Clouds -3 1028 78 10000 0.45 224 22:26 26.01.2022
4077 Clouds -3 1028 77 10000 0.89 163 21:37 26.01.2022
4078 Clouds -2 1028 74 10000 0.89 259 20:41 26.01.2022
4079 Clouds -2 1028 74 10000 0.89 259 20:23 26.01.2022
4080 Clouds -2 1028 73 10000 1.34 218 19:23 26.01.2022
4081 Clouds -1 1028 71 10000 0.89 178 18:45 26.01.2022
4082 Clear 0 1028 64 10000 0.89 178 17:51 26.01.2022
4083 Clear 2 1027 60 10000 1.79 211 17:23 26.01.2022
4084 Clear 4 1029 44 10000 0.45 162 16:33 26.01.2022
4085 Clear 5 1029 40 10000 0.45 65 15:49 26.01.2022
4086 Clear 6 1029 40 7106 0.45 317 14:20 26.01.2022
4087 Clear 3 1030 64 10000 1.48 249 11:53 26.01.2022
4088 Clear 1 1035 49 10000 0.89 165 10:28 26.01.2022
4089 Clear 1 1035 51 10000 0.89 161 09:48 26.01.2022
4090 Clear -5 1034 73 10000 2.51 185 07:45 26.01.2022
4091 Clear -4 1028 89 10000 0.45 217 04:24 26.01.2022
4092 Clear -4 1035 71 10000 2.56 184 23:58 25.01.2022
4093 Clear -4 1035 90 10000 2.57 184 23:19 25.01.2022
4094 Clear -4 1035 70 10000 2.62 183 22:21 25.01.2022
4095 Clear -4 1035 70 10000 2.62 183 21:58 25.01.2022
4096 Clear -3 1029 88 10000 0.45 96 20:47 25.01.2022
4097 Clear -3 1029 88 10000 0.45 96 20:28 25.01.2022
4098 Clear -3 1029 88 10000 0.45 96 20:28 25.01.2022
4099 Clear -3 1029 88 10000 0.45 96 20:28 25.01.2022
4100 Clear -2 1029 86 10000 0.45 96 19:52 25.01.2022
4101 Clear -1 1028 82 10000 0.45 214 18:37 25.01.2022
4102 Clear 0 1028 76 10000 0.45 229 17:44 25.01.2022
4103 Clear 4 1030 58 10000 0.89 216 16:35 25.01.2022
4104 Clear 5 1030 56 10000 0.89 216 15:49 25.01.2022
4105 Clear 6 1030 48 10000 0.89 180 15:31 25.01.2022
4106 Clear 6 1030 50 10000 1.34 184 14:57 25.01.2022
4107 Clouds 5 1031 55 10000 0.45 156 13:42 25.01.2022
4108 Clear 5 1034 42 10000 0.45 147 10:42 25.01.2022
4109 Clear -4 1034 67 10000 2.25 168 08:37 25.01.2022
4110 Clear -5 1034 68 10000 2.66 165 07:29 25.01.2022
4111 Clear -5 1034 68 10000 2.6 165 06:47 25.01.2022
4112 Clear -5 1034 68 10000 2.66 164 05:22 25.01.2022
4113 Clear -4 1035 71 10000 2.57 161 23:37 24.01.2022
4114 Clear -4 1035 71 10000 2.6 162 23:18 24.01.2022
4115 Clear -4 1035 71 10000 2.61 161 22:59 24.01.2022
4116 Clear -4 1035 71 10000 2.6 162 22:41 24.01.2022
4117 Clear -4 1035 72 10000 2.68 161 21:52 24.01.2022
4118 Clear -4 1035 72 10000 2.7 161 21:28 24.01.2022
4119 Clear -3 1034 73 10000 2.72 161 20:29 24.01.2022
4120 Clear -3 1034 87 10000 2.72 161 19:39 24.01.2022
4121 Clear -3 1034 87 10000 2.62 159 19:20 24.01.2022
4122 Clear -1 1028 81 10000 0.45 252 17:45 24.01.2022
4123 Clear -1 1028 79 10000 0.45 252 17:23 24.01.2022
4124 Clear -1 1028 79 10000 0.45 252 17:23 24.01.2022
4125 Clear 2 1030 61 10000 0.45 246 16:40 24.01.2022
4126 Clear 2 1030 60 10000 0.45 246 16:18 24.01.2022
4127 Clear 3 1030 51 10000 0.45 53 14:35 24.01.2022
4128 Clear 3 1034 37 6940 0.89 180 12:40 24.01.2022
4129 Clear 2 1034 37 7079 0.89 180 12:22 24.01.2022
4130 Clear -3 1031 66 10000 1.5 137 10:25 24.01.2022
4131 Clear -2 1031 66 10000 1.5 137 09:47 24.01.2022
4132 Clear -6 1034 68 10000 2.66 152 08:24 24.01.2022
4133 Clear -5 1033 69 10000 2.97 156 04:50 24.01.2022
4134 Clear -4 1035 93 10000 2.37 144 01:30 24.01.2022
4135 Clear -4 1030 92 10000 0.45 232 00:35 24.01.2022
4136 Clear -4 1030 91 10000 0.45 232 23:49 23.01.2022
4137 Clear -3 1030 90 10000 0.45 240 22:28 23.01.2022
4138 Clear -3 1030 90 10000 0.45 236 21:44 23.01.2022
4139 Clear -3 1030 90 10000 0.45 236 21:24 23.01.2022
4140 Clear -2 1032 83 10000 2.24 137 20:30 23.01.2022
4141 Clouds -1 1033 87 10000 1.34 134 19:21 23.01.2022
4142 Clouds -1 1034 88 10000 0.45 184 18:44 23.01.2022
4143 Clouds 0 1033 88 10000 0.45 176 17:28 23.01.2022
4144 Clouds 1 1030 84 10000 0.89 81 16:38 23.01.2022
4145 Clouds 2 1032 85 10000 1.59 41 14:56 23.01.2022
4146 Clouds 2 1032 84 10000 1.07 43 14:19 23.01.2022
4147 Clouds 1 1032 86 10000 0.85 60 12:51 23.01.2022
4148 Clouds 1 1033 87 10000 1.17 90 12:22 23.01.2022
4149 Clouds 1 1033 91 10000 1.17 90 11:51 23.01.2022
4150 Clouds 0 1031 89 10000 0.45 294 11:18 23.01.2022
4151 Clouds 0 1031 93 10000 0.89 138 10:27 23.01.2022
4152 Clouds -2 1035 93 10000 0.45 305 09:39 23.01.2022
4153 Clouds -2 1035 94 10000 0.45 305 08:51 23.01.2022
4154 Clouds -2 1034 95 10000 0.45 93 05:37 23.01.2022
4155 Clouds -3 1037 91 10000 2.23 165 01:46 23.01.2022
4156 Clouds -2 1037 94 10000 2.26 172 01:23 23.01.2022
4157 Clouds -1 1034 94 10000 0.89 183 00:23 23.01.2022
4158 Clouds -1 1035 94 10000 0.45 341 23:34 22.01.2022
4159 Clouds -1 1035 94 10000 0.45 72 22:34 22.01.2022
4160 Clouds -1 1035 95 10000 0.45 155 21:19 22.01.2022
4161 Clouds -1 1035 94 784 1.37 213 19:49 22.01.2022
4162 Clouds -1 1030 93 233 0.45 183 18:45 22.01.2022
4163 Clouds -1 1034 94 677 0.45 183 17:56 22.01.2022
4164 Clouds -1 1034 95 677 0.45 225 17:35 22.01.2022
4165 Clouds 0 1034 94 1010 0.45 225 16:55 22.01.2022
4166 Clouds -1 1034 91 1243 0.89 150 15:49 22.01.2022
4167 Snow 0 1030 91 1108 1.34 145 14:57 22.01.2022
4168 Snow 0 1030 90 3519 0.89 130 13:36 22.01.2022
4169 Snow -1 1030 91 6695 1.34 148 12:48 22.01.2022
4170 Snow -1 1030 91 9867 1.34 148 12:24 22.01.2022
4171 Snow -2 1035 91 10000 1.34 163 10:55 22.01.2022
4172 Snow -2 1034 91 10000 0.45 168 10:28 22.01.2022
4173 Snow -2 1034 91 10000 0.45 168 09:57 22.01.2022
4174 Clouds -3 1034 88 10000 0.45 200 08:51 22.01.2022
4175 Clouds -3 1034 81 10000 0.89 152 07:29 22.01.2022
4176 Clouds -4 1033 79 10000 1.34 132 04:52 22.01.2022
4177 Clouds -5 1039 72 10000 0.45 168 01:33 22.01.2022
4178 Clouds -5 1040 72 10000 0.45 172 23:30 21.01.2022
4179 Clouds -6 1040 84 10000 2.7 173 22:19 21.01.2022
4180 Clouds -5 1040 93 10000 2.6 175 19:56 21.01.2022
4181 Clouds -6 1039 96 10000 1.76 180 18:23 21.01.2022
4182 Clouds -6 1040 82 10000 1.34 179 17:18 21.01.2022
4183 Clouds -2 1029 78 10000 0.45 300 15:28 21.01.2022
4184 Clouds -2 1034 78 10000 1.36 324 13:18 21.01.2022
4185 Clouds -2 1028 82 10000 2.24 355 12:28 21.01.2022
4186 Clouds -3 1033 84 10000 0.45 355 11:27 21.01.2022
4187 Clouds -4 1035 90 10000 0.68 174 09:46 21.01.2022
4188 Clouds -4 1037 96 4031 1.85 170 08:22 21.01.2022
4189 Clouds -4 1036 96 10000 1.76 179 04:49 21.01.2022
4190 Clouds -2 1026 88 383 0.89 147 23:27 20.01.2022
4191 Snow -2 1026 91 302 1.34 214 21:50 20.01.2022
4192 Clouds -2 1025 92 302 0.89 242 21:32 20.01.2022
4193 Snow -2 1024 90 735 2.24 8 20:31 20.01.2022
4194 Clouds -1 1024 84 6342 0.45 170 19:19 20.01.2022
4195 Snow 0 1030 77 465 1.82 228 18:18 20.01.2022
4196 Clouds 1 1023 72 1615 1.34 135 16:40 20.01.2022
4197 Clouds 1 1023 77 2027 0.45 334 15:40 20.01.2022
4198 Clouds 1 1023 85 2863 1.34 149 14:40 20.01.2022
4199 Clouds 0 1023 88 814 0.45 93 13:32 20.01.2022
4200 Rain 0 1024 86 463 0.89 93 12:31 20.01.2022
4201 Clouds 0 1024 82 305 1.79 101 11:36 20.01.2022
4202 Clouds 0 1023 88 323 0.89 70 10:37 20.01.2022
4203 Snow -1 1026 90 169 1.79 155 09:29 20.01.2022
4204 Snow -1 1026 86 187 0.89 111 07:24 20.01.2022
4205 Clouds 0 1027 86 459 0.45 158 00:43 20.01.2022
4206 Clouds 0 1026 84 3159 0.89 233 22:52 19.01.2022
4207 Clouds 0 1027 86 7740 0.89 202 21:45 19.01.2022
4208 Clouds 0 1027 86 9093 0.89 202 21:22 19.01.2022
4209 Clouds 0 1027 84 9093 1.34 221 20:46 19.01.2022
4210 Clear -1 1027 84 10000 0.45 110 19:27 19.01.2022
4211 Clear 1 1026 72 10000 0.45 26 17:52 19.01.2022
4212 Clear 1 1029 72 10000 1.79 180 17:32 19.01.2022
4213 Clear 5 1025 45 10000 0.89 194 15:44 19.01.2022
4214 Clear 5 1025 45 10000 0.45 74 13:38 19.01.2022
4215 Clear 3 1029 51 10000 0.89 170 12:24 19.01.2022
4216 Clear 3 1030 28 10000 0.45 135 11:38 19.01.2022
4217 Clear -2 1028 62 10000 1.97 190 09:52 19.01.2022
4218 Clear -3 1028 62 10000 1.97 190 09:33 19.01.2022
4219 Clear -2 1031 89 10000 2.92 177 06:34 19.01.2022
4220 Clear -2 1029 87 10000 0.45 229 00:33 19.01.2022
4221 Clear -2 1030 87 10000 0.89 190 23:18 18.01.2022
4222 Clear -1 1034 78 10000 0.89 236 21:55 18.01.2022
4223 Clear -1 1035 80 10000 0.45 250 20:44 18.01.2022
4224 Clear -1 1035 86 10000 0.45 250 19:52 18.01.2022
4225 Clear -1 1035 86 10000 0.45 235 19:33 18.01.2022
4226 Clear -1 1035 87 10000 0.45 235 18:25 18.01.2022
4227 Clear 0 1035 86 10000 2.5 144 17:33 18.01.2022
4228 Clear 2 1031 80 10000 2.24 344 16:33 18.01.2022
4229 Clear 3 1031 75 10000 1.34 336 15:26 18.01.2022
4230 Clear 3 1031 76 10000 1.79 9 14:34 18.01.2022
4231 Clear 2 1032 79 10000 0.45 338 11:52 18.01.2022
4232 Clear -1 1042 91 10000 1.5 93 10:30 18.01.2022
4233 Clear -2 1037 90 10000 0.89 181 08:49 18.01.2022
4234 Clear -2 1037 90 10000 2.28 140 07:45 18.01.2022
4235 Clear -2 1037 90 10000 2.28 140 07:45 18.01.2022
4236 Clouds 0 1041 93 10000 0.45 330 01:34 18.01.2022
4237 Clouds 0 1041 90 10000 1.32 195 22:47 17.01.2022
4238 Clouds 1 1041 86 10000 0.9 210 21:58 17.01.2022
4239 Clouds 1 1036 82 10000 0.45 42 21:31 17.01.2022
4240 Clouds 1 1036 83 8335 1.79 146 19:42 17.01.2022
4241 Clouds 1 1040 83 10000 1.79 168 18:27 17.01.2022
4242 Clouds 2 1034 74 10000 1.79 180 17:22 17.01.2022
4243 Clouds 3 1034 69 10000 1.34 179 16:22 17.01.2022
4244 Clouds 4 1034 59 10000 2.04 271 14:58 17.01.2022
4245 Clouds 4 1034 59 10000 1.34 167 14:32 17.01.2022
4246 Clouds 3 1034 65 10000 0.89 190 13:19 17.01.2022
4247 Clouds 2 1035 70 10000 0.45 182 12:27 17.01.2022
4248 Clouds 2 1035 77 10000 0.45 260 11:33 17.01.2022
4249 Clouds 0 1035 82 10000 1.34 138 10:21 17.01.2022
4250 Clouds 0 1034 86 6460 0.45 186 08:44 17.01.2022
4251 Clouds 0 1034 86 10000 1.79 160 07:21 17.01.2022
4252 Clouds 0 1037 67 5328 0.89 32 01:52 17.01.2022
4253 Clouds 0 1031 71 10000 0.45 343 23:44 16.01.2022
4254 Clouds -1 1036 79 10000 2.15 208 21:21 16.01.2022
4255 Clouds 0 1036 77 10000 0.45 148 20:18 16.01.2022
4256 Snow -1 1035 87 10000 3.58 183 18:46 16.01.2022
4257 Clouds -1 1034 90 10000 1.9 212 17:50 16.01.2022
4258 Clouds 2 1031 59 10000 1.61 228 16:54 16.01.2022
4259 Clouds 3 1026 62 10000 2.24 350 15:40 16.01.2022
4260 Clear 3 1029 59 10000 0.45 44 14:29 16.01.2022
4261 Clear 4 1026 53 10000 1.34 222 13:23 16.01.2022
4262 Clear 3 1030 59 10000 1.79 163 11:58 16.01.2022
4263 Clear 2 1030 46 10000 1.79 163 11:27 16.01.2022
4264 Clear 1 1029 45 10000 1.34 180 10:27 16.01.2022
4265 Clear -1 1027 69 10000 1.86 228 09:57 16.01.2022
4266 Clear -3 1028 68 10000 2.46 196 09:23 16.01.2022
4267 Clear -3 1028 68 10000 2.46 196 08:53 16.01.2022
4268 Clear -4 1026 68 10000 2.6 195 05:52 16.01.2022
4269 Clear -4 1026 65 10000 2.75 178 00:19 16.01.2022
4270 Clear -3 1026 65 10000 2.76 175 22:49 15.01.2022
4271 Clear -3 1027 68 10000 2.67 176 21:21 15.01.2022
4272 Clear -3 1027 68 10000 2.67 176 20:44 15.01.2022
4273 Clear -3 1027 91 10000 2.71 171 20:18 15.01.2022
4274 Clear -2 1027 91 10000 2.67 169 19:25 15.01.2022
4275 Clear -1 1022 91 10000 0.45 162 17:52 15.01.2022
4276 Clear 1 1022 81 10000 0.45 237 16:43 15.01.2022
4277 Clear 5 1024 65 8462 0.45 146 14:32 15.01.2022
4278 Clear 5 1028 52 6952 0.89 152 12:38 15.01.2022
4279 Clear 4 1028 51 10000 0.89 174 11:20 15.01.2022
4280 Clear -2 1027 72 10000 1.65 143 09:35 15.01.2022
4281 Clear -4 1032 77 10000 2.62 155 01:25 15.01.2022
4282 Clear -3 1034 79 10000 2.68 156 21:57 14.01.2022
4283 Clear -3 1034 79 10000 2.64 157 20:54 14.01.2022
4284 Clear -2 1035 81 10000 2.55 156 20:23 14.01.2022
4285 Clear -2 1035 93 10000 2.55 156 19:49 14.01.2022
4286 Clouds -1 1034 92 10000 2.58 155 18:33 14.01.2022
4287 Clouds 1 1034 85 10000 2.31 153 16:51 14.01.2022
4288 Clouds 4 1033 77 10000 0.45 226 16:33 14.01.2022
4289 Clouds 4 1034 74 2546 0.45 117 14:47 14.01.2022
4290 Clouds 4 1033 63 3089 0.45 125 13:47 14.01.2022
4291 Clear 4 1036 57 3912 0.77 124 12:32 14.01.2022
4292 Clear 4 1038 60 10000 0.45 136 11:29 14.01.2022
4293 Clear 0 1035 77 10000 1.8 151 09:51 14.01.2022
4294 Clear -4 1036 75 10000 2.47 154 08:52 14.01.2022
4295 Clear -6 1037 72 10000 2.79 157 07:21 14.01.2022
4296 Clear -5 1038 73 10000 2.86 157 01:37 14.01.2022
4297 Clouds -5 1039 71 10000 2.94 154 23:32 13.01.2022
4298 Clouds -4 1040 69 10000 3 153 21:41 13.01.2022
4299 Clouds -4 1040 68 10000 2.98 152 21:23 13.01.2022
4300 Clouds -4 1040 89 10000 2.9 149 19:41 13.01.2022
4301 Clouds -4 1040 88 10000 2.79 149 19:22 13.01.2022
4302 Clouds -4 1040 88 10000 2.79 149 19:22 13.01.2022
4303 Clouds -2 1041 69 10000 1.34 170 17:54 13.01.2022
4304 Clouds 0 1037 64 10000 0.45 238 16:21 13.01.2022
4305 Clouds 1 1041 60 10000 0.89 153 15:37 13.01.2022
4306 Clouds 0 1037 74 10000 1.28 101 14:47 13.01.2022
4307 Clear -1 1037 63 10000 1.36 83 12:46 13.01.2022
4308 Clear -1 1043 36 10000 0.45 172 10:25 13.01.2022
4309 Clear -8 1042 61 10000 2.5 147 09:20 13.01.2022
4310 Clear -9 1043 58 10000 2.79 153 08:27 13.01.2022
4311 Clear -9 1043 57 10000 2.73 154 07:24 13.01.2022
4312 Clear -9 1042 53 10000 2.74 152 05:59 13.01.2022
4313 Clear -8 1042 52 10000 2.72 152 05:19 13.01.2022
4314 Clear -8 1043 52 10000 2.55 153 02:33 13.01.2022
4315 Clear -7 1042 52 10000 2.68 158 00:55 13.01.2022
4316 Clear -8 1042 55 10000 2.56 158 23:49 12.01.2022
4317 Clear -8 1042 55 10000 2.56 158 23:49 12.01.2022
4318 Clear -7 1043 56 10000 2.63 157 23:20 12.01.2022
4319 Clear -7 1042 57 10000 2.62 155 21:57 12.01.2022
4320 Clear -6 1042 59 10000 2.67 156 21:22 12.01.2022
4321 Clear -6 1042 59 10000 2.67 156 20:56 12.01.2022
4322 Clear -7 1042 90 10000 2.54 158 19:45 12.01.2022
4323 Clouds -7 1034 87 10000 0.45 345 18:42 12.01.2022
4324 Clouds -5 1037 74 10000 1.34 158 17:22 12.01.2022
4325 Clouds -3 1037 70 10000 2.11 143 16:33 12.01.2022
4326 Clouds -1 1036 66 10000 1.53 42 14:48 12.01.2022
4327 Clouds -2 1036 49 10000 1.29 50 13:24 12.01.2022
4328 Clouds -4 1042 53 10000 1.34 179 10:56 12.01.2022
4329 Clear -8 1040 90 10000 2.31 149 08:43 12.01.2022
4330 Clear -8 1041 85 10000 0.45 192 07:50 12.01.2022
4331 Clear -8 1041 82 10000 0.45 192 07:31 12.01.2022
4332 Clouds -6 1035 89 10000 1.34 166 23:53 11.01.2022
4333 Clouds -6 1034 89 10000 2.78 153 22:56 11.01.2022
4334 Clouds -6 1034 89 10000 0.45 217 22:23 11.01.2022
4335 Clouds -5 1034 87 10000 0.45 271 20:56 11.01.2022
4336 Clouds -4 1039 88 10000 2.92 151 20:20 11.01.2022
4337 Clear -3 1038 87 10000 1.34 189 18:32 11.01.2022
4338 Clear -2 1037 87 10000 2.16 134 17:26 11.01.2022
4339 Clear -1 1031 84 10000 0.45 317 16:38 11.01.2022
4340 Clear 0 1027 83 10000 1.51 88 15:46 11.01.2022
4341 Clear 0 1027 84 10000 0.45 191 14:42 11.01.2022
4342 Clear 0 1027 84 10000 0.45 191 13:56 11.01.2022
4343 Clear 0 1027 84 10000 0.45 203 13:36 11.01.2022
4344 Clouds 0 1027 85 10000 1.66 57 12:48 11.01.2022
4345 Clouds -1 1031 85 10000 0.45 197 11:45 11.01.2022
4346 Clouds -3 1033 94 10000 1.97 133 09:39 11.01.2022
4347 Clouds -3 1034 94 10000 2.39 144 07:18 11.01.2022
4348 Clouds -1 1032 94 10000 2.32 138 00:32 11.01.2022
4349 Clouds -1 1032 93 10000 2.08 131 23:43 10.01.2022
4350 Clouds -1 1031 93 10000 1.97 128 23:22 10.01.2022
4351 Clouds -1 1031 93 8979 1.79 123 22:19 10.01.2022
4352 Clouds -2 1031 92 8979 0.45 100 21:54 10.01.2022
4353 Clouds -2 1031 92 3062 0.45 100 21:20 10.01.2022
4354 Clouds -2 1030 92 3062 0.89 348 20:57 10.01.2022
4355 Clouds -1 1030 92 1130 0.89 348 20:28 10.01.2022
4356 Clouds -2 1030 93 1130 1.43 97 19:44 10.01.2022
4357 Clouds -2 1030 93 1130 1.28 94 19:21 10.01.2022
4358 Clouds -2 1029 93 895 1.31 96 18:49 10.01.2022
4359 Clouds -1 1024 92 990 0.89 68 17:41 10.01.2022
4360 Clouds -1 1023 92 2455 1.79 343 16:42 10.01.2022
4361 Clouds -1 1022 92 613 1.79 343 15:49 10.01.2022
4362 Clouds 0 1017 90 804 2.29 19 14:30 10.01.2022
4363 Clouds -1 1019 91 7952 0.89 10 11:58 10.01.2022
4364 Clouds -1 1019 92 10000 0.89 10 11:25 10.01.2022
4365 Snow -2 1018 93 10000 0.45 141 09:52 10.01.2022
4366 Clouds -3 1015 92 3474 0.45 6 07:31 10.01.2022
4367 Clouds -2 1017 93 1457 1.47 152 05:49 10.01.2022
4368 Clouds -2 1016 91 7644 2.17 161 01:31 10.01.2022
4369 Clouds -2 1015 90 10000 2.56 161 00:25 10.01.2022
4370 Clouds -2 1015 90 10000 2.56 161 23:40 09.01.2022
4371 Clouds -2 1010 91 10000 0.45 303 22:38 09.01.2022
4372 Clouds -2 1014 89 10000 0.45 173 21:46 09.01.2022
4373 Clouds -2 1014 89 10000 0.45 173 21:24 09.01.2022
4374 Snow -1 1013 92 10000 0.45 193 20:52 09.01.2022
4375 Snow -2 1010 93 10000 0.45 207 20:34 09.01.2022
4376 Clouds -1 1009 94 4420 0.89 175 19:45 09.01.2022
4377 Clouds -1 1009 94 590 0.89 175 19:23 09.01.2022
4378 Clouds -1 1009 92 10000 2.06 182 18:56 09.01.2022
4379 Snow -1 1009 93 1352 0.45 220 18:34 09.01.2022
4380 Snow -1 1009 94 1305 1.34 85 17:40 09.01.2022
4381 Snow -1 1009 94 2515 1.34 85 17:20 09.01.2022
4382 Snow 0 1008 87 3099 0.89 219 15:58 09.01.2022
4383 Clouds 0 1008 87 3099 0.45 193 15:35 09.01.2022
4384 Clouds 1 1008 82 4627 0.45 111 14:40 09.01.2022
4385 Clouds 1 1008 83 3463 0.45 111 13:51 09.01.2022
4386 Snow 0 1008 83 10000 0.89 80 13:22 09.01.2022
4387 Snow 0 1008 92 2653 4.47 79 11:54 09.01.2022
4388 Snow 0 1008 93 146 0.45 64 10:53 09.01.2022
4389 Snow 0 1006 94 145 3.13 124 09:47 09.01.2022
4390 Snow 0 1005 92 141 3.13 124 08:51 09.01.2022
4391 Snow 1 1004 74 2729 2.92 218 05:21 09.01.2022
4392 Snow 0 1000 85 10000 0.89 175 01:24 09.01.2022
4393 Clouds -1 1003 87 10000 0.89 168 23:47 08.01.2022
4394 Clouds -2 1003 87 10000 0.89 168 23:26 08.01.2022
4395 Clouds -2 1005 84 10000 0.89 246 22:28 08.01.2022
4396 Clouds -1 1009 79 10000 0.89 244 21:25 08.01.2022
4397 Clouds -1 1011 77 10000 0.45 119 20:42 08.01.2022
4398 Clouds -1 1011 77 10000 0.45 119 20:20 08.01.2022
4399 Clouds -2 1010 85 10000 0.89 216 18:40 08.01.2022
4400 Clouds -1 1014 77 10000 1.34 168 17:22 08.01.2022
4401 Clouds 0 1016 82 10000 1.34 201 15:56 08.01.2022
4402 Clouds 0 1017 73 10000 0.89 122 14:46 08.01.2022
4403 Clouds 0 1018 75 6965 1.34 177 13:28 08.01.2022
4404 Snow -1 1018 80 2058 2.68 206 11:28 08.01.2022
4405 Snow -1 1017 82 431 3.13 184 10:28 08.01.2022
4406 Snow -1 1016 88 431 3.58 86 09:48 08.01.2022
4407 Snow -1 1015 88 5285 0.89 162 08:22 08.01.2022
4408 Clear -3 1015 87 10000 0.89 216 03:31 08.01.2022
4409 Clouds -1 1018 87 10000 1.34 218 00:42 08.01.2022
4410 Snow -1 1019 92 4438 2.13 197 22:49 07.01.2022
4411 Snow -2 1019 89 887 0.89 274 21:18 07.01.2022
4412 Snow -2 1019 88 1318 0.89 146 20:20 07.01.2022
4413 Snow -2 1021 91 5511 1.94 214 19:25 07.01.2022
4414 Clouds -2 1018 81 5795 0.89 356 18:45 07.01.2022
4415 Clouds -2 1018 77 10000 1.79 87 17:28 07.01.2022
4416 Clouds -2 1018 76 10000 1.34 142 16:41 07.01.2022
4417 Clouds -2 1016 82 10000 0.45 130 14:29 07.01.2022
4418 Clouds -1 1019 72 10000 0.89 173 13:41 07.01.2022
4419 Clouds -1 1016 81 10000 1.42 264 12:49 07.01.2022
4420 Clouds -1 1016 81 10000 1.42 264 12:49 07.01.2022
4421 Clouds -4 1025 59 10000 1.76 207 09:42 07.01.2022
4422 Clear -8 1022 88 10000 0.89 157 02:56 07.01.2022
4423 Clear -8 1018 91 10000 2.98 165 01:55 07.01.2022
4424 Clouds -7 1019 91 10000 0.45 243 01:28 07.01.2022
4425 Clouds -7 1023 89 10000 0.45 243 00:59 07.01.2022
4426 Clouds -7 1023 90 10000 0.89 173 00:28 07.01.2022
4427 Clouds -6 1023 90 10000 0.45 77 21:34 06.01.2022
4428 Clouds -5 1023 92 10000 2.1 158 20:22 06.01.2022
4429 Clouds -4 1023 92 10000 0.45 247 19:45 06.01.2022
4430 Clouds -3 1023 91 7112 0.45 126 18:34 06.01.2022
4431 Clouds -3 1022 91 990 0.45 123 17:41 06.01.2022
4432 Clouds -2 1022 91 804 0.45 123 16:52 06.01.2022
4433 Snow -2 1021 92 4347 0.45 297 15:48 06.01.2022
4434 Snow -1 1021 92 6866 0.45 297 15:26 06.01.2022
4435 Snow -1 1020 92 6866 0.45 297 14:51 06.01.2022
4436 Clouds -2 1020 91 10000 0.45 17 14:18 06.01.2022
4437 Snow -2 1021 89 10000 1.3 326 12:50 06.01.2022
4438 Snow -2 1021 89 6199 0.45 75 11:43 06.01.2022
4439 Snow -2 1021 88 10000 0.45 75 11:22 06.01.2022
4440 Clouds -3 1020 87 6663 0.45 248 08:52 06.01.2022
4441 Clouds -3 1022 88 10000 1.4 202 01:24 06.01.2022
4442 Clouds -3 1022 88 10000 1.47 201 23:38 05.01.2022
4443 Clouds -4 1022 86 10000 1.68 194 22:59 05.01.2022
4444 Clouds -4 1022 87 10000 1.68 194 22:33 05.01.2022
4445 Clouds -4 1021 87 10000 1.45 201 21:49 05.01.2022
4446 Clouds -4 1021 87 10000 1.66 201 21:20 05.01.2022
4447 Clouds -4 1021 85 10000 2.23 186 20:18 05.01.2022
4448 Clouds -3 1016 84 10000 0.45 129 18:44 05.01.2022
4449 Clouds -3 1020 83 10000 1.46 215 17:44 05.01.2022
4450 Clouds -2 1018 82 10000 1.38 235 16:51 05.01.2022
4451 Snow -1 1010 77 600 4.47 131 15:26 05.01.2022
4452 Snow -2 1012 91 148 1.34 318 13:52 05.01.2022
4453 Snow -1 1011 92 208 1.79 356 13:22 05.01.2022
4454 Snow 0 1008 94 159 0.45 213 10:34 05.01.2022
4455 Snow 1 1006 95 83 1.66 253 07:47 05.01.2022
4456 Snow 1 1006 95 83 1.66 253 07:47 05.01.2022
4457 Snow 1 1006 95 75 0.45 155 06:25 05.01.2022
4458 Clouds 5 1002 91 6547 3.13 348 00:58 05.01.2022
4459 Clouds 6 1004 89 10000 0.89 191 23:28 04.01.2022
4460 Rain 6 1004 89 10000 0.89 191 23:28 04.01.2022
4461 Clouds 7 1003 78 10000 0.45 56 22:46 04.01.2022
4462 Rain 8 1002 83 10000 2.78 182 21:24 04.01.2022
4463 Clouds 9 1002 83 10000 2.8 193 19:20 04.01.2022
4464 Clouds 10 1002 80 10000 3.08 188 17:52 04.01.2022
4465 Clouds 10 1001 78 10000 3.3 185 16:44 04.01.2022
4466 Clouds 10 1000 78 10000 3.48 185 16:24 04.01.2022
4467 Clouds 11 1000 49 10000 3.58 181 14:54 04.01.2022
4468 Clouds 11 1000 49 10000 3.58 181 14:34 04.01.2022
4469 Clouds 11 1001 52 10000 1.79 193 13:27 04.01.2022
4470 Clouds 8 1003 92 10000 1.34 215 10:41 04.01.2022
4471 Clouds 7 1004 93 10000 0.45 207 09:20 04.01.2022
4472 Rain 6 1004 84 10000 0.89 312 08:32 04.01.2022
4473 Rain 6 1010 75 10000 0.45 138 02:32 04.01.2022
4474 Clouds 6 1011 71 10000 1.98 210 00:41 04.01.2022
4475 Clouds 6 1012 66 10000 0.45 185 23:26 03.01.2022
4476 Clouds 6 1013 69 10000 1.34 159 21:52 03.01.2022
4477 Clouds 6 1014 71 10000 0.89 146 21:33 03.01.2022
4478 Clouds 6 1014 72 10000 1.34 220 20:22 03.01.2022
4479 Clouds 7 1015 73 10000 1.34 165 18:54 03.01.2022
4480 Clouds 7 1016 76 10000 0.89 183 18:28 03.01.2022
4481 Clouds 8 1016 71 10000 2.72 201 16:58 03.01.2022
4482 Clouds 9 1018 65 10000 0.45 227 15:39 03.01.2022
4483 Clouds 8 1018 65 10000 1.34 88 14:30 03.01.2022
4484 Clouds 9 1022 64 10000 0.89 140 12:46 03.01.2022
4485 Clouds 9 1022 64 10000 1.79 319 11:35 03.01.2022
4486 Clouds 8 1022 67 10000 1.79 162 10:27 03.01.2022
4487 Clouds 7 1024 88 10000 2.38 227 08:47 03.01.2022
4488 Clouds 7 1023 86 10000 2.5 214 07:34 03.01.2022
4489 Clouds 7 1023 86 10000 2.5 214 07:34 03.01.2022
4490 Clouds 7 1024 74 10000 2.7 228 23:55 02.01.2022
4491 Clouds 7 1020 67 10000 0.45 60 23:21 02.01.2022
4492 Clouds 7 1020 67 10000 0.45 60 22:53 02.01.2022
4493 Clouds 6 1020 68 10000 1.34 153 21:39 02.01.2022
4494 Clouds 7 1020 60 10000 0.45 92 20:33 02.01.2022
4495 Clouds 7 1020 59 10000 0.45 92 19:54 02.01.2022
4496 Clouds 8 1020 57 10000 1.79 137 19:29 02.01.2022
4497 Clouds 7 1021 58 10000 0.89 207 18:44 02.01.2022
4498 Clouds 8 1021 51 10000 1.34 245 17:43 02.01.2022
4499 Clouds 9 1021 51 10000 1.34 245 17:22 02.01.2022
4500 Clouds 10 1022 44 10000 1.34 245 16:59 02.01.2022
4501 Clouds 10 1022 48 10000 0.89 204 16:24 02.01.2022
4502 Clouds 11 1025 34 10000 1.79 192 14:21 02.01.2022
4503 Clouds 12 1022 38 10000 0.89 153 12:49 02.01.2022
4504 Clouds 11 1023 43 10000 1.79 181 11:57 02.01.2022
4505 Clouds 11 1023 28 10000 1.79 181 11:23 02.01.2022
4506 Clouds 8 1022 67 10000 2.65 194 10:44 02.01.2022
4507 Clouds 3 1024 60 10000 3.16 176 08:42 02.01.2022
4508 Clouds 2 1026 52 10000 3.05 174 03:25 02.01.2022
4509 Clouds 3 1027 52 10000 3.08 168 00:58 02.01.2022
4510 Clouds 3 1028 78 10000 3 172 23:39 01.01.2022
4511 Clouds 3 1028 79 10000 3.1 170 22:55 01.01.2022
4512 Clouds 3 1028 52 10000 3.14 169 22:19 01.01.2022
4513 Clouds 2 1028 52 10000 3.14 169 21:43 01.01.2022
4514 Clouds 3 1028 53 10000 3.13 169 20:53 01.01.2022
4515 Clouds 4 1028 77 10000 3.12 169 19:55 01.01.2022
4516 Clouds 4 1025 79 10000 0.45 210 18:58 01.01.2022
4517 Clouds 5 1025 75 10000 1.34 213 17:58 01.01.2022
4518 Clouds 8 1026 68 10000 0.45 276 16:37 01.01.2022
4519 Clouds 8 1026 68 10000 0.45 276 16:19 01.01.2022
4520 Clouds 11 1026 53 10000 2.02 172 15:22 01.01.2022
4521 Clouds 12 1027 46 10000 0.45 99 13:46 01.01.2022
4522 Clouds 11 1026 55 10000 0.45 99 12:49 01.01.2022
4523 Clouds 9 1027 61 10000 0.45 169 11:51 01.01.2022
4524 Clear 8 1028 70 10000 2.34 177 11:22 01.01.2022
4525 Clear 5 1029 79 10000 2.59 177 10:26 01.01.2022
4526 Clear 5 1029 68 10000 2.59 177 09:41 01.01.2022
4527 Clear 2 1031 85 10000 3.06 171 08:25 01.01.2022
4528 Clear 1 1031 86 10000 3.06 171 07:43 01.01.2022
4529 Clouds 2 1027 88 10000 0.45 146 06:46 01.01.2022
4530 Clear 2 1030 61 10000 2.86 177 05:26 01.01.2022
4531 Clear 2 1030 85 10000 2.86 177 04:37 01.01.2022
4532 Clear 4 1030 74 10000 3.03 181 00:53 01.01.2022
4533 Clear 5 1027 71 10000 0.89 135 23:22 31.12.2021
4534 Clear 6 1026 67 10000 0.89 232 21:52 31.12.2021
4535 Clear 6 1030 71 10000 2.97 201 20:33 31.12.2021
4536 Clear 6 1025 77 10000 1.34 164 19:30 31.12.2021
4537 Clear 7 1028 59 10000 3.44 187 18:32 31.12.2021
4538 Clear 8 1024 69 10000 1.79 225 17:38 31.12.2021
4539 Clear 8 1024 69 10000 1.79 225 17:18 31.12.2021
4540 Clear 8 1024 72 10000 0.89 224 16:21 31.12.2021
4541 Clear 8 1024 73 10000 0.89 224 15:53 31.12.2021
4542 Clear 11 1023 67 10000 0.45 244 15:28 31.12.2021
4543 Clear 12 1024 52 10000 0.45 192 14:47 31.12.2021
4544 Clear 11 1023 79 10000 0.45 192 14:28 31.12.2021
4545 Clear 11 1023 70 10000 0.89 145 13:36 31.12.2021
4546 Clear 10 1023 75 10000 0.89 128 12:45 31.12.2021
4547 Clear 8 1024 81 10000 2.55 190 11:43 31.12.2021
4548 Clear 8 1024 86 10000 2.71 182 11:24 31.12.2021
4549 Clear 6 1024 72 10000 2.71 182 10:34 31.12.2021
4550 Clear 5 1025 64 10000 2.92 178 09:52 31.12.2021
4551 Clear 4 1025 64 10000 2.92 178 09:32 31.12.2021
4552 Clear 3 1026 96 10000 3.26 173 08:25 31.12.2021
4553 Clear 3 1026 58 10000 3.26 173 07:30 31.12.2021
4554 Clouds 6 1026 95 10000 0.45 118 23:23 30.12.2021
4555 Clouds 6 1027 95 10000 1.34 144 22:33 30.12.2021
4556 Clouds 6 1025 95 10000 1.34 144 21:54 30.12.2021
4557 Clouds 6 1024 96 10000 0.45 226 21:36 30.12.2021
4558 Clouds 7 1026 94 10000 1.34 211 20:45 30.12.2021
4559 Clouds 8 1026 94 10000 1.34 211 20:24 30.12.2021
4560 Clouds 8 1026 92 10000 1.34 239 19:44 30.12.2021
4561 Clouds 8 1023 95 195 1.34 225 18:29 30.12.2021
4562 Clouds 8 1023 95 195 1.34 225 17:52 30.12.2021
4563 Clouds 9 1024 94 64 1.34 175 16:19 30.12.2021
4564 Clouds 10 1024 92 64 0.45 183 15:42 30.12.2021
4565 Clouds 10 1023 91 78 0.89 218 14:38 30.12.2021
4566 Clouds 10 1024 93 88 0.89 218 13:49 30.12.2021
4567 Clouds 9 1024 95 1751 1.34 135 12:40 30.12.2021
4568 Clouds 8 1025 96 2086 1.79 213 10:58 30.12.2021
4569 Clouds 7 1024 95 1835 1.34 162 09:58 30.12.2021
4570 Clouds 7 1024 95 1203 0.89 236 08:56 30.12.2021
4571 Rain 8 1022 93 208 2.68 189 06:52 30.12.2021
4572 Clouds 8 1020 96 88 1.34 150 03:42 30.12.2021
4573 Clouds 8 1019 96 93 1.34 81 02:47 30.12.2021
4574 Rain 7 1017 96 173 1.34 119 23:43 29.12.2021
4575 Clouds 6 1017 96 192 1.34 119 23:22 29.12.2021
4576 Clouds 6 1016 96 456 0.89 183 22:21 29.12.2021
4577 Rain 5 1015 96 456 0.89 182 21:33 29.12.2021
4578 Rain 5 1015 96 1021 1.34 129 20:38 29.12.2021
4579 Clouds 5 1014 95 2088 0.89 221 19:48 29.12.2021
4580 Clouds 4 1015 95 4776 0.89 221 18:52 29.12.2021
4581 Rain 4 1015 95 6707 0.89 214 17:56 29.12.2021
4582 Clouds 4 1015 95 565 1.79 211 17:28 29.12.2021
4583 Rain 5 1015 91 565 1.34 211 16:41 29.12.2021
4584 Rain 5 1015 89 198 1.34 211 15:59 29.12.2021
4585 Rain 6 1014 82 787 1.34 138 14:24 29.12.2021
4586 Clouds 5 1014 88 5564 1.34 169 12:39 29.12.2021
4587 Clouds 6 1015 80 10000 0.89 253 11:43 29.12.2021
4588 Clouds 5 1014 89 10000 0.45 75 09:59 29.12.2021
4589 Clouds 4 1013 94 6782 0.89 132 07:52 29.12.2021
4590 Clouds 4 1012 92 144 2.24 124 06:40 29.12.2021
4591 Clouds 4 1012 92 88 2.24 124 06:22 29.12.2021
4592 Clouds 5 1012 91 88 1.34 96 05:39 29.12.2021
4593 Clouds 5 1010 86 113 1.79 127 02:46 29.12.2021
4594 Clouds 5 1009 83 1765 1.79 124 00:23 29.12.2021
4595 Clouds 5 1008 84 1765 0.45 318 23:35 28.12.2021
4596 Clouds 5 1007 81 1033 0.89 170 22:42 28.12.2021
4597 Clouds 5 1007 83 125 0.89 170 22:24 28.12.2021
4598 Clouds 5 1008 89 125 2.24 184 21:38 28.12.2021
4599 Clouds 5 1007 91 203 1.79 120 20:40 28.12.2021
4600 Rain 5 1007 88 418 0.45 276 19:25 28.12.2021
4601 Clouds 5 1007 87 259 0.45 186 18:39 28.12.2021
4602 Clouds 5 1006 87 2848 0.45 186 17:59 28.12.2021
4603 Rain 6 1004 91 4661 0.89 134 16:34 28.12.2021
4604 Rain 6 1004 91 4661 0.89 134 16:34 28.12.2021
4605 Clouds 6 1004 93 1472 0.89 134 15:50 28.12.2021
4606 Clouds 6 1004 92 10000 0.89 161 15:21 28.12.2021
4607 Clouds 6 1004 90 10000 0.89 130 14:48 28.12.2021
4608 Clouds 6 1004 90 3841 0.89 130 14:21 28.12.2021
4609 Clouds 6 1005 92 3841 1.79 219 13:42 28.12.2021
4610 Clouds 6 1005 92 2494 1.79 219 13:24 28.12.2021
4611 Clouds 6 1005 91 2494 1.79 219 12:49 28.12.2021
4612 Clouds 5 1005 89 4220 1.79 146 11:46 28.12.2021
4613 Clouds 2 1003 97 10000 0.45 236 08:35 28.12.2021
4614 Snow 1 1002 96 10000 0.45 248 06:42 28.12.2021
4615 Clouds 3 1008 94 10000 1.34 157 23:44 27.12.2021
4616 Clouds 3 1008 94 10000 1.34 157 23:23 27.12.2021
4617 Rain 3 1007 91 10000 0.89 147 21:42 27.12.2021
4618 Clouds 3 1007 91 10000 0.89 147 21:21 27.12.2021
4619 Rain 3 1006 87 10000 0.45 176 20:23 27.12.2021
4620 Clouds 3 1006 83 10000 0.45 169 19:41 27.12.2021
4621 Clouds 4 1005 84 10000 0.45 146 18:34 27.12.2021
4622 Clouds 4 1005 86 10000 0.89 206 17:48 27.12.2021
4623 Clouds 4 1005 84 10000 0.45 253 16:40 27.12.2021
4624 Clouds 5 1003 74 10000 0.45 253 15:52 27.12.2021
4625 Clouds 7 1002 72 10000 0.89 176 14:33 27.12.2021
4626 Clouds 6 1003 74 10000 0.45 239 13:39 27.12.2021
4627 Clouds 6 1005 77 10000 0.45 223 12:36 27.12.2021
4628 Clouds 3 1006 85 10000 0.45 268 10:31 27.12.2021
4629 Clouds 1 1005 97 10000 0.45 108 09:47 27.12.2021
4630 Clouds 1 1007 94 10000 0.45 124 07:50 27.12.2021
4631 Clouds 1 1008 94 10000 0.89 120 07:29 27.12.2021
4632 Clouds 2 1008 94 10000 0.45 254 02:19 27.12.2021
4633 Clouds 3 1009 95 10000 0.89 204 23:58 26.12.2021
4634 Clouds 3 1009 95 10000 1.34 191 23:38 26.12.2021
4635 Clouds 3 1009 96 10000 0.89 152 22:34 26.12.2021
4636 Clouds 3 1009 96 10000 0.45 214 20:59 26.12.2021
4637 Clouds 3 1009 95 10000 0.45 296 19:47 26.12.2021
4638 Clouds 3 1009 96 10000 0.89 205 18:24 26.12.2021
4639 Clouds 3 1009 96 10000 0.45 97 17:24 26.12.2021
4640 Clouds 4 1009 96 8356 0.89 180 14:29 26.12.2021
4641 Clouds 4 1009 97 8356 0.89 135 13:40 26.12.2021
4642 Clouds 3 1009 96 1602 0.89 135 13:20 26.12.2021
4643 Clouds 3 1009 97 3266 0.87 258 12:33 26.12.2021
4644 Clouds 3 1009 97 5182 0.45 274 10:42 26.12.2021
4645 Clouds 2 1009 96 10000 0.89 174 09:26 26.12.2021
4646 Rain 2 1008 96 10000 0.9 230 08:44 26.12.2021
4647 Clouds 2 1008 96 10000 0.89 189 07:58 26.12.2021
4648 Clouds 2 1007 94 10000 2.24 188 01:29 26.12.2021
4649 Clouds 2 1007 93 10000 0.45 235 23:58 25.12.2021
4650 Clouds 2 1007 93 10000 1.72 171 23:27 25.12.2021
4651 Clouds 3 1007 93 10000 0.45 153 22:28 25.12.2021
4652 Clouds 3 1008 94 10000 0.89 155 21:00 25.12.2021
4653 Clouds 3 1007 93 10000 0.45 221 19:28 25.12.2021
4654 Clouds 3 1007 93 10000 0.45 221 18:56 25.12.2021
4655 Clouds 3 1007 93 10000 1.34 229 18:21 25.12.2021
4656 Clouds 4 1010 93 10000 1.98 182 16:42 25.12.2021
4657 Rain 4 1010 93 8501 1.5 191 15:26 25.12.2021
4658 Clouds 4 1008 93 3893 0.89 213 13:41 25.12.2021
4659 Clouds 4 1008 92 7791 0.45 293 11:54 25.12.2021
4660 Clouds 3 1008 91 10000 1.79 50 10:18 25.12.2021
4661 Clouds 3 1007 91 10000 0.45 218 09:42 25.12.2021
4662 Clouds 4 1008 90 10000 0.89 160 04:36 25.12.2021
4663 Clouds 3 1009 94 10000 0.45 221 01:30 25.12.2021
4664 Clouds 4 1008 93 10000 0.45 201 23:55 24.12.2021
4665 Rain 3 1010 95 1366 0.45 250 20:53 24.12.2021
4666 Clouds 3 1010 94 10000 1.79 108 19:25 24.12.2021
4667 Clouds 3 1010 93 7616 0.45 210 18:23 24.12.2021
4668 Clouds 3 1010 92 8725 0.45 255 16:30 24.12.2021
4669 Clouds 4 1010 90 1430 0.45 102 15:49 24.12.2021
4670 Clouds 4 1010 90 1212 0.45 102 15:20 24.12.2021
4671 Clouds 4 1010 89 1212 0.89 226 14:31 24.12.2021
4672 Clouds 4 1012 89 314 1.34 81 13:45 24.12.2021
4673 Clouds 5 1011 82 280 1.34 81 12:55 24.12.2021
4674 Clouds 5 1011 82 593 0.89 271 12:34 24.12.2021
4675 Clouds 5 1013 80 9180 0.45 192 11:42 24.12.2021
4676 Clouds 5 1013 80 10000 0.45 192 11:19 24.12.2021
4677 Clouds 5 1012 80 10000 0.45 211 10:33 24.12.2021
4678 Clouds 3 1013 89 10000 1.34 221 08:38 24.12.2021
4679 Clouds 2 1012 90 10000 1.34 221 07:58 24.12.2021
4680 Clouds 2 1011 90 10000 1.34 155 06:18 24.12.2021
4681 Clouds 4 1016 91 10000 1.34 234 00:21 24.12.2021
4682 Clouds 4 1016 89 10000 0.89 221 23:39 23.12.2021
4683 Clouds 4 1016 87 10000 0.89 221 22:50 23.12.2021
4684 Clouds 4 1016 84 10000 1.34 109 22:22 23.12.2021
4685 Clouds 4 1017 81 10000 1.34 216 21:39 23.12.2021
4686 Clouds 4 1017 78 10000 0.45 261 20:27 23.12.2021
4687 Clouds 4 1016 62 10000 0.45 308 19:28 23.12.2021
4688 Clouds 2 1014 65 10000 1.34 179 18:18 23.12.2021
4689 Clouds 2 1014 62 10000 0.45 290 17:29 23.12.2021
4690 Clouds 3 1016 47 10000 0.89 169 16:26 23.12.2021
4691 Clouds 4 1016 45 10000 0.45 271 15:33 23.12.2021
4692 Clouds 5 1016 42 10000 0.45 271 14:59 23.12.2021
4693 Clouds 5 1016 42 10000 0.89 221 14:39 23.12.2021
4694 Clouds 4 1020 44 10000 1.34 204 13:25 23.12.2021
4695 Clouds 5 1020 23 10000 0.89 189 11:49 23.12.2021
4696 Clouds -3 1019 57 10000 2.78 189 09:53 23.12.2021
4697 Clouds -3 1019 57 10000 2.78 189 09:53 23.12.2021
4698 Clouds -3 1019 57 10000 2.78 189 09:34 23.12.2021
4699 Clouds -6 1021 52 10000 3.49 180 08:28 23.12.2021
4700 Clouds -6 1021 52 10000 3.49 180 08:28 23.12.2021
4701 Clouds -6 1022 54 10000 3.3 182 05:30 23.12.2021
4702 Clouds -7 1024 53 10000 3.19 175 01:31 23.12.2021
4703 Clouds -8 1025 57 10000 3.19 169 22:51 22.12.2021
4704 Clouds -8 1025 58 10000 3.12 169 21:59 22.12.2021
4705 Clouds -8 1025 58 10000 3.12 169 21:30 22.12.2021
4706 Clouds -8 1025 58 10000 3.19 170 20:59 22.12.2021
4707 Clouds -8 1025 58 10000 3.19 170 20:40 22.12.2021
4708 Clouds -7 1025 60 10000 3.03 169 19:54 22.12.2021
4709 Clouds -7 1025 62 10000 2.85 171 18:55 22.12.2021
4710 Clouds -6 1025 66 10000 2.72 171 17:38 22.12.2021
4711 Clouds -4 1024 77 10000 1.84 170 16:22 22.12.2021
4712 Clear 0 1025 16 10000 0.45 174 14:28 22.12.2021
4713 Clear 1 1026 23 10000 0.45 183 12:53 22.12.2021
4714 Clear 1 1027 28 10000 0.45 134 11:42 22.12.2021
4715 Clear -6 1026 60 10000 1.91 162 09:52 22.12.2021
4716 Clear -9 1028 58 10000 2.82 164 07:57 22.12.2021
4717 Clear -8 1028 59 10000 2.75 164 05:54 22.12.2021
4718 Clear -8 1028 59 10000 2.75 164 05:34 22.12.2021
4719 Clear -8 1028 59 10000 2.72 166 04:57 22.12.2021
4720 Clear -8 1028 59 10000 2.72 166 04:37 22.12.2021
4721 Clear -7 1028 59 10000 2.73 166 03:49 22.12.2021
4722 Clear -7 1028 59 10000 2.73 166 03:31 22.12.2021
4723 Clear -7 1029 91 10000 2.71 173 23:48 21.12.2021
4724 Clear -7 1021 90 10000 0.45 220 22:41 21.12.2021
4725 Clear -7 1021 90 10000 0.45 220 21:56 21.12.2021
4726 Clear -7 1021 89 10000 2.47 172 21:32 21.12.2021
4727 Clear -7 1021 89 10000 2.67 174 20:24 21.12.2021
4728 Clear -7 1021 89 10000 2.67 174 19:55 21.12.2021
4729 Clear -8 1020 90 10000 2.67 174 19:33 21.12.2021
4730 Clear -8 1020 89 10000 0.45 321 18:23 21.12.2021
4731 Clear -7 1020 89 10000 0.45 321 17:53 21.12.2021
4732 Clear -5 1019 85 10000 2.27 169 16:47 21.12.2021
4733 Clear -3 1022 64 10000 0.45 153 15:34 21.12.2021
4734 Clear -2 1024 42 10000 0.82 357 14:20 21.12.2021
4735 Clear -3 1021 71 10000 0.82 357 13:41 21.12.2021
4736 Clouds -1 1025 39 10000 0.92 336 12:25 21.12.2021
4737 Clouds -4 1022 59 10000 0.22 190 10:38 21.12.2021
4738 Clouds -5 1024 60 10000 1.5 170 09:42 21.12.2021
4739 Clouds -7 1025 58 10000 2.45 165 08:55 21.12.2021
4740 Clouds -9 1026 91 10000 2.69 163 07:42 21.12.2021
4741 Clouds -10 1026 91 10000 2.64 163 07:19 21.12.2021
4742 Clouds -7 1026 64 10000 2.62 158 03:24 21.12.2021
4743 Clouds -5 1028 78 10000 2.67 155 01:20 21.12.2021
4744 Clear -6 1030 91 10000 2.64 155 23:54 20.12.2021
4745 Clear -6 1025 90 10000 0.45 213 22:35 20.12.2021
4746 Clear -5 1025 91 10000 0.45 213 21:51 20.12.2021
4747 Clear -6 1025 90 10000 0.45 233 21:24 20.12.2021
4748 Clear -5 1025 90 10000 0.45 233 20:51 20.12.2021
4749 Clear -5 1025 90 10000 0.45 74 20:19 20.12.2021
4750 Clear -4 1025 90 10000 0.89 227 19:36 20.12.2021
4751 Clouds -4 1025 90 10000 0.89 227 19:18 20.12.2021
4752 Clear -4 1025 89 10000 0.45 219 18:28 20.12.2021
4753 Clear -3 1025 89 10000 0.45 219 17:49 20.12.2021
4754 Clear -2 1025 84 10000 0.45 191 16:45 20.12.2021
4755 Clouds 0 1021 79 10000 0.45 191 15:55 20.12.2021
4756 Clouds 1 1021 77 10000 0.45 219 15:31 20.12.2021
4757 Clouds 1 1021 75 10000 0.89 232 13:31 20.12.2021
4758 Clear -1 1024 86 10000 0.81 26 11:36 20.12.2021
4759 Clear -2 1022 89 10000 0.89 171 10:35 20.12.2021
4760 Clear -3 1026 91 10000 0.45 198 09:38 20.12.2021
4761 Clouds -4 1026 92 10000 0.45 222 08:44 20.12.2021
4762 Clouds -5 1026 92 10000 0.45 222 08:00 20.12.2021
4763 Clouds -5 1026 93 10000 1.34 208 07:31 20.12.2021
4764 Clear -5 1026 93 10000 0.89 140 06:32 20.12.2021
4765 Clear -5 1028 65 10000 2.45 188 00:19 20.12.2021
4766 Clear -4 1028 90 10000 2.36 184 22:56 19.12.2021
4767 Clear -4 1028 85 10000 2.3 180 21:58 19.12.2021
4768 Clear -3 1028 85 10000 2.3 180 21:32 19.12.2021
4769 Clear -3 1028 86 10000 2.3 173 20:35 19.12.2021
4770 Clear -3 1027 85 10000 2.55 172 19:53 19.12.2021
4771 Clear -2 1028 85 10000 2.44 170 19:32 19.12.2021
4772 Clear -2 1023 90 10000 0.45 221 18:30 19.12.2021
4773 Clear -2 1023 89 10000 0.45 221 17:53 19.12.2021
4774 Clear -2 1028 86 10000 2.76 171 17:21 19.12.2021
4775 Clear 2 1026 71 10000 0.45 212 16:27 19.12.2021
4776 Clear 2 1026 68 10000 0.45 212 15:50 19.12.2021
4777 Clear 4 1026 65 10000 0.45 214 15:23 19.12.2021
4778 Clear 3 1026 65 10000 0.89 145 14:44 19.12.2021
4779 Clear 4 1031 48 9147 0.89 154 13:26 19.12.2021
4780 Clear 3 1032 51 9147 0.89 163 12:47 19.12.2021
4781 Clear 4 1032 51 10000 0.89 163 12:28 19.12.2021
4782 Clear 3 1032 52 10000 0.92 153 11:26 19.12.2021
4783 Clear -2 1031 74 10000 1.7 162 10:28 19.12.2021
4784 Clear -3 1031 74 10000 1.7 162 09:48 19.12.2021
4785 Clear -4 1033 74 10000 2.21 162 08:43 19.12.2021
4786 Clear -4 1034 72 10000 2.19 168 04:45 19.12.2021
4787 Clear -3 1035 70 10000 2.15 167 01:33 19.12.2021
4788 Clear -3 1035 70 10000 2.03 165 00:52 19.12.2021
4789 Clear -4 1035 70 10000 2.2 170 22:37 18.12.2021
4790 Clouds -4 1035 70 10000 2.32 167 21:58 18.12.2021
4791 Clouds -4 1035 70 10000 2.32 167 21:35 18.12.2021
4792 Clouds -3 1035 71 10000 2.41 161 20:44 18.12.2021
4793 Clear -3 1035 71 10000 2.51 158 20:18 18.12.2021
4794 Clear -3 1035 70 10000 2.69 154 19:20 18.12.2021
4795 Clear -3 1034 75 10000 2.77 149 18:21 18.12.2021
4796 Clear -2 1034 75 10000 2.77 149 17:48 18.12.2021
4797 Clear 1 1036 49 10000 0.89 160 16:26 18.12.2021
4798 Clear 1 1036 49 10000 0.89 160 16:26 18.12.2021
4799 Clear 2 1036 51 10000 0.89 172 15:27 18.12.2021
4800 Clear 3 1036 45 10000 1.82 111 14:48 18.12.2021
4801 Clear 1 1033 75 10000 1.64 99 13:21 18.12.2021
4802 Clear 2 1039 51 10000 0.45 197 11:22 18.12.2021
4803 Clear 0 1040 54 10000 0.89 162 09:40 18.12.2021
4804 Clear -2 1038 68 10000 2.79 144 08:47 18.12.2021
4805 Clear -3 1038 70 10000 3.01 147 08:23 18.12.2021
4806 Clouds -2 1038 74 10000 2.8 145 03:42 18.12.2021
4807 Clear -2 1039 74 10000 2.65 146 00:28 18.12.2021
4808 Clear -1 1039 74 10000 2.65 146 23:44 17.12.2021
4809 Clear 0 1040 62 10000 0.45 192 21:57 17.12.2021
4810 Clear -2 1040 82 10000 0.45 192 21:18 17.12.2021
4811 Clear -2 1040 93 10000 2.47 143 20:38 17.12.2021
4812 Clear -2 1033 93 10000 0.45 319 19:19 17.12.2021
4813 Clear -2 1034 92 10000 1.34 154 18:38 17.12.2021
4814 Clear -1 1033 91 10000 0.45 225 17:31 17.12.2021
4815 Clear 1 1035 76 10000 0.45 157 16:46 17.12.2021
4816 Clear 1 1035 76 10000 0.45 157 16:46 17.12.2021
4817 Clear 1 1035 72 10000 0.45 157 16:22 17.12.2021
4818 Clear 2 1038 70 10000 0.89 178 15:21 17.12.2021
4819 Clear 2 1038 70 10000 0.89 178 15:21 17.12.2021
4820 Clear 3 1039 67 10000 0.95 122 14:39 17.12.2021
4821 Clear 3 1038 46 7287 0.89 154 12:46 17.12.2021
4822 Clear 1 1034 80 10000 1.33 103 11:34 17.12.2021
4823 Clear 1 1039 60 10000 0.89 168 10:37 17.12.2021
4824 Clear -1 1039 60 10000 0.89 176 09:31 17.12.2021
4825 Clear -1 1040 72 10000 0.89 151 08:30 17.12.2021
4826 Clear -2 1041 79 10000 2.64 143 05:58 17.12.2021
4827 Clear -1 1037 88 10000 0.89 197 02:53 17.12.2021
4828 Clouds -1 1036 84 10000 0.89 231 23:23 16.12.2021
4829 Clouds -1 1036 85 10000 1.34 156 22:24 16.12.2021
4830 Clouds -1 1036 85 10000 1.34 156 22:24 16.12.2021
4831 Clouds -1 1037 90 10000 1.34 156 21:50 16.12.2021
4832 Clouds -1 1038 90 10000 0.89 131 21:25 16.12.2021
4833 Clouds -1 1037 88 10000 0.89 168 20:30 16.12.2021
4834 Clouds -1 1037 90 10000 0.89 126 19:42 16.12.2021
4835 Clouds -1 1037 92 10000 0.45 98 18:38 16.12.2021
4836 Clouds 0 1033 90 10000 0.45 98 17:56 16.12.2021
4837 Clouds 0 1033 92 10000 0.89 149 17:28 16.12.2021
4838 Clouds 0 1033 93 10000 1.79 138 16:21 16.12.2021
4839 Clouds 1 1036 89 10000 1.42 50 14:50 16.12.2021
4840 Clouds 0 1035 88 10000 1.49 28 13:25 16.12.2021
4841 Clouds 0 1035 84 10000 0.64 61 11:20 16.12.2021
4842 Clouds 0 1039 70 10000 0.64 61 10:58 16.12.2021
4843 Clouds 0 1039 70 10000 0.6 123 10:20 16.12.2021
4844 Clouds -1 1034 91 10000 0.45 262 07:31 16.12.2021
4845 Clouds -2 1031 97 10000 1.4 174 06:19 16.12.2021
4846 Clouds -2 1035 95 10000 1.86 165 00:54 16.12.2021
4847 Clouds -1 1035 80 10000 1.93 167 23:22 15.12.2021
4848 Clouds -2 1034 95 10000 1.83 166 22:29 15.12.2021
4849 Clouds -2 1034 95 10000 1.83 166 21:52 15.12.2021
4850 Clouds -1 1030 97 10000 0.45 211 21:26 15.12.2021
4851 Clouds -1 1030 96 10000 2.02 165 19:55 15.12.2021
4852 Clouds -1 1029 94 10000 2.02 165 19:36 15.12.2021
4853 Clouds -1 1029 94 10000 1.97 161 18:36 15.12.2021
4854 Clouds -1 1029 93 10000 2.09 158 17:51 15.12.2021
4855 Clouds 0 1028 91 10000 2.09 158 17:32 15.12.2021
4856 Clouds 2 1030 83 10000 0.45 238 16:27 15.12.2021
4857 Clouds 1 1028 86 10000 0.45 337 15:46 15.12.2021
4858 Clouds 4 1030 71 9060 0.45 337 15:27 15.12.2021
4859 Clouds 5 1030 72 2605 0.89 347 14:18 15.12.2021
4860 Clouds 5 1031 72 5890 0.89 157 12:24 15.12.2021
4861 Clouds 0 1031 78 10000 1.29 162 10:24 15.12.2021
4862 Clouds -2 1028 96 10000 0.45 274 08:48 15.12.2021
4863 Clouds -1 1028 95 10000 2.05 163 05:59 15.12.2021
4864 Clouds 1 1027 93 10000 1.98 173 00:52 15.12.2021
4865 Clouds 1 1027 92 10000 1.78 177 23:41 14.12.2021
4866 Clouds 1 1027 94 10000 1.53 170 22:48 14.12.2021
4867 Clouds 1 1027 94 10000 1.77 165 21:51 14.12.2021
4868 Clouds 1 1027 94 10000 0.45 233 20:27 14.12.2021
4869 Clouds 1 1026 93 10000 0.45 292 19:40 14.12.2021
4870 Clouds 2 1027 92 10000 1.34 115 18:42 14.12.2021
4871 Clouds 2 1027 92 10000 1.34 115 17:58 14.12.2021
4872 Clouds 2 1026 92 10000 0.89 180 17:27 14.12.2021
4873 Clouds 3 1026 90 10000 0.45 133 16:38 14.12.2021
4874 Clouds 4 1026 88 10000 2.24 147 14:52 14.12.2021
4875 Clouds 4 1027 91 10000 0.85 212 13:31 14.12.2021
4876 Clouds 3 1027 75 10000 1.49 194 11:57 14.12.2021
4877 Clouds 1 1028 70 10000 2.06 175 11:23 14.12.2021
4878 Clouds 0 1029 64 10000 2.23 171 09:56 14.12.2021
4879 Clouds -1 1029 64 10000 2.23 171 09:34 14.12.2021
4880 Clouds -2 1030 62 10000 2.95 166 08:23 14.12.2021
4881 Clouds -2 1030 62 10000 2.95 166 07:43 14.12.2021
4882 Clear -1 1026 98 10000 0.45 194 01:46 14.12.2021
4883 Clear -1 1027 97 10000 0.45 120 22:49 13.12.2021
4884 Clear 0 1026 97 10000 0.45 220 21:52 13.12.2021
4885 Clear 0 1026 98 10000 0.45 234 20:59 13.12.2021
4886 Clear 0 1027 98 10000 0.45 162 20:31 13.12.2021
4887 Clear 1 1027 98 10000 0.45 162 19:52 13.12.2021
4888 Clouds 2 1028 97 10000 0.45 144 17:56 13.12.2021
4889 Clouds 2 1031 96 2100 0.45 151 17:23 13.12.2021
4890 Clouds 2 1031 96 2100 0.45 151 17:23 13.12.2021
4891 Clouds 4 1031 97 758 0.45 160 15:49 13.12.2021
4892 Clouds 4 1031 96 60 0.45 160 15:18 13.12.2021
4893 Clouds 5 1031 97 90 0.45 197 13:38 13.12.2021
4894 Clouds 5 1031 98 95 0.45 87 12:42 13.12.2021
4895 Clouds 4 1031 96 92 1.33 116 11:54 13.12.2021
4896 Clouds 4 1031 96 92 1.33 116 11:35 13.12.2021
4897 Clouds 3 1032 96 160 0.45 143 10:43 13.12.2021
4898 Clouds 1 1028 99 1214 1.23 126 08:52 13.12.2021
4899 Snow 0 1028 98 1063 1.31 144 07:38 13.12.2021
4900 Clouds 1 1027 95 6942 1.23 135 05:34 13.12.2021
4901 Clouds 1 1032 93 7256 1.26 149 00:43 13.12.2021
4902 Clouds 1 1033 86 10000 1.64 175 21:59 12.12.2021
4903 Clouds 1 1033 86 10000 1.64 175 21:33 12.12.2021
4904 Clouds 1 1033 80 10000 2.06 181 19:40 12.12.2021
4905 Clouds 1 1029 80 10000 2.19 176 18:35 12.12.2021
4906 Clouds 1 1029 79 10000 1.34 168 16:58 12.12.2021
4907 Clouds 1 1028 79 10000 1.34 183 16:27 12.12.2021
4908 Clouds 2 1028 79 10000 0.45 175 15:41 12.12.2021
4909 Clouds 2 1028 78 10000 0.45 175 15:21 12.12.2021
4910 Clouds 2 1025 79 10000 0.89 181 14:28 12.12.2021
4911 Clouds 1 1026 72 10000 1.34 164 12:55 12.12.2021
4912 Clouds 1 1028 81 10000 1.11 250 12:24 12.12.2021
4913 Clouds 1 1026 83 10000 0.89 202 11:43 12.12.2021
4914 Clouds -1 1035 81 10000 1.44 217 10:45 12.12.2021
4915 Clouds -2 1035 81 10000 1.89 187 10:21 12.12.2021
4916 Clouds -4 1030 92 10000 1.34 175 08:53 12.12.2021
4917 Clouds -4 1034 91 10000 2.6 177 07:31 12.12.2021
4918 Clouds -3 1033 90 10000 2.75 173 05:56 12.12.2021
4919 Clouds -2 1033 91 10000 2.6 173 04:55 12.12.2021
4920 Clouds -1 1033 92 10000 2.61 170 02:52 12.12.2021
4921 Clouds -1 1031 96 8816 2.4 183 23:30 11.12.2021
4922 Clouds -1 1030 97 8999 2.4 184 22:21 11.12.2021
4923 Clouds -1 1030 97 8999 2.4 184 21:50 11.12.2021
4924 Clouds -1 1029 90 4503 1.96 203 20:21 11.12.2021
4925 Clouds -1 1028 92 1291 1.62 218 19:21 11.12.2021
4926 Clouds -1 1027 94 1417 1.47 232 18:50 11.12.2021
4927 Snow -1 1022 93 922 0.89 147 17:56 11.12.2021
4928 Snow -1 1025 93 610 1.15 277 16:40 11.12.2021
4929 Snow 0 1023 94 823 1.45 297 15:46 11.12.2021
4930 Snow 0 1022 93 788 1.74 298 14:54 11.12.2021
4931 Snow 0 1020 92 804 1.82 278 12:41 11.12.2021
4932 Snow 0 1020 91 285 1.74 263 11:18 11.12.2021
4933 Snow 0 1016 90 325 1.88 255 09:45 11.12.2021
4934 Snow 0 1013 88 1245 2.44 223 05:36 11.12.2021
4935 Snow 0 1009 83 3296 2.25 238 00:50 11.12.2021
4936 Snow 1 1007 81 287 2.39 262 23:45 10.12.2021
4937 Snow 1 1006 79 121 2.3 261 23:18 10.12.2021
4938 Snow 0 1005 94 113 2.23 254 21:51 10.12.2021
4939 Snow 0 1000 93 126 0.45 248 20:35 10.12.2021
4940 Rain 0 999 94 177 2.45 199 19:19 10.12.2021
4941 Snow 0 998 95 1066 0.45 213 17:54 10.12.2021
4942 Snow -1 999 93 2820 2.77 184 16:41 10.12.2021
4943 Snow -1 999 93 4983 2.85 182 15:47 10.12.2021
4944 Snow -1 998 91 3636 3.01 175 15:28 10.12.2021
4945 Snow -1 998 91 3636 3.01 175 14:56 10.12.2021
4946 Snow -2 997 91 7464 2.63 183 13:50 10.12.2021
4947 Clouds -2 997 67 10000 2.37 183 13:18 10.12.2021
4948 Snow -3 997 64 10000 2.62 185 12:23 10.12.2021
4949 Snow -2 998 48 5298 1.79 197 11:27 10.12.2021
4950 Clouds -4 999 67 10000 3.47 168 09:54 10.12.2021
4951 Clouds -8 1001 67 10000 3.97 159 08:23 10.12.2021
4952 Clouds -9 999 92 10000 0.45 216 05:46 10.12.2021
4953 Clear -7 1009 81 10000 3.81 155 02:47 10.12.2021
4954 Clouds -1 1014 84 10000 3.43 166 23:43 09.12.2021
4955 Clouds -1 1015 87 10000 3.29 173 22:44 09.12.2021
4956 Clouds 0 1015 89 10000 3.15 175 22:23 09.12.2021
4957 Clouds -1 1015 89 10000 3.15 175 21:40 09.12.2021
4958 Clouds 0 1015 92 10000 3 179 20:38 09.12.2021
4959 Clouds -3 1015 87 10000 2.54 189 19:46 09.12.2021
4960 Clouds -2 1015 91 10000 1.87 201 19:21 09.12.2021
4961 Clouds -1 1011 94 10000 0.45 153 18:24 09.12.2021
4962 Clouds -1 1011 94 10000 0.45 153 17:51 09.12.2021
4963 Snow -1 1010 94 1102 0.89 315 17:24 09.12.2021
4964 Snow -1 1010 95 1102 0.45 212 16:43 09.12.2021
4965 Snow -1 1010 95 502 1.34 69 15:31 09.12.2021
4966 Snow -1 1010 95 214 1.74 294 14:43 09.12.2021
4967 Snow -1 1009 96 120 0.89 157 12:49 09.12.2021
4968 Snow -1 1009 96 107 1.88 309 12:24 09.12.2021
4969 Snow -1 1009 96 111 1.61 303 10:47 09.12.2021
4970 Snow -1 1008 97 83 1.62 307 08:19 09.12.2021
4971 Snow -1 1005 96 92 1.07 292 03:59 09.12.2021
4972 Snow -1 1005 96 91 1.27 297 01:43 09.12.2021
4973 Snow -1 1004 96 106 0.45 100 23:38 08.12.2021
4974 Snow -1 1003 96 101 0.45 100 22:59 08.12.2021
4975 Snow -1 1003 95 101 0.45 216 22:37 08.12.2021
4976 Snow -1 1003 95 100 1.44 296 21:39 08.12.2021
4977 Snow -1 1003 95 100 1.44 296 21:39 08.12.2021
4978 Snow -1 1003 95 103 1.35 307 20:58 08.12.2021
4979 Snow -1 1003 95 108 0.89 71 19:57 08.12.2021
4980 Snow -1 1002 96 104 0.89 82 19:29 08.12.2021
4981 Clouds -1 1002 96 790 0.45 130 18:28 08.12.2021
4982 Snow 0 1002 96 2950 1.34 147 17:24 08.12.2021
4983 Snow 0 1001 95 1382 0.45 13 15:45 08.12.2021
4984 Snow 0 1001 95 4456 0.45 13 15:23 08.12.2021
4985 Snow 0 1002 95 10000 0.57 342 13:27 08.12.2021
4986 Snow 0 1003 94 8799 0.89 203 10:45 08.12.2021
4987 Snow 0 1003 94 10000 0.89 203 10:23 08.12.2021
4988 Snow -1 1003 81 10000 0.45 178 08:54 08.12.2021
4989 Snow -2 1002 88 5159 0.45 230 06:36 08.12.2021
4990 Clouds -4 1006 68 10000 3.39 161 01:20 08.12.2021
4991 Clouds -4 1008 63 10000 3.78 158 23:23 07.12.2021
4992 Clouds -6 1007 86 10000 4.26 158 21:26 07.12.2021
4993 Clouds -5 1008 88 10000 0.45 236 20:26 07.12.2021
4994 Clouds -5 1008 88 10000 0.45 236 20:26 07.12.2021
4995 Clouds -5 1009 85 10000 0.45 173 19:23 07.12.2021
4996 Clouds -3 1009 84 10000 0.45 237 18:32 07.12.2021
4997 Clouds -3 1017 81 10000 3.55 166 17:27 07.12.2021
4998 Clouds -2 1017 57 10000 2.24 191 16:56 07.12.2021
4999 Clouds -1 1014 72 10000 2.68 216 16:26 07.12.2021
5000 Clouds 1 1015 71 10000 0.89 154 14:38 07.12.2021
5001 Clouds 2 1014 70 10000 0.45 159 13:41 07.12.2021
5002 Snow 0 1017 82 2773 2.24 89 12:22 07.12.2021
5003 Snow -1 1017 88 1928 0.89 116 11:23 07.12.2021
5004 Snow -1 1017 84 1054 0.89 330 09:40 07.12.2021
5005 Snow -1 1016 93 115 0.45 143 07:50 07.12.2021
5006 Snow -2 1015 92 358 0.45 271 05:52 07.12.2021
5007 Snow -2 1015 91 407 0.89 188 05:26 07.12.2021
5008 Clouds -4 1016 84 10000 0.89 203 23:36 06.12.2021
5009 Clouds -5 1012 90 10000 0.45 165 22:41 06.12.2021
5010 Clouds -4 1012 90 10000 0.45 165 21:59 06.12.2021
5011 Clouds -4 1019 92 10000 2.86 182 21:31 06.12.2021
5012 Clouds -5 1020 89 10000 3.13 169 20:32 06.12.2021
5013 Clouds -4 1020 93 10000 2.99 172 19:24 06.12.2021
5014 Clouds -4 1020 93 10000 2.99 172 18:42 06.12.2021
5015 Clouds -1 1021 94 10000 2.73 182 17:54 06.12.2021
5016 Clouds -1 1021 94 10000 2.74 182 17:33 06.12.2021
5017 Snow -1 1020 87 10000 0.97 229 15:52 06.12.2021
5018 Clouds 0 1020 88 10000 0.89 189 14:40 06.12.2021
5019 Clouds -1 1020 86 10000 0.45 176 13:28 06.12.2021
5020 Clouds 0 1016 91 10000 1.06 284 12:37 06.12.2021
5021 Clouds -1 1019 88 6854 0.48 258 10:23 06.12.2021
5022 Snow -2 1017 89 429 0.45 151 07:41 06.12.2021
5023 Clouds -1 1015 93 10000 2.21 167 02:28 06.12.2021
5024 Clouds -3 1013 93 10000 2.36 166 22:26 05.12.2021
5025 Clouds -1 1013 94 10000 2.15 169 21:25 05.12.2021
5026 Clouds -1 1012 85 10000 0.89 164 20:52 05.12.2021
5027 Clouds -1 1012 86 10000 0.89 164 20:18 05.12.2021
5028 Clouds -1 1011 87 4696 0.89 160 19:24 05.12.2021
5029 Clouds 0 1011 92 10000 2.1 166 18:29 05.12.2021
5030 Clouds 0 1011 92 10000 2.1 166 17:52 05.12.2021
5031 Clouds 0 1011 92 10000 2.1 166 17:34 05.12.2021
5032 Clouds -2 1010 79 10000 0.45 164 16:36 05.12.2021
5033 Clouds -1 1010 79 10000 0.45 164 16:18 05.12.2021
5034 Clouds 2 1006 80 10000 0.45 181 14:48 05.12.2021
5035 Clouds 2 1006 82 10000 0.45 181 14:30 05.12.2021
5036 Clouds 1 1006 84 10000 0.84 297 13:35 05.12.2021
5037 Clouds 2 1004 84 10000 1.34 152 12:45 05.12.2021
5038 Clouds 1 1006 84 10000 1.34 152 12:26 05.12.2021
5039 Clouds 0 1007 85 10000 0.89 121 11:44 05.12.2021
5040 Clouds 0 1007 88 10000 0.89 212 10:25 05.12.2021
5041 Clouds -1 1008 87 10000 0.89 215 09:47 05.12.2021
5042 Snow 0 1007 90 275 2.24 83 06:30 05.12.2021
5043 Rain 0 1007 93 205 1.34 83 01:29 05.12.2021
5044 Clouds 2 1003 90 62 1.79 89 22:45 04.12.2021
5045 Rain 3 1003 90 85 1.79 89 21:51 04.12.2021
5046 Clouds 4 1003 93 142 0.45 160 20:47 04.12.2021
5047 Rain 4 1002 92 7631 0.45 160 19:54 04.12.2021
5048 Clouds 3 1002 92 7631 1.34 167 19:30 04.12.2021
5049 Rain 3 1003 97 140 1.34 247 17:53 04.12.2021
5050 Rain 3 1006 96 140 2.26 249 17:35 04.12.2021
5051 Rain 3 1005 95 163 0.89 187 16:47 04.12.2021
5052 Rain 3 1005 95 1535 0.89 187 16:28 04.12.2021
5053 Clouds 3 1004 95 1439 0.45 161 13:30 04.12.2021
5054 Clouds 2 1003 95 10000 3.12 179 11:41 04.12.2021
5055 Clouds 2 1004 95 5479 3.31 185 11:19 04.12.2021
5056 Snow 1 1004 95 10000 3.43 185 09:57 04.12.2021
5057 Snow 1 1003 96 5908 0.89 202 08:38 04.12.2021
5058 Snow 0 1007 93 5282 0.89 219 05:18 04.12.2021
5059 Snow -1 1005 92 5282 2.74 199 04:39 04.12.2021
5060 Clouds -3 1009 89 10000 0.45 107 23:48 03.12.2021
5061 Clouds -3 1009 88 10000 0.45 107 22:54 03.12.2021
5062 Clouds -4 1010 88 10000 0.45 272 21:58 03.12.2021
5063 Clouds -4 1011 87 10000 3.41 170 21:24 03.12.2021
5064 Clouds -4 1012 86 10000 1.34 221 20:43 03.12.2021
5065 Clouds -4 1020 87 10000 3.16 174 19:29 03.12.2021
5066 Clouds -4 1021 74 10000 3.33 174 18:25 03.12.2021
5067 Clouds -4 1013 84 10000 1.34 157 17:42 03.12.2021
5068 Clear 0 1013 76 10000 0.89 211 13:48 03.12.2021
5069 Clouds 0 1013 80 10000 0.89 211 12:51 03.12.2021
5070 Clouds -1 1014 89 10000 0.89 137 11:24 03.12.2021
5071 Clouds -2 1019 94 10000 1.85 190 09:44 03.12.2021
5072 Clouds -3 1021 95 3007 2.19 196 08:21 03.12.2021
5073 Snow -3 1019 95 1832 1.45 221 07:29 03.12.2021
5074 Snow -2 1009 95 210 0.45 259 01:51 03.12.2021
5075 Snow -2 1008 95 168 1.34 139 00:42 03.12.2021
5076 Snow -2 1007 96 134 0.45 134 23:42 02.12.2021
5077 Snow -1 1006 97 97 0.45 173 21:42 02.12.2021
5078 Snow -1 1006 96 88 0.45 173 20:56 02.12.2021
5079 Snow -1 1005 96 88 0.45 119 20:35 02.12.2021
5080 Snow -1 1005 96 88 0.45 119 20:35 02.12.2021
5081 Clouds -1 1004 96 109 2.68 340 19:24 02.12.2021
5082 Snow 0 1003 92 85 0.89 149 17:36 02.12.2021
5083 Snow 2 1002 87 227 1.47 291 15:42 02.12.2021
5084 Clouds 2 1002 88 756 1.56 289 14:57 02.12.2021
5085 Clouds 2 1002 89 2814 0.45 183 13:56 02.12.2021
5086 Clouds 2 1003 90 6443 0.45 208 12:52 02.12.2021
5087 Clouds 2 1003 90 5708 0.45 208 12:52 02.12.2021
5088 Clouds 2 1003 83 6860 0.45 165 11:55 02.12.2021
5089 Rain 1 1003 90 7526 1.34 304 09:34 02.12.2021
5090 Rain 1 1003 89 5879 0.89 234 08:35 02.12.2021
5091 Clouds 3 1004 83 107 0.89 204 03:39 02.12.2021
5092 Clouds 3 1004 89 46 0.45 4 00:51 02.12.2021
5093 Clouds 3 1004 92 60 0.89 160 22:51 01.12.2021
5094 Clouds 3 1005 90 82 1.79 120 22:23 01.12.2021
5095 Rain 4 1005 84 178 2.24 287 20:36 01.12.2021
5096 Rain 4 1005 84 178 2.24 287 20:36 01.12.2021
5097 Rain 4 1004 86 137 2.24 287 19:51 01.12.2021
5098 Rain 4 1004 87 113 1.79 219 19:25 01.12.2021
5099 Rain 4 1001 82 358 0.89 224 17:45 01.12.2021
5100 Rain 4 1001 82 358 0.89 224 17:45 01.12.2021
5101 Rain 4 1001 86 8609 0.89 147 16:40 01.12.2021
5102 Clouds 4 1003 85 8174 1.34 133 14:50 01.12.2021
5103 Clouds 5 1005 80 5476 0.45 205 13:44 01.12.2021
5104 Clouds 4 1007 84 9182 0.89 165 12:30 01.12.2021
5105 Clouds 2 1009 96 10000 1.79 178 10:42 01.12.2021
5106 Clouds 1 1007 96 10000 1.34 164 08:58 01.12.2021
5107 Clouds 1 1008 95 10000 0.89 180 08:26 01.12.2021
5108 Clouds 1 1008 95 10000 2.69 195 07:33 01.12.2021
5109 Snow 2 1012 95 10000 0.89 166 04:22 01.12.2021
5110 Snow 1 1013 95 10000 0.89 182 03:39 01.12.2021
5111 Snow 1 1014 95 392 0.45 223 00:51 01.12.2021
5112 Snow 1 1015 94 289 0.45 156 23:45 30.11.2021
5113 Snow 1 1015 95 150 0.45 171 22:48 30.11.2021
5114 Snow 1 1015 95 132 1.34 218 20:59 30.11.2021
5115 Snow 1 1015 95 132 0.45 206 20:34 30.11.2021
5116 Snow 1 1015 94 133 0.45 206 19:53 30.11.2021
5117 Snow 1 1015 95 133 0.89 197 19:30 30.11.2021
5118 Snow 1 1015 95 133 0.89 197 19:30 30.11.2021
5119 Snow 1 1015 94 144 1.79 177 18:33 30.11.2021
5120 Snow 0 1015 93 144 0.89 139 16:35 30.11.2021
5121 Snow 0 1014 93 230 1.34 208 14:58 30.11.2021
5122 Snow 0 1014 92 346 0.89 242 14:19 30.11.2021
5123 Snow -1 1015 89 627 0.45 216 13:25 30.11.2021
5124 Clouds -1 1015 86 467 0.89 159 12:45 30.11.2021
5125 Snow -1 1016 81 2291 1.34 165 11:27 30.11.2021
5126 Snow -1 1016 75 2291 1.34 165 10:53 30.11.2021
5127 Snow -1 1016 73 2291 1.34 137 10:30 30.11.2021
5128 Snow -2 1017 85 10000 0.45 175 08:51 30.11.2021
5129 Snow -2 1017 82 10000 3.5 209 08:20 30.11.2021
5130 Clouds -2 1017 79 10000 1.34 172 07:40 30.11.2021
5131 Snow -2 1015 91 226 0.45 275 01:58 30.11.2021
5132 Snow -2 1015 91 226 0.45 138 01:38 30.11.2021
5133 Snow -3 1015 92 183 0.45 108 23:57 29.11.2021
5134 Snow -3 1014 92 182 2.36 227 23:22 29.11.2021
5135 Snow -3 1013 93 182 0.89 143 22:48 29.11.2021
5136 Snow -3 1013 93 218 0.89 143 22:29 29.11.2021
5137 Snow -3 1013 92 227 0.45 153 21:22 29.11.2021
5138 Snow -3 1013 92 227 0.45 153 20:56 29.11.2021
5139 Snow -3 1012 91 162 0.45 214 20:23 29.11.2021
5140 Snow -3 1012 91 162 0.45 214 19:50 29.11.2021
5141 Snow -3 1012 90 315 0.45 161 19:27 29.11.2021
5142 Snow -3 1011 89 315 0.89 139 18:48 29.11.2021
5143 Snow -7 1017 97 5775 1.79 222 17:22 29.11.2021
5144 Snow -7 1017 97 5561 1.79 221 16:57 29.11.2021
5145 Snow -3 1014 94 1283 1.65 278 16:28 29.11.2021
5146 Snow -2 1012 91 556 2.33 302 15:27 29.11.2021
5147 Snow -2 1012 91 556 2.33 302 14:42 29.11.2021
5148 Snow -2 1010 94 146 2.23 314 13:28 29.11.2021
5149 Snow -2 1009 94 147 2.2 317 12:22 29.11.2021
5150 Snow -2 1009 94 147 2.2 317 11:34 29.11.2021
5151 Snow -2 1009 94 130 2.11 328 10:32 29.11.2021
5152 Clouds -2 1007 96 100 2 333 08:45 29.11.2021
5153 Snow -2 1004 97 109 1.5 343 05:58 29.11.2021
5154 Snow -2 1002 97 263 0.87 323 01:38 29.11.2021
5155 Snow -2 1002 96 735 0.74 219 00:38 29.11.2021
5156 Clouds -2 1003 96 977 1.22 207 23:43 28.11.2021
5157 Snow -2 1002 95 2438 1.36 211 22:42 28.11.2021
5158 Clouds -1 1002 95 3727 1.49 212 21:41 28.11.2021
5159 Clouds -1 1001 96 2791 1.37 215 20:58 28.11.2021
5160 Clouds -1 1001 97 1433 1.22 225 19:58 28.11.2021
5161 Clouds -2 1000 97 10000 1.24 223 18:45 28.11.2021
5162 Clouds -2 999 95 10000 0.89 223 18:27 28.11.2021
5163 Clouds -1 999 95 10000 0.89 223 17:49 28.11.2021
5164 Clouds -1 999 95 10000 0.89 223 17:30 28.11.2021
5165 Snow 0 998 88 10000 0.39 294 16:28 28.11.2021
5166 Snow 0 998 88 10000 0.39 294 15:53 28.11.2021
5167 Snow 0 998 80 9010 1 304 14:57 28.11.2021
5168 Snow 0 998 80 9010 1 304 14:35 28.11.2021
5169 Snow 0 998 73 6261 1.38 307 12:58 28.11.2021
5170 Snow 0 997 78 2265 1.36 301 11:57 28.11.2021
5171 Snow -1 998 81 1945 1.07 299 10:37 28.11.2021
5172 Snow -1 998 85 7722 0.57 282 10:19 28.11.2021
5173 Snow -1 998 85 7722 0.57 282 09:36 28.11.2021
5174 Snow -2 998 92 3628 0.86 252 05:50 28.11.2021
5175 Snow -2 999 95 1511 0.77 95 23:23 27.11.2021
5176 Snow 0 998 92 2631 0.71 115 20:33 27.11.2021
5177 Snow 0 998 94 1924 0.34 74 18:49 27.11.2021
5178 Snow 0 996 98 125 1.49 12 16:31 27.11.2021
5179 Rain 1 995 96 157 1.15 353 15:32 27.11.2021
5180 Clouds 3 994 90 1052 0.85 18 13:46 27.11.2021
5181 Clouds 2 994 87 670 0.41 318 12:29 27.11.2021
5182 Snow -1 994 90 293 0.52 316 10:31 27.11.2021
5183 Snow 0 994 90 286 0.47 309 09:43 27.11.2021
5184 Clouds -2 993 83 10000 0.63 305 07:44 27.11.2021
5185 Clouds -3 993 86 10000 2.33 150 04:56 27.11.2021
5186 Snow -1 994 82 10000 1.7 150 00:55 27.11.2021
5187 Clouds -1 996 82 10000 1.27 200 23:29 26.11.2021
5188 Clouds 0 997 84 10000 1 214 22:25 26.11.2021
5189 Clouds 0 997 84 10000 1 214 21:34 26.11.2021
5190 Clouds -2 998 87 10000 1.07 215 20:45 26.11.2021
5191 Clouds -1 999 92 10000 1.05 220 19:56 26.11.2021
5192 Clouds 0 1000 96 10000 1.16 262 19:28 26.11.2021
5193 Snow -1 999 96 527 1.42 282 17:56 26.11.2021
5194 Snow -1 999 96 283 1.43 294 17:22 26.11.2021
5195 Snow -1 1000 94 245 1.69 306 15:56 26.11.2021
5196 Clouds -1 1000 95 3235 1.9 302 13:35 26.11.2021
5197 Snow -1 1000 96 9713 0.89 331 12:30 26.11.2021
5198 Snow -1 1003 95 273 1.84 300 10:37 26.11.2021
5199 Snow -1 1004 96 321 0.45 53 08:58 26.11.2021
5200 Snow -1 1004 96 465 0.45 64 08:21 26.11.2021
5201 Snow -1 1004 96 1250 0.89 10 07:26 26.11.2021
5202 Clouds -1 1004 96 9349 0.95 285 06:26 26.11.2021
5203 Clouds -1 1005 96 1179 0.45 56 03:59 26.11.2021
5204 Clouds -1 1007 95 10000 0.73 304 01:55 26.11.2021
5205 Snow 0 1008 93 10000 0.45 313 22:48 25.11.2021
5206 Clouds 0 1007 94 10000 0.89 357 21:26 25.11.2021
5207 Snow 0 1008 93 10000 0.42 202 20:27 25.11.2021
5208 Snow 0 1007 88 10000 0.89 353 18:47 25.11.2021
5209 Snow 1 1007 83 10000 1.34 318 17:47 25.11.2021
5210 Snow 1 1007 83 10000 1.34 318 17:25 25.11.2021
5211 Snow 2 1006 81 10000 0.32 132 16:33 25.11.2021
5212 Clouds 5 1007 67 10000 0.45 302 14:59 25.11.2021
5213 Clouds 7 1009 50 10000 0.64 319 13:37 25.11.2021
5214 Clouds 7 1009 44 10000 0.39 96 12:25 25.11.2021
5215 Clouds 7 1010 48 10000 0.39 93 11:49 25.11.2021
5216 Clouds 6 1011 49 10000 0.45 158 09:26 25.11.2021
5217 Clouds -2 1011 69 10000 2.93 162 05:48 25.11.2021
5218 Clouds -1 1012 66 10000 3.03 168 02:49 25.11.2021
5219 Clear -1 1015 60 10000 2.86 166 22:57 24.11.2021
5220 Clear -1 1016 59 10000 2.81 163 22:24 24.11.2021
5221 Clear -1 1016 59 10000 2.81 163 21:32 24.11.2021
5222 Clear 0 1016 58 10000 2.76 162 20:50 24.11.2021
5223 Clear 0 1016 59 10000 2.59 166 20:19 24.11.2021
5224 Clear 0 1015 89 10000 0.45 181 18:31 24.11.2021
5225 Clear 0 1015 88 10000 0.45 181 17:57 24.11.2021
5226 Clear 4 1018 67 10000 0.53 169 15:39 24.11.2021
5227 Clear 5 1018 31 10000 1.34 163 14:47 24.11.2021
5228 Clear 6 1018 31 10000 1.34 163 14:20 24.11.2021
5229 Clear 3 1016 46 10000 0.43 347 12:34 24.11.2021
5230 Clear 2 1019 44 10000 0.29 101 11:21 24.11.2021
5231 Clear 3 1023 53 10000 0.29 101 10:48 24.11.2021
5232 Clear 2 1023 53 10000 0.73 157 10:22 24.11.2021
5233 Clear 0 1025 85 10000 0.89 154 07:55 24.11.2021
5234 Clear 0 1026 89 10000 0.45 165 06:55 24.11.2021
5235 Clear 1 1024 88 10000 0.89 248 03:51 24.11.2021
5236 Clear 1 1025 88 10000 0.89 166 00:52 24.11.2021
5237 Clear 2 1025 88 10000 0.45 267 22:40 23.11.2021
5238 Clear 2 1025 88 10000 0.45 267 22:20 23.11.2021
5239 Clear 2 1026 89 10000 0.45 294 21:44 23.11.2021
5240 Clear 2 1026 89 10000 0.45 294 21:44 23.11.2021
5241 Clear 2 1026 88 10000 0.45 22 19:43 23.11.2021
5242 Clear 2 1026 88 10000 1.79 125 18:42 23.11.2021
5243 Clear 2 1026 87 10000 1.59 115 18:20 23.11.2021
5244 Clear 3 1026 85 10000 0.89 69 16:58 23.11.2021
5245 Clear 3 1025 85 10000 0.45 358 16:20 23.11.2021
5246 Clear 3 1022 79 10000 0.45 355 15:22 23.11.2021
5247 Clear 4 1022 80 10000 0.89 121 14:22 23.11.2021
5248 Clouds 3 1023 84 10000 0.45 59 11:42 23.11.2021
5249 Clouds 2 1025 92 10000 0.89 324 09:59 23.11.2021
5250 Clouds 2 1025 94 10000 0.89 159 09:18 23.11.2021
5251 Clouds 1 1024 93 6433 0.45 359 06:41 23.11.2021
5252 Clouds 1 1024 92 10000 0.45 359 03:52 23.11.2021
5253 Clouds 2 1024 89 10000 0.45 16 01:49 23.11.2021
5254 Clouds 2 1023 89 4571 0.45 115 23:21 22.11.2021
5255 Clouds 2 1023 89 4571 0.89 346 22:47 22.11.2021
5256 Clouds 2 1023 89 7869 0.89 346 22:25 22.11.2021
5257 Clouds 2 1022 90 7869 0.45 228 21:41 22.11.2021
5258 Clouds 2 1022 90 7522 0.45 228 20:52 22.11.2021
5259 Clouds 2 1022 89 815 2.05 68 19:56 22.11.2021
5260 Clouds 2 1022 90 4175 2.09 62 19:19 22.11.2021
5261 Clouds 2 1021 89 4175 0.45 45 18:39 22.11.2021
5262 Clouds 2 1020 89 716 0.45 9 17:38 22.11.2021
5263 Clouds 3 1019 90 6899 2.33 34 16:18 22.11.2021
5264 Clouds 3 1016 91 10000 0.89 326 13:58 22.11.2021
5265 Clouds 2 1016 94 10000 0.45 31 11:59 22.11.2021
5266 Clouds 2 1015 95 10000 0.89 308 10:41 22.11.2021
5267 Rain 1 1014 96 2463 0.89 11 09:26 22.11.2021
5268 Clouds 1 1014 97 2463 1.34 340 08:40 22.11.2021
5269 Clouds 1 1014 96 10000 0.45 354 04:36 22.11.2021
5270 Clouds 2 1013 95 10000 0.45 355 23:26 21.11.2021
5271 Clouds 2 1013 94 10000 1.34 7 22:48 21.11.2021
5272 Rain 2 1012 90 10000 1.34 7 21:51 21.11.2021
5273 Clouds 3 1012 83 10000 0.64 99 20:42 21.11.2021
5274 Rain 3 1011 79 10000 0.45 274 19:46 21.11.2021
5275 Clouds 4 1011 74 10000 0.45 221 18:18 21.11.2021
5276 Clouds 5 1011 67 10000 0.45 134 17:38 21.11.2021
5277 Clear 9 1011 55 10000 0.45 192 15:28 21.11.2021
5278 Clear 10 1010 48 10000 0.45 274 14:45 21.11.2021
5279 Clear 11 1010 50 10000 0.89 354 13:40 21.11.2021
5280 Clear 10 1011 52 10000 0.45 99 12:35 21.11.2021
5281 Clear 8 1011 60 10000 1.34 149 11:42 21.11.2021
5282 Clear 8 1013 50 10000 1.34 149 10:55 21.11.2021
5283 Clear 7 1015 44 10000 0.45 152 10:18 21.11.2021
5284 Clear 2 1013 61 10000 1.49 218 08:40 21.11.2021
5285 Clear 1 1013 63 10000 1.7 205 08:20 21.11.2021
5286 Clear 0 1013 63 10000 1.7 205 07:41 21.11.2021
5287 Clear 0 1014 63 10000 1.98 207 05:48 21.11.2021
5288 Clear 0 1014 63 10000 2 210 04:37 21.11.2021
5289 Clear 1 1015 62 10000 2.14 199 03:18 21.11.2021
5290 Clear 1 1015 62 10000 2.14 199 02:48 21.11.2021
5291 Clouds 0 1016 61 10000 2.16 189 00:54 21.11.2021
5292 Clouds 0 1017 61 10000 1.9 197 23:41 20.11.2021
5293 Clouds 0 1019 65 10000 2.09 186 21:39 20.11.2021
5294 Clouds 0 1019 67 10000 2.01 177 20:50 20.11.2021
5295 Clouds 1 1020 74 10000 1.77 195 18:46 20.11.2021
5296 Clear 2 1021 88 10000 1.6 180 18:26 20.11.2021
5297 Clear 4 1021 85 10000 0.89 207 17:22 20.11.2021
5298 Clear 4 1021 85 10000 0.89 207 17:22 20.11.2021
5299 Clear 7 1022 68 10000 1.34 326 16:41 20.11.2021
5300 Clear 10 1021 66 10000 1.34 13 14:40 20.11.2021
5301 Clear 10 1021 67 10000 1.34 13 14:21 20.11.2021
5302 Clear 0 1023 53 10000 0.48 341 11:56 20.11.2021
5303 Clear 8 1030 54 10000 0.34 123 10:29 20.11.2021
5304 Clear 8 1030 54 10000 1.22 154 08:57 20.11.2021
5305 Clouds 0 1028 66 10000 1.84 163 07:20 20.11.2021
5306 Clear 0 1028 67 10000 1.73 154 05:25 20.11.2021
5307 Clear -1 1028 67 10000 1.73 154 04:50 20.11.2021
5308 Clear 0 1029 66 10000 1.64 154 01:41 20.11.2021
5309 Clouds 1 1029 66 10000 1.81 160 00:38 20.11.2021
5310 Clouds 1 1030 66 10000 1.59 163 22:55 19.11.2021
5311 Clouds 1 1031 66 10000 1.71 165 21:57 19.11.2021
5312 Clouds 1 1031 67 10000 1.76 167 20:54 19.11.2021
5313 Clouds 1 1031 67 10000 1.76 167 20:36 19.11.2021
5314 Clouds 2 1031 87 10000 1.7 164 19:49 19.11.2021
5315 Clouds 3 1028 85 10000 0.89 171 18:51 19.11.2021
5316 Clouds 4 1028 83 10000 0.45 247 18:22 19.11.2021
5317 Clouds 8 1029 58 10000 0.45 74 16:47 19.11.2021
5318 Clouds 9 1029 54 10000 1.34 156 15:32 19.11.2021
5319 Clouds 8 1033 46 10000 0.89 108 13:24 19.11.2021
5320 Clouds 7 1033 34 10000 0.32 100 10:27 19.11.2021
5321 Clouds 6 1034 35 10000 0.32 100 09:33 19.11.2021
5322 Clouds 0 1033 49 10000 1.45 157 07:41 19.11.2021
5323 Clouds -1 1032 61 10000 1.21 162 04:29 19.11.2021
5324 Clouds 0 1032 64 10000 1.46 190 02:26 19.11.2021
5325 Clouds 2 1035 77 10000 0.45 163 23:51 18.11.2021
5326 Clouds 3 1032 90 10000 0.45 196 21:50 18.11.2021
5327 Clouds 2 1032 92 10000 0.45 257 20:48 18.11.2021
5328 Clouds 3 1032 91 10000 0.45 83 20:30 18.11.2021
5329 Clouds 3 1032 90 10000 0.45 268 19:44 18.11.2021
5330 Clouds 3 1032 89 10000 0.45 268 18:55 18.11.2021
5331 Clouds 4 1031 88 10000 0.45 207 18:27 18.11.2021
5332 Clouds 4 1031 88 10000 0.45 207 17:49 18.11.2021
5333 Clouds 6 1027 79 10000 0.89 332 16:44 18.11.2021
5334 Clouds 7 1027 73 10000 0.45 191 15:25 18.11.2021
5335 Clouds 7 1028 73 10000 0.89 75 13:31 18.11.2021
5336 Clouds 6 1028 76 10000 0.46 355 12:33 18.11.2021
5337 Clouds 6 1028 76 10000 1.79 347 11:42 18.11.2021
5338 Clouds 5 1028 77 10000 1.79 347 11:24 18.11.2021
5339 Clouds 3 1028 92 10000 0.45 230 09:34 18.11.2021
5340 Clouds 1 1027 93 10000 0.45 337 07:34 18.11.2021
5341 Clouds 2 1026 93 10000 0.45 62 05:48 18.11.2021
5342 Clouds 2 1026 93 10000 0.45 62 04:54 18.11.2021
5343 Clouds 3 1026 94 10000 0.45 326 01:22 18.11.2021
5344 Clouds 3 1026 93 7484 0.89 316 22:49 17.11.2021
5345 Clouds 3 1025 92 6662 0.45 318 22:20 17.11.2021
5346 Clouds 3 1025 92 6662 0.89 342 21:38 17.11.2021
5347 Clouds 3 1025 92 9266 0.89 342 20:50 17.11.2021
5348 Clouds 3 1024 92 10000 0.71 304 18:27 17.11.2021
5349 Clouds 3 1024 92 10000 0.45 290 17:25 17.11.2021
5350 Clouds 4 1021 85 10000 0.45 14 14:51 17.11.2021
5351 Clouds 4 1021 85 10000 0.45 242 12:41 17.11.2021
5352 Clouds 4 1021 89 10000 0.89 213 11:44 17.11.2021
5353 Clouds 3 1021 90 10000 0.45 235 10:28 17.11.2021
5354 Clouds 3 1020 91 9606 0.65 260 09:24 17.11.2021
5355 Clouds 3 1022 94 7245 0.45 11 07:44 17.11.2021
5356 Clouds 3 1019 92 10000 0.72 269 03:50 17.11.2021
5357 Clouds 3 1019 92 10000 0.72 269 03:50 17.11.2021
5358 Clouds 3 1019 92 8170 1.34 350 01:21 17.11.2021
5359 Clouds 3 1021 90 10000 0.45 225 23:18 16.11.2021
5360 Clouds 3 1021 93 10000 0.89 174 21:23 16.11.2021
5361 Clouds 3 1018 92 10000 0.7 203 20:18 16.11.2021
5362 Clouds 3 1020 91 10000 0.83 194 18:54 16.11.2021
5363 Clouds 3 1020 92 10000 0.45 283 18:35 16.11.2021
5364 Clouds 4 1020 90 10000 0.89 151 17:40 16.11.2021
5365 Clouds 4 1022 89 10000 0.45 141 16:39 16.11.2021
5366 Clouds 3 1019 94 10000 0.79 353 15:53 16.11.2021
5367 Clouds 3 1018 79 10000 1.03 349 15:27 16.11.2021
5368 Clouds 4 1019 67 10000 1.19 335 11:50 16.11.2021
5369 Clouds 3 1020 70 10000 0.39 300 09:49 16.11.2021
5370 Clouds 3 1020 96 10000 0.45 203 08:45 16.11.2021
5371 Clouds 3 1020 85 10000 0.89 126 07:32 16.11.2021
5372 Clouds 3 1019 97 10000 0.45 93 02:20 16.11.2021
5373 Clouds 3 1019 96 10000 0.45 26 23:23 15.11.2021
5374 Clouds 4 1019 95 10000 1.73 180 22:37 15.11.2021
5375 Clouds 4 1019 95 10000 1.8 168 21:53 15.11.2021
5376 Clouds 4 1019 94 10000 0.45 204 21:29 15.11.2021
5377 Clouds 4 1019 92 10000 0.45 291 19:49 15.11.2021
5378 Clouds 4 1018 92 10000 0.45 330 18:47 15.11.2021
5379 Clouds 5 1018 90 10000 0.45 34 16:54 15.11.2021
5380 Clouds 5 1018 91 10000 0.7 116 15:42 15.11.2021
5381 Clouds 5 1017 82 10000 0.56 107 15:24 15.11.2021
5382 Clouds 7 1020 65 10000 0.45 149 13:32 15.11.2021
5383 Clouds 5 1017 70 10000 0.34 77 11:53 15.11.2021
5384 Clouds 4 1021 92 10000 0.89 169 09:28 15.11.2021
5385 Clouds 4 1020 92 10000 0.45 179 07:55 15.11.2021
5386 Clouds 4 1020 94 10000 0.89 169 05:23 15.11.2021
5387 Clouds 4 1020 96 10000 0.89 323 23:57 14.11.2021
5388 Clouds 4 1020 95 10000 0.45 14 22:37 14.11.2021
5389 Clouds 5 1020 95 10000 0.45 2 19:59 14.11.2021
5390 Clouds 5 1019 95 10000 2.24 355 19:18 14.11.2021
5391 Clouds 5 1019 95 10000 2.24 355 18:54 14.11.2021
5392 Clouds 5 1019 94 10000 1.34 313 18:36 14.11.2021
5393 Rain 5 1019 94 10000 1.34 313 18:18 14.11.2021
5394 Rain 5 1019 94 10000 1.34 313 17:56 14.11.2021
5395 Rain 5 1018 94 10000 0.89 343 17:38 14.11.2021
5396 Rain 6 1018 93 10000 0.89 343 17:20 14.11.2021
5397 Rain 6 1018 92 10000 2.24 3 16:47 14.11.2021
5398 Rain 6 1018 92 10000 2.24 3 16:47 14.11.2021
5399 Rain 6 1018 91 10000 2.24 3 16:20 14.11.2021
5400 Clouds 7 1017 89 10000 0.45 107 15:23 14.11.2021
5401 Clouds 7 1017 88 10000 0.45 330 14:49 14.11.2021
5402 Clouds 7 1017 87 10000 0.89 351 14:29 14.11.2021
5403 Clouds 7 1017 88 10000 0.89 351 13:54 14.11.2021
5404 Clouds 7 1017 90 10000 0.89 352 13:35 14.11.2021
5405 Clouds 6 1017 92 9121 1.34 159 12:28 14.11.2021
5406 Clouds 6 1017 93 9121 1.34 159 11:52 14.11.2021
5407 Clouds 5 1018 96 9144 0.89 90 10:42 14.11.2021
5408 Clouds 5 1018 97 497 0.89 90 09:52 14.11.2021
5409 Rain 4 1018 96 144 0.45 316 08:55 14.11.2021
5410 Rain 4 1017 96 190 1.04 64 07:23 14.11.2021
5411 Clouds 5 1017 95 7202 0.45 182 00:26 14.11.2021
5412 Clouds 4 1018 95 3260 0.45 27 22:26 13.11.2021
5413 Rain 5 1018 95 3260 0.45 203 21:56 13.11.2021
5414 Rain 5 1018 95 4716 0.89 219 21:23 13.11.2021
5415 Rain 5 1018 93 1165 0.45 214 19:47 13.11.2021
5416 Rain 5 1018 93 212 0.45 161 18:33 13.11.2021
5417 Rain 5 1016 93 235 0.45 161 17:55 13.11.2021
5418 Rain 6 1016 93 5057 0.89 153 16:37 13.11.2021
5419 Rain 6 1016 90 3372 0.45 201 15:29 13.11.2021
5420 Rain 7 1016 80 3372 0.45 319 14:30 13.11.2021
5421 Rain 7 1017 74 3961 1.79 330 13:32 13.11.2021
5422 Clouds 8 1017 71 10000 0.89 359 12:24 13.11.2021
5423 Clouds 8 1017 72 10000 1.58 318 11:34 13.11.2021
5424 Clouds 7 1020 72 10000 0.45 150 10:45 13.11.2021
5425 Clouds 7 1020 72 10000 0.45 150 10:20 13.11.2021
5426 Clouds 7 1020 73 10000 0.89 59 09:37 13.11.2021
5427 Clouds 8 1019 67 10000 1.12 233 08:56 13.11.2021
5428 Clouds 6 1019 67 10000 1.12 233 08:30 13.11.2021
5429 Clear 1 1016 78 10000 2.1 183 04:48 13.11.2021
5430 Clear 3 1016 81 10000 2.2 182 04:30 13.11.2021
5431 Clear 3 1017 84 10000 2.09 202 01:36 13.11.2021
5432 Clear 2 1017 82 10000 1.99 196 22:58 12.11.2021
5433 Clear 2 1018 83 10000 1.73 198 21:46 12.11.2021
5434 Clear 4 1017 90 10000 2.08 186 19:54 12.11.2021
5435 Clear 4 1017 88 10000 2.06 182 19:27 12.11.2021
5436 Clear 8 1017 79 10000 0.45 177 18:29 12.11.2021
5437 Clear 10 1016 68 10000 0.89 222 16:34 12.11.2021
5438 Clear 13 1016 61 10000 0.89 322 15:32 12.11.2021
5439 Clouds 11 1018 59 10000 0.45 10 11:54 12.11.2021
5440 Clouds 10 1020 58 10000 0.45 176 10:51 12.11.2021
5441 Clouds 10 1021 56 10000 0.89 161 09:44 12.11.2021
5442 Clouds 10 1021 56 10000 1.1 160 08:38 12.11.2021
5443 Clouds 3 1021 86 10000 2.08 162 02:32 12.11.2021
5444 Clouds 3 1023 92 10000 2.33 161 23:42 11.11.2021
5445 Clouds 3 1023 92 10000 2.27 161 22:36 11.11.2021
5446 Clouds 3 1024 93 10000 2.16 163 21:27 11.11.2021
5447 Clouds 3 1024 89 10000 2.16 163 20:42 11.11.2021
5448 Clouds 5 1022 87 10000 0.45 262 19:20 11.11.2021
5449 Clouds 8 1023 74 10000 0.45 221 17:43 11.11.2021
5450 Clouds 9 1022 69 10000 0.45 221 16:54 11.11.2021
5451 Clouds 13 1022 54 10000 1.34 333 14:51 11.11.2021
5452 Clouds 14 1022 52 10000 1.34 327 14:28 11.11.2021
5453 Clouds 14 1022 53 10000 1.79 360 13:39 11.11.2021
5454 Clouds 13 1022 55 10000 0.45 314 12:48 11.11.2021
5455 Clouds 12 1024 52 10000 0.45 157 10:44 11.11.2021
5456 Clouds 9 1022 73 10000 1.21 175 09:36 11.11.2021
5457 Clouds 2 1024 82 10000 2.76 168 07:59 11.11.2021
5458 Clear 2 1024 87 10000 3.05 165 04:45 11.11.2021
5459 Clouds 2 1024 88 10000 3.18 162 23:35 10.11.2021
5460 Clouds 4 1024 90 10000 3.12 163 22:22 10.11.2021
5461 Clouds 4 1024 90 10000 3.07 163 21:21 10.11.2021
5462 Clouds 4 1024 90 10000 3.07 163 20:47 10.11.2021
5463 Clouds 5 1022 87 10000 0.89 129 19:47 10.11.2021
5464 Clouds 6 1022 87 10000 0.89 129 19:24 10.11.2021
5465 Clouds 8 1023 75 10000 2.39 166 16:34 10.11.2021
5466 Clouds 11 1022 63 10000 0.45 67 15:28 10.11.2021
5467 Clouds 11 1023 54 10000 0.45 95 13:43 10.11.2021
5468 Clouds 11 1023 54 10000 0.89 182 12:50 10.11.2021
5469 Clouds 10 1025 42 10000 1.92 159 10:55 10.11.2021
5470 Clouds 2 1024 65 10000 2.62 163 08:47 10.11.2021
5471 Clouds 1 1025 64 10000 2.95 161 07:48 10.11.2021
5472 Clouds 0 1025 63 10000 2.86 161 06:26 10.11.2021
5473 Clouds 0 1025 63 10000 2.86 161 05:51 10.11.2021
5474 Clouds 0 1026 64 10000 2.82 167 23:55 09.11.2021
5475 Clouds 1 1026 62 10000 3.2 168 21:50 09.11.2021
5476 Clouds 1 1026 62 10000 3.2 168 21:50 09.11.2021
5477 Clouds 1 1026 60 10000 3.24 164 20:32 09.11.2021
5478 Clouds 2 1025 87 10000 3.32 163 19:25 09.11.2021
5479 Clouds 5 1024 71 10000 0.45 234 17:44 09.11.2021
5480 Clear 7 1024 63 10000 0.45 17 16:24 09.11.2021
5481 Clear 8 1022 71 10000 0.93 81 14:44 09.11.2021
5482 Clear 7 1022 51 10000 0.92 63 12:53 09.11.2021
5483 Clear 7 1022 51 10000 0.92 63 12:53 09.11.2021
5484 Clear 5 1022 49 10000 1.08 60 11:56 09.11.2021
5485 Clear 4 1023 49 10000 1.03 80 10:45 09.11.2021
5486 Clear 2 1023 48 10000 1.18 104 09:34 09.11.2021
5487 Clear 0 1027 92 10000 0.89 215 08:27 09.11.2021
5488 Clear -1 1030 94 10000 2.47 146 05:56 09.11.2021
5489 Clear 0 1029 94 10000 2.18 142 02:23 09.11.2021
5490 Clear 0 1029 93 10000 0.45 106 01:46 09.11.2021
5491 Clouds 1 1028 92 10000 2.51 151 23:58 08.11.2021
5492 Clouds 1 1028 93 10000 2.37 149 22:51 08.11.2021
5493 Clouds 1 1028 96 10000 2.29 149 22:27 08.11.2021
5494 Clouds 2 1028 97 10000 0.45 357 20:56 08.11.2021
5495 Clouds 2 1028 96 10000 2.17 145 19:52 08.11.2021
5496 Clouds 3 1027 96 10000 1.96 143 18:56 08.11.2021
5497 Clouds 5 1023 81 10000 0.45 347 16:34 08.11.2021
5498 Clouds 7 1019 73 10000 1.34 276 15:25 08.11.2021
5499 Clouds 7 1020 72 10000 1.55 44 14:40 08.11.2021
5500 Clouds 7 1020 73 10000 1.41 50 13:33 08.11.2021
5501 Clouds 5 1023 84 10000 0.89 17 11:56 08.11.2021
5502 Clouds 5 1020 86 10000 1.32 65 10:52 08.11.2021
5503 Clouds 3 1024 93 872 0.45 193 09:44 08.11.2021
5504 Clouds 3 1024 94 269 1.34 39 08:54 08.11.2021
5505 Clouds 2 1023 94 172 0.89 129 07:35 08.11.2021
5506 Clouds 3 1022 90 137 0.45 271 03:56 08.11.2021
5507 Clouds 3 1022 87 3038 0.89 222 03:28 08.11.2021
5508 Clouds 4 1021 74 10000 1.34 132 23:46 07.11.2021
5509 Clouds 4 1021 69 10000 0.45 187 21:54 07.11.2021
5510 Clouds 4 1021 67 10000 0.45 187 21:20 07.11.2021
5511 Clouds 5 1021 62 10000 0.45 257 19:40 07.11.2021
5512 Clouds 5 1019 66 10000 0.89 253 18:22 07.11.2021
5513 Clouds 6 1022 36 10000 1.34 173 16:54 07.11.2021
5514 Clouds 7 1022 38 10000 1.79 176 15:48 07.11.2021
5515 Clouds 8 1022 40 10000 2.24 172 14:29 07.11.2021
5516 Clouds 8 1021 43 10000 1.34 222 13:26 07.11.2021
5517 Clouds 5 1020 45 10000 1.65 249 11:42 07.11.2021
5518 Clouds 2 1021 42 10000 1.61 235 09:49 07.11.2021
5519 Clouds -2 1025 41 10000 2.82 182 07:53 07.11.2021
5520 Clear -2 1027 78 10000 0.45 240 02:38 07.11.2021
5521 Clear -1 1027 81 10000 0.45 165 23:37 06.11.2021
5522 Clear -1 1028 85 10000 0.45 213 22:47 06.11.2021
5523 Clear -1 1028 84 10000 0.45 168 21:33 06.11.2021
5524 Clear 0 1029 86 10000 0.45 168 20:50 06.11.2021
5525 Clear 1 1029 83 10000 0.45 235 18:56 06.11.2021
5526 Clear 5 1028 67 10000 0.89 233 16:46 06.11.2021
5527 Clear 5 1028 67 10000 0.89 233 16:46 06.11.2021
5528 Clear 5 1028 67 10000 0.89 233 16:46 06.11.2021
5529 Clear 7 1026 60 10000 1.34 329 14:38 06.11.2021
5530 Clear 6 1026 63 10000 0.45 30 13:38 06.11.2021
5531 Clear 5 1027 65 10000 0.83 40 11:46 06.11.2021
5532 Clear 0 1035 85 10000 0.45 156 09:23 06.11.2021
5533 Clouds -1 1034 93 10000 1.89 143 04:57 06.11.2021
5534 Clouds -1 1030 91 10000 0.45 185 01:47 06.11.2021
5535 Clouds 0 1029 91 10000 0.45 122 23:35 05.11.2021
5536 Clouds 0 1029 92 10000 0.45 126 22:34 05.11.2021
5537 Clouds 1 1028 91 10000 0.45 231 20:51 05.11.2021
5538 Clouds 2 1028 90 10000 0.45 77 20:20 05.11.2021
5539 Clouds 2 1027 88 10000 0.45 231 19:37 05.11.2021
5540 Clouds 2 1027 87 10000 0.45 230 18:39 05.11.2021
5541 Clouds 4 1026 82 10000 1.34 230 17:26 05.11.2021
5542 Clouds 7 1022 66 10000 0.89 203 15:34 05.11.2021
5543 Clouds 7 1021 68 10000 0.89 196 13:35 05.11.2021
5544 Clouds 4 1023 86 10000 1.34 224 10:37 05.11.2021
5545 Clouds 2 1022 91 10000 0.45 294 08:40 05.11.2021
5546 Clouds 2 1023 93 10000 1.71 205 07:26 05.11.2021
5547 Clouds 1 1023 93 10000 2.86 179 04:44 05.11.2021
5548 Clouds 1 1022 87 10000 2.73 182 02:25 05.11.2021
5549 Clouds 1 1022 90 10000 0.89 159 00:40 05.11.2021
5550 Clouds 1 1021 88 10000 0.45 174 23:18 04.11.2021
5551 Clouds 1 1021 88 10000 0.89 169 22:19 04.11.2021
5552 Clouds 2 1020 89 10000 2.29 188 21:32 04.11.2021
5553 Clouds 2 1016 90 10000 0.45 242 20:40 04.11.2021
5554 Clouds 2 1016 90 10000 0.45 242 20:20 04.11.2021
5555 Clouds 2 1019 87 10000 1.34 170 19:40 04.11.2021
5556 Clouds 2 1018 86 10000 0.45 115 18:44 04.11.2021
5557 Clouds 2 1017 90 10000 0.89 160 17:37 04.11.2021
5558 Clouds 3 1013 82 10000 0.89 170 16:29 04.11.2021
5559 Clouds 4 1011 85 2010 1.79 104 14:28 04.11.2021
5560 Rain 3 1009 93 2279 0.89 177 11:44 04.11.2021
5561 Rain 2 1007 94 997 0.45 101 09:29 04.11.2021
5562 Clouds 2 1007 93 997 1.34 171 08:30 04.11.2021
5563 Rain 2 1006 92 296 0.45 221 07:34 04.11.2021
5564 Rain 3 1004 94 10000 0.45 244 23:54 03.11.2021
5565 Rain 3 1005 94 10000 0.45 160 22:50 03.11.2021
5566 Rain 3 1005 93 10000 1.79 208 21:47 03.11.2021
5567 Rain 3 1005 93 3817 1.79 208 21:19 03.11.2021
5568 Rain 3 1006 94 10000 0.45 181 20:33 03.11.2021
5569 Rain 3 1005 93 3392 1.79 211 19:40 03.11.2021
5570 Rain 3 1005 93 69 1.79 211 18:51 03.11.2021
5571 Rain 4 1004 92 39 0.89 153 18:18 03.11.2021
5572 Rain 4 1004 89 33 1.34 149 17:20 03.11.2021
5573 Rain 6 1002 76 125 1.34 198 15:56 03.11.2021
5574 Rain 5 1004 78 125 3.58 165 15:38 03.11.2021
5575 Clouds 7 999 73 10000 1.99 306 13:46 03.11.2021
5576 Clouds 7 1000 51 10000 0.89 165 11:39 03.11.2021
5577 Clouds 6 1000 51 10000 0.45 162 10:52 03.11.2021
5578 Clouds 6 1000 51 10000 0.45 162 10:18 03.11.2021
5579 Clouds 5 1001 45 10000 1.9 159 09:28 03.11.2021
5580 Clouds 1 1002 82 10000 2.61 149 08:21 03.11.2021
5581 Clouds 0 1001 96 10000 0.45 142 07:38 03.11.2021
5582 Clouds 0 1002 96 10000 0.45 235 04:24 03.11.2021
5583 Clouds 1 1006 92 10000 0.45 278 01:42 03.11.2021
5584 Clouds 2 1007 92 10000 0.45 227 23:32 02.11.2021
5585 Clouds 2 1008 93 10000 0.45 130 22:21 02.11.2021
5586 Clouds 3 1008 92 10000 0.45 243 20:48 02.11.2021
5587 Clouds 3 1008 91 10000 1.79 178 20:23 02.11.2021
5588 Clouds 3 1008 92 10000 0.89 190 19:40 02.11.2021
5589 Clouds 4 1007 91 10000 0.89 239 18:36 02.11.2021
5590 Clouds 4 1007 90 10000 0.89 239 17:56 02.11.2021
5591 Clouds 5 1007 88 10000 0.89 174 17:31 02.11.2021
5592 Rain 5 1008 87 4259 0.89 32 16:26 02.11.2021
5593 Clouds 7 1007 83 940 1.19 254 14:57 02.11.2021
5594 Clouds 8 1006 80 7151 0.89 359 13:32 02.11.2021
5595 Clouds 7 1005 83 9294 1.77 290 12:59 02.11.2021
5596 Clouds 7 1005 85 10000 0.89 176 12:20 02.11.2021
5597 Rain 6 1004 86 10000 0.45 71 11:27 02.11.2021
5598 Rain 6 1006 88 10000 0.45 231 10:45 02.11.2021
5599 Rain 5 1006 87 10000 0.45 231 10:22 02.11.2021
5600 Clouds 4 1006 94 10000 0.45 170 08:22 02.11.2021
5601 Clouds 4 1006 92 4474 0.45 111 06:29 02.11.2021
5602 Clouds 4 1007 93 10000 0.89 214 03:30 02.11.2021
5603 Clouds 4 1007 95 794 0.89 217 00:25 02.11.2021
5604 Clouds 5 1007 91 158 0.89 211 22:19 01.11.2021
5605 Rain 5 1007 91 286 0.89 105 20:46 01.11.2021
5606 Rain 5 1007 91 170 0.89 105 20:26 01.11.2021
5607 Clouds 4 1008 93 170 0.45 8 19:42 01.11.2021
5608 Rain 5 1008 91 194 0.45 8 18:50 01.11.2021
5609 Rain 4 1008 94 235 0.89 264 17:49 01.11.2021
5610 Rain 5 1007 92 305 1.79 208 16:58 01.11.2021
5611 Rain 5 1007 92 305 0.12 347 16:32 01.11.2021
5612 Rain 5 1007 91 264 0.45 212 15:39 01.11.2021
5613 Rain 5 1007 91 1483 0.45 212 15:19 01.11.2021
5614 Rain 6 1008 91 1483 1.29 337 14:38 01.11.2021
5615 Rain 6 1008 91 4593 0.51 349 14:19 01.11.2021
5616 Rain 7 1008 89 242 2.24 130 12:41 01.11.2021
5617 Rain 8 1008 88 320 0.89 72 11:39 01.11.2021
5618 Rain 7 1008 92 10000 1.34 74 10:20 01.11.2021
5619 Clouds 9 1008 78 10000 1.34 164 08:19 01.11.2021
5620 Clouds 9 1007 63 10000 0.45 23 07:46 01.11.2021
5621 Clouds 6 1006 83 10000 3.11 170 03:53 01.11.2021
5622 Clouds 6 1007 83 10000 3.39 165 01:44 01.11.2021
5623 Clouds 8 1008 81 10000 3.69 163 23:18 31.10.2021
5624 Clear 8 1007 85 10000 3.64 164 20:51 31.10.2021
5625 Clouds 9 1007 81 10000 0.45 289 19:24 31.10.2021
5626 Clouds 11 1007 76 10000 3.49 169 18:43 31.10.2021
5627 Clouds 11 1007 73 10000 3.4 165 17:59 31.10.2021
5628 Clouds 16 1008 50 10000 0.89 78 16:27 31.10.2021
5629 Clouds 17 1007 45 10000 0.45 27 14:41 31.10.2021
5630 Clouds 17 1008 47 10000 0.45 40 12:54 31.10.2021
5631 Clouds 16 1010 47 10000 1.6 164 11:42 31.10.2021
5632 Clouds 16 1010 47 10000 1.6 164 11:42 31.10.2021
5633 Clouds 14 1011 59 10000 0.89 48 10:48 31.10.2021
5634 Clouds 11 1012 48 10000 0.45 161 09:23 31.10.2021
5635 Clouds 8 1012 68 10000 2.35 163 08:41 31.10.2021
5636 Clouds 9 1013 80 10000 3.09 168 02:19 31.10.2021
5637 Clouds 9 1015 80 10000 3.36 164 23:42 30.10.2021
5638 Clouds 10 1014 76 10000 3.5 174 21:36 30.10.2021
5639 Clouds 10 1013 76 10000 3.82 162 21:18 30.10.2021
5640 Clouds 12 1012 64 10000 3.4 158 19:23 30.10.2021
5641 Clouds 13 1010 58 10000 0.45 139 17:42 30.10.2021
5642 Rain 13 1009 47 10000 2.24 183 15:26 30.10.2021
5643 Clouds 15 1007 41 10000 0.89 70 13:40 30.10.2021
5644 Clouds 15 1007 41 10000 0.89 70 13:21 30.10.2021
5645 Clouds 15 1007 42 10000 0.89 70 12:57 30.10.2021
5646 Clouds 13 1008 42 10000 0.89 342 11:46 30.10.2021
5647 Clouds 9 1007 35 10000 3.54 167 10:32 30.10.2021
5648 Clouds 4 1011 48 10000 3.85 162 08:53 30.10.2021
5649 Clouds 2 1012 49 10000 3.77 160 07:42 30.10.2021
5650 Clouds 3 1012 51 10000 3.6 159 05:44 30.10.2021
5651 Clouds 3 1015 60 10000 2.81 167 01:37 30.10.2021
5652 Clouds 5 1015 84 10000 2.8 173 22:54 29.10.2021
5653 Clouds 6 1013 83 10000 0.89 123 22:32 29.10.2021
5654 Clouds 7 1013 83 10000 2.82 160 20:46 29.10.2021
5655 Clouds 7 1013 82 10000 2.25 169 20:24 29.10.2021
5656 Clouds 10 1014 66 10000 1.94 171 18:36 29.10.2021
5657 Clouds 12 1013 58 10000 0.76 111 16:54 29.10.2021
5658 Clouds 14 1013 37 10000 0.45 8 15:21 29.10.2021
5659 Clouds 13 1014 31 10000 0.45 151 12:24 29.10.2021
5660 Clouds 11 1015 35 10000 0.45 147 10:46 29.10.2021
5661 Clouds 3 1015 51 10000 2.92 165 08:41 29.10.2021
5662 Clear 3 1018 48 10000 2.96 162 00:37 29.10.2021
5663 Clear 4 1019 84 10000 2.68 160 23:27 28.10.2021
5664 Clear 6 1021 67 10000 0.89 159 22:18 28.10.2021
5665 Clear 6 1022 72 10000 0.45 141 20:54 28.10.2021
5666 Clear 7 1020 68 10000 0.45 122 19:51 28.10.2021
5667 Clear 10 1019 60 10000 0.89 226 18:27 28.10.2021
5668 Clear 14 1019 45 10000 0.45 294 17:19 28.10.2021
5669 Clear 15 1018 40 10000 0.89 335 16:19 28.10.2021
5670 Clear 15 1019 38 10000 1.79 323 14:25 28.10.2021
5671 Clear 15 1020 32 10000 0.89 36 13:29 28.10.2021
5672 Clear 13 1021 37 10000 0.89 176 12:41 28.10.2021
5673 Clear 8 1020 36 10000 0.26 237 10:57 28.10.2021
5674 Clear 7 1025 40 10000 0.45 152 09:39 28.10.2021
5675 Clear 6 1025 40 10000 0.45 152 09:20 28.10.2021
5676 Clear 7 1025 40 10000 0.45 150 08:35 28.10.2021
5677 Clear 2 1022 51 10000 2.27 169 07:40 28.10.2021
5678 Clear 3 1024 53 10000 2.46 164 00:21 28.10.2021
5679 Clear 4 1024 89 10000 2.36 164 22:31 27.10.2021
5680 Clear 5 1024 80 10000 0.45 198 21:34 27.10.2021
5681 Clear 6 1025 81 10000 0.45 198 20:53 27.10.2021
5682 Clear 6 1025 80 10000 0.45 223 20:34 27.10.2021
5683 Clear 7 1025 80 10000 0.45 204 19:41 27.10.2021
5684 Clear 8 1024 76 10000 0.45 204 18:53 27.10.2021
5685 Clear 14 1023 56 10000 0.89 296 16:32 27.10.2021
5686 Clear 14 1023 57 10000 0.89 326 15:34 27.10.2021
5687 Clear 13 1024 57 10000 2.68 10 14:42 27.10.2021
5688 Clouds 11 1025 59 10000 0.45 96 12:33 27.10.2021
5689 Clouds 9 1025 46 10000 0.78 79 10:58 27.10.2021
5690 Clouds 6 1031 64 10000 0.89 164 09:51 27.10.2021
5691 Clouds 4 1031 65 10000 0.45 151 08:36 27.10.2021
5692 Clouds 3 1030 66 10000 0.45 150 07:31 27.10.2021
5693 Clouds 4 1028 86 10000 0.45 148 02:30 27.10.2021
5694 Clouds 4 1028 85 10000 0.45 205 00:57 27.10.2021
5695 Clouds 5 1028 84 10000 0.45 201 00:28 27.10.2021
5696 Clouds 5 1028 84 10000 0.45 201 00:28 27.10.2021
5697 Clouds 5 1027 83 10000 0.89 160 23:41 26.10.2021
5698 Clouds 6 1025 86 10000 0.89 113 22:39 26.10.2021
5699 Clouds 7 1027 81 10000 0.89 113 21:59 26.10.2021
5700 Clouds 7 1027 83 10000 0.89 167 20:40 26.10.2021
5701 Clouds 8 1026 80 10000 0.45 283 19:30 26.10.2021
5702 Clouds 8 1026 80 10000 0.45 283 19:30 26.10.2021
5703 Clouds 8 1028 78 10000 0.89 173 18:41 26.10.2021
5704 Clouds 11 1025 66 10000 0.89 19 16:28 26.10.2021
5705 Clouds 11 1025 71 10000 0.45 120 14:30 26.10.2021
5706 Clouds 7 1026 88 10000 0.45 222 11:34 26.10.2021
5707 Clouds 7 1026 83 10000 0.98 304 10:20 26.10.2021
5708 Clouds 5 1022 83 10000 0.45 177 07:25 26.10.2021
5709 Clouds 4 1022 87 10000 0.45 177 06:40 26.10.2021
5710 Clouds 5 1023 79 10000 0.89 108 23:50 25.10.2021
5711 Clouds 5 1023 75 10000 0.45 177 22:53 25.10.2021
5712 Clouds 5 1023 77 10000 0.45 216 22:18 25.10.2021
5713 Clouds 5 1023 77 10000 0.45 123 21:38 25.10.2021
5714 Clouds 7 1022 72 10000 0.45 188 19:50 25.10.2021
5715 Clouds 7 1022 69 10000 0.45 188 19:25 25.10.2021
5716 Clouds 8 1022 65 10000 0.45 183 18:53 25.10.2021
5717 Clouds 9 1024 61 10000 0.45 153 17:48 25.10.2021
5718 Clouds 11 1020 59 10000 0.89 332 15:41 25.10.2021
5719 Rain 10 1020 43 10000 1.16 343 13:56 25.10.2021
5720 Rain 8 1021 41 10000 0.92 317 12:22 25.10.2021
5721 Clouds 9 1025 38 10000 0.89 182 10:18 25.10.2021
5722 Clouds 3 1022 53 10000 1.2 170 07:47 25.10.2021
5723 Clouds 3 1022 52 10000 1.3 157 05:58 25.10.2021
5724 Clouds 4 1023 61 10000 1.98 169 00:53 25.10.2021
5725 Clouds 3 1023 61 10000 1.98 169 00:35 25.10.2021
5726 Clear 3 1024 63 10000 2.04 166 23:45 24.10.2021
5727 Clear 4 1023 81 10000 0.89 213 22:42 24.10.2021
5728 Clear 4 1023 81 10000 0.89 213 22:21 24.10.2021
5729 Clear 4 1024 81 10000 1.93 177 21:37 24.10.2021
5730 Clear 5 1024 76 10000 0.45 253 20:42 24.10.2021
5731 Clear 6 1024 76 10000 0.45 253 19:50 24.10.2021
5732 Clear 9 1024 56 10000 1.34 218 18:47 24.10.2021
5733 Clear 11 1026 37 10000 0.56 131 17:48 24.10.2021
5734 Clear 14 1024 39 10000 0.89 31 16:32 24.10.2021
5735 Clear 14 1025 38 10000 0.45 328 15:23 24.10.2021
5736 Clear 13 1025 36 10000 0.45 117 13:43 24.10.2021
5737 Clear 9 1023 30 10000 0.62 336 12:29 24.10.2021
5738 Clear 5 1023 30 10000 0.62 336 11:36 24.10.2021
5739 Clear 9 1028 23 10000 1.34 168 10:40 24.10.2021
5740 Clear -2 1026 40 10000 2.01 159 08:43 24.10.2021
5741 Clear 0 1026 40 10000 2.5 158 03:30 24.10.2021
5742 Clear 2 1028 85 10000 0.89 194 23:55 23.10.2021
5743 Clear 3 1029 87 10000 0.89 213 22:54 23.10.2021
5744 Clear 4 1029 85 10000 1.34 172 20:59 23.10.2021
5745 Clear 5 1029 79 10000 0.89 161 19:36 23.10.2021
5746 Clear 7 1028 69 10000 0.45 218 18:43 23.10.2021
5747 Clear 10 1025 54 10000 0.45 268 17:44 23.10.2021
5748 Clear 10 1025 57 10000 0.45 268 17:18 23.10.2021
5749 Clear 11 1025 56 10000 0.89 351 15:56 23.10.2021
5750 Clouds 10 1025 59 10000 0.89 133 13:31 23.10.2021
5751 Clouds 4 1027 84 10000 0.45 156 00:42 23.10.2021
5752 Clouds 4 1026 86 10000 0.45 17 23:35 22.10.2021
5753 Clouds 5 1025 84 10000 1.79 180 21:27 22.10.2021
5754 Clouds 7 1021 76 10000 0.89 83 19:29 22.10.2021
5755 Clouds 7 1021 74 10000 1.34 157 18:24 22.10.2021
5756 Clouds 8 1021 78 10000 0.89 164 16:27 22.10.2021
5757 Clouds 7 1020 83 10000 0.45 357 14:35 22.10.2021
5758 Clouds 7 1021 83 10000 1.72 286 12:41 22.10.2021
5759 Clouds 7 1022 74 9209 1.57 293 10:56 22.10.2021
5760 Clouds 7 1020 82 10000 0.45 85 09:57 22.10.2021
5761 Clouds 7 1019 85 10000 0.45 196 09:32 22.10.2021
5762 Clouds 7 1018 83 10000 1.69 232 07:29 22.10.2021
5763 Clouds 7 1018 84 10000 0.45 183 06:20 22.10.2021
5764 Clouds 7 1017 76 10000 0.45 150 00:37 22.10.2021
5765 Clouds 7 1017 79 10000 1.34 123 23:48 21.10.2021
5766 Clouds 7 1017 81 10000 0.89 165 22:40 21.10.2021
5767 Clouds 7 1017 80 10000 0.89 168 21:23 21.10.2021
5768 Clouds 8 1016 76 10000 0.45 249 20:21 21.10.2021
5769 Clouds 9 1016 73 10000 1.79 161 19:31 21.10.2021
5770 Clouds 9 1015 73 10000 1.79 161 18:59 21.10.2021
5771 Clouds 10 1017 71 10000 2.11 221 18:27 21.10.2021
5772 Clouds 10 1015 71 10000 1.34 74 17:47 21.10.2021
5773 Clouds 10 1015 71 10000 1.34 74 17:47 21.10.2021
5774 Clouds 11 1014 67 10000 3.58 126 16:26 21.10.2021
5775 Clouds 11 1015 65 9218 2.68 145 15:21 21.10.2021
5776 Clouds 10 1017 77 9304 3.13 178 14:50 21.10.2021
5777 Clouds 9 1018 80 8839 0.89 49 13:39 21.10.2021
5778 Clouds 11 1014 69 9676 4.47 120 11:47 21.10.2021
5779 Rain 10 1011 85 9543 1.34 135 09:24 21.10.2021
5780 Clouds 12 1009 69 10000 0.45 203 07:32 21.10.2021
5781 Clouds 12 1008 78 10000 3.72 169 05:33 21.10.2021
5782 Clouds 9 1011 81 10000 0.45 199 23:56 20.10.2021
5783 Clouds 10 1013 81 10000 0.45 210 22:22 20.10.2021
5784 Clouds 11 1014 73 10000 0.45 143 21:46 20.10.2021
5785 Clouds 11 1013 78 10000 3.08 176 20:57 20.10.2021
5786 Clouds 13 1014 69 10000 0.45 247 20:37 20.10.2021
5787 Clouds 13 1015 70 10000 0.45 247 19:59 20.10.2021
5788 Clouds 14 1015 66 10000 0.45 229 18:59 20.10.2021
5789 Clouds 16 1015 60 10000 0.89 213 18:29 20.10.2021
5790 Clouds 19 1016 43 10000 0.89 188 15:54 20.10.2021
5791 Clouds 17 1016 52 10000 1.18 293 12:50 20.10.2021
5792 Clouds 12 1019 61 10000 0.45 337 09:30 20.10.2021
5793 Clouds 8 1020 75 10000 2.81 164 05:28 20.10.2021
5794 Clouds 8 1023 78 10000 2.48 168 00:53 20.10.2021
5795 Clouds 8 1023 79 10000 2.45 168 00:27 20.10.2021
5796 Clouds 10 1023 82 10000 0.45 293 22:21 19.10.2021
5797 Clouds 12 1024 77 10000 2.65 161 21:28 19.10.2021
5798 Clouds 12 1024 74 10000 0.45 125 20:26 19.10.2021
5799 Clouds 13 1024 76 10000 2.68 99 19:46 19.10.2021
5800 Clouds 13 1024 76 10000 2.68 99 19:23 19.10.2021
5801 Clouds 13 1025 77 10000 0.89 164 18:23 19.10.2021
5802 Clouds 13 1025 77 10000 0.89 164 18:23 19.10.2021
5803 Clouds 13 1027 86 10000 3.23 167 16:24 19.10.2021
5804 Rain 13 1027 82 10000 2.91 175 15:20 19.10.2021
5805 Clouds 14 1026 55 10000 0.45 67 14:27 19.10.2021
5806 Clouds 14 1026 56 10000 1.35 182 13:43 19.10.2021
5807 Clouds 12 1027 49 10000 0.89 169 11:37 19.10.2021
5808 Clouds 12 1028 33 10000 1.09 250 10:39 19.10.2021
5809 Clouds 6 1026 49 10000 2.11 180 08:59 19.10.2021
5810 Clouds 6 1026 54 10000 2.28 176 07:56 19.10.2021
5811 Clouds 5 1026 54 10000 1.91 181 00:27 19.10.2021
5812 Clouds 6 1026 54 10000 1.91 181 23:56 18.10.2021
5813 Clouds 6 1026 53 10000 2.18 175 23:20 18.10.2021
5814 Clouds 7 1026 53 10000 2.18 175 22:54 18.10.2021
5815 Clouds 7 1026 79 10000 2.46 171 21:54 18.10.2021
5816 Clouds 8 1025 78 10000 0.45 208 20:42 18.10.2021
5817 Clouds 8 1025 77 10000 0.45 208 20:20 18.10.2021
5818 Clouds 10 1026 60 10000 1.34 217 19:30 18.10.2021
5819 Clouds 10 1025 60 10000 1.34 217 18:58 18.10.2021
5820 Clear 16 1024 38 10000 0.45 5 15:56 18.10.2021
5821 Clear 16 1024 39 10000 1.34 331 14:30 18.10.2021
5822 Clear 11 1025 51 10000 0.89 171 11:20 18.10.2021
5823 Clear 11 1027 33 10000 1.79 171 09:37 18.10.2021
5824 Clouds 4 1024 65 10000 1.41 214 05:32 18.10.2021
5825 Clouds 4 1022 89 10000 0.89 156 23:51 17.10.2021
5826 Clouds 5 1021 89 10000 0.45 281 21:58 17.10.2021
5827 Clouds 6 1021 88 10000 1.87 200 21:40 17.10.2021
5828 Clouds 7 1020 85 10000 0.45 207 20:42 17.10.2021
5829 Clouds 8 1021 77 10000 0.45 160 19:43 17.10.2021
5830 Clouds 8 1021 74 10000 0.45 160 19:25 17.10.2021
5831 Clouds 10 1022 67 10000 0.45 125 17:47 17.10.2021
5832 Clouds 14 1019 56 10000 0.89 322 15:55 17.10.2021
5833 Clouds 14 1019 54 10000 0.45 76 14:32 17.10.2021
5834 Clouds 14 1019 57 10000 0.45 76 13:56 17.10.2021
5835 Clouds 12 1020 59 10000 0.89 158 12:38 17.10.2021
5836 Clouds 8 1023 64 10000 0.89 155 10:45 17.10.2021
5837 Clouds 7 1023 65 10000 1.34 168 09:48 17.10.2021
5838 Clouds 3 1023 81 10000 0.45 148 07:42 17.10.2021
5839 Clear 5 1023 88 10000 0.45 98 00:56 17.10.2021
5840 Clear 5 1021 89 10000 0.45 98 00:24 17.10.2021
5841 Clear 5 1022 91 10000 0.45 235 22:31 16.10.2021
5842 Clear 7 1022 88 10000 0.45 156 20:35 16.10.2021
5843 Clouds 8 1021 86 10000 0.45 160 19:56 16.10.2021
5844 Clouds 8 1021 85 10000 0.45 160 19:37 16.10.2021
5845 Clouds 8 1021 84 10000 0.45 160 19:18 16.10.2021
5846 Clouds 9 1022 83 10000 0.28 72 18:42 16.10.2021
5847 Clouds 10 1022 79 10000 1.33 357 18:19 16.10.2021
5848 Clouds 13 1018 64 10000 2.24 349 17:28 16.10.2021
5849 Clouds 14 1018 61 10000 1.76 350 15:38 16.10.2021
5850 Clear 11 1020 64 10000 0.89 24 12:30 16.10.2021
5851 Clear 8 1020 71 10000 1.16 27 10:51 16.10.2021
5852 Clear 4 1024 68 10000 1.19 144 08:54 16.10.2021
5853 Clouds 5 1022 88 10000 1.03 131 01:27 16.10.2021
5854 Clouds 6 1021 80 10000 0.45 154 23:57 15.10.2021
5855 Clouds 7 1021 78 10000 0.45 154 23:25 15.10.2021
5856 Clouds 7 1021 76 10000 0.68 131 22:20 15.10.2021
5857 Clouds 8 1020 75 10000 0.68 131 21:32 15.10.2021
5858 Clouds 8 1020 71 10000 0.45 170 20:50 15.10.2021
5859 Clouds 9 1021 57 10000 0.89 174 19:38 15.10.2021
5860 Clouds 10 1020 60 10000 1.34 156 18:45 15.10.2021
5861 Clouds 12 1019 54 10000 0.98 304 17:58 15.10.2021
5862 Clouds 14 1018 45 10000 0.45 80 15:37 15.10.2021
5863 Clouds 14 1020 51 10000 0.45 23 13:34 15.10.2021
5864 Clouds 9 1022 63 10000 2.24 170 11:41 15.10.2021
5865 Clouds 8 1022 55 10000 0.89 178 10:58 15.10.2021
5866 Clouds 6 1023 59 10000 0.45 171 09:59 15.10.2021
5867 Clear 1 1021 72 10000 2.05 177 05:44 15.10.2021
5868 Clouds 1 1023 92 10000 2.37 165 01:48 15.10.2021
5869 Clouds 2 1022 90 10000 0.45 202 00:22 15.10.2021
5870 Clear 3 1025 84 10000 0.45 192 22:52 14.10.2021
5871 Clear 4 1025 83 10000 0.45 160 21:45 14.10.2021
5872 Clear 4 1026 81 10000 0.45 180 20:50 14.10.2021
5873 Clear 4 1026 81 10000 0.45 180 20:50 14.10.2021
5874 Clouds 5 1026 77 10000 0.89 174 20:19 14.10.2021
5875 Clouds 6 1027 77 10000 0.45 227 19:38 14.10.2021
5876 Clouds 11 1023 52 10000 1.79 320 17:37 14.10.2021
5877 Clouds 12 1023 53 10000 1.79 320 16:56 14.10.2021
5878 Clouds 12 1024 44 10000 1.77 23 16:21 14.10.2021
5879 Clouds 11 1025 48 10000 1.79 347 14:43 14.10.2021
5880 Clouds 11 1025 48 10000 1.79 347 14:22 14.10.2021
5881 Clouds 8 1025 60 10000 0.45 2 11:50 14.10.2021
5882 Clouds 3 1033 70 10000 0.59 141 09:57 14.10.2021
5883 Clouds -1 1029 90 10000 0.45 134 07:32 14.10.2021
5884 Clouds 1 1029 92 10000 0.45 243 01:29 14.10.2021
5885 Clouds 2 1029 93 10000 0.45 209 00:29 14.10.2021
5886 Clouds 3 1032 91 10000 2.18 174 22:29 13.10.2021
5887 Clouds 3 1031 86 10000 1.79 180 21:33 13.10.2021
5888 Clouds 3 1031 88 10000 1.71 177 20:22 13.10.2021
5889 Clouds 5 1030 85 10000 0.81 198 18:57 13.10.2021
5890 Clouds 6 1027 81 10000 0.81 198 18:35 13.10.2021
5891 Clouds 7 1025 69 10000 0.89 335 15:32 13.10.2021
5892 Clouds 7 1025 73 10000 0.45 333 14:46 13.10.2021
5893 Clouds 7 1025 74 8091 0.45 333 14:22 13.10.2021
5894 Clouds 7 1022 77 10000 0.45 75 12:22 13.10.2021
5895 Clouds 6 1025 88 10000 1.44 336 11:35 13.10.2021
5896 Clouds 3 1024 95 10000 0.45 172 08:42 13.10.2021
5897 Clouds 3 1023 95 7536 0.45 150 07:36 13.10.2021
5898 Rain 4 1021 94 56 0.89 206 02:29 13.10.2021
5899 Rain 4 1021 94 56 0.89 132 01:45 13.10.2021
5900 Rain 5 1021 94 64 0.45 169 23:30 12.10.2021
5901 Rain 5 1021 93 164 0.89 215 22:47 12.10.2021
5902 Rain 5 1020 91 99 0.89 215 21:52 12.10.2021
5903 Clouds 5 1021 89 69 1.79 139 20:41 12.10.2021
5904 Clouds 5 1021 89 68 1.79 139 20:18 12.10.2021
5905 Clouds 6 1019 88 153 1.07 245 18:36 12.10.2021
5906 Clouds 5 1021 90 138 0.45 160 17:57 12.10.2021
5907 Rain 6 1021 89 134 0.45 272 16:39 12.10.2021
5908 Clouds 6 1021 87 226 0.45 272 15:58 12.10.2021
5909 Clouds 6 1021 87 3747 1.34 128 14:45 12.10.2021
5910 Clouds 6 1022 89 2993 0.89 128 13:43 12.10.2021
5911 Rain 6 1023 89 3400 0.45 165 12:39 12.10.2021
5912 Rain 5 1023 83 10000 0.45 223 09:46 12.10.2021
5913 Clouds 3 1023 87 10000 0.45 220 08:44 12.10.2021
5914 Clouds 4 1023 86 10000 0.45 94 07:36 12.10.2021
5915 Clouds 3 1024 85 10000 0.45 242 05:31 12.10.2021
5916 Clouds 3 1025 83 10000 0.45 199 04:32 12.10.2021
5917 Clouds 4 1026 85 10000 0.89 214 00:28 12.10.2021
5918 Clouds 5 1026 82 10000 0.89 185 23:41 11.10.2021
5919 Clouds 5 1026 82 10000 0.45 172 22:57 11.10.2021
5920 Clouds 6 1029 78 10000 1.34 185 21:46 11.10.2021
5921 Clouds 6 1026 78 10000 0.45 216 20:47 11.10.2021
5922 Clouds 6 1029 69 10000 0.81 205 19:45 11.10.2021
5923 Clouds 9 1025 58 10000 0.89 328 18:42 11.10.2021
5924 Clouds 11 1023 53 10000 0.89 328 17:49 11.10.2021
5925 Clouds 12 1022 48 10000 0.89 12 16:39 11.10.2021
5926 Clouds 12 1022 47 10000 0.89 12 15:51 11.10.2021
5927 Clouds 12 1023 48 10000 1.34 354 14:55 11.10.2021
5928 Clouds 12 1023 49 10000 2.36 337 14:33 11.10.2021
5929 Clouds 11 1024 52 10000 1.91 347 13:36 11.10.2021
5930 Clear 7 1023 40 10000 1.94 335 11:39 11.10.2021
5931 Clear 6 1028 45 10000 1.28 327 10:31 11.10.2021
5932 Clear 4 1030 50 10000 1.34 159 09:22 11.10.2021
5933 Clear 1 1030 75 10000 0.45 176 06:30 11.10.2021
5934 Clear 2 1027 87 10000 0.45 214 01:38 11.10.2021
5935 Clear 2 1028 92 10000 0.45 196 00:46 11.10.2021
5936 Clear 2 1028 91 10000 0.45 151 23:57 10.10.2021
5937 Clear 3 1028 90 10000 0.45 264 21:52 10.10.2021
5938 Clear 4 1028 89 10000 0.89 116 21:31 10.10.2021
5939 Clear 4 1030 89 10000 1.34 150 20:43 10.10.2021
5940 Clear 5 1030 89 10000 0.56 131 20:21 10.10.2021
5941 Clear 5 1030 90 10000 0.56 131 19:58 10.10.2021
5942 Clear 5 1030 94 10000 0.56 131 19:35 10.10.2021
5943 Clear 8 1024 72 10000 0.45 349 18:33 10.10.2021
5944 Clear 9 1023 72 10000 0.89 28 16:45 10.10.2021
5945 Clear 8 1022 77 10000 2.56 4 15:42 10.10.2021
5946 Clear 7 1022 46 10000 2.63 358 13:43 10.10.2021
5947 Clear 7 1022 47 10000 2.53 2 12:51 10.10.2021
5948 Clear 8 1022 47 10000 2.53 2 12:33 10.10.2021
5949 Clear 5 1023 56 10000 1.92 4 10:43 10.10.2021
5950 Clear 4 1029 86 10000 0.89 169 09:29 10.10.2021
5951 Clear 3 1029 86 10000 0.89 162 08:53 10.10.2021
5952 Clear 2 1025 91 10000 0.45 345 06:54 10.10.2021
5953 Clear 3 1027 94 10000 0.45 131 02:38 10.10.2021
5954 Clear 4 1027 93 10000 0.45 173 00:55 10.10.2021
5955 Clear 5 1027 91 10000 0.89 167 23:52 09.10.2021
5956 Clear 5 1026 90 10000 0.45 4 22:45 09.10.2021
5957 Clear 5 1029 91 10000 1.84 128 21:38 09.10.2021
5958 Clear 6 1029 91 10000 1.92 121 21:19 09.10.2021
5959 Clear 7 1029 88 10000 0.45 85 19:43 09.10.2021
5960 Clear 9 1025 91 10000 1.81 79 18:57 09.10.2021
5961 Clear 10 1023 71 10000 1.79 2 18:32 09.10.2021
5962 Clear 12 1023 70 10000 2.24 35 16:28 09.10.2021
5963 Clear 12 1023 70 10000 2.24 35 16:28 09.10.2021
5964 Clear 12 1023 70 10000 2.24 35 16:28 09.10.2021
5965 Clear 13 1023 69 10000 1.34 19 14:57 09.10.2021
5966 Clear 13 1021 47 10000 3.05 26 13:41 09.10.2021
5967 Clear 11 1022 48 10000 2.65 26 12:38 09.10.2021
5968 Clear 10 1022 51 10000 2.32 31 11:43 09.10.2021
5969 Clear 9 1022 55 10000 1.86 35 10:41 09.10.2021
5970 Clear 6 1023 91 10000 1.34 139 09:35 09.10.2021
5971 Clear 4 1026 94 10000 0.45 225 08:28 09.10.2021
5972 Clear 4 1025 93 10000 0.45 158 07:37 09.10.2021
5973 Clear 4 1024 93 10000 0.45 110 05:28 09.10.2021
5974 Clear 4 1025 94 10000 0.45 249 02:49 09.10.2021
5975 Clear 5 1025 94 10000 0.89 170 00:58 09.10.2021
5976 Clear 6 1026 91 10000 0.89 189 23:36 08.10.2021
5977 Clear 6 1026 90 10000 2.02 137 22:53 08.10.2021
5978 Clear 7 1026 88 10000 0.45 129 21:48 08.10.2021
5979 Clouds 8 1025 85 10000 1.93 121 20:36 08.10.2021
5980 Clouds 10 1025 75 10000 0.45 355 18:50 08.10.2021
5981 Clouds 12 1024 72 10000 2.24 336 17:27 08.10.2021
5982 Clouds 13 1024 72 10000 0.89 279 16:48 08.10.2021
5983 Clouds 13 1024 71 10000 0.89 279 16:22 08.10.2021
5984 Clouds 13 1023 70 10000 0.45 276 13:50 08.10.2021
5985 Clouds 11 1024 77 10000 2.36 66 12:41 08.10.2021
5986 Clouds 9 1024 85 10000 0.45 85 10:59 08.10.2021
5987 Clouds 9 1024 86 10000 0.45 199 10:32 08.10.2021
5988 Clouds 5 1027 94 10000 0.45 226 06:53 08.10.2021
5989 Clouds 6 1027 92 10000 1.67 96 23:31 07.10.2021
5990 Clouds 6 1027 89 10000 1.66 87 22:57 07.10.2021
5991 Clouds 7 1027 87 10000 1.79 24 21:33 07.10.2021
5992 Clouds 7 1027 86 10000 0.89 336 20:49 07.10.2021
5993 Clouds 7 1027 82 10000 0.45 1 19:39 07.10.2021
5994 Clouds 8 1024 75 10000 1.92 54 18:59 07.10.2021
5995 Clouds 9 1026 80 10000 3.58 343 17:38 07.10.2021
5996 Clouds 10 1024 69 10000 2.24 317 16:42 07.10.2021
5997 Clouds 9 1026 83 10000 1.79 346 14:58 07.10.2021
5998 Clouds 9 1024 82 10000 1.34 339 13:44 07.10.2021
5999 Clouds 9 1024 82 217 1.34 339 13:20 07.10.2021
6000 Clouds 9 1024 82 217 1.34 339 13:20 07.10.2021
6001 Clouds 8 1025 87 117 1.79 351 11:49 07.10.2021
6002 Clouds 7 1027 93 104 0.45 16 10:48 07.10.2021
6003 Clouds 6 1027 93 182 0.45 16 10:19 07.10.2021
6004 Clouds 6 1027 94 208 1.02 35 08:55 07.10.2021
6005 Clouds 6 1027 94 319 0.89 29 08:25 07.10.2021
6006 Clouds 6 1027 94 319 0.45 208 07:40 07.10.2021
6007 Clouds 5 1027 95 391 0.52 37 06:48 07.10.2021
6008 Clouds 5 1027 92 10000 0.89 191 02:21 07.10.2021
6009 Clouds 6 1027 89 10000 0.89 176 23:35 06.10.2021
6010 Clouds 6 1030 93 10000 0.45 103 22:41 06.10.2021
6011 Rain 6 1026 89 10000 0.45 159 21:41 06.10.2021
6012 Clouds 7 1028 86 10000 0.45 165 20:34 06.10.2021
6013 Clouds 6 1027 90 10000 0.45 172 19:28 06.10.2021
6014 Clouds 8 1024 80 10000 0.45 150 18:20 06.10.2021
6015 Clouds 10 1021 65 10000 1.68 300 16:44 06.10.2021
6016 Clouds 8 1021 75 10000 0.89 117 15:24 06.10.2021
6017 Clouds 8 1023 80 10000 0.89 145 13:31 06.10.2021
6018 Clouds 9 1021 81 10000 0.89 145 12:53 06.10.2021
6019 Rain 7 1023 91 10000 2.24 158 12:29 06.10.2021
6020 Rain 7 1023 92 10000 0.89 143 11:39 06.10.2021
6021 Rain 6 1022 94 149 0.89 173 09:45 06.10.2021
6022 Rain 6 1022 94 134 0.89 173 09:26 06.10.2021
6023 Rain 6 1021 93 134 0.45 209 08:39 06.10.2021
6024 Rain 6 1020 90 3085 0.45 198 06:18 06.10.2021
6025 Rain 7 1020 87 2757 0.45 210 04:24 06.10.2021
6026 Rain 7 1020 87 2757 0.45 210 04:24 06.10.2021
6027 Rain 9 1016 95 4154 1.79 164 00:24 06.10.2021
6028 Rain 10 1016 95 4154 1.79 164 23:51 05.10.2021
6029 Rain 10 1016 95 4154 0.45 150 23:31 05.10.2021
6030 Clouds 10 1015 95 2854 0.76 276 22:35 05.10.2021
6031 Rain 10 1015 95 2738 1.04 295 21:57 05.10.2021
6032 Rain 10 1015 95 2738 1.04 295 21:57 05.10.2021
6033 Clouds 10 1015 94 4131 1.41 315 21:29 05.10.2021
6034 Rain 10 1014 93 4131 1.41 315 20:33 05.10.2021
6035 Rain 11 1014 92 5176 1.34 175 19:51 05.10.2021
6036 Clouds 11 1014 92 6208 0.45 212 19:25 05.10.2021
6037 Clouds 11 1013 93 9897 1.34 152 18:21 05.10.2021
6038 Clouds 12 1012 82 2826 1.55 324 15:36 05.10.2021
6039 Clouds 12 1012 81 1369 1.62 306 13:52 05.10.2021
6040 Clouds 12 1012 81 6258 1.34 352 13:26 05.10.2021
6041 Clouds 12 1012 84 6258 0.89 5 12:35 05.10.2021
6042 Clouds 11 1012 86 8883 0.89 329 11:41 05.10.2021
6043 Clouds 11 1012 88 8916 0.54 289 10:37 05.10.2021
6044 Clouds 10 1012 93 2387 0.45 164 07:59 05.10.2021
6045 Clouds 10 1016 95 6105 0.45 290 01:46 05.10.2021
6046 Clouds 10 1016 95 10000 0.45 352 22:56 04.10.2021
6047 Clouds 10 1017 95 10000 0.45 64 21:38 04.10.2021
6048 Clouds 10 1019 94 108 0.45 212 18:52 04.10.2021
6049 Clouds 10 1019 93 127 0.89 308 17:29 04.10.2021
6050 Clouds 11 1019 89 136 1.58 347 15:33 04.10.2021
6051 Clouds 11 1020 89 92 0.89 356 14:46 04.10.2021
6052 Clouds 11 1020 89 859 0.89 356 14:18 04.10.2021
6053 Clouds 11 1020 94 890 0.45 164 13:31 04.10.2021
6054 Clouds 10 1020 94 888 0.45 353 12:50 04.10.2021
6055 Clouds 10 1019 92 2390 0.89 0 11:33 04.10.2021
6056 Clouds 10 1018 90 2383 0.45 219 10:45 04.10.2021
6057 Clouds 11 1017 85 2374 0.45 76 09:35 04.10.2021
6058 Clouds 10 1018 86 2108 0.89 11 07:53 04.10.2021
6059 Clouds 11 1017 84 2153 0.89 322 06:50 04.10.2021
6060 Clouds 14 1016 80 10000 0.45 50 22:51 03.10.2021
6061 Clouds 15 1015 79 10000 1.41 205 21:54 03.10.2021
6062 Clouds 16 1012 65 10000 0.89 143 21:31 03.10.2021
6063 Clouds 17 1011 60 10000 0.45 223 20:45 03.10.2021
6064 Clouds 15 1012 69 10000 2.71 178 19:46 03.10.2021
6065 Clouds 20 1008 36 10000 0.89 165 18:29 03.10.2021
6066 Clouds 20 1008 36 10000 0.89 165 18:29 03.10.2021
6067 Clouds 22 1009 34 10000 3.13 142 17:37 03.10.2021
6068 Clouds 24 1009 31 10000 2.24 150 15:29 03.10.2021
6069 Clouds 23 1008 32 10000 0.89 335 14:30 03.10.2021
6070 Clouds 22 1008 38 10000 2.85 169 13:35 03.10.2021
6071 Clouds 22 1008 35 10000 3.24 175 12:45 03.10.2021
6072 Clouds 20 1009 34 10000 3.58 176 11:19 03.10.2021
6073 Clouds 16 1010 63 10000 3.89 167 09:57 03.10.2021
6074 Clouds 11 1012 71 10000 4.03 163 05:25 03.10.2021
6075 Clouds 11 1013 89 10000 0.45 96 22:52 02.10.2021
6076 Clouds 12 1014 88 10000 0.45 260 21:49 02.10.2021
6077 Clouds 14 1014 75 10000 0.45 207 20:18 02.10.2021
6078 Clouds 15 1014 77 10000 0.45 235 18:56 02.10.2021
6079 Clouds 15 1014 77 10000 0.45 235 18:56 02.10.2021
6080 Clouds 15 1014 77 10000 0.45 235 18:56 02.10.2021
6081 Clouds 17 1014 71 10000 0.45 297 18:20 02.10.2021
6082 Clouds 20 1012 60 10000 0.43 16 17:37 02.10.2021
6083 Clouds 20 1014 58 10000 0.89 291 16:28 02.10.2021
6084 Clouds 11 1019 85 10000 1.34 173 06:47 02.10.2021
6085 Clouds 15 1025 58 10000 2.68 325 15:37 30.09.2021
6086 Clouds 14 1026 58 10000 2.24 8 13:54 30.09.2021
6087 Clouds 13 1027 59 10000 0.45 275 11:53 30.09.2021
6088 Clouds 11 1028 66 10000 0.87 354 10:52 30.09.2021
6089 Clouds 10 1028 78 10000 0.45 306 10:20 30.09.2021
6090 Clouds 7 1031 89 10000 0.45 287 08:30 30.09.2021
6091 Clouds 7 1031 88 10000 1.34 210 07:35 30.09.2021
6092 Clouds 7 1028 84 10000 1.34 134 05:23 30.09.2021
6093 Clouds 8 1029 87 9137 0.45 322 01:41 30.09.2021
6094 Clouds 8 1029 85 5744 2.68 185 00:29 30.09.2021
6095 Clouds 10 1027 88 6985 1.34 167 22:38 29.09.2021
6096 Clouds 10 1027 90 4884 1.34 142 21:27 29.09.2021
6097 Rain 11 1026 89 10000 1.79 145 20:28 29.09.2021
6098 Rain 11 1025 84 10000 1.79 145 19:54 29.09.2021
6099 Clouds 13 1023 81 10000 0.89 211 18:52 29.09.2021
6100 Clouds 14 1023 75 10000 2.24 151 17:52 29.09.2021
6101 Clouds 15 1023 68 10000 1.3 285 16:51 29.09.2021
6102 Clouds 16 1022 69 10000 0.89 202 15:58 29.09.2021
6103 Clouds 16 1022 69 10000 0.45 256 14:39 29.09.2021
6104 Clouds 15 1023 70 10000 0.45 256 13:58 29.09.2021
6105 Clouds 14 1023 73 10000 0.45 302 13:22 29.09.2021
6106 Clouds 14 1023 80 10000 1.35 255 12:35 29.09.2021
6107 Clouds 11 1024 90 10000 1.34 151 10:50 29.09.2021
6108 Rain 11 1023 89 10000 2.68 155 09:53 29.09.2021
6109 Clouds 11 1023 91 10000 0.45 243 09:34 29.09.2021
6110 Rain 11 1022 96 10000 1.04 211 07:33 29.09.2021
6111 Rain 12 1021 93 670 1.34 214 04:19 29.09.2021
6112 Clouds 12 1021 95 10000 0.89 18 23:27 28.09.2021
6113 Clouds 12 1021 94 10000 0.89 14 22:23 28.09.2021
6114 Clouds 12 1021 94 10000 0.45 333 21:44 28.09.2021
6115 Clouds 13 1021 93 10000 1.34 1 20:39 28.09.2021
6116 Clouds 13 1021 92 4542 0.45 348 19:46 28.09.2021
6117 Clouds 13 1020 89 10000 0.45 348 18:50 28.09.2021
6118 Clouds 14 1020 87 10000 0.89 330 17:59 28.09.2021
6119 Clouds 14 1021 88 10000 0.45 1 16:23 28.09.2021
6120 Clouds 14 1022 87 9600 0.45 347 13:49 28.09.2021
6121 Clouds 14 1022 87 9242 1.34 123 12:50 28.09.2021
6122 Clouds 14 1023 89 9191 0.89 207 12:21 28.09.2021
6123 Clouds 14 1023 90 9191 0.45 30 11:46 28.09.2021
6124 Clouds 13 1023 91 9189 0.45 30 11:19 28.09.2021
6125 Clouds 12 1024 94 9322 0.45 358 10:19 28.09.2021
6126 Clouds 12 1024 94 10000 0.45 316 09:00 28.09.2021
6127 Clouds 12 1025 95 10000 0.45 11 08:38 28.09.2021
6128 Clouds 12 1024 95 10000 0.89 346 07:47 28.09.2021
6129 Clouds 13 1024 91 10000 0.45 236 05:28 28.09.2021
6130 Clouds 13 1024 83 10000 0.45 126 01:24 28.09.2021
6131 Clouds 13 1023 84 10000 0.45 180 00:26 28.09.2021
6132 Clouds 14 1023 84 10000 1.02 186 23:41 27.09.2021
6133 Clouds 14 1022 83 10000 1.79 176 22:56 27.09.2021
6134 Clouds 14 1022 80 10000 1.34 181 21:55 27.09.2021
6135 Clouds 15 1021 80 10000 0.89 105 20:45 27.09.2021
6136 Clouds 16 1021 79 10000 0.89 105 19:56 27.09.2021
6137 Clouds 16 1021 78 10000 0.89 138 19:28 27.09.2021
6138 Clouds 17 1020 74 10000 0.89 138 18:50 27.09.2021
6139 Rain 18 1020 67 10000 1.34 333 17:29 27.09.2021
6140 Clouds 19 1020 66 10000 1.34 333 16:50 27.09.2021
6141 Clouds 19 1019 62 10000 0.89 318 15:45 27.09.2021
6142 Clouds 19 1019 63 10000 0.89 318 15:18 27.09.2021
6143 Clouds 19 1019 69 10000 2.22 322 13:32 27.09.2021
6144 Clouds 17 1019 73 10000 1.44 335 11:49 27.09.2021
6145 Clear 15 1020 89 10000 0.89 93 10:37 27.09.2021
6146 Clear 12 1022 76 10000 0.45 177 08:59 27.09.2021
6147 Clouds 12 1021 91 10000 0.89 164 05:22 27.09.2021
6148 Clouds 12 1022 93 10000 0.45 234 03:25 27.09.2021
6149 Rain 13 1021 95 10000 0.45 88 22:39 26.09.2021
6150 Rain 13 1021 94 10000 0.45 88 21:53 26.09.2021
6151 Rain 14 1021 94 10000 2.68 353 21:26 26.09.2021
6152 Clouds 15 1020 93 10000 0.89 149 20:23 26.09.2021
6153 Clouds 15 1020 93 10000 1.25 151 19:52 26.09.2021
6154 Rain 14 1020 90 5736 0.58 138 18:47 26.09.2021
6155 Rain 16 1020 82 295 0.45 85 17:57 26.09.2021
6156 Rain 16 1020 82 272 0.45 85 17:24 26.09.2021
6157 Clouds 17 1019 77 272 2.44 314 16:57 26.09.2021
6158 Clouds 17 1019 77 1855 1.89 315 16:20 26.09.2021
6159 Clouds 19 1019 72 7982 0.45 215 15:22 26.09.2021
6160 Clouds 19 1020 67 10000 1.88 345 13:57 26.09.2021
6161 Clouds 20 1020 64 10000 1.79 197 13:21 26.09.2021
6162 Clouds 20 1021 65 10000 1.79 313 12:25 26.09.2021
6163 Clouds 20 1019 65 10000 0.45 117 11:42 26.09.2021
6164 Clouds 19 1018 58 10000 1.34 177 10:37 26.09.2021
6165 Clouds 17 1018 59 10000 1.34 128 09:21 26.09.2021
6166 Clouds 12 1020 94 10000 2.02 148 07:56 26.09.2021
6167 Clouds 16 1020 81 10000 0.45 209 00:23 26.09.2021
6168 Clouds 16 1020 81 10000 0.45 209 00:23 26.09.2021
6169 Rain 16 1019 79 10000 1.34 180 23:33 25.09.2021
6170 Rain 17 1018 71 10000 0.45 211 22:38 25.09.2021
6171 Clouds 17 1018 74 10000 0.45 211 21:55 25.09.2021
6172 Clouds 17 1018 74 10000 0.45 201 21:33 25.09.2021
6173 Clouds 17 1018 75 10000 0.45 201 20:50 25.09.2021
6174 Clear 18 1018 69 10000 0.89 179 19:32 25.09.2021
6175 Clear 21 1018 59 10000 1.34 159 18:26 25.09.2021
6176 Clear 24 1018 49 10000 0.89 5 16:28 25.09.2021
6177 Clouds 23 1019 50 10000 1.34 318 13:58 25.09.2021
6178 Clouds 22 1019 50 10000 0.89 62 13:33 25.09.2021
6179 Clouds 20 1018 33 10000 0.43 5 12:28 25.09.2021
6180 Clouds 18 1019 49 10000 0.45 160 10:36 25.09.2021
6181 Clear 17 1019 53 10000 0.45 160 09:45 25.09.2021
6182 Clear 9 1020 58 10000 2.2 167 08:29 25.09.2021
6183 Clear 8 1019 59 10000 2.23 170 06:26 25.09.2021
6184 Clear 10 1020 93 10000 0.45 214 23:55 24.09.2021
6185 Clear 13 1020 81 10000 0.45 192 21:50 24.09.2021
6186 Clear 14 1020 75 10000 0.89 159 20:39 24.09.2021
6187 Clear 16 1019 71 10000 0.89 174 19:48 24.09.2021
6188 Clear 18 1019 64 10000 0.45 325 18:34 24.09.2021
6189 Clear 19 1018 58 10000 1.34 75 17:54 24.09.2021
6190 Clear 19 1018 58 10000 1.34 75 17:36 24.09.2021
6191 Clear 20 1018 58 10000 1.34 75 17:18 24.09.2021
6192 Clear 21 1019 46 10000 0.45 297 13:58 24.09.2021
6193 Clear 19 1020 56 10000 0.89 308 13:18 24.09.2021
6194 Clear 18 1020 57 10000 1.34 346 12:39 24.09.2021
6195 Clear 18 1020 57 10000 1.34 346 12:20 24.09.2021
6196 Clear 13 1020 50 10000 1.06 309 10:27 24.09.2021
6197 Clear 9 1020 56 10000 0.85 233 08:54 24.09.2021
6198 Clouds 7 1021 63 10000 1.88 198 07:34 24.09.2021
6199 Clouds 7 1020 67 10000 2.25 196 06:45 24.09.2021
6200 Clouds 9 1021 66 10000 2.26 198 04:54 24.09.2021
6201 Clear 9 1022 60 10000 2.12 206 23:57 23.09.2021
6202 Clear 10 1022 67 10000 2.13 206 22:22 23.09.2021
6203 Clear 10 1022 67 10000 2.13 206 21:52 23.09.2021
6204 Clear 11 1022 73 10000 2.13 207 20:34 23.09.2021
6205 Clouds 13 1021 79 10000 2.2 211 19:30 23.09.2021
6206 Clouds 15 1019 65 10000 1.71 296 17:46 23.09.2021
6207 Clouds 13 1019 38 10000 2.06 305 15:28 23.09.2021
6208 Clouds 13 1019 38 10000 2.06 305 14:59 23.09.2021
6209 Clouds 12 1020 38 10000 1.88 307 13:45 23.09.2021
6210 Clouds 12 1020 38 10000 1.88 307 13:45 23.09.2021
6211 Clouds 12 1020 39 10000 1.82 313 13:19 23.09.2021
6212 Clouds 11 1020 39 10000 1.82 313 12:48 23.09.2021
6213 Clouds 11 1020 39 10000 1.98 324 12:22 23.09.2021
6214 Clouds 9 1020 41 10000 1.06 294 11:23 23.09.2021
6215 Clouds 8 1021 45 10000 0.34 306 10:20 23.09.2021
6216 Clouds 8 1021 45 10000 0.34 306 09:51 23.09.2021
6217 Clouds 4 1022 56 10000 2.35 169 07:44 23.09.2021
6218 Clouds 6 1025 80 10000 2.19 148 01:43 23.09.2021
6219 Clouds 7 1026 85 10000 2.15 136 22:58 22.09.2021
6220 Clouds 8 1026 87 10000 2.25 129 22:28 22.09.2021
6221 Clouds 8 1026 87 10000 2.25 129 21:51 22.09.2021
6222 Clouds 8 1026 87 10000 2.25 129 21:32 22.09.2021
6223 Clouds 10 1026 88 10000 2.16 122 20:39 22.09.2021
6224 Clouds 14 1025 83 10000 1.91 73 19:28 22.09.2021
6225 Clouds 14 1025 83 10000 1.91 73 18:36 22.09.2021
6226 Clouds 15 1024 70 10000 2.27 42 17:39 22.09.2021
6227 Clouds 16 1024 53 10000 2.62 32 16:37 22.09.2021
6228 Clouds 14 1025 50 10000 2.44 30 14:55 22.09.2021
6229 Clouds 14 1026 49 10000 2.55 22 13:25 22.09.2021
6230 Clouds 14 1026 49 10000 2.55 22 13:25 22.09.2021
6231 Clouds 11 1026 53 10000 2.49 24 11:41 22.09.2021
6232 Clouds 10 1027 60 10000 1.96 35 10:37 22.09.2021
6233 Clouds 8 1028 79 10000 1.15 59 08:57 22.09.2021
6234 Clouds 7 1028 86 10000 0.75 107 07:50 22.09.2021
6235 Clouds 7 1028 90 10000 0.77 124 06:57 22.09.2021
6236 Clouds 8 1028 90 10000 0.6 115 05:51 22.09.2021
6237 Clouds 8 1027 90 10000 0.64 127 05:23 22.09.2021
6238 Clouds 8 1027 93 10000 0.77 149 03:43 22.09.2021
6239 Clouds 9 1030 94 10000 0.86 147 00:20 22.09.2021
6240 Clouds 12 1030 95 10000 1.4 152 22:43 21.09.2021
6241 Clouds 12 1030 95 10000 1.06 148 21:31 21.09.2021
6242 Clouds 12 1028 94 10000 0.77 64 19:42 21.09.2021
6243 Clouds 12 1026 88 10000 1.32 13 19:20 21.09.2021
6244 Clouds 15 1026 63 10000 1.8 359 16:59 21.09.2021
6245 Clouds 16 1025 60 10000 2.27 354 16:29 21.09.2021
6246 Clouds 16 1025 60 10000 2.27 354 15:31 21.09.2021
6247 Clouds 15 1025 62 10000 1.88 349 14:56 21.09.2021
6248 Clouds 15 1025 62 10000 1.88 349 14:56 21.09.2021
6249 Clouds 15 1025 64 10000 1.68 4 13:40 21.09.2021
6250 Clouds 15 1026 64 10000 2.15 5 13:19 21.09.2021
6251 Clouds 13 1025 72 10000 1.52 17 11:21 21.09.2021
6252 Clouds 10 1025 78 10000 1.73 6 09:54 21.09.2021
6253 Clouds 6 1025 88 10000 0.55 186 07:51 21.09.2021
6254 Clouds 7 1025 92 10000 0.92 178 06:38 21.09.2021
6255 Clouds 9 1023 95 10000 0.96 154 23:58 20.09.2021
6256 Clouds 10 1022 98 10000 0.61 96 21:58 20.09.2021
6257 Clouds 10 1022 98 10000 0.61 96 21:32 20.09.2021
6258 Clouds 10 1020 96 10000 1.05 53 20:27 20.09.2021
6259 Clouds 12 1019 82 10000 1.4 32 19:24 20.09.2021
6260 Clouds 14 1018 73 10000 1.43 25 17:39 20.09.2021
6261 Clouds 14 1017 75 10000 2.34 8 16:26 20.09.2021
6262 Clouds 14 1017 72 10000 2.34 8 15:47 20.09.2021
6263 Clouds 15 1017 72 10000 2.4 4 15:18 20.09.2021
6264 Clouds 13 1017 79 10000 1.97 17 13:42 20.09.2021
6265 Clouds 12 1017 83 10000 1.87 18 12:34 20.09.2021
6266 Clouds 11 1018 92 10000 1.38 5 11:19 20.09.2021
6267 Clouds 10 1018 94 10000 1.01 3 09:55 20.09.2021
6268 Clouds 10 1018 94 10000 1.01 3 09:34 20.09.2021
6269 Clouds 9 1018 95 10000 0.81 3 08:56 20.09.2021
6270 Clouds 9 1017 97 10000 0.29 299 06:47 20.09.2021
6271 Clouds 9 1018 94 7738 1.29 196 23:45 19.09.2021
6272 Rain 9 1018 93 7656 1.22 235 21:56 19.09.2021
6273 Clouds 9 1018 93 7656 1.22 235 21:34 19.09.2021
6274 Clouds 10 1018 92 4807 1.16 228 20:33 19.09.2021
6275 Rain 9 1015 97 3980 0.93 290 19:18 19.09.2021
6276 Rain 11 1014 90 2944 1.33 300 18:21 19.09.2021
6277 Clouds 12 1014 98 3269 1.59 307 17:22 19.09.2021
6278 Rain 12 1013 85 4595 2.03 320 15:45 19.09.2021
6279 Clouds 12 1013 82 10000 2.42 323 14:50 19.09.2021
6280 Rain 12 1012 81 10000 3.47 329 14:25 19.09.2021
6281 Clouds 12 1011 63 10000 3.55 332 12:57 19.09.2021
6282 Clouds 12 1011 63 10000 3.55 332 12:35 19.09.2021
6283 Clouds 11 1011 59 10000 2.09 339 11:25 19.09.2021
6284 Clouds 11 1011 61 10000 1.15 324 10:21 19.09.2021
6285 Clouds 11 1011 66 10000 0.96 93 09:26 19.09.2021
6286 Clouds 7 1013 95 10000 1.67 151 07:18 19.09.2021
6287 Clear 9 1014 93 10000 1.93 159 02:24 19.09.2021
6288 Clouds 10 1016 90 10000 1.87 143 23:26 18.09.2021
6289 Clouds 12 1016 86 10000 1.78 132 21:58 18.09.2021
6290 Clouds 12 1016 86 10000 1.78 132 21:58 18.09.2021
6291 Clear 13 1016 92 10000 1.5 122 20:48 18.09.2021
6292 Clouds 13 1015 91 10000 0.97 102 20:26 18.09.2021
6293 Clouds 14 1015 92 10000 1.06 106 19:37 18.09.2021
6294 Clouds 17 1014 85 10000 1.36 27 19:19 18.09.2021
6295 Clouds 18 1014 85 10000 1.36 27 18:31 18.09.2021
6296 Clouds 19 1013 60 10000 2.28 360 17:22 18.09.2021
6297 Clouds 19 1014 60 10000 2.24 351 15:45 18.09.2021
6298 Clouds 18 1014 66 10000 2.24 345 13:46 18.09.2021
6299 Clouds 18 1014 66 10000 2.05 349 13:24 18.09.2021
6300 Clouds 16 1015 76 10000 1.9 357 12:23 18.09.2021
6301 Clouds 16 1015 76 10000 1.9 357 11:34 18.09.2021
6302 Clouds 14 1015 82 10000 1.77 4 10:31 18.09.2021
6303 Clouds 11 1016 75 10000 0.31 309 09:24 18.09.2021
6304 Clouds 10 1016 86 10000 0.9 174 08:29 18.09.2021
6305 Clouds 11 1017 92 10000 1.28 184 00:55 18.09.2021
6306 Clouds 12 1017 89 10000 1.25 173 23:56 17.09.2021
6307 Clouds 12 1017 89 10000 1.25 173 23:32 17.09.2021
6308 Clouds 10 1017 96 10000 0.98 148 22:25 17.09.2021
6309 Clouds 13 1017 96 10000 0.98 148 21:45 17.09.2021
6310 Clouds 15 1016 77 10000 0.38 78 19:52 17.09.2021
6311 Clouds 16 1015 87 10000 1.06 6 18:43 17.09.2021
6312 Clouds 16 1015 73 10000 1.31 346 16:47 17.09.2021
6313 Clouds 17 1015 69 10000 1.28 348 15:25 17.09.2021
6314 Clouds 14 1016 82 10000 1.03 0 11:53 17.09.2021
6315 Clouds 12 1017 93 689 0.79 21 10:23 17.09.2021
6316 Clouds 11 1017 99 219 1.2 8 07:48 17.09.2021
6317 Clouds 11 1017 94 251 1.46 358 05:45 17.09.2021
6318 Clouds 11 1017 95 251 1.74 0 00:33 17.09.2021
6319 Clouds 14 1017 94 2300 1.45 359 22:42 16.09.2021
6320 Rain 14 1017 94 4979 0.94 0 22:23 16.09.2021
6321 Clouds 14 1017 99 4979 0.94 0 21:35 16.09.2021
6322 Rain 16 1017 99 4421 0.65 350 20:30 16.09.2021
6323 Clouds 16 1016 90 10000 0.13 69 18:52 16.09.2021
6324 Clouds 16 1016 90 10000 0.66 171 18:18 16.09.2021
6325 Clouds 17 1016 87 10000 0.81 173 16:47 16.09.2021
6326 Clouds 18 1016 84 9824 1.1 262 14:49 16.09.2021
6327 Rain 17 1017 94 10000 1.43 206 13:34 16.09.2021
6328 Rain 16 1017 95 10000 0.88 186 12:45 16.09.2021
6329 Rain 16 1018 96 10000 0.9 185 11:50 16.09.2021
6330 Rain 15 1018 96 9913 0.8 254 10:56 16.09.2021
6331 Rain 15 1017 96 10000 1.17 230 10:22 16.09.2021
6332 Rain 15 1017 96 10000 0.64 190 09:20 16.09.2021
6333 Clouds 15 1017 96 8890 0.57 244 07:52 16.09.2021
6334 Clouds 14 1017 95 9343 0.59 279 06:57 16.09.2021
6335 Clouds 14 1017 95 9343 0.59 279 06:38 16.09.2021
6336 Clouds 15 1017 95 10000 0.96 227 03:22 16.09.2021
6337 Clouds 15 1017 95 10000 1.9 191 00:49 16.09.2021
6338 Clouds 15 1017 94 10000 1.19 180 23:26 15.09.2021
6339 Clouds 15 1017 94 10000 0.96 183 22:28 15.09.2021
6340 Clouds 14 1017 94 10000 0.96 183 21:31 15.09.2021
6341 Clouds 15 1017 93 10000 0.7 170 20:34 15.09.2021
6342 Clouds 15 1017 92 10000 1.54 133 19:33 15.09.2021
6343 Rain 14 1017 90 10000 0.87 129 18:41 15.09.2021
6344 Clouds 16 1016 93 10000 0.97 360 17:39 15.09.2021
6345 Clouds 19 1016 89 10000 1.19 125 16:29 15.09.2021
6346 Clouds 19 1016 83 10000 0.74 344 14:59 15.09.2021
6347 Clouds 19 1016 83 10000 0.74 344 14:40 15.09.2021
6348 Clouds 18 1015 68 10000 1.36 335 13:45 15.09.2021
6349 Clouds 20 1015 74 10000 0.99 345 13:26 15.09.2021
6350 Rain 18 1015 60 10000 0.65 353 12:29 15.09.2021
6351 Rain 18 1015 60 10000 0.65 353 11:50 15.09.2021
6352 Rain 17 1015 83 10000 0.19 292 10:57 15.09.2021
6353 Clouds 16 1016 85 10000 1.23 186 09:59 15.09.2021
6354 Clouds 16 1016 71 10000 1.65 141 08:46 15.09.2021
6355 Clouds 14 1017 91 10000 2.35 166 06:28 15.09.2021
6356 Clouds 16 1018 84 10000 2.21 168 00:37 15.09.2021
6357 Clouds 18 1018 87 10000 2.25 147 22:22 14.09.2021
6358 Clouds 17 1018 88 10000 1.95 154 21:19 14.09.2021
6359 Clouds 19 1017 87 10000 1.54 123 19:58 14.09.2021
6360 Clouds 21 1017 86 10000 0.85 41 18:40 14.09.2021
6361 Clouds 24 1016 50 10000 2.19 360 17:29 14.09.2021
6362 Clouds 25 1016 49 10000 2.53 343 15:58 14.09.2021
6363 Clouds 25 1015 51 10000 2.36 338 14:32 14.09.2021
6364 Clouds 25 1016 50 10000 1.11 322 13:26 14.09.2021
6365 Clouds 16 1017 49 10000 0.51 173 10:57 14.09.2021
6366 Clouds 15 1017 55 10000 0.92 154 09:51 14.09.2021
6367 Clouds 15 1017 65 10000 1.55 159 09:18 14.09.2021
6368 Clouds 11 1018 74 10000 2.34 167 07:28 14.09.2021
6369 Clouds 13 1019 88 10000 2.32 171 00:56 14.09.2021
6370 Clouds 15 1019 85 10000 2.1 161 22:58 13.09.2021
6371 Clouds 15 1019 88 10000 1.82 160 22:26 13.09.2021
6372 Clouds 16 1019 79 10000 1.82 160 21:54 13.09.2021
6373 Clouds 17 1019 78 10000 1.33 152 20:58 13.09.2021
6374 Clouds 20 1017 83 10000 1.3 9 19:29 13.09.2021
6375 Clouds 20 1017 83 10000 1.3 9 18:43 13.09.2021
6376 Clouds 23 1017 51 10000 2.04 356 16:58 13.09.2021
6377 Clouds 23 1017 50 10000 1.99 355 15:39 13.09.2021
6378 Clouds 22 1017 59 10000 2.05 347 13:36 13.09.2021
6379 Clouds 20 1018 62 10000 1.28 330 11:20 13.09.2021
6380 Clouds 14 1018 70 10000 0.66 310 09:42 13.09.2021
6381 Clouds 10 1018 93 10000 1.77 172 07:28 13.09.2021
6382 Clouds 13 1019 92 10000 1.61 160 23:50 12.09.2021
6383 Clouds 15 1019 89 10000 1.16 133 22:26 12.09.2021
6384 Clouds 16 1019 87 10000 1.16 133 21:43 12.09.2021
6385 Clouds 17 1019 84 10000 0.94 98 20:40 12.09.2021
6386 Clouds 17 1018 94 10000 0.75 71 19:54 12.09.2021
6387 Clouds 17 1018 94 10000 0.75 71 19:54 12.09.2021
6388 Clouds 19 1017 92 10000 1.21 21 19:28 12.09.2021
6389 Clouds 19 1017 92 10000 1.21 21 18:31 12.09.2021
6390 Clouds 20 1017 70 10000 2.23 0 16:33 12.09.2021
6391 Clouds 19 1017 73 10000 2.27 353 14:59 12.09.2021
6392 Clouds 18 1017 59 10000 2.44 347 13:51 12.09.2021
6393 Clouds 16 1018 63 10000 1.75 2 11:47 12.09.2021
6394 Clouds 13 1019 92 10000 0.82 44 09:41 12.09.2021
6395 Clouds 11 1019 94 10000 0.49 93 08:38 12.09.2021
6396 Clear 11 1020 93 10000 1.53 159 02:56 12.09.2021
6397 Clear 14 1021 96 10000 1.07 184 23:52 11.09.2021
6398 Clear 15 1021 96 10000 1.06 186 22:25 11.09.2021
6399 Clear 16 1021 96 10000 1.06 186 21:36 11.09.2021
6400 Clouds 16 1020 93 10000 0.34 101 19:32 11.09.2021
6401 Clouds 21 1018 61 10000 1.56 4 17:52 11.09.2021
6402 Clouds 21 1018 61 10000 1.7 356 15:52 11.09.2021
6403 Clouds 19 1019 70 10000 1.95 342 13:52 11.09.2021
6404 Clouds 19 1019 70 10000 1.42 338 13:18 11.09.2021
6405 Clouds 16 1020 79 10000 0.6 318 11:20 11.09.2021
6406 Clouds 14 1020 95 10000 0.11 309 09:40 11.09.2021
6407 Clouds 13 1020 95 10000 0.99 171 07:45 11.09.2021
6408 Clouds 13 1020 95 10000 1.05 184 06:52 11.09.2021
6409 Rain 15 1020 92 8247 0.75 219 23:38 10.09.2021
6410 Rain 16 1019 86 9748 1.05 215 22:25 10.09.2021
6411 Rain 16 1019 86 9748 1.05 215 21:54 10.09.2021
6412 Clouds 16 1018 85 9121 0.45 267 20:24 10.09.2021
6413 Clouds 17 1017 81 9841 1.47 9 18:27 10.09.2021
6414 Rain 20 1017 85 10000 1.76 359 16:54 10.09.2021
6415 Clouds 22 1017 57 9874 1.77 9 14:49 10.09.2021
6416 Clouds 18 1017 61 10000 1.51 339 12:22 10.09.2021
6417 Clouds 15 1017 69 10000 0.6 204 08:48 10.09.2021
6418 Clouds 11 1018 91 10000 1.46 168 07:50 10.09.2021
6419 Clouds 13 1018 88 10000 1.4 153 02:27 10.09.2021
6420 Clouds 15 1018 82 10000 1.4 149 22:31 09.09.2021
6421 Clouds 15 1018 81 10000 1.51 145 21:45 09.09.2021
6422 Clouds 17 1017 75 10000 1.56 140 20:46 09.09.2021
6423 Clouds 18 1016 82 10000 1.13 102 19:54 09.09.2021
6424 Clouds 21 1016 76 10000 1.56 31 18:31 09.09.2021
6425 Clouds 22 1015 55 10000 1.77 1 16:40 09.09.2021
6426 Clouds 22 1015 54 10000 1.68 333 15:36 09.09.2021
6427 Clouds 18 1015 48 10000 2.19 312 12:48 09.09.2021
6428 Clouds 19 1016 65 10000 1.66 307 11:41 09.09.2021
6429 Clouds 16 1016 56 10000 1.04 218 09:50 09.09.2021
6430 Clouds 16 1017 66 10000 1.56 184 08:47 09.09.2021
6431 Clouds 13 1017 82 10000 2.51 175 06:25 09.09.2021
6432 Clouds 13 1018 88 10000 3.01 170 02:19 09.09.2021
6433 Clouds 16 1017 83 10000 2.82 171 22:40 08.09.2021
6434 Clouds 17 1017 78 10000 2.4 170 21:23 08.09.2021
6435 Clouds 18 1016 85 10000 1.88 169 19:56 08.09.2021
6436 Clouds 22 1015 80 10000 0.57 62 18:55 08.09.2021
6437 Clouds 24 1015 54 10000 1.65 358 18:28 08.09.2021
6438 Clouds 24 1015 50 10000 1.65 358 17:55 08.09.2021
6439 Clouds 24 1015 49 10000 2.21 348 16:28 08.09.2021
6440 Clouds 23 1016 51 10000 1.72 343 14:23 08.09.2021
6441 Clouds 15 1016 42 10000 1.29 341 12:43 08.09.2021
6442 Clouds 15 1017 46 10000 0.72 343 12:25 08.09.2021
6443 Clouds 19 1018 60 10000 0.11 46 11:29 08.09.2021
6444 Clouds 13 1018 51 10000 0.11 46 10:33 08.09.2021
6445 Clouds 13 1018 58 10000 0.73 155 09:59 08.09.2021
6446 Clouds 10 1019 76 10000 2.44 164 07:55 08.09.2021
6447 Clouds 9 1019 76 10000 2.44 164 07:32 08.09.2021
6448 Clouds 10 1020 91 10000 2.43 162 03:41 08.09.2021
6449 Clouds 13 1023 84 10000 1.94 150 22:35 07.09.2021
6450 Clouds 15 1023 80 10000 1.79 139 21:46 07.09.2021
6451 Clouds 17 1022 80 10000 0.94 95 19:47 07.09.2021
6452 Clouds 20 1022 74 10000 1.35 32 18:39 07.09.2021
6453 Clouds 21 1021 54 10000 2.15 9 17:47 07.09.2021
6454 Clouds 23 1021 52 10000 2.57 352 15:59 07.09.2021
6455 Clouds 23 1021 52 10000 2.57 352 15:35 07.09.2021
6456 Clouds 18 1022 43 10000 2.44 348 14:38 07.09.2021
6457 Clouds 19 1022 64 10000 2.07 346 12:38 07.09.2021
6458 Clouds 18 1023 67 10000 1.63 352 11:33 07.09.2021
6459 Clouds 14 1023 53 10000 1.24 2 10:40 07.09.2021
6460 Clouds 10 1024 78 10000 1.23 173 08:18 07.09.2021
6461 Clouds 10 1024 92 10000 1.68 175 06:44 07.09.2021
6462 Clouds 10 1024 92 10000 1.63 177 04:47 07.09.2021
6463 Clouds 11 1025 89 10000 1.8 184 02:28 07.09.2021
6464 Clear 12 1026 87 10000 1.84 168 00:23 07.09.2021
6465 Clear 13 1026 85 10000 1.84 168 23:31 06.09.2021
6466 Clear 13 1026 86 10000 1.66 158 22:53 06.09.2021
6467 Clear 13 1026 87 10000 1.32 143 22:28 06.09.2021
6468 Clear 15 1025 87 10000 1.07 129 20:37 06.09.2021
6469 Clouds 20 1023 77 10000 1.4 22 19:22 06.09.2021
6470 Clouds 21 1023 77 10000 1.4 22 18:37 06.09.2021
6471 Clouds 23 1022 45 10000 2.16 9 17:58 06.09.2021
6472 Clouds 23 1022 45 10000 2.61 7 17:24 06.09.2021
6473 Clouds 20 1022 50 10000 2.63 360 15:37 06.09.2021
6474 Clear 22 1022 56 10000 2.48 353 13:46 06.09.2021
6475 Clear 17 1022 52 10000 2.27 349 12:45 06.09.2021
6476 Clear 18 1023 67 10000 1.67 350 10:40 06.09.2021
6477 Clear 9 1023 77 10000 1.22 167 07:54 06.09.2021
6478 Clear 10 1023 83 10000 1.64 177 04:38 06.09.2021
6479 Clear 14 1023 83 10000 1.72 166 23:26 05.09.2021
6480 Clear 15 1023 80 10000 1.72 166 22:34 05.09.2021
6481 Clear 15 1023 79 10000 1.6 157 21:56 05.09.2021
6482 Clear 15 1023 86 10000 1.19 152 21:21 05.09.2021
6483 Clouds 19 1021 88 10000 0.55 80 19:48 05.09.2021
6484 Clouds 20 1020 76 10000 1.77 8 18:32 05.09.2021
6485 Clouds 23 1019 44 10000 2.61 357 16:53 05.09.2021
6486 Clear 20 1019 41 10000 2.57 349 15:21 05.09.2021
6487 Clear 21 1019 59 10000 2.22 345 12:45 05.09.2021
6488 Clear 18 1020 66 10000 1.94 342 11:44 05.09.2021
6489 Clear 18 1020 66 10000 1.49 342 10:46 05.09.2021
6490 Clear 13 1020 63 10000 0.77 346 09:42 05.09.2021
6491 Clear 11 1020 74 10000 0.34 162 08:35 05.09.2021
6492 Clear 9 1020 93 10000 1.57 172 06:33 05.09.2021
6493 Clear 12 1019 90 10000 1.63 180 00:41 05.09.2021
6494 Clear 12 1019 89 10000 1.7 177 23:59 04.09.2021
6495 Clear 14 1019 86 10000 1.73 176 23:25 04.09.2021
6496 Clear 14 1019 86 10000 1.73 176 22:35 04.09.2021
6497 Clear 14 1019 91 10000 0.9 162 21:18 04.09.2021
6498 Clouds 20 1018 90 10000 0.8 27 19:33 04.09.2021
6499 Clouds 22 1016 53 10000 2.3 355 17:25 04.09.2021
6500 Clouds 22 1016 47 10000 2.49 351 14:37 04.09.2021
6501 Clouds 19 1017 55 10000 2.04 343 11:54 04.09.2021
6502 Clouds 18 1017 55 10000 1.75 338 10:55 04.09.2021
6503 Clouds 10 1018 78 10000 1.23 189 08:18 04.09.2021
6504 Clear 11 1019 89 10000 1.8 182 00:50 04.09.2021
6505 Clear 12 1019 88 10000 1.73 177 00:19 04.09.2021
6506 Clear 12 1020 87 10000 1.62 171 23:21 03.09.2021
6507 Clear 15 1020 81 10000 1.32 164 21:43 03.09.2021
6508 Clear 15 1020 91 10000 0.82 141 20:58 03.09.2021
6509 Clouds 17 1019 89 10000 0.82 44 20:28 03.09.2021
6510 Clouds 18 1019 91 10000 0.88 22 19:38 03.09.2021
6511 Clouds 22 1018 48 10000 2.01 345 18:27 03.09.2021
6512 Clouds 22 1018 51 10000 2.33 345 17:21 03.09.2021
6513 Clouds 22 1018 52 10000 2.45 342 15:42 03.09.2021
6514 Clouds 22 1018 62 10000 2.58 340 14:40 03.09.2021
6515 Clear 19 1020 73 10000 1.72 338 11:21 03.09.2021
6516 Clear 12 1020 60 10000 1.22 327 09:55 03.09.2021
6517 Clear 11 1021 78 10000 1.28 181 08:18 03.09.2021
6518 Clear 10 1021 83 10000 1.56 178 06:49 03.09.2021
6519 Clear 12 1023 83 10000 2.02 170 23:56 02.09.2021
6520 Clear 13 1023 87 10000 1.78 151 22:21 02.09.2021
6521 Clear 14 1023 89 10000 1.64 134 20:46 02.09.2021
6522 Clear 20 1022 62 10000 1.64 37 18:49 02.09.2021
6523 Clear 21 1021 59 10000 2.66 8 16:39 02.09.2021
6524 Clear 21 1021 61 10000 2.79 2 15:30 02.09.2021
6525 Clear 19 1022 70 10000 2.61 1 13:33 02.09.2021
6526 Clear 13 1023 47 10000 2.11 0 11:43 02.09.2021
6527 Clear 12 1023 49 10000 1.71 1 10:53 02.09.2021
6528 Clear 10 1024 58 10000 0.35 134 08:57 02.09.2021
6529 Clear 6 1024 95 10000 1.56 158 07:28 02.09.2021
6530 Clear 6 1024 94 10000 1.6 157 05:32 02.09.2021
6531 Clear 8 1025 93 10000 1.86 154 02:37 02.09.2021
6532 Clouds 9 1025 93 10000 1.79 151 01:49 02.09.2021
6533 Clouds 10 1026 90 10000 1.74 146 23:41 01.09.2021
6534 Clouds 11 1026 87 10000 1.77 143 22:44 01.09.2021
6535 Clouds 11 1026 87 10000 1.77 143 22:44 01.09.2021
6536 Clouds 12 1026 84 10000 1.69 131 21:58 01.09.2021
6537 Clouds 13 1025 92 10000 1.51 109 21:29 01.09.2021
6538 Clear 17 1024 90 10000 1.29 70 19:33 01.09.2021
6539 Clear 18 1023 61 10000 2.59 19 17:51 01.09.2021
6540 Clear 19 1023 58 10000 2.9 19 16:58 01.09.2021
6541 Clear 19 1023 58 10000 2.9 19 16:35 01.09.2021
6542 Clear 18 1022 60 10000 2.67 27 13:57 01.09.2021
6543 Clear 15 1023 55 10000 2.41 39 11:47 01.09.2021
6544 Clear 11 1025 67 10000 1.7 60 09:49 01.09.2021
6545 Clouds 8 1025 87 10000 1.5 123 08:19 01.09.2021
6546 Clouds 8 1025 95 10000 1.68 128 06:42 01.09.2021
6547 Clouds 11 1025 94 10000 1.16 77 23:30 31.08.2021
6548 Clouds 12 1024 93 10000 1.02 69 21:57 31.08.2021
6549 Clouds 13 1023 91 10000 1.37 22 19:49 31.08.2021
6550 Clouds 14 1023 94 10000 1.48 7 18:59 31.08.2021
6551 Clouds 13 1022 92 10000 1.76 4 17:40 31.08.2021
6552 Clouds 13 1022 92 10000 2.31 1 17:21 31.08.2021
6553 Clouds 13 1021 90 10000 2.4 1 16:28 31.08.2021
6554 Clouds 15 1021 77 10000 2.36 8 15:25 31.08.2021
6555 Clouds 15 1021 92 10000 0.67 44 11:46 31.08.2021
6556 Clouds 12 1021 95 10000 1.36 10 11:18 31.08.2021
6557 Clouds 11 1021 95 10000 1.36 10 10:42 31.08.2021
6558 Clouds 11 1021 95 10000 1.55 1 09:41 31.08.2021
6559 Clouds 10 1020 95 10000 0.45 252 07:39 31.08.2021
6560 Clouds 10 1020 95 10000 0.69 260 05:56 31.08.2021
6561 Rain 11 1019 95 10000 1.31 252 23:36 30.08.2021
6562 Rain 11 1019 95 10000 1.42 224 22:30 30.08.2021
6563 Rain 11 1019 95 10000 1.42 224 21:35 30.08.2021
6564 Rain 11 1019 95 10000 1.65 201 20:40 30.08.2021
6565 Rain 11 1018 94 10000 1.36 225 19:32 30.08.2021
6566 Rain 12 1017 94 10000 1.38 223 18:58 30.08.2021
6567 Rain 12 1018 94 10000 1.63 212 17:49 30.08.2021
6568 Rain 13 1018 93 10000 1.36 241 16:26 30.08.2021
6569 Rain 12 1018 93 10000 1.36 241 15:40 30.08.2021
6570 Clouds 12 1017 94 10000 1.56 232 13:51 30.08.2021
6571 Rain 12 1017 95 7875 1.32 238 12:49 30.08.2021
6572 Rain 11 1016 95 8253 1.39 251 10:42 30.08.2021
6573 Rain 9 1017 95 10000 2.07 209 03:24 30.08.2021
6574 Rain 10 1018 95 5113 1.99 192 21:33 29.08.2021
6575 Rain 10 1018 94 4470 1.8 204 20:45 29.08.2021
6576 Rain 11 1018 93 5115 1.45 243 19:26 29.08.2021
6577 Rain 11 1017 91 7678 1.6 224 17:58 29.08.2021
6578 Clouds 11 1018 88 10000 2.27 211 15:50 29.08.2021
6579 Clouds 12 1018 96 6121 2.04 199 14:25 29.08.2021
6580 Rain 12 1018 97 6622 2.2 203 13:44 29.08.2021
6581 Rain 10 1018 94 4753 1.61 206 12:41 29.08.2021
6582 Rain 10 1017 95 2895 1.19 254 11:51 29.08.2021
6583 Rain 9 1017 95 6917 1.26 244 11:28 29.08.2021
6584 Rain 9 1017 95 6917 1.26 244 10:46 29.08.2021
6585 Rain 9 1017 95 7650 1.14 265 10:27 29.08.2021
6586 Rain 9 1017 95 10000 1.11 280 09:21 29.08.2021
6587 Clouds 9 1019 93 10000 1.13 238 00:40 29.08.2021
6588 Rain 10 1019 97 10000 0.99 261 21:58 28.08.2021
6589 Clouds 9 1019 93 10000 0.97 272 20:29 28.08.2021
6590 Rain 10 1018 92 8762 1.29 266 18:43 28.08.2021
6591 Rain 10 1017 92 9771 1.17 267 18:20 28.08.2021
6592 Rain 10 1017 91 6015 1.23 284 17:20 28.08.2021
6593 Rain 10 1017 92 8020 1.6 305 15:57 28.08.2021
6594 Rain 10 1016 92 8838 1.69 314 14:42 28.08.2021
6595 Rain 10 1017 90 10000 1.21 324 13:46 28.08.2021
6596 Clouds 11 1017 88 10000 1.2 322 12:44 28.08.2021
6597 Clouds 11 1017 90 10000 1.22 311 11:55 28.08.2021
6598 Rain 11 1018 92 10000 1.12 295 10:42 28.08.2021
6599 Rain 10 1017 92 10000 1.1 298 08:41 28.08.2021
6600 Clouds 9 1018 92 10000 1.33 217 07:24 28.08.2021
6601 Clouds 11 1018 88 10000 0.63 249 22:30 27.08.2021
6602 Clouds 12 1018 94 10000 0.59 240 20:59 27.08.2021
6603 Clouds 13 1018 94 10000 0.59 240 20:30 27.08.2021
6604 Clouds 14 1016 76 10000 1.71 316 18:58 27.08.2021
6605 Clouds 14 1016 76 10000 1.71 316 18:37 27.08.2021
6606 Clouds 13 1015 78 10000 2.31 321 17:18 27.08.2021
6607 Clouds 13 1015 66 10000 2.44 316 15:46 27.08.2021
6608 Clouds 14 1015 73 10000 2.31 313 14:43 27.08.2021
6609 Clouds 13 1015 84 10000 2.09 320 12:33 27.08.2021
6610 Clouds 15 1016 79 10000 1.98 303 11:25 27.08.2021
6611 Clouds 13 1016 79 10000 1.98 303 10:43 27.08.2021
6612 Clouds 12 1016 84 10000 1.6 291 09:31 27.08.2021
6613 Clouds 10 1015 92 10000 1.45 298 08:44 27.08.2021
6614 Clouds 10 1015 91 10000 1.07 275 05:54 27.08.2021
6615 Clouds 10 1015 91 10000 1.26 272 03:48 27.08.2021
6616 Clouds 13 1016 97 10000 1.3 266 00:32 27.08.2021
6617 Clouds 12 1015 89 10000 1.43 286 22:41 26.08.2021
6618 Clouds 12 1015 89 8569 1.5 284 22:18 26.08.2021
6619 Clouds 13 1014 89 327 1.49 304 20:31 26.08.2021
6620 Clouds 13 1013 86 1393 1.84 291 18:49 26.08.2021
6621 Clouds 16 1014 98 6686 1.71 306 17:44 26.08.2021
6622 Clouds 16 1013 95 10000 2.34 311 16:32 26.08.2021
6623 Clouds 17 1013 66 10000 2.25 300 15:54 26.08.2021
6624 Clouds 19 1011 61 10000 4.87 287 13:33 26.08.2021
6625 Clouds 18 1012 63 10000 4.08 287 12:49 26.08.2021
6626 Clouds 20 1012 54 10000 3.26 289 11:56 26.08.2021
6627 Clouds 13 1013 89 10000 2.09 271 09:43 26.08.2021
6628 Clear 12 1014 78 10000 1.82 277 08:33 26.08.2021
6629 Clouds 11 1017 91 10000 2.15 200 01:30 26.08.2021
6630 Clouds 12 1018 95 10000 1.37 205 22:47 25.08.2021
6631 Clouds 12 1018 95 10000 1.09 190 22:28 25.08.2021
6632 Clouds 13 1018 94 10000 0.58 149 20:58 25.08.2021
6633 Clouds 14 1017 90 10000 1.28 19 20:31 25.08.2021
6634 Clouds 16 1017 85 10000 1.27 20 19:55 25.08.2021
6635 Clouds 18 1016 66 10000 2.2 5 18:18 25.08.2021
6636 Clouds 19 1016 65 10000 2.7 3 16:31 25.08.2021
6637 Clouds 19 1016 67 10000 3.15 1 15:41 25.08.2021
6638 Clouds 18 1016 68 10000 3.2 358 14:47 25.08.2021
6639 Clear 17 1016 70 10000 2.98 356 13:58 25.08.2021
6640 Clear 20 1017 55 10000 2.77 360 12:53 25.08.2021
6641 Clear 15 1018 79 10000 1.9 20 11:25 25.08.2021
6642 Clear 14 1018 81 10000 1.62 41 10:26 25.08.2021
6643 Clear 14 1018 84 10000 1.62 41 09:42 25.08.2021
6644 Clear 12 1019 92 10000 1.26 78 08:39 25.08.2021
6645 Clear 10 1020 93 10000 1.27 110 07:32 25.08.2021
6646 Clouds 12 1021 97 10000 1.88 110 01:26 25.08.2021
6647 Clouds 12 1021 86 10000 1.83 108 23:40 24.08.2021
6648 Clouds 14 1021 94 10000 1.93 101 21:41 24.08.2021
6649 Clouds 15 1021 73 10000 2.44 66 20:23 24.08.2021
6650 Clouds 16 1020 68 10000 2.54 67 19:44 24.08.2021
6651<